<?xml version="1.0" encoding="UTF-8" standalone="no" ?>
<gpx xmlns="http://www.topografix.com/GPX/1/1" xmlns:xsi="http://www.w3.org/2001/XMLSchema-instance" xsi:schemaLocation="http://www.topografix.com/GPX/1/1 http://www.topografix.com/GPX/1/1/gpx.xsd" version="1.1" creator="VisuGPX - https://www.visugpx.com">
  <metadata>
    <name>Pic de nore</name>
    <desc><![CDATA[Aller retour Pic de Nore. Départ route des usines.]]></desc>
  </metadata>
  <trk>
    <name><![CDATA[2018-04-22-08-21-04 on GPSies.com]]></name>
    <trkseg>
      <trkpt lat="43.46857" lon="2.39161">
        <ele>423</ele>
        <time>2018-04-22T08:21:04Z</time>
      </trkpt>
      <trkpt lat="43.46857" lon="2.39161">
        <ele>423</ele>
        <time>2018-04-22T08:21:08Z</time>
      </trkpt>
      <trkpt lat="43.46856" lon="2.39156">
        <ele>424</ele>
        <time>2018-04-22T08:21:12Z</time>
      </trkpt>
      <trkpt lat="43.46856" lon="2.39153">
        <ele>424</ele>
        <time>2018-04-22T08:21:14Z</time>
      </trkpt>
      <trkpt lat="43.46854" lon="2.3915">
        <ele>424</ele>
        <time>2018-04-22T08:21:16Z</time>
      </trkpt>
      <trkpt lat="43.4685" lon="2.39144">
        <ele>424</ele>
        <time>2018-04-22T08:21:19Z</time>
      </trkpt>
      <trkpt lat="43.46848" lon="2.39143">
        <ele>424</ele>
        <time>2018-04-22T08:21:20Z</time>
      </trkpt>
      <trkpt lat="43.46847" lon="2.39141">
        <ele>424</ele>
        <time>2018-04-22T08:21:21Z</time>
      </trkpt>
      <trkpt lat="43.46835" lon="2.39133">
        <ele>425</ele>
        <time>2018-04-22T08:21:27Z</time>
      </trkpt>
      <trkpt lat="43.46831" lon="2.3913">
        <ele>426</ele>
        <time>2018-04-22T08:21:29Z</time>
      </trkpt>
      <trkpt lat="43.46827" lon="2.39127">
        <ele>426</ele>
        <time>2018-04-22T08:21:31Z</time>
      </trkpt>
      <trkpt lat="43.46818" lon="2.39122">
        <ele>427</ele>
        <time>2018-04-22T08:21:35Z</time>
      </trkpt>
      <trkpt lat="43.46814" lon="2.3912">
        <ele>427</ele>
        <time>2018-04-22T08:21:37Z</time>
      </trkpt>
      <trkpt lat="43.46804" lon="2.39117">
        <ele>427</ele>
        <time>2018-04-22T08:21:41Z</time>
      </trkpt>
      <trkpt lat="43.46797" lon="2.39116">
        <ele>428</ele>
        <time>2018-04-22T08:21:44Z</time>
      </trkpt>
      <trkpt lat="43.46793" lon="2.39116">
        <ele>428</ele>
        <time>2018-04-22T08:21:46Z</time>
      </trkpt>
      <trkpt lat="43.46783" lon="2.39112">
        <ele>428</ele>
        <time>2018-04-22T08:21:50Z</time>
      </trkpt>
      <trkpt lat="43.46768" lon="2.39109">
        <ele>428</ele>
        <time>2018-04-22T08:21:55Z</time>
      </trkpt>
      <trkpt lat="43.46764" lon="2.3911">
        <ele>428</ele>
        <time>2018-04-22T08:21:56Z</time>
      </trkpt>
      <trkpt lat="43.46744" lon="2.39108">
        <ele>428</ele>
        <time>2018-04-22T08:22:03Z</time>
      </trkpt>
      <trkpt lat="43.4673" lon="2.39113">
        <ele>428</ele>
        <time>2018-04-22T08:22:07Z</time>
      </trkpt>
      <trkpt lat="43.46725" lon="2.39117">
        <ele>429</ele>
        <time>2018-04-22T08:22:09Z</time>
      </trkpt>
      <trkpt lat="43.46712" lon="2.39122">
        <ele>429</ele>
        <time>2018-04-22T08:22:12Z</time>
      </trkpt>
      <trkpt lat="43.4669" lon="2.39121">
        <ele>430</ele>
        <time>2018-04-22T08:22:17Z</time>
      </trkpt>
      <trkpt lat="43.46674" lon="2.39112">
        <ele>430</ele>
        <time>2018-04-22T08:22:21Z</time>
      </trkpt>
      <trkpt lat="43.46667" lon="2.39106">
        <ele>430</ele>
        <time>2018-04-22T08:22:23Z</time>
      </trkpt>
      <trkpt lat="43.46652" lon="2.39091">
        <ele>431</ele>
        <time>2018-04-22T08:22:28Z</time>
      </trkpt>
      <trkpt lat="43.46645" lon="2.39086">
        <ele>431</ele>
        <time>2018-04-22T08:22:30Z</time>
      </trkpt>
      <trkpt lat="43.46632" lon="2.39074">
        <ele>432</ele>
        <time>2018-04-22T08:22:34Z</time>
      </trkpt>
      <trkpt lat="43.46626" lon="2.39068">
        <ele>432</ele>
        <time>2018-04-22T08:22:36Z</time>
      </trkpt>
      <trkpt lat="43.46596" lon="2.39045">
        <ele>433</ele>
        <time>2018-04-22T08:22:45Z</time>
      </trkpt>
      <trkpt lat="43.46593" lon="2.39042">
        <ele>433</ele>
        <time>2018-04-22T08:22:46Z</time>
      </trkpt>
      <trkpt lat="43.46568" lon="2.39023">
        <ele>434</ele>
        <time>2018-04-22T08:22:53Z</time>
      </trkpt>
      <trkpt lat="43.46565" lon="2.39021">
        <ele>434</ele>
        <time>2018-04-22T08:22:54Z</time>
      </trkpt>
      <trkpt lat="43.46538" lon="2.39004">
        <ele>435</ele>
        <time>2018-04-22T08:23:02Z</time>
      </trkpt>
      <trkpt lat="43.46535" lon="2.39002">
        <ele>435</ele>
        <time>2018-04-22T08:23:03Z</time>
      </trkpt>
      <trkpt lat="43.46517" lon="2.38996">
        <ele>436</ele>
        <time>2018-04-22T08:23:08Z</time>
      </trkpt>
      <trkpt lat="43.46503" lon="2.38998">
        <ele>436</ele>
        <time>2018-04-22T08:23:12Z</time>
      </trkpt>
      <trkpt lat="43.46497" lon="2.38999">
        <ele>436</ele>
        <time>2018-04-22T08:23:14Z</time>
      </trkpt>
      <trkpt lat="43.4648" lon="2.39006">
        <ele>437</ele>
        <time>2018-04-22T08:23:19Z</time>
      </trkpt>
      <trkpt lat="43.46476" lon="2.39007">
        <ele>437</ele>
        <time>2018-04-22T08:23:20Z</time>
      </trkpt>
      <trkpt lat="43.46456" lon="2.39012">
        <ele>438</ele>
        <time>2018-04-22T08:23:26Z</time>
      </trkpt>
      <trkpt lat="43.46445" lon="2.3901">
        <ele>439</ele>
        <time>2018-04-22T08:23:30Z</time>
      </trkpt>
      <trkpt lat="43.46435" lon="2.39009">
        <ele>439</ele>
        <time>2018-04-22T08:23:33Z</time>
      </trkpt>
      <trkpt lat="43.46433" lon="2.39008">
        <ele>440</ele>
        <time>2018-04-22T08:23:34Z</time>
      </trkpt>
      <trkpt lat="43.46429" lon="2.39008">
        <ele>440</ele>
        <time>2018-04-22T08:23:35Z</time>
      </trkpt>
      <trkpt lat="43.4642" lon="2.39005">
        <ele>441</ele>
        <time>2018-04-22T08:23:38Z</time>
      </trkpt>
      <trkpt lat="43.46415" lon="2.39005">
        <ele>441</ele>
        <time>2018-04-22T08:23:39Z</time>
      </trkpt>
      <trkpt lat="43.46404" lon="2.39001">
        <ele>441</ele>
        <time>2018-04-22T08:23:43Z</time>
      </trkpt>
      <trkpt lat="43.4639" lon="2.38998">
        <ele>441</ele>
        <time>2018-04-22T08:23:47Z</time>
      </trkpt>
      <trkpt lat="43.46384" lon="2.38998">
        <ele>442</ele>
        <time>2018-04-22T08:23:49Z</time>
      </trkpt>
      <trkpt lat="43.46365" lon="2.38996">
        <ele>442</ele>
        <time>2018-04-22T08:23:55Z</time>
      </trkpt>
      <trkpt lat="43.46352" lon="2.38994">
        <ele>442</ele>
        <time>2018-04-22T08:24:00Z</time>
      </trkpt>
      <trkpt lat="43.46349" lon="2.38997">
        <ele>443</ele>
        <time>2018-04-22T08:24:02Z</time>
      </trkpt>
      <trkpt lat="43.46348" lon="2.39">
        <ele>443</ele>
        <time>2018-04-22T08:24:04Z</time>
      </trkpt>
      <trkpt lat="43.46349" lon="2.39001">
        <ele>443</ele>
        <time>2018-04-22T08:24:05Z</time>
      </trkpt>
      <trkpt lat="43.46348" lon="2.39006">
        <ele>443</ele>
        <time>2018-04-22T08:24:08Z</time>
      </trkpt>
      <trkpt lat="43.46347" lon="2.39007">
        <ele>443</ele>
        <time>2018-04-22T08:24:09Z</time>
      </trkpt>
      <trkpt lat="43.46347" lon="2.39011">
        <ele>444</ele>
        <time>2018-04-22T08:24:12Z</time>
      </trkpt>
      <trkpt lat="43.46348" lon="2.39013">
        <ele>444</ele>
        <time>2018-04-22T08:24:16Z</time>
      </trkpt>
      <trkpt lat="43.46349" lon="2.39013">
        <ele>445</ele>
        <time>2018-04-22T08:24:17Z</time>
      </trkpt>
      <trkpt lat="43.4635" lon="2.39015">
        <ele>446</ele>
        <time>2018-04-22T08:24:19Z</time>
      </trkpt>
      <trkpt lat="43.46351" lon="2.39016">
        <ele>447</ele>
        <time>2018-04-22T08:24:22Z</time>
      </trkpt>
      <trkpt lat="43.46351" lon="2.39016">
        <ele>448</ele>
        <time>2018-04-22T08:24:23Z</time>
      </trkpt>
      <trkpt lat="43.46354" lon="2.39017">
        <ele>449</ele>
        <time>2018-04-22T08:24:25Z</time>
      </trkpt>
      <trkpt lat="43.46356" lon="2.39021">
        <ele>450</ele>
        <time>2018-04-22T08:24:28Z</time>
      </trkpt>
      <trkpt lat="43.46358" lon="2.39023">
        <ele>451</ele>
        <time>2018-04-22T08:24:30Z</time>
      </trkpt>
      <trkpt lat="43.46359" lon="2.39024">
        <ele>451</ele>
        <time>2018-04-22T08:24:31Z</time>
      </trkpt>
      <trkpt lat="43.46362" lon="2.39028">
        <ele>452</ele>
        <time>2018-04-22T08:24:35Z</time>
      </trkpt>
      <trkpt lat="43.46364" lon="2.39029">
        <ele>452</ele>
        <time>2018-04-22T08:24:37Z</time>
      </trkpt>
      <trkpt lat="43.46365" lon="2.3903">
        <ele>452</ele>
        <time>2018-04-22T08:24:38Z</time>
      </trkpt>
      <trkpt lat="43.46366" lon="2.39033">
        <ele>452</ele>
        <time>2018-04-22T08:24:40Z</time>
      </trkpt>
      <trkpt lat="43.46372" lon="2.39035">
        <ele>452</ele>
        <time>2018-04-22T08:24:44Z</time>
      </trkpt>
      <trkpt lat="43.46377" lon="2.39036">
        <ele>453</ele>
        <time>2018-04-22T08:24:49Z</time>
      </trkpt>
      <trkpt lat="43.46379" lon="2.39039">
        <ele>453</ele>
        <time>2018-04-22T08:24:51Z</time>
      </trkpt>
      <trkpt lat="43.46381" lon="2.3904">
        <ele>454</ele>
        <time>2018-04-22T08:24:53Z</time>
      </trkpt>
      <trkpt lat="43.46383" lon="2.39041">
        <ele>455</ele>
        <time>2018-04-22T08:24:55Z</time>
      </trkpt>
      <trkpt lat="43.46385" lon="2.39042">
        <ele>455</ele>
        <time>2018-04-22T08:24:57Z</time>
      </trkpt>
      <trkpt lat="43.46388" lon="2.39044">
        <ele>456</ele>
        <time>2018-04-22T08:25:00Z</time>
      </trkpt>
      <trkpt lat="43.46392" lon="2.39046">
        <ele>457</ele>
        <time>2018-04-22T08:25:04Z</time>
      </trkpt>
      <trkpt lat="43.46392" lon="2.39047">
        <ele>458</ele>
        <time>2018-04-22T08:25:05Z</time>
      </trkpt>
      <trkpt lat="43.46394" lon="2.39049">
        <ele>458</ele>
        <time>2018-04-22T08:25:07Z</time>
      </trkpt>
      <trkpt lat="43.46394" lon="2.39049">
        <ele>458</ele>
        <time>2018-04-22T08:25:09Z</time>
      </trkpt>
      <trkpt lat="43.46397" lon="2.39049">
        <ele>458</ele>
        <time>2018-04-22T08:25:12Z</time>
      </trkpt>
      <trkpt lat="43.46402" lon="2.39053">
        <ele>458</ele>
        <time>2018-04-22T08:25:18Z</time>
      </trkpt>
      <trkpt lat="43.46403" lon="2.39054">
        <ele>459</ele>
        <time>2018-04-22T08:25:19Z</time>
      </trkpt>
      <trkpt lat="43.46407" lon="2.39056">
        <ele>460</ele>
        <time>2018-04-22T08:25:24Z</time>
      </trkpt>
      <trkpt lat="43.46407" lon="2.39058">
        <ele>460</ele>
        <time>2018-04-22T08:25:26Z</time>
      </trkpt>
      <trkpt lat="43.46411" lon="2.39059">
        <ele>461</ele>
        <time>2018-04-22T08:25:31Z</time>
      </trkpt>
      <trkpt lat="43.46415" lon="2.3906">
        <ele>462</ele>
        <time>2018-04-22T08:25:34Z</time>
      </trkpt>
      <trkpt lat="43.46415" lon="2.3906">
        <ele>462</ele>
        <time>2018-04-22T08:25:35Z</time>
      </trkpt>
      <trkpt lat="43.46422" lon="2.39064">
        <ele>463</ele>
        <time>2018-04-22T08:25:42Z</time>
      </trkpt>
      <trkpt lat="43.46426" lon="2.39066">
        <ele>464</ele>
        <time>2018-04-22T08:25:48Z</time>
      </trkpt>
      <trkpt lat="43.46432" lon="2.39069">
        <ele>465</ele>
        <time>2018-04-22T08:25:52Z</time>
      </trkpt>
      <trkpt lat="43.46435" lon="2.3907">
        <ele>465</ele>
        <time>2018-04-22T08:25:55Z</time>
      </trkpt>
      <trkpt lat="43.46442" lon="2.39072">
        <ele>466</ele>
        <time>2018-04-22T08:26:01Z</time>
      </trkpt>
      <trkpt lat="43.46447" lon="2.39074">
        <ele>467</ele>
        <time>2018-04-22T08:26:07Z</time>
      </trkpt>
      <trkpt lat="43.4645" lon="2.39076">
        <ele>468</ele>
        <time>2018-04-22T08:26:10Z</time>
      </trkpt>
      <trkpt lat="43.46453" lon="2.39077">
        <ele>469</ele>
        <time>2018-04-22T08:26:13Z</time>
      </trkpt>
      <trkpt lat="43.46457" lon="2.39079">
        <ele>470</ele>
        <time>2018-04-22T08:26:18Z</time>
      </trkpt>
      <trkpt lat="43.46465" lon="2.39081">
        <ele>471</ele>
        <time>2018-04-22T08:26:25Z</time>
      </trkpt>
      <trkpt lat="43.46466" lon="2.39082">
        <ele>471</ele>
        <time>2018-04-22T08:26:27Z</time>
      </trkpt>
      <trkpt lat="43.46468" lon="2.39083">
        <ele>471</ele>
        <time>2018-04-22T08:26:32Z</time>
      </trkpt>
      <trkpt lat="43.46469" lon="2.39084">
        <ele>472</ele>
        <time>2018-04-22T08:26:34Z</time>
      </trkpt>
      <trkpt lat="43.46474" lon="2.39087">
        <ele>473</ele>
        <time>2018-04-22T08:26:40Z</time>
      </trkpt>
      <trkpt lat="43.46474" lon="2.39087">
        <ele>473</ele>
        <time>2018-04-22T08:26:41Z</time>
      </trkpt>
      <trkpt lat="43.46477" lon="2.3909">
        <ele>473</ele>
        <time>2018-04-22T08:26:47Z</time>
      </trkpt>
      <trkpt lat="43.4648" lon="2.39094">
        <ele>474</ele>
        <time>2018-04-22T08:26:51Z</time>
      </trkpt>
      <trkpt lat="43.46484" lon="2.39098">
        <ele>475</ele>
        <time>2018-04-22T08:26:54Z</time>
      </trkpt>
      <trkpt lat="43.46487" lon="2.391">
        <ele>475</ele>
        <time>2018-04-22T08:26:56Z</time>
      </trkpt>
      <trkpt lat="43.46489" lon="2.39104">
        <ele>475</ele>
        <time>2018-04-22T08:26:58Z</time>
      </trkpt>
      <trkpt lat="43.46492" lon="2.39107">
        <ele>476</ele>
        <time>2018-04-22T08:27:00Z</time>
      </trkpt>
      <trkpt lat="43.46494" lon="2.39109">
        <ele>476</ele>
        <time>2018-04-22T08:27:01Z</time>
      </trkpt>
      <trkpt lat="43.46498" lon="2.39116">
        <ele>477</ele>
        <time>2018-04-22T08:27:05Z</time>
      </trkpt>
      <trkpt lat="43.46499" lon="2.39118">
        <ele>477</ele>
        <time>2018-04-22T08:27:06Z</time>
      </trkpt>
      <trkpt lat="43.46501" lon="2.39121">
        <ele>477</ele>
        <time>2018-04-22T08:27:08Z</time>
      </trkpt>
      <trkpt lat="43.46504" lon="2.39128">
        <ele>478</ele>
        <time>2018-04-22T08:27:12Z</time>
      </trkpt>
      <trkpt lat="43.46506" lon="2.39131">
        <ele>478</ele>
        <time>2018-04-22T08:27:14Z</time>
      </trkpt>
      <trkpt lat="43.46509" lon="2.39137">
        <ele>480</ele>
        <time>2018-04-22T08:27:19Z</time>
      </trkpt>
      <trkpt lat="43.4651" lon="2.39142">
        <ele>481</ele>
        <time>2018-04-22T08:27:26Z</time>
      </trkpt>
      <trkpt lat="43.4651" lon="2.39143">
        <ele>481</ele>
        <time>2018-04-22T08:27:28Z</time>
      </trkpt>
      <trkpt lat="43.46513" lon="2.39149">
        <ele>482</ele>
        <time>2018-04-22T08:27:37Z</time>
      </trkpt>
      <trkpt lat="43.46511" lon="2.39152">
        <ele>482</ele>
        <time>2018-04-22T08:27:43Z</time>
      </trkpt>
      <trkpt lat="43.46511" lon="2.39152">
        <ele>482</ele>
        <time>2018-04-22T08:27:47Z</time>
      </trkpt>
      <trkpt lat="43.46511" lon="2.39152">
        <ele>481</ele>
        <time>2018-04-22T08:27:56Z</time>
      </trkpt>
      <trkpt lat="43.46509" lon="2.39151">
        <ele>481</ele>
        <time>2018-04-22T08:27:58Z</time>
      </trkpt>
      <trkpt lat="43.46505" lon="2.39148">
        <ele>482</ele>
        <time>2018-04-22T08:28:02Z</time>
      </trkpt>
      <trkpt lat="43.46501" lon="2.39144">
        <ele>483</ele>
        <time>2018-04-22T08:28:07Z</time>
      </trkpt>
      <trkpt lat="43.465" lon="2.39141">
        <ele>483</ele>
        <time>2018-04-22T08:28:09Z</time>
      </trkpt>
      <trkpt lat="43.46498" lon="2.39138">
        <ele>483</ele>
        <time>2018-04-22T08:28:12Z</time>
      </trkpt>
      <trkpt lat="43.46496" lon="2.39133">
        <ele>483</ele>
        <time>2018-04-22T08:28:15Z</time>
      </trkpt>
      <trkpt lat="43.46492" lon="2.39126">
        <ele>484</ele>
        <time>2018-04-22T08:28:20Z</time>
      </trkpt>
      <trkpt lat="43.4649" lon="2.39126">
        <ele>484</ele>
        <time>2018-04-22T08:28:21Z</time>
      </trkpt>
      <trkpt lat="43.46486" lon="2.39121">
        <ele>484</ele>
        <time>2018-04-22T08:28:24Z</time>
      </trkpt>
      <trkpt lat="43.46484" lon="2.39119">
        <ele>484</ele>
        <time>2018-04-22T08:28:25Z</time>
      </trkpt>
      <trkpt lat="43.4648" lon="2.39117">
        <ele>484</ele>
        <time>2018-04-22T08:28:27Z</time>
      </trkpt>
      <trkpt lat="43.46479" lon="2.39116">
        <ele>485</ele>
        <time>2018-04-22T08:28:29Z</time>
      </trkpt>
      <trkpt lat="43.46476" lon="2.39114">
        <ele>485</ele>
        <time>2018-04-22T08:28:31Z</time>
      </trkpt>
      <trkpt lat="43.46469" lon="2.39111">
        <ele>485</ele>
        <time>2018-04-22T08:28:36Z</time>
      </trkpt>
      <trkpt lat="43.46465" lon="2.39112">
        <ele>486</ele>
        <time>2018-04-22T08:28:38Z</time>
      </trkpt>
      <trkpt lat="43.46464" lon="2.39112">
        <ele>485</ele>
        <time>2018-04-22T08:28:39Z</time>
      </trkpt>
      <trkpt lat="43.46459" lon="2.39112">
        <ele>485</ele>
        <time>2018-04-22T08:28:42Z</time>
      </trkpt>
      <trkpt lat="43.46448" lon="2.3911">
        <ele>486</ele>
        <time>2018-04-22T08:28:47Z</time>
      </trkpt>
      <trkpt lat="43.46436" lon="2.39112">
        <ele>486</ele>
        <time>2018-04-22T08:28:52Z</time>
      </trkpt>
      <trkpt lat="43.46422" lon="2.39115">
        <ele>486</ele>
        <time>2018-04-22T08:28:57Z</time>
      </trkpt>
      <trkpt lat="43.46418" lon="2.39115">
        <ele>487</ele>
        <time>2018-04-22T08:28:59Z</time>
      </trkpt>
      <trkpt lat="43.46411" lon="2.39118">
        <ele>487</ele>
        <time>2018-04-22T08:29:03Z</time>
      </trkpt>
      <trkpt lat="43.4641" lon="2.3912">
        <ele>488</ele>
        <time>2018-04-22T08:29:04Z</time>
      </trkpt>
      <trkpt lat="43.464" lon="2.39121">
        <ele>488</ele>
        <time>2018-04-22T08:29:07Z</time>
      </trkpt>
      <trkpt lat="43.46386" lon="2.39128">
        <ele>488</ele>
        <time>2018-04-22T08:29:12Z</time>
      </trkpt>
      <trkpt lat="43.46386" lon="2.3913">
        <ele>488</ele>
        <time>2018-04-22T08:29:13Z</time>
      </trkpt>
      <trkpt lat="43.46379" lon="2.39142">
        <ele>489</ele>
        <time>2018-04-22T08:29:17Z</time>
      </trkpt>
      <trkpt lat="43.46377" lon="2.39149">
        <ele>489</ele>
        <time>2018-04-22T08:29:19Z</time>
      </trkpt>
      <trkpt lat="43.46373" lon="2.3916">
        <ele>490</ele>
        <time>2018-04-22T08:29:23Z</time>
      </trkpt>
      <trkpt lat="43.46363" lon="2.39171">
        <ele>491</ele>
        <time>2018-04-22T08:29:28Z</time>
      </trkpt>
      <trkpt lat="43.46362" lon="2.39171">
        <ele>491</ele>
        <time>2018-04-22T08:29:29Z</time>
      </trkpt>
      <trkpt lat="43.46351" lon="2.39181">
        <ele>491</ele>
        <time>2018-04-22T08:29:34Z</time>
      </trkpt>
      <trkpt lat="43.4635" lon="2.39183">
        <ele>491</ele>
        <time>2018-04-22T08:29:35Z</time>
      </trkpt>
      <trkpt lat="43.46345" lon="2.39193">
        <ele>492</ele>
        <time>2018-04-22T08:29:39Z</time>
      </trkpt>
      <trkpt lat="43.46344" lon="2.39195">
        <ele>492</ele>
        <time>2018-04-22T08:29:40Z</time>
      </trkpt>
      <trkpt lat="43.46338" lon="2.39203">
        <ele>493</ele>
        <time>2018-04-22T08:29:45Z</time>
      </trkpt>
      <trkpt lat="43.4633" lon="2.39207">
        <ele>493</ele>
        <time>2018-04-22T08:29:51Z</time>
      </trkpt>
      <trkpt lat="43.46329" lon="2.39207">
        <ele>493</ele>
        <time>2018-04-22T08:29:52Z</time>
      </trkpt>
      <trkpt lat="43.46321" lon="2.39207">
        <ele>493</ele>
        <time>2018-04-22T08:29:59Z</time>
      </trkpt>
      <trkpt lat="43.46317" lon="2.39208">
        <ele>493</ele>
        <time>2018-04-22T08:30:02Z</time>
      </trkpt>
      <trkpt lat="43.46308" lon="2.39211">
        <ele>493</ele>
        <time>2018-04-22T08:30:10Z</time>
      </trkpt>
      <trkpt lat="43.46308" lon="2.3921">
        <ele>493</ele>
        <time>2018-04-22T08:30:15Z</time>
      </trkpt>
      <trkpt lat="43.46307" lon="2.39209">
        <ele>493</ele>
        <time>2018-04-22T08:30:20Z</time>
      </trkpt>
      <trkpt lat="43.46306" lon="2.3921">
        <ele>494</ele>
        <time>2018-04-22T08:30:25Z</time>
      </trkpt>
      <trkpt lat="43.46305" lon="2.3921">
        <ele>493</ele>
        <time>2018-04-22T08:30:27Z</time>
      </trkpt>
      <trkpt lat="43.463" lon="2.3921">
        <ele>494</ele>
        <time>2018-04-22T08:30:35Z</time>
      </trkpt>
      <trkpt lat="43.46299" lon="2.39213">
        <ele>494</ele>
        <time>2018-04-22T08:30:40Z</time>
      </trkpt>
      <trkpt lat="43.46296" lon="2.39213">
        <ele>494</ele>
        <time>2018-04-22T08:30:44Z</time>
      </trkpt>
      <trkpt lat="43.46291" lon="2.39211">
        <ele>494</ele>
        <time>2018-04-22T08:30:52Z</time>
      </trkpt>
      <trkpt lat="43.4629" lon="2.3921">
        <ele>494</ele>
        <time>2018-04-22T08:30:56Z</time>
      </trkpt>
      <trkpt lat="43.46286" lon="2.39205">
        <ele>493</ele>
        <time>2018-04-22T08:31:01Z</time>
      </trkpt>
      <trkpt lat="43.46282" lon="2.39191">
        <ele>493</ele>
        <time>2018-04-22T08:31:07Z</time>
      </trkpt>
      <trkpt lat="43.46277" lon="2.39181">
        <ele>493</ele>
        <time>2018-04-22T08:31:11Z</time>
      </trkpt>
      <trkpt lat="43.46276" lon="2.39179">
        <ele>493</ele>
        <time>2018-04-22T08:31:12Z</time>
      </trkpt>
      <trkpt lat="43.4627" lon="2.39172">
        <ele>494</ele>
        <time>2018-04-22T08:31:16Z</time>
      </trkpt>
      <trkpt lat="43.46269" lon="2.3917">
        <ele>494</ele>
        <time>2018-04-22T08:31:17Z</time>
      </trkpt>
      <trkpt lat="43.4626" lon="2.39161">
        <ele>494</ele>
        <time>2018-04-22T08:31:22Z</time>
      </trkpt>
      <trkpt lat="43.46253" lon="2.39156">
        <ele>494</ele>
        <time>2018-04-22T08:31:26Z</time>
      </trkpt>
      <trkpt lat="43.46251" lon="2.39153">
        <ele>494</ele>
        <time>2018-04-22T08:31:27Z</time>
      </trkpt>
      <trkpt lat="43.46239" lon="2.39135">
        <ele>494</ele>
        <time>2018-04-22T08:31:32Z</time>
      </trkpt>
      <trkpt lat="43.46229" lon="2.39117">
        <ele>495</ele>
        <time>2018-04-22T08:31:38Z</time>
      </trkpt>
      <trkpt lat="43.46223" lon="2.39101">
        <ele>495</ele>
        <time>2018-04-22T08:31:43Z</time>
      </trkpt>
      <trkpt lat="43.4622" lon="2.39097">
        <ele>495</ele>
        <time>2018-04-22T08:31:44Z</time>
      </trkpt>
      <trkpt lat="43.46214" lon="2.39074">
        <ele>496</ele>
        <time>2018-04-22T08:31:51Z</time>
      </trkpt>
      <trkpt lat="43.4621" lon="2.39055">
        <ele>496</ele>
        <time>2018-04-22T08:31:56Z</time>
      </trkpt>
      <trkpt lat="43.46209" lon="2.3904">
        <ele>495</ele>
        <time>2018-04-22T08:31:59Z</time>
      </trkpt>
      <trkpt lat="43.46208" lon="2.39036">
        <ele>495</ele>
        <time>2018-04-22T08:32:00Z</time>
      </trkpt>
      <trkpt lat="43.46196" lon="2.39028">
        <ele>495</ele>
        <time>2018-04-22T08:32:04Z</time>
      </trkpt>
      <trkpt lat="43.46178" lon="2.39023">
        <ele>494</ele>
        <time>2018-04-22T08:32:09Z</time>
      </trkpt>
      <trkpt lat="43.46175" lon="2.39025">
        <ele>494</ele>
        <time>2018-04-22T08:32:10Z</time>
      </trkpt>
      <trkpt lat="43.46172" lon="2.3903">
        <ele>494</ele>
        <time>2018-04-22T08:32:13Z</time>
      </trkpt>
      <trkpt lat="43.46171" lon="2.39032">
        <ele>494</ele>
        <time>2018-04-22T08:32:14Z</time>
      </trkpt>
      <trkpt lat="43.46167" lon="2.3904">
        <ele>495</ele>
        <time>2018-04-22T08:32:18Z</time>
      </trkpt>
      <trkpt lat="43.46159" lon="2.39048">
        <ele>496</ele>
        <time>2018-04-22T08:32:22Z</time>
      </trkpt>
      <trkpt lat="43.46157" lon="2.39052">
        <ele>496</ele>
        <time>2018-04-22T08:32:24Z</time>
      </trkpt>
      <trkpt lat="43.46155" lon="2.39054">
        <ele>496</ele>
        <time>2018-04-22T08:32:25Z</time>
      </trkpt>
      <trkpt lat="43.46147" lon="2.39066">
        <ele>497</ele>
        <time>2018-04-22T08:32:29Z</time>
      </trkpt>
      <trkpt lat="43.46146" lon="2.3907">
        <ele>498</ele>
        <time>2018-04-22T08:32:31Z</time>
      </trkpt>
      <trkpt lat="43.46142" lon="2.39075">
        <ele>499</ele>
        <time>2018-04-22T08:32:33Z</time>
      </trkpt>
      <trkpt lat="43.46136" lon="2.39083">
        <ele>499</ele>
        <time>2018-04-22T08:32:36Z</time>
      </trkpt>
      <trkpt lat="43.46127" lon="2.39097">
        <ele>500</ele>
        <time>2018-04-22T08:32:41Z</time>
      </trkpt>
      <trkpt lat="43.46126" lon="2.39099">
        <ele>500</ele>
        <time>2018-04-22T08:32:42Z</time>
      </trkpt>
      <trkpt lat="43.4612" lon="2.39115">
        <ele>501</ele>
        <time>2018-04-22T08:32:48Z</time>
      </trkpt>
      <trkpt lat="43.46118" lon="2.39119">
        <ele>502</ele>
        <time>2018-04-22T08:32:50Z</time>
      </trkpt>
      <trkpt lat="43.46115" lon="2.39124">
        <ele>502</ele>
        <time>2018-04-22T08:32:53Z</time>
      </trkpt>
      <trkpt lat="43.46112" lon="2.39135">
        <ele>503</ele>
        <time>2018-04-22T08:32:58Z</time>
      </trkpt>
      <trkpt lat="43.4611" lon="2.39142">
        <ele>503</ele>
        <time>2018-04-22T08:33:01Z</time>
      </trkpt>
      <trkpt lat="43.46106" lon="2.39153">
        <ele>505</ele>
        <time>2018-04-22T08:33:06Z</time>
      </trkpt>
      <trkpt lat="43.461" lon="2.39165">
        <ele>506</ele>
        <time>2018-04-22T08:33:12Z</time>
      </trkpt>
      <trkpt lat="43.46097" lon="2.39167">
        <ele>506</ele>
        <time>2018-04-22T08:33:14Z</time>
      </trkpt>
      <trkpt lat="43.46094" lon="2.39172">
        <ele>506</ele>
        <time>2018-04-22T08:33:17Z</time>
      </trkpt>
      <trkpt lat="43.46091" lon="2.39176">
        <ele>507</ele>
        <time>2018-04-22T08:33:19Z</time>
      </trkpt>
      <trkpt lat="43.46089" lon="2.39178">
        <ele>507</ele>
        <time>2018-04-22T08:33:20Z</time>
      </trkpt>
      <trkpt lat="43.46087" lon="2.39182">
        <ele>508</ele>
        <time>2018-04-22T08:33:22Z</time>
      </trkpt>
      <trkpt lat="43.46085" lon="2.39187">
        <ele>508</ele>
        <time>2018-04-22T08:33:24Z</time>
      </trkpt>
      <trkpt lat="43.46084" lon="2.3919">
        <ele>508</ele>
        <time>2018-04-22T08:33:26Z</time>
      </trkpt>
      <trkpt lat="43.4608" lon="2.39201">
        <ele>509</ele>
        <time>2018-04-22T08:33:31Z</time>
      </trkpt>
      <trkpt lat="43.46072" lon="2.39216">
        <ele>509</ele>
        <time>2018-04-22T08:33:38Z</time>
      </trkpt>
      <trkpt lat="43.46068" lon="2.39223">
        <ele>510</ele>
        <time>2018-04-22T08:33:41Z</time>
      </trkpt>
      <trkpt lat="43.46063" lon="2.3923">
        <ele>510</ele>
        <time>2018-04-22T08:33:44Z</time>
      </trkpt>
      <trkpt lat="43.46055" lon="2.39237">
        <ele>511</ele>
        <time>2018-04-22T08:33:49Z</time>
      </trkpt>
      <trkpt lat="43.46049" lon="2.39242">
        <ele>511</ele>
        <time>2018-04-22T08:33:52Z</time>
      </trkpt>
      <trkpt lat="43.46038" lon="2.39254">
        <ele>512</ele>
        <time>2018-04-22T08:33:58Z</time>
      </trkpt>
      <trkpt lat="43.46029" lon="2.39264">
        <ele>513</ele>
        <time>2018-04-22T08:34:04Z</time>
      </trkpt>
      <trkpt lat="43.46028" lon="2.39266">
        <ele>513</ele>
        <time>2018-04-22T08:34:05Z</time>
      </trkpt>
      <trkpt lat="43.46016" lon="2.39275">
        <ele>514</ele>
        <time>2018-04-22T08:34:11Z</time>
      </trkpt>
      <trkpt lat="43.46011" lon="2.39278">
        <ele>514</ele>
        <time>2018-04-22T08:34:14Z</time>
      </trkpt>
      <trkpt lat="43.46004" lon="2.39282">
        <ele>514</ele>
        <time>2018-04-22T08:34:17Z</time>
      </trkpt>
      <trkpt lat="43.45997" lon="2.39286">
        <ele>515</ele>
        <time>2018-04-22T08:34:21Z</time>
      </trkpt>
      <trkpt lat="43.45995" lon="2.39285">
        <ele>516</ele>
        <time>2018-04-22T08:34:23Z</time>
      </trkpt>
      <trkpt lat="43.45991" lon="2.39287">
        <ele>516</ele>
        <time>2018-04-22T08:34:25Z</time>
      </trkpt>
      <trkpt lat="43.4598" lon="2.39281">
        <ele>516</ele>
        <time>2018-04-22T08:34:31Z</time>
      </trkpt>
      <trkpt lat="43.4598" lon="2.39279">
        <ele>516</ele>
        <time>2018-04-22T08:34:32Z</time>
      </trkpt>
      <trkpt lat="43.45979" lon="2.39276">
        <ele>517</ele>
        <time>2018-04-22T08:34:34Z</time>
      </trkpt>
      <trkpt lat="43.4598" lon="2.39275">
        <ele>517</ele>
        <time>2018-04-22T08:34:35Z</time>
      </trkpt>
      <trkpt lat="43.4598" lon="2.39268">
        <ele>518</ele>
        <time>2018-04-22T08:34:38Z</time>
      </trkpt>
      <trkpt lat="43.45982" lon="2.39265">
        <ele>518</ele>
        <time>2018-04-22T08:34:40Z</time>
      </trkpt>
      <trkpt lat="43.45989" lon="2.39253">
        <ele>518</ele>
        <time>2018-04-22T08:34:45Z</time>
      </trkpt>
      <trkpt lat="43.45995" lon="2.3924">
        <ele>518</ele>
        <time>2018-04-22T08:34:50Z</time>
      </trkpt>
      <trkpt lat="43.46002" lon="2.39229">
        <ele>518</ele>
        <time>2018-04-22T08:34:54Z</time>
      </trkpt>
      <trkpt lat="43.46003" lon="2.39226">
        <ele>519</ele>
        <time>2018-04-22T08:34:55Z</time>
      </trkpt>
      <trkpt lat="43.46008" lon="2.39212">
        <ele>520</ele>
        <time>2018-04-22T08:35:01Z</time>
      </trkpt>
      <trkpt lat="43.4601" lon="2.39204">
        <ele>520</ele>
        <time>2018-04-22T08:35:04Z</time>
      </trkpt>
      <trkpt lat="43.46011" lon="2.39195">
        <ele>521</ele>
        <time>2018-04-22T08:35:07Z</time>
      </trkpt>
      <trkpt lat="43.46011" lon="2.39191">
        <ele>521</ele>
        <time>2018-04-22T08:35:08Z</time>
      </trkpt>
      <trkpt lat="43.46012" lon="2.39185">
        <ele>522</ele>
        <time>2018-04-22T08:35:10Z</time>
      </trkpt>
      <trkpt lat="43.4601" lon="2.39185">
        <ele>522</ele>
        <time>2018-04-22T08:35:12Z</time>
      </trkpt>
      <trkpt lat="43.46005" lon="2.39195">
        <ele>523</ele>
        <time>2018-04-22T08:35:18Z</time>
      </trkpt>
      <trkpt lat="43.46004" lon="2.39196">
        <ele>524</ele>
        <time>2018-04-22T08:35:19Z</time>
      </trkpt>
      <trkpt lat="43.46003" lon="2.39201">
        <ele>525</ele>
        <time>2018-04-22T08:35:25Z</time>
      </trkpt>
      <trkpt lat="43.46001" lon="2.39204">
        <ele>525</ele>
        <time>2018-04-22T08:35:26Z</time>
      </trkpt>
      <trkpt lat="43.45994" lon="2.3921">
        <ele>526</ele>
        <time>2018-04-22T08:35:31Z</time>
      </trkpt>
      <trkpt lat="43.45993" lon="2.39212">
        <ele>526</ele>
        <time>2018-04-22T08:35:32Z</time>
      </trkpt>
      <trkpt lat="43.45992" lon="2.39213">
        <ele>527</ele>
        <time>2018-04-22T08:35:33Z</time>
      </trkpt>
      <trkpt lat="43.45987" lon="2.39217">
        <ele>528</ele>
        <time>2018-04-22T08:35:37Z</time>
      </trkpt>
      <trkpt lat="43.45983" lon="2.39219">
        <ele>528</ele>
        <time>2018-04-22T08:35:39Z</time>
      </trkpt>
      <trkpt lat="43.45978" lon="2.39225">
        <ele>528</ele>
        <time>2018-04-22T08:35:42Z</time>
      </trkpt>
      <trkpt lat="43.45977" lon="2.39226">
        <ele>529</ele>
        <time>2018-04-22T08:35:43Z</time>
      </trkpt>
      <trkpt lat="43.45974" lon="2.39229">
        <ele>529</ele>
        <time>2018-04-22T08:35:44Z</time>
      </trkpt>
      <trkpt lat="43.45968" lon="2.39237">
        <ele>530</ele>
        <time>2018-04-22T08:35:48Z</time>
      </trkpt>
      <trkpt lat="43.45963" lon="2.39241">
        <ele>530</ele>
        <time>2018-04-22T08:35:51Z</time>
      </trkpt>
      <trkpt lat="43.45958" lon="2.39248">
        <ele>531</ele>
        <time>2018-04-22T08:35:55Z</time>
      </trkpt>
      <trkpt lat="43.45957" lon="2.39251">
        <ele>531</ele>
        <time>2018-04-22T08:35:56Z</time>
      </trkpt>
      <trkpt lat="43.45953" lon="2.39257">
        <ele>532</ele>
        <time>2018-04-22T08:35:59Z</time>
      </trkpt>
      <trkpt lat="43.45951" lon="2.3926">
        <ele>532</ele>
        <time>2018-04-22T08:36:01Z</time>
      </trkpt>
      <trkpt lat="43.45947" lon="2.39271">
        <ele>534</ele>
        <time>2018-04-22T08:36:06Z</time>
      </trkpt>
      <trkpt lat="43.45946" lon="2.39272">
        <ele>534</ele>
        <time>2018-04-22T08:36:07Z</time>
      </trkpt>
      <trkpt lat="43.45945" lon="2.39276">
        <ele>534</ele>
        <time>2018-04-22T08:36:08Z</time>
      </trkpt>
      <trkpt lat="43.45941" lon="2.39283">
        <ele>534</ele>
        <time>2018-04-22T08:36:12Z</time>
      </trkpt>
      <trkpt lat="43.4594" lon="2.39285">
        <ele>535</ele>
        <time>2018-04-22T08:36:13Z</time>
      </trkpt>
      <trkpt lat="43.45933" lon="2.39298">
        <ele>536</ele>
        <time>2018-04-22T08:36:19Z</time>
      </trkpt>
      <trkpt lat="43.45931" lon="2.393">
        <ele>536</ele>
        <time>2018-04-22T08:36:20Z</time>
      </trkpt>
      <trkpt lat="43.45925" lon="2.39306">
        <ele>537</ele>
        <time>2018-04-22T08:36:24Z</time>
      </trkpt>
      <trkpt lat="43.45924" lon="2.39307">
        <ele>537</ele>
        <time>2018-04-22T08:36:25Z</time>
      </trkpt>
      <trkpt lat="43.45917" lon="2.39315">
        <ele>538</ele>
        <time>2018-04-22T08:36:30Z</time>
      </trkpt>
      <trkpt lat="43.45916" lon="2.39316">
        <ele>539</ele>
        <time>2018-04-22T08:36:31Z</time>
      </trkpt>
      <trkpt lat="43.45909" lon="2.39321">
        <ele>540</ele>
        <time>2018-04-22T08:36:35Z</time>
      </trkpt>
      <trkpt lat="43.45907" lon="2.39323">
        <ele>540</ele>
        <time>2018-04-22T08:36:37Z</time>
      </trkpt>
      <trkpt lat="43.45898" lon="2.39335">
        <ele>541</ele>
        <time>2018-04-22T08:36:43Z</time>
      </trkpt>
      <trkpt lat="43.45896" lon="2.39338">
        <ele>541</ele>
        <time>2018-04-22T08:36:44Z</time>
      </trkpt>
      <trkpt lat="43.45893" lon="2.39342">
        <ele>542</ele>
        <time>2018-04-22T08:36:46Z</time>
      </trkpt>
      <trkpt lat="43.45889" lon="2.39345">
        <ele>542</ele>
        <time>2018-04-22T08:36:48Z</time>
      </trkpt>
      <trkpt lat="43.45887" lon="2.39346">
        <ele>542</ele>
        <time>2018-04-22T08:36:49Z</time>
      </trkpt>
      <trkpt lat="43.45881" lon="2.39352">
        <ele>544</ele>
        <time>2018-04-22T08:36:53Z</time>
      </trkpt>
      <trkpt lat="43.45877" lon="2.39354">
        <ele>544</ele>
        <time>2018-04-22T08:36:55Z</time>
      </trkpt>
      <trkpt lat="43.45869" lon="2.3936">
        <ele>545</ele>
        <time>2018-04-22T08:37:00Z</time>
      </trkpt>
      <trkpt lat="43.45868" lon="2.3936">
        <ele>545</ele>
        <time>2018-04-22T08:37:01Z</time>
      </trkpt>
      <trkpt lat="43.45862" lon="2.39363">
        <ele>546</ele>
        <time>2018-04-22T08:37:04Z</time>
      </trkpt>
      <trkpt lat="43.45858" lon="2.39366">
        <ele>546</ele>
        <time>2018-04-22T08:37:06Z</time>
      </trkpt>
      <trkpt lat="43.4585" lon="2.39376">
        <ele>547</ele>
        <time>2018-04-22T08:37:11Z</time>
      </trkpt>
      <trkpt lat="43.45848" lon="2.39379">
        <ele>547</ele>
        <time>2018-04-22T08:37:13Z</time>
      </trkpt>
      <trkpt lat="43.45843" lon="2.39388">
        <ele>548</ele>
        <time>2018-04-22T08:37:18Z</time>
      </trkpt>
      <trkpt lat="43.4584" lon="2.39392">
        <ele>549</ele>
        <time>2018-04-22T08:37:20Z</time>
      </trkpt>
      <trkpt lat="43.45839" lon="2.39393">
        <ele>549</ele>
        <time>2018-04-22T08:37:21Z</time>
      </trkpt>
      <trkpt lat="43.45836" lon="2.39396">
        <ele>549</ele>
        <time>2018-04-22T08:37:22Z</time>
      </trkpt>
      <trkpt lat="43.45835" lon="2.39398">
        <ele>549</ele>
        <time>2018-04-22T08:37:23Z</time>
      </trkpt>
      <trkpt lat="43.45831" lon="2.39403">
        <ele>550</ele>
        <time>2018-04-22T08:37:26Z</time>
      </trkpt>
      <trkpt lat="43.45826" lon="2.39411">
        <ele>551</ele>
        <time>2018-04-22T08:37:30Z</time>
      </trkpt>
      <trkpt lat="43.45823" lon="2.39419">
        <ele>551</ele>
        <time>2018-04-22T08:37:33Z</time>
      </trkpt>
      <trkpt lat="43.45822" lon="2.39421">
        <ele>551</ele>
        <time>2018-04-22T08:37:34Z</time>
      </trkpt>
      <trkpt lat="43.45819" lon="2.39427">
        <ele>552</ele>
        <time>2018-04-22T08:37:37Z</time>
      </trkpt>
      <trkpt lat="43.45818" lon="2.39432">
        <ele>552</ele>
        <time>2018-04-22T08:37:38Z</time>
      </trkpt>
      <trkpt lat="43.45817" lon="2.39438">
        <ele>552</ele>
        <time>2018-04-22T08:37:40Z</time>
      </trkpt>
      <trkpt lat="43.45816" lon="2.3945">
        <ele>553</ele>
        <time>2018-04-22T08:37:44Z</time>
      </trkpt>
      <trkpt lat="43.45817" lon="2.39455">
        <ele>553</ele>
        <time>2018-04-22T08:37:46Z</time>
      </trkpt>
      <trkpt lat="43.45817" lon="2.39462">
        <ele>553</ele>
        <time>2018-04-22T08:37:48Z</time>
      </trkpt>
      <trkpt lat="43.45818" lon="2.39464">
        <ele>554</ele>
        <time>2018-04-22T08:37:49Z</time>
      </trkpt>
      <trkpt lat="43.45824" lon="2.39474">
        <ele>554</ele>
        <time>2018-04-22T08:37:55Z</time>
      </trkpt>
      <trkpt lat="43.45829" lon="2.3948">
        <ele>555</ele>
        <time>2018-04-22T08:37:59Z</time>
      </trkpt>
      <trkpt lat="43.45831" lon="2.39481">
        <ele>555</ele>
        <time>2018-04-22T08:38:00Z</time>
      </trkpt>
      <trkpt lat="43.45844" lon="2.39497">
        <ele>556</ele>
        <time>2018-04-22T08:38:07Z</time>
      </trkpt>
      <trkpt lat="43.45847" lon="2.39508">
        <ele>557</ele>
        <time>2018-04-22T08:38:10Z</time>
      </trkpt>
      <trkpt lat="43.45848" lon="2.39516">
        <ele>557</ele>
        <time>2018-04-22T08:38:12Z</time>
      </trkpt>
      <trkpt lat="43.45848" lon="2.39519">
        <ele>557</ele>
        <time>2018-04-22T08:38:13Z</time>
      </trkpt>
      <trkpt lat="43.45849" lon="2.39545">
        <ele>559</ele>
        <time>2018-04-22T08:38:20Z</time>
      </trkpt>
      <trkpt lat="43.45848" lon="2.39548">
        <ele>559</ele>
        <time>2018-04-22T08:38:21Z</time>
      </trkpt>
      <trkpt lat="43.4585" lon="2.39571">
        <ele>559</ele>
        <time>2018-04-22T08:38:27Z</time>
      </trkpt>
      <trkpt lat="43.45853" lon="2.39581">
        <ele>560</ele>
        <time>2018-04-22T08:38:30Z</time>
      </trkpt>
      <trkpt lat="43.45854" lon="2.39584">
        <ele>560</ele>
        <time>2018-04-22T08:38:31Z</time>
      </trkpt>
      <trkpt lat="43.45855" lon="2.39587">
        <ele>561</ele>
        <time>2018-04-22T08:38:32Z</time>
      </trkpt>
      <trkpt lat="43.4586" lon="2.39591">
        <ele>561</ele>
        <time>2018-04-22T08:38:34Z</time>
      </trkpt>
      <trkpt lat="43.45863" lon="2.39593">
        <ele>561</ele>
        <time>2018-04-22T08:38:35Z</time>
      </trkpt>
      <trkpt lat="43.45869" lon="2.39594">
        <ele>562</ele>
        <time>2018-04-22T08:38:37Z</time>
      </trkpt>
      <trkpt lat="43.45871" lon="2.39594">
        <ele>562</ele>
        <time>2018-04-22T08:38:38Z</time>
      </trkpt>
      <trkpt lat="43.45875" lon="2.39592">
        <ele>562</ele>
        <time>2018-04-22T08:38:40Z</time>
      </trkpt>
      <trkpt lat="43.45877" lon="2.39591">
        <ele>562</ele>
        <time>2018-04-22T08:38:41Z</time>
      </trkpt>
      <trkpt lat="43.45891" lon="2.39579">
        <ele>563</ele>
        <time>2018-04-22T08:38:48Z</time>
      </trkpt>
      <trkpt lat="43.45893" lon="2.39578">
        <ele>563</ele>
        <time>2018-04-22T08:38:49Z</time>
      </trkpt>
      <trkpt lat="43.45912" lon="2.39575">
        <ele>564</ele>
        <time>2018-04-22T08:38:57Z</time>
      </trkpt>
      <trkpt lat="43.45919" lon="2.39579">
        <ele>565</ele>
        <time>2018-04-22T08:39:00Z</time>
      </trkpt>
      <trkpt lat="43.45928" lon="2.39583">
        <ele>566</ele>
        <time>2018-04-22T08:39:04Z</time>
      </trkpt>
      <trkpt lat="43.45934" lon="2.39585">
        <ele>566</ele>
        <time>2018-04-22T08:39:07Z</time>
      </trkpt>
      <trkpt lat="43.45947" lon="2.39588">
        <ele>567</ele>
        <time>2018-04-22T08:39:12Z</time>
      </trkpt>
      <trkpt lat="43.45951" lon="2.39589">
        <ele>567</ele>
        <time>2018-04-22T08:39:14Z</time>
      </trkpt>
      <trkpt lat="43.45963" lon="2.396">
        <ele>567</ele>
        <time>2018-04-22T08:39:20Z</time>
      </trkpt>
      <trkpt lat="43.45966" lon="2.39604">
        <ele>567</ele>
        <time>2018-04-22T08:39:22Z</time>
      </trkpt>
      <trkpt lat="43.45973" lon="2.39601">
        <ele>568</ele>
        <time>2018-04-22T08:39:25Z</time>
      </trkpt>
      <trkpt lat="43.45986" lon="2.39594">
        <ele>569</ele>
        <time>2018-04-22T08:39:31Z</time>
      </trkpt>
      <trkpt lat="43.4599" lon="2.39592">
        <ele>569</ele>
        <time>2018-04-22T08:39:33Z</time>
      </trkpt>
      <trkpt lat="43.46005" lon="2.39588">
        <ele>569</ele>
        <time>2018-04-22T08:39:38Z</time>
      </trkpt>
      <trkpt lat="43.46015" lon="2.39592">
        <ele>570</ele>
        <time>2018-04-22T08:39:43Z</time>
      </trkpt>
      <trkpt lat="43.46022" lon="2.39599">
        <ele>570</ele>
        <time>2018-04-22T08:39:46Z</time>
      </trkpt>
      <trkpt lat="43.46025" lon="2.39604">
        <ele>571</ele>
        <time>2018-04-22T08:39:48Z</time>
      </trkpt>
      <trkpt lat="43.46026" lon="2.39609">
        <ele>571</ele>
        <time>2018-04-22T08:39:50Z</time>
      </trkpt>
      <trkpt lat="43.46026" lon="2.39616">
        <ele>572</ele>
        <time>2018-04-22T08:39:54Z</time>
      </trkpt>
      <trkpt lat="43.46026" lon="2.39617">
        <ele>572</ele>
        <time>2018-04-22T08:39:55Z</time>
      </trkpt>
      <trkpt lat="43.46025" lon="2.39621">
        <ele>573</ele>
        <time>2018-04-22T08:39:58Z</time>
      </trkpt>
      <trkpt lat="43.46025" lon="2.39626">
        <ele>573</ele>
        <time>2018-04-22T08:40:01Z</time>
      </trkpt>
      <trkpt lat="43.46025" lon="2.39628">
        <ele>573</ele>
        <time>2018-04-22T08:40:02Z</time>
      </trkpt>
      <trkpt lat="43.46023" lon="2.39635">
        <ele>574</ele>
        <time>2018-04-22T08:40:07Z</time>
      </trkpt>
      <trkpt lat="43.46023" lon="2.39637">
        <ele>574</ele>
        <time>2018-04-22T08:40:09Z</time>
      </trkpt>
      <trkpt lat="43.46022" lon="2.3964">
        <ele>574</ele>
        <time>2018-04-22T08:40:15Z</time>
      </trkpt>
      <trkpt lat="43.46019" lon="2.39648">
        <ele>575</ele>
        <time>2018-04-22T08:40:22Z</time>
      </trkpt>
      <trkpt lat="43.46017" lon="2.39651">
        <ele>575</ele>
        <time>2018-04-22T08:40:25Z</time>
      </trkpt>
      <trkpt lat="43.46014" lon="2.39657">
        <ele>576</ele>
        <time>2018-04-22T08:40:29Z</time>
      </trkpt>
      <trkpt lat="43.46013" lon="2.39659">
        <ele>577</ele>
        <time>2018-04-22T08:40:30Z</time>
      </trkpt>
      <trkpt lat="43.46009" lon="2.39664">
        <ele>577</ele>
        <time>2018-04-22T08:40:34Z</time>
      </trkpt>
      <trkpt lat="43.46006" lon="2.39667">
        <ele>578</ele>
        <time>2018-04-22T08:40:37Z</time>
      </trkpt>
      <trkpt lat="43.46002" lon="2.39671">
        <ele>579</ele>
        <time>2018-04-22T08:40:40Z</time>
      </trkpt>
      <trkpt lat="43.45996" lon="2.39675">
        <ele>579</ele>
        <time>2018-04-22T08:40:44Z</time>
      </trkpt>
      <trkpt lat="43.45995" lon="2.39676">
        <ele>580</ele>
        <time>2018-04-22T08:40:45Z</time>
      </trkpt>
      <trkpt lat="43.45989" lon="2.3968">
        <ele>581</ele>
        <time>2018-04-22T08:40:50Z</time>
      </trkpt>
      <trkpt lat="43.45985" lon="2.39684">
        <ele>581</ele>
        <time>2018-04-22T08:40:53Z</time>
      </trkpt>
      <trkpt lat="43.45979" lon="2.39687">
        <ele>581</ele>
        <time>2018-04-22T08:40:56Z</time>
      </trkpt>
      <trkpt lat="43.45978" lon="2.39687">
        <ele>582</ele>
        <time>2018-04-22T08:40:57Z</time>
      </trkpt>
      <trkpt lat="43.45977" lon="2.39688">
        <ele>582</ele>
        <time>2018-04-22T08:40:58Z</time>
      </trkpt>
      <trkpt lat="43.45976" lon="2.39689">
        <ele>582</ele>
        <time>2018-04-22T08:40:59Z</time>
      </trkpt>
      <trkpt lat="43.45974" lon="2.39691">
        <ele>582</ele>
        <time>2018-04-22T08:41:00Z</time>
      </trkpt>
      <trkpt lat="43.4597" lon="2.39695">
        <ele>582</ele>
        <time>2018-04-22T08:41:02Z</time>
      </trkpt>
      <trkpt lat="43.45966" lon="2.39697">
        <ele>583</ele>
        <time>2018-04-22T08:41:04Z</time>
      </trkpt>
      <trkpt lat="43.45958" lon="2.39702">
        <ele>584</ele>
        <time>2018-04-22T08:41:09Z</time>
      </trkpt>
      <trkpt lat="43.45956" lon="2.39703">
        <ele>584</ele>
        <time>2018-04-22T08:41:10Z</time>
      </trkpt>
      <trkpt lat="43.45952" lon="2.39704">
        <ele>586</ele>
        <time>2018-04-22T08:41:13Z</time>
      </trkpt>
      <trkpt lat="43.4595" lon="2.39704">
        <ele>586</ele>
        <time>2018-04-22T08:41:15Z</time>
      </trkpt>
      <trkpt lat="43.4594" lon="2.39713">
        <ele>587</ele>
        <time>2018-04-22T08:41:22Z</time>
      </trkpt>
      <trkpt lat="43.45939" lon="2.39714">
        <ele>587</ele>
        <time>2018-04-22T08:41:23Z</time>
      </trkpt>
      <trkpt lat="43.4593" lon="2.39721">
        <ele>587</ele>
        <time>2018-04-22T08:41:31Z</time>
      </trkpt>
      <trkpt lat="43.45927" lon="2.39723">
        <ele>588</ele>
        <time>2018-04-22T08:41:33Z</time>
      </trkpt>
      <trkpt lat="43.45923" lon="2.39727">
        <ele>589</ele>
        <time>2018-04-22T08:41:36Z</time>
      </trkpt>
      <trkpt lat="43.45918" lon="2.39731">
        <ele>590</ele>
        <time>2018-04-22T08:41:40Z</time>
      </trkpt>
      <trkpt lat="43.45916" lon="2.39731">
        <ele>590</ele>
        <time>2018-04-22T08:41:41Z</time>
      </trkpt>
      <trkpt lat="43.4591" lon="2.39734">
        <ele>591</ele>
        <time>2018-04-22T08:41:49Z</time>
      </trkpt>
      <trkpt lat="43.45907" lon="2.39736">
        <ele>591</ele>
        <time>2018-04-22T08:41:50Z</time>
      </trkpt>
      <trkpt lat="43.45895" lon="2.39743">
        <ele>592</ele>
        <time>2018-04-22T08:41:57Z</time>
      </trkpt>
      <trkpt lat="43.45887" lon="2.39753">
        <ele>592</ele>
        <time>2018-04-22T08:42:02Z</time>
      </trkpt>
      <trkpt lat="43.45884" lon="2.39754">
        <ele>593</ele>
        <time>2018-04-22T08:42:04Z</time>
      </trkpt>
      <trkpt lat="43.45877" lon="2.39763">
        <ele>593</ele>
        <time>2018-04-22T08:42:13Z</time>
      </trkpt>
      <trkpt lat="43.45872" lon="2.3977">
        <ele>593</ele>
        <time>2018-04-22T08:42:16Z</time>
      </trkpt>
      <trkpt lat="43.45869" lon="2.39772">
        <ele>593</ele>
        <time>2018-04-22T08:42:18Z</time>
      </trkpt>
      <trkpt lat="43.45868" lon="2.39772">
        <ele>593</ele>
        <time>2018-04-22T08:42:19Z</time>
      </trkpt>
      <trkpt lat="43.45858" lon="2.39776">
        <ele>593</ele>
        <time>2018-04-22T08:42:24Z</time>
      </trkpt>
      <trkpt lat="43.4584" lon="2.39776">
        <ele>594</ele>
        <time>2018-04-22T08:42:33Z</time>
      </trkpt>
      <trkpt lat="43.45832" lon="2.39775">
        <ele>594</ele>
        <time>2018-04-22T08:42:37Z</time>
      </trkpt>
      <trkpt lat="43.45823" lon="2.39772">
        <ele>594</ele>
        <time>2018-04-22T08:42:42Z</time>
      </trkpt>
      <trkpt lat="43.45816" lon="2.39768">
        <ele>595</ele>
        <time>2018-04-22T08:42:46Z</time>
      </trkpt>
      <trkpt lat="43.45812" lon="2.39762">
        <ele>595</ele>
        <time>2018-04-22T08:42:49Z</time>
      </trkpt>
      <trkpt lat="43.45808" lon="2.39755">
        <ele>595</ele>
        <time>2018-04-22T08:42:54Z</time>
      </trkpt>
      <trkpt lat="43.45807" lon="2.39755">
        <ele>596</ele>
        <time>2018-04-22T08:42:55Z</time>
      </trkpt>
      <trkpt lat="43.45801" lon="2.39748">
        <ele>597</ele>
        <time>2018-04-22T08:43:00Z</time>
      </trkpt>
      <trkpt lat="43.45796" lon="2.39744">
        <ele>598</ele>
        <time>2018-04-22T08:43:03Z</time>
      </trkpt>
      <trkpt lat="43.45792" lon="2.3974">
        <ele>599</ele>
        <time>2018-04-22T08:43:06Z</time>
      </trkpt>
      <trkpt lat="43.45789" lon="2.39738">
        <ele>599</ele>
        <time>2018-04-22T08:43:08Z</time>
      </trkpt>
      <trkpt lat="43.45785" lon="2.39735">
        <ele>599</ele>
        <time>2018-04-22T08:43:10Z</time>
      </trkpt>
      <trkpt lat="43.45782" lon="2.39734">
        <ele>600</ele>
        <time>2018-04-22T08:43:12Z</time>
      </trkpt>
      <trkpt lat="43.45781" lon="2.39735">
        <ele>600</ele>
        <time>2018-04-22T08:43:13Z</time>
      </trkpt>
      <trkpt lat="43.45777" lon="2.39732">
        <ele>600</ele>
        <time>2018-04-22T08:43:14Z</time>
      </trkpt>
      <trkpt lat="43.45774" lon="2.39732">
        <ele>600</ele>
        <time>2018-04-22T08:43:16Z</time>
      </trkpt>
      <trkpt lat="43.45771" lon="2.39732">
        <ele>601</ele>
        <time>2018-04-22T08:43:18Z</time>
      </trkpt>
      <trkpt lat="43.4576" lon="2.3973">
        <ele>601</ele>
        <time>2018-04-22T08:43:23Z</time>
      </trkpt>
      <trkpt lat="43.45754" lon="2.39731">
        <ele>602</ele>
        <time>2018-04-22T08:43:26Z</time>
      </trkpt>
      <trkpt lat="43.45753" lon="2.39731">
        <ele>602</ele>
        <time>2018-04-22T08:43:27Z</time>
      </trkpt>
      <trkpt lat="43.45748" lon="2.39732">
        <ele>603</ele>
        <time>2018-04-22T08:43:29Z</time>
      </trkpt>
      <trkpt lat="43.45744" lon="2.39733">
        <ele>603</ele>
        <time>2018-04-22T08:43:31Z</time>
      </trkpt>
      <trkpt lat="43.45736" lon="2.39736">
        <ele>603</ele>
        <time>2018-04-22T08:43:35Z</time>
      </trkpt>
      <trkpt lat="43.45734" lon="2.39737">
        <ele>603</ele>
        <time>2018-04-22T08:43:36Z</time>
      </trkpt>
      <trkpt lat="43.45731" lon="2.39739">
        <ele>603</ele>
        <time>2018-04-22T08:43:38Z</time>
      </trkpt>
      <trkpt lat="43.45719" lon="2.39745">
        <ele>603</ele>
        <time>2018-04-22T08:43:44Z</time>
      </trkpt>
      <trkpt lat="43.45711" lon="2.39749">
        <ele>604</ele>
        <time>2018-04-22T08:43:48Z</time>
      </trkpt>
      <trkpt lat="43.45707" lon="2.3975">
        <ele>604</ele>
        <time>2018-04-22T08:43:50Z</time>
      </trkpt>
      <trkpt lat="43.45702" lon="2.39752">
        <ele>605</ele>
        <time>2018-04-22T08:43:52Z</time>
      </trkpt>
      <trkpt lat="43.45698" lon="2.39752">
        <ele>605</ele>
        <time>2018-04-22T08:43:54Z</time>
      </trkpt>
      <trkpt lat="43.45694" lon="2.39754">
        <ele>605</ele>
        <time>2018-04-22T08:43:56Z</time>
      </trkpt>
      <trkpt lat="43.45683" lon="2.39755">
        <ele>606</ele>
        <time>2018-04-22T08:44:04Z</time>
      </trkpt>
      <trkpt lat="43.4568" lon="2.39751">
        <ele>606</ele>
        <time>2018-04-22T08:44:06Z</time>
      </trkpt>
      <trkpt lat="43.45677" lon="2.39745">
        <ele>606</ele>
        <time>2018-04-22T08:44:08Z</time>
      </trkpt>
      <trkpt lat="43.45671" lon="2.39738">
        <ele>606</ele>
        <time>2018-04-22T08:44:11Z</time>
      </trkpt>
      <trkpt lat="43.45671" lon="2.39736">
        <ele>606</ele>
        <time>2018-04-22T08:44:12Z</time>
      </trkpt>
      <trkpt lat="43.45671" lon="2.39734">
        <ele>606</ele>
        <time>2018-04-22T08:44:13Z</time>
      </trkpt>
      <trkpt lat="43.45665" lon="2.39719">
        <ele>607</ele>
        <time>2018-04-22T08:44:18Z</time>
      </trkpt>
      <trkpt lat="43.45665" lon="2.39716">
        <ele>607</ele>
        <time>2018-04-22T08:44:19Z</time>
      </trkpt>
      <trkpt lat="43.45656" lon="2.39696">
        <ele>607</ele>
        <time>2018-04-22T08:44:25Z</time>
      </trkpt>
      <trkpt lat="43.45654" lon="2.39686">
        <ele>608</ele>
        <time>2018-04-22T08:44:28Z</time>
      </trkpt>
      <trkpt lat="43.45652" lon="2.39681">
        <ele>608</ele>
        <time>2018-04-22T08:44:30Z</time>
      </trkpt>
      <trkpt lat="43.45649" lon="2.39671">
        <ele>609</ele>
        <time>2018-04-22T08:44:34Z</time>
      </trkpt>
      <trkpt lat="43.45646" lon="2.3966">
        <ele>610</ele>
        <time>2018-04-22T08:44:38Z</time>
      </trkpt>
      <trkpt lat="43.45645" lon="2.39659">
        <ele>611</ele>
        <time>2018-04-22T08:44:39Z</time>
      </trkpt>
      <trkpt lat="43.4564" lon="2.39646">
        <ele>611</ele>
        <time>2018-04-22T08:44:44Z</time>
      </trkpt>
      <trkpt lat="43.45637" lon="2.39636">
        <ele>612</ele>
        <time>2018-04-22T08:44:48Z</time>
      </trkpt>
      <trkpt lat="43.45635" lon="2.39631">
        <ele>613</ele>
        <time>2018-04-22T08:44:51Z</time>
      </trkpt>
      <trkpt lat="43.45634" lon="2.39626">
        <ele>613</ele>
        <time>2018-04-22T08:44:53Z</time>
      </trkpt>
      <trkpt lat="43.45634" lon="2.39619">
        <ele>614</ele>
        <time>2018-04-22T08:44:57Z</time>
      </trkpt>
      <trkpt lat="43.45632" lon="2.39615">
        <ele>615</ele>
        <time>2018-04-22T08:44:58Z</time>
      </trkpt>
      <trkpt lat="43.45627" lon="2.39596">
        <ele>615</ele>
        <time>2018-04-22T08:45:04Z</time>
      </trkpt>
      <trkpt lat="43.45626" lon="2.39591">
        <ele>616</ele>
        <time>2018-04-22T08:45:06Z</time>
      </trkpt>
      <trkpt lat="43.45626" lon="2.39584">
        <ele>616</ele>
        <time>2018-04-22T08:45:09Z</time>
      </trkpt>
      <trkpt lat="43.45624" lon="2.39579">
        <ele>616</ele>
        <time>2018-04-22T08:45:10Z</time>
      </trkpt>
      <trkpt lat="43.4562" lon="2.39569">
        <ele>616</ele>
        <time>2018-04-22T08:45:14Z</time>
      </trkpt>
      <trkpt lat="43.45617" lon="2.39561">
        <ele>617</ele>
        <time>2018-04-22T08:45:18Z</time>
      </trkpt>
      <trkpt lat="43.45616" lon="2.39556">
        <ele>617</ele>
        <time>2018-04-22T08:45:21Z</time>
      </trkpt>
      <trkpt lat="43.45614" lon="2.39553">
        <ele>617</ele>
        <time>2018-04-22T08:45:22Z</time>
      </trkpt>
      <trkpt lat="43.4561" lon="2.39549">
        <ele>617</ele>
        <time>2018-04-22T08:45:24Z</time>
      </trkpt>
      <trkpt lat="43.45607" lon="2.39545">
        <ele>618</ele>
        <time>2018-04-22T08:45:26Z</time>
      </trkpt>
      <trkpt lat="43.45603" lon="2.39541">
        <ele>618</ele>
        <time>2018-04-22T08:45:29Z</time>
      </trkpt>
      <trkpt lat="43.45596" lon="2.39535">
        <ele>619</ele>
        <time>2018-04-22T08:45:33Z</time>
      </trkpt>
      <trkpt lat="43.45593" lon="2.39533">
        <ele>620</ele>
        <time>2018-04-22T08:45:34Z</time>
      </trkpt>
      <trkpt lat="43.45585" lon="2.39527">
        <ele>621</ele>
        <time>2018-04-22T08:45:39Z</time>
      </trkpt>
      <trkpt lat="43.45582" lon="2.39525">
        <ele>621</ele>
        <time>2018-04-22T08:45:40Z</time>
      </trkpt>
      <trkpt lat="43.45569" lon="2.39522">
        <ele>622</ele>
        <time>2018-04-22T08:45:46Z</time>
      </trkpt>
      <trkpt lat="43.45562" lon="2.3952">
        <ele>622</ele>
        <time>2018-04-22T08:45:49Z</time>
      </trkpt>
      <trkpt lat="43.45553" lon="2.39517">
        <ele>623</ele>
        <time>2018-04-22T08:45:53Z</time>
      </trkpt>
      <trkpt lat="43.45551" lon="2.39516">
        <ele>624</ele>
        <time>2018-04-22T08:45:54Z</time>
      </trkpt>
      <trkpt lat="43.45544" lon="2.39515">
        <ele>624</ele>
        <time>2018-04-22T08:45:58Z</time>
      </trkpt>
      <trkpt lat="43.45541" lon="2.39514">
        <ele>625</ele>
        <time>2018-04-22T08:46:00Z</time>
      </trkpt>
      <trkpt lat="43.45536" lon="2.39513">
        <ele>625</ele>
        <time>2018-04-22T08:46:03Z</time>
      </trkpt>
      <trkpt lat="43.45531" lon="2.39512">
        <ele>626</ele>
        <time>2018-04-22T08:46:07Z</time>
      </trkpt>
      <trkpt lat="43.45529" lon="2.39511">
        <ele>627</ele>
        <time>2018-04-22T08:46:08Z</time>
      </trkpt>
      <trkpt lat="43.45523" lon="2.39511">
        <ele>628</ele>
        <time>2018-04-22T08:46:12Z</time>
      </trkpt>
      <trkpt lat="43.45518" lon="2.39511">
        <ele>628</ele>
        <time>2018-04-22T08:46:15Z</time>
      </trkpt>
      <trkpt lat="43.45514" lon="2.39511">
        <ele>629</ele>
        <time>2018-04-22T08:46:17Z</time>
      </trkpt>
      <trkpt lat="43.45509" lon="2.3951">
        <ele>630</ele>
        <time>2018-04-22T08:46:21Z</time>
      </trkpt>
      <trkpt lat="43.45506" lon="2.39511">
        <ele>631</ele>
        <time>2018-04-22T08:46:23Z</time>
      </trkpt>
      <trkpt lat="43.45504" lon="2.39511">
        <ele>631</ele>
        <time>2018-04-22T08:46:25Z</time>
      </trkpt>
      <trkpt lat="43.45503" lon="2.39511">
        <ele>631</ele>
        <time>2018-04-22T08:46:27Z</time>
      </trkpt>
      <trkpt lat="43.45499" lon="2.39512">
        <ele>632</ele>
        <time>2018-04-22T08:46:29Z</time>
      </trkpt>
      <trkpt lat="43.45498" lon="2.39513">
        <ele>633</ele>
        <time>2018-04-22T08:46:30Z</time>
      </trkpt>
      <trkpt lat="43.45493" lon="2.39514">
        <ele>634</ele>
        <time>2018-04-22T08:46:33Z</time>
      </trkpt>
      <trkpt lat="43.45487" lon="2.39516">
        <ele>634</ele>
        <time>2018-04-22T08:46:37Z</time>
      </trkpt>
      <trkpt lat="43.45484" lon="2.39517">
        <ele>635</ele>
        <time>2018-04-22T08:46:39Z</time>
      </trkpt>
      <trkpt lat="43.45479" lon="2.39516">
        <ele>635</ele>
        <time>2018-04-22T08:46:42Z</time>
      </trkpt>
      <trkpt lat="43.45476" lon="2.39516">
        <ele>636</ele>
        <time>2018-04-22T08:46:44Z</time>
      </trkpt>
      <trkpt lat="43.45468" lon="2.39516">
        <ele>637</ele>
        <time>2018-04-22T08:46:49Z</time>
      </trkpt>
      <trkpt lat="43.45463" lon="2.39515">
        <ele>638</ele>
        <time>2018-04-22T08:46:52Z</time>
      </trkpt>
      <trkpt lat="43.45461" lon="2.39515">
        <ele>638</ele>
        <time>2018-04-22T08:46:53Z</time>
      </trkpt>
      <trkpt lat="43.45452" lon="2.39518">
        <ele>639</ele>
        <time>2018-04-22T08:46:59Z</time>
      </trkpt>
      <trkpt lat="43.45447" lon="2.3952">
        <ele>641</ele>
        <time>2018-04-22T08:47:03Z</time>
      </trkpt>
      <trkpt lat="43.45445" lon="2.39521">
        <ele>641</ele>
        <time>2018-04-22T08:47:05Z</time>
      </trkpt>
      <trkpt lat="43.4544" lon="2.39521">
        <ele>642</ele>
        <time>2018-04-22T08:47:09Z</time>
      </trkpt>
      <trkpt lat="43.45436" lon="2.39523">
        <ele>643</ele>
        <time>2018-04-22T08:47:12Z</time>
      </trkpt>
      <trkpt lat="43.45429" lon="2.39523">
        <ele>644</ele>
        <time>2018-04-22T08:47:17Z</time>
      </trkpt>
      <trkpt lat="43.45425" lon="2.39523">
        <ele>644</ele>
        <time>2018-04-22T08:47:20Z</time>
      </trkpt>
      <trkpt lat="43.4542" lon="2.39524">
        <ele>645</ele>
        <time>2018-04-22T08:47:24Z</time>
      </trkpt>
      <trkpt lat="43.45418" lon="2.39523">
        <ele>645</ele>
        <time>2018-04-22T08:47:26Z</time>
      </trkpt>
      <trkpt lat="43.45412" lon="2.39525">
        <ele>646</ele>
        <time>2018-04-22T08:47:30Z</time>
      </trkpt>
      <trkpt lat="43.45405" lon="2.39525">
        <ele>647</ele>
        <time>2018-04-22T08:47:35Z</time>
      </trkpt>
      <trkpt lat="43.45404" lon="2.39525">
        <ele>647</ele>
        <time>2018-04-22T08:47:36Z</time>
      </trkpt>
      <trkpt lat="43.45401" lon="2.39525">
        <ele>647</ele>
        <time>2018-04-22T08:47:38Z</time>
      </trkpt>
      <trkpt lat="43.45396" lon="2.39524">
        <ele>648</ele>
        <time>2018-04-22T08:47:41Z</time>
      </trkpt>
      <trkpt lat="43.45394" lon="2.39525">
        <ele>648</ele>
        <time>2018-04-22T08:47:42Z</time>
      </trkpt>
      <trkpt lat="43.45386" lon="2.39525">
        <ele>649</ele>
        <time>2018-04-22T08:47:47Z</time>
      </trkpt>
      <trkpt lat="43.45383" lon="2.39525">
        <ele>649</ele>
        <time>2018-04-22T08:47:49Z</time>
      </trkpt>
      <trkpt lat="43.45378" lon="2.39522">
        <ele>650</ele>
        <time>2018-04-22T08:47:53Z</time>
      </trkpt>
      <trkpt lat="43.45373" lon="2.3952">
        <ele>651</ele>
        <time>2018-04-22T08:47:56Z</time>
      </trkpt>
      <trkpt lat="43.45372" lon="2.3952">
        <ele>651</ele>
        <time>2018-04-22T08:47:57Z</time>
      </trkpt>
      <trkpt lat="43.45362" lon="2.39519">
        <ele>652</ele>
        <time>2018-04-22T08:48:03Z</time>
      </trkpt>
      <trkpt lat="43.45361" lon="2.39518">
        <ele>653</ele>
        <time>2018-04-22T08:48:04Z</time>
      </trkpt>
      <trkpt lat="43.45354" lon="2.39518">
        <ele>654</ele>
        <time>2018-04-22T08:48:08Z</time>
      </trkpt>
      <trkpt lat="43.45353" lon="2.39518">
        <ele>654</ele>
        <time>2018-04-22T08:48:09Z</time>
      </trkpt>
      <trkpt lat="43.45342" lon="2.39516">
        <ele>655</ele>
        <time>2018-04-22T08:48:16Z</time>
      </trkpt>
      <trkpt lat="43.45341" lon="2.39514">
        <ele>655</ele>
        <time>2018-04-22T08:48:17Z</time>
      </trkpt>
      <trkpt lat="43.45333" lon="2.39509">
        <ele>656</ele>
        <time>2018-04-22T08:48:23Z</time>
      </trkpt>
      <trkpt lat="43.45326" lon="2.39502">
        <ele>657</ele>
        <time>2018-04-22T08:48:28Z</time>
      </trkpt>
      <trkpt lat="43.45321" lon="2.39498">
        <ele>658</ele>
        <time>2018-04-22T08:48:32Z</time>
      </trkpt>
      <trkpt lat="43.45319" lon="2.39495">
        <ele>658</ele>
        <time>2018-04-22T08:48:34Z</time>
      </trkpt>
      <trkpt lat="43.45316" lon="2.39493">
        <ele>658</ele>
        <time>2018-04-22T08:48:36Z</time>
      </trkpt>
      <trkpt lat="43.45308" lon="2.39487">
        <ele>659</ele>
        <time>2018-04-22T08:48:42Z</time>
      </trkpt>
      <trkpt lat="43.45303" lon="2.39484">
        <ele>660</ele>
        <time>2018-04-22T08:48:45Z</time>
      </trkpt>
      <trkpt lat="43.45293" lon="2.39479">
        <ele>661</ele>
        <time>2018-04-22T08:48:51Z</time>
      </trkpt>
      <trkpt lat="43.45287" lon="2.39478">
        <ele>661</ele>
        <time>2018-04-22T08:48:54Z</time>
      </trkpt>
      <trkpt lat="43.45284" lon="2.39478">
        <ele>662</ele>
        <time>2018-04-22T08:48:56Z</time>
      </trkpt>
      <trkpt lat="43.45281" lon="2.39477">
        <ele>662</ele>
        <time>2018-04-22T08:48:58Z</time>
      </trkpt>
      <trkpt lat="43.45277" lon="2.39477">
        <ele>662</ele>
        <time>2018-04-22T08:49:00Z</time>
      </trkpt>
      <trkpt lat="43.45274" lon="2.39476">
        <ele>663</ele>
        <time>2018-04-22T08:49:02Z</time>
      </trkpt>
      <trkpt lat="43.45268" lon="2.39475">
        <ele>663</ele>
        <time>2018-04-22T08:49:06Z</time>
      </trkpt>
      <trkpt lat="43.45266" lon="2.39475">
        <ele>664</ele>
        <time>2018-04-22T08:49:07Z</time>
      </trkpt>
      <trkpt lat="43.45256" lon="2.39473">
        <ele>665</ele>
        <time>2018-04-22T08:49:13Z</time>
      </trkpt>
      <trkpt lat="43.45253" lon="2.39473">
        <ele>665</ele>
        <time>2018-04-22T08:49:15Z</time>
      </trkpt>
      <trkpt lat="43.45247" lon="2.3947">
        <ele>666</ele>
        <time>2018-04-22T08:49:20Z</time>
      </trkpt>
      <trkpt lat="43.45246" lon="2.3947">
        <ele>666</ele>
        <time>2018-04-22T08:49:21Z</time>
      </trkpt>
      <trkpt lat="43.45244" lon="2.39469">
        <ele>666</ele>
        <time>2018-04-22T08:49:23Z</time>
      </trkpt>
      <trkpt lat="43.4524" lon="2.39467">
        <ele>666</ele>
        <time>2018-04-22T08:49:28Z</time>
      </trkpt>
      <trkpt lat="43.4524" lon="2.39467">
        <ele>666</ele>
        <time>2018-04-22T08:49:38Z</time>
      </trkpt>
      <trkpt lat="43.4524" lon="2.39467">
        <ele>666</ele>
        <time>2018-04-22T08:49:47Z</time>
      </trkpt>
      <trkpt lat="43.4524" lon="2.39467">
        <ele>666</ele>
        <time>2018-04-22T08:49:50Z</time>
      </trkpt>
      <trkpt lat="43.4524" lon="2.39467">
        <ele>666</ele>
        <time>2018-04-22T08:49:54Z</time>
      </trkpt>
      <trkpt lat="43.4524" lon="2.39467">
        <ele>666</ele>
        <time>2018-04-22T08:49:58Z</time>
      </trkpt>
      <trkpt lat="43.4524" lon="2.39467">
        <ele>666</ele>
        <time>2018-04-22T08:50:01Z</time>
      </trkpt>
      <trkpt lat="43.4524" lon="2.39467">
        <ele>666</ele>
        <time>2018-04-22T08:50:04Z</time>
      </trkpt>
      <trkpt lat="43.4524" lon="2.39467">
        <ele>666</ele>
        <time>2018-04-22T08:50:07Z</time>
      </trkpt>
      <trkpt lat="43.4524" lon="2.39467">
        <ele>666</ele>
        <time>2018-04-22T08:50:12Z</time>
      </trkpt>
      <trkpt lat="43.4524" lon="2.39466">
        <ele>666</ele>
        <time>2018-04-22T08:50:23Z</time>
      </trkpt>
      <trkpt lat="43.4524" lon="2.39466">
        <ele>666</ele>
        <time>2018-04-22T08:50:32Z</time>
      </trkpt>
      <trkpt lat="43.4524" lon="2.39466">
        <ele>666</ele>
        <time>2018-04-22T08:50:39Z</time>
      </trkpt>
      <trkpt lat="43.4524" lon="2.39466">
        <ele>666</ele>
        <time>2018-04-22T08:50:46Z</time>
      </trkpt>
      <trkpt lat="43.4524" lon="2.39466">
        <ele>666</ele>
        <time>2018-04-22T08:51:02Z</time>
      </trkpt>
      <trkpt lat="43.4524" lon="2.39466">
        <ele>666</ele>
        <time>2018-04-22T08:51:10Z</time>
      </trkpt>
      <trkpt lat="43.4524" lon="2.39466">
        <ele>665</ele>
        <time>2018-04-22T08:51:26Z</time>
      </trkpt>
      <trkpt lat="43.4524" lon="2.39466">
        <ele>665</ele>
        <time>2018-04-22T08:51:37Z</time>
      </trkpt>
      <trkpt lat="43.4524" lon="2.39466">
        <ele>665</ele>
        <time>2018-04-22T08:51:51Z</time>
      </trkpt>
      <trkpt lat="43.4524" lon="2.39466">
        <ele>665</ele>
        <time>2018-04-22T08:52:33Z</time>
      </trkpt>
      <trkpt lat="43.4524" lon="2.39466">
        <ele>666</ele>
        <time>2018-04-22T08:52:45Z</time>
      </trkpt>
      <trkpt lat="43.4524" lon="2.39466">
        <ele>666</ele>
        <time>2018-04-22T08:53:03Z</time>
      </trkpt>
      <trkpt lat="43.4524" lon="2.39466">
        <ele>666</ele>
        <time>2018-04-22T08:53:05Z</time>
      </trkpt>
      <trkpt lat="43.45239" lon="2.39466">
        <ele>666</ele>
        <time>2018-04-22T08:53:07Z</time>
      </trkpt>
      <trkpt lat="43.4523" lon="2.39462">
        <ele>665</ele>
        <time>2018-04-22T08:53:13Z</time>
      </trkpt>
      <trkpt lat="43.45227" lon="2.39462">
        <ele>665</ele>
        <time>2018-04-22T08:53:14Z</time>
      </trkpt>
      <trkpt lat="43.45215" lon="2.39459">
        <ele>664</ele>
        <time>2018-04-22T08:53:18Z</time>
      </trkpt>
      <trkpt lat="43.45204" lon="2.39458">
        <ele>662</ele>
        <time>2018-04-22T08:53:20Z</time>
      </trkpt>
      <trkpt lat="43.45193" lon="2.39468">
        <ele>661</ele>
        <time>2018-04-22T08:53:22Z</time>
      </trkpt>
      <trkpt lat="43.45184" lon="2.39488">
        <ele>659</ele>
        <time>2018-04-22T08:53:24Z</time>
      </trkpt>
      <trkpt lat="43.4518" lon="2.39497">
        <ele>658</ele>
        <time>2018-04-22T08:53:25Z</time>
      </trkpt>
      <trkpt lat="43.45175" lon="2.39507">
        <ele>657</ele>
        <time>2018-04-22T08:53:26Z</time>
      </trkpt>
      <trkpt lat="43.45167" lon="2.39527">
        <ele>656</ele>
        <time>2018-04-22T08:53:28Z</time>
      </trkpt>
      <trkpt lat="43.45161" lon="2.39548">
        <ele>655</ele>
        <time>2018-04-22T08:53:30Z</time>
      </trkpt>
      <trkpt lat="43.45159" lon="2.39559">
        <ele>654</ele>
        <time>2018-04-22T08:53:31Z</time>
      </trkpt>
      <trkpt lat="43.45155" lon="2.39578">
        <ele>652</ele>
        <time>2018-04-22T08:53:33Z</time>
      </trkpt>
      <trkpt lat="43.45156" lon="2.39586">
        <ele>651</ele>
        <time>2018-04-22T08:53:34Z</time>
      </trkpt>
      <trkpt lat="43.45159" lon="2.39603">
        <ele>650</ele>
        <time>2018-04-22T08:53:36Z</time>
      </trkpt>
      <trkpt lat="43.4516" lon="2.39613">
        <ele>650</ele>
        <time>2018-04-22T08:53:37Z</time>
      </trkpt>
      <trkpt lat="43.45162" lon="2.39625">
        <ele>648</ele>
        <time>2018-04-22T08:53:38Z</time>
      </trkpt>
      <trkpt lat="43.45163" lon="2.39637">
        <ele>647</ele>
        <time>2018-04-22T08:53:39Z</time>
      </trkpt>
      <trkpt lat="43.45167" lon="2.39661">
        <ele>646</ele>
        <time>2018-04-22T08:53:41Z</time>
      </trkpt>
      <trkpt lat="43.45172" lon="2.39693">
        <ele>646</ele>
        <time>2018-04-22T08:53:44Z</time>
      </trkpt>
      <trkpt lat="43.45175" lon="2.39701">
        <ele>646</ele>
        <time>2018-04-22T08:53:45Z</time>
      </trkpt>
      <trkpt lat="43.45177" lon="2.3971">
        <ele>645</ele>
        <time>2018-04-22T08:53:46Z</time>
      </trkpt>
      <trkpt lat="43.45178" lon="2.39729">
        <ele>644</ele>
        <time>2018-04-22T08:53:48Z</time>
      </trkpt>
      <trkpt lat="43.45176" lon="2.39739">
        <ele>643</ele>
        <time>2018-04-22T08:53:49Z</time>
      </trkpt>
      <trkpt lat="43.45174" lon="2.39747">
        <ele>642</ele>
        <time>2018-04-22T08:53:50Z</time>
      </trkpt>
      <trkpt lat="43.45171" lon="2.39754">
        <ele>641</ele>
        <time>2018-04-22T08:53:51Z</time>
      </trkpt>
      <trkpt lat="43.45158" lon="2.39769">
        <ele>641</ele>
        <time>2018-04-22T08:53:54Z</time>
      </trkpt>
      <trkpt lat="43.45154" lon="2.39774">
        <ele>641</ele>
        <time>2018-04-22T08:53:55Z</time>
      </trkpt>
      <trkpt lat="43.45139" lon="2.39795">
        <ele>640</ele>
        <time>2018-04-22T08:53:59Z</time>
      </trkpt>
      <trkpt lat="43.45125" lon="2.3982">
        <ele>639</ele>
        <time>2018-04-22T08:54:03Z</time>
      </trkpt>
      <trkpt lat="43.45122" lon="2.39826">
        <ele>639</ele>
        <time>2018-04-22T08:54:04Z</time>
      </trkpt>
      <trkpt lat="43.45105" lon="2.39853">
        <ele>639</ele>
        <time>2018-04-22T08:54:09Z</time>
      </trkpt>
      <trkpt lat="43.45093" lon="2.39875">
        <ele>638</ele>
        <time>2018-04-22T08:54:14Z</time>
      </trkpt>
      <trkpt lat="43.45092" lon="2.39879">
        <ele>638</ele>
        <time>2018-04-22T08:54:15Z</time>
      </trkpt>
      <trkpt lat="43.45082" lon="2.399">
        <ele>639</ele>
        <time>2018-04-22T08:54:21Z</time>
      </trkpt>
      <trkpt lat="43.45076" lon="2.39921">
        <ele>639</ele>
        <time>2018-04-22T08:54:25Z</time>
      </trkpt>
      <trkpt lat="43.45076" lon="2.39926">
        <ele>639</ele>
        <time>2018-04-22T08:54:26Z</time>
      </trkpt>
      <trkpt lat="43.45076" lon="2.39946">
        <ele>639</ele>
        <time>2018-04-22T08:54:30Z</time>
      </trkpt>
      <trkpt lat="43.45074" lon="2.39953">
        <ele>639</ele>
        <time>2018-04-22T08:54:32Z</time>
      </trkpt>
      <trkpt lat="43.45069" lon="2.39957">
        <ele>640</ele>
        <time>2018-04-22T08:54:34Z</time>
      </trkpt>
      <trkpt lat="43.45066" lon="2.39957">
        <ele>641</ele>
        <time>2018-04-22T08:54:35Z</time>
      </trkpt>
      <trkpt lat="43.45058" lon="2.39959">
        <ele>639</ele>
        <time>2018-04-22T08:54:38Z</time>
      </trkpt>
      <trkpt lat="43.45054" lon="2.39961">
        <ele>639</ele>
        <time>2018-04-22T08:54:39Z</time>
      </trkpt>
      <trkpt lat="43.45039" lon="2.39972">
        <ele>638</ele>
        <time>2018-04-22T08:54:42Z</time>
      </trkpt>
      <trkpt lat="43.45034" lon="2.39976">
        <ele>636</ele>
        <time>2018-04-22T08:54:43Z</time>
      </trkpt>
      <trkpt lat="43.45028" lon="2.39981">
        <ele>635</ele>
        <time>2018-04-22T08:54:44Z</time>
      </trkpt>
      <trkpt lat="43.45015" lon="2.39993">
        <ele>633</ele>
        <time>2018-04-22T08:54:46Z</time>
      </trkpt>
      <trkpt lat="43.45007" lon="2.39999">
        <ele>632</ele>
        <time>2018-04-22T08:54:47Z</time>
      </trkpt>
      <trkpt lat="43.44994" lon="2.40009">
        <ele>631</ele>
        <time>2018-04-22T08:54:49Z</time>
      </trkpt>
      <trkpt lat="43.44987" lon="2.40015">
        <ele>630</ele>
        <time>2018-04-22T08:54:50Z</time>
      </trkpt>
      <trkpt lat="43.44981" lon="2.40021">
        <ele>629</ele>
        <time>2018-04-22T08:54:51Z</time>
      </trkpt>
      <trkpt lat="43.44975" lon="2.40027">
        <ele>628</ele>
        <time>2018-04-22T08:54:52Z</time>
      </trkpt>
      <trkpt lat="43.44964" lon="2.40041">
        <ele>628</ele>
        <time>2018-04-22T08:54:54Z</time>
      </trkpt>
      <trkpt lat="43.44952" lon="2.40055">
        <ele>628</ele>
        <time>2018-04-22T08:54:56Z</time>
      </trkpt>
      <trkpt lat="43.44947" lon="2.40072">
        <ele>627</ele>
        <time>2018-04-22T08:54:58Z</time>
      </trkpt>
      <trkpt lat="43.44945" lon="2.40083">
        <ele>626</ele>
        <time>2018-04-22T08:54:59Z</time>
      </trkpt>
      <trkpt lat="43.44937" lon="2.401">
        <ele>627</ele>
        <time>2018-04-22T08:55:01Z</time>
      </trkpt>
      <trkpt lat="43.44932" lon="2.40109">
        <ele>625</ele>
        <time>2018-04-22T08:55:02Z</time>
      </trkpt>
      <trkpt lat="43.44925" lon="2.40118">
        <ele>624</ele>
        <time>2018-04-22T08:55:03Z</time>
      </trkpt>
      <trkpt lat="43.44917" lon="2.40126">
        <ele>624</ele>
        <time>2018-04-22T08:55:04Z</time>
      </trkpt>
      <trkpt lat="43.449" lon="2.40133">
        <ele>624</ele>
        <time>2018-04-22T08:55:06Z</time>
      </trkpt>
      <trkpt lat="43.44885" lon="2.40135">
        <ele>623</ele>
        <time>2018-04-22T08:55:08Z</time>
      </trkpt>
      <trkpt lat="43.44872" lon="2.40135">
        <ele>625</ele>
        <time>2018-04-22T08:55:10Z</time>
      </trkpt>
      <trkpt lat="43.44866" lon="2.40137">
        <ele>625</ele>
        <time>2018-04-22T08:55:12Z</time>
      </trkpt>
      <trkpt lat="43.44861" lon="2.40136">
        <ele>626</ele>
        <time>2018-04-22T08:55:14Z</time>
      </trkpt>
      <trkpt lat="43.44859" lon="2.40135">
        <ele>627</ele>
        <time>2018-04-22T08:55:15Z</time>
      </trkpt>
      <trkpt lat="43.44847" lon="2.40127">
        <ele>626</ele>
        <time>2018-04-22T08:55:19Z</time>
      </trkpt>
      <trkpt lat="43.44843" lon="2.40122">
        <ele>624</ele>
        <time>2018-04-22T08:55:20Z</time>
      </trkpt>
      <trkpt lat="43.44839" lon="2.40118">
        <ele>624</ele>
        <time>2018-04-22T08:55:21Z</time>
      </trkpt>
      <trkpt lat="43.44828" lon="2.40112">
        <ele>624</ele>
        <time>2018-04-22T08:55:23Z</time>
      </trkpt>
      <trkpt lat="43.44807" lon="2.40104">
        <ele>624</ele>
        <time>2018-04-22T08:55:26Z</time>
      </trkpt>
      <trkpt lat="43.44801" lon="2.40102">
        <ele>623</ele>
        <time>2018-04-22T08:55:27Z</time>
      </trkpt>
      <trkpt lat="43.44794" lon="2.40099">
        <ele>622</ele>
        <time>2018-04-22T08:55:28Z</time>
      </trkpt>
      <trkpt lat="43.44787" lon="2.40098">
        <ele>620</ele>
        <time>2018-04-22T08:55:29Z</time>
      </trkpt>
      <trkpt lat="43.44773" lon="2.40099">
        <ele>620</ele>
        <time>2018-04-22T08:55:31Z</time>
      </trkpt>
      <trkpt lat="43.44761" lon="2.40104">
        <ele>619</ele>
        <time>2018-04-22T08:55:33Z</time>
      </trkpt>
      <trkpt lat="43.44755" lon="2.40106">
        <ele>619</ele>
        <time>2018-04-22T08:55:34Z</time>
      </trkpt>
      <trkpt lat="43.44735" lon="2.40107">
        <ele>618</ele>
        <time>2018-04-22T08:55:37Z</time>
      </trkpt>
      <trkpt lat="43.44725" lon="2.40105">
        <ele>616</ele>
        <time>2018-04-22T08:55:38Z</time>
      </trkpt>
      <trkpt lat="43.44717" lon="2.40103">
        <ele>615</ele>
        <time>2018-04-22T08:55:39Z</time>
      </trkpt>
      <trkpt lat="43.44691" lon="2.40095">
        <ele>615</ele>
        <time>2018-04-22T08:55:42Z</time>
      </trkpt>
      <trkpt lat="43.44677" lon="2.40093">
        <ele>615</ele>
        <time>2018-04-22T08:55:44Z</time>
      </trkpt>
      <trkpt lat="43.44671" lon="2.40094">
        <ele>616</ele>
        <time>2018-04-22T08:55:45Z</time>
      </trkpt>
      <trkpt lat="43.44665" lon="2.40094">
        <ele>617</ele>
        <time>2018-04-22T08:55:46Z</time>
      </trkpt>
      <trkpt lat="43.4466" lon="2.40094">
        <ele>617</ele>
        <time>2018-04-22T08:55:47Z</time>
      </trkpt>
      <trkpt lat="43.44644" lon="2.40097">
        <ele>617</ele>
        <time>2018-04-22T08:55:51Z</time>
      </trkpt>
      <trkpt lat="43.44639" lon="2.40098">
        <ele>617</ele>
        <time>2018-04-22T08:55:52Z</time>
      </trkpt>
      <trkpt lat="43.44624" lon="2.40105">
        <ele>614</ele>
        <time>2018-04-22T08:55:55Z</time>
      </trkpt>
      <trkpt lat="43.44619" lon="2.4011">
        <ele>613</ele>
        <time>2018-04-22T08:55:56Z</time>
      </trkpt>
      <trkpt lat="43.44612" lon="2.40123">
        <ele>613</ele>
        <time>2018-04-22T08:55:58Z</time>
      </trkpt>
      <trkpt lat="43.44611" lon="2.40131">
        <ele>611</ele>
        <time>2018-04-22T08:55:59Z</time>
      </trkpt>
      <trkpt lat="43.44611" lon="2.40137">
        <ele>608</ele>
        <time>2018-04-22T08:56:00Z</time>
      </trkpt>
      <trkpt lat="43.44611" lon="2.40142">
        <ele>606</ele>
        <time>2018-04-22T08:56:01Z</time>
      </trkpt>
      <trkpt lat="43.4461" lon="2.40147">
        <ele>605</ele>
        <time>2018-04-22T08:56:02Z</time>
      </trkpt>
      <trkpt lat="43.4461" lon="2.40159">
        <ele>605</ele>
        <time>2018-04-22T08:56:04Z</time>
      </trkpt>
      <trkpt lat="43.44613" lon="2.40174">
        <ele>603</ele>
        <time>2018-04-22T08:56:06Z</time>
      </trkpt>
      <trkpt lat="43.44614" lon="2.40183">
        <ele>601</ele>
        <time>2018-04-22T08:56:07Z</time>
      </trkpt>
      <trkpt lat="43.44614" lon="2.40191">
        <ele>600</ele>
        <time>2018-04-22T08:56:08Z</time>
      </trkpt>
      <trkpt lat="43.44613" lon="2.40198">
        <ele>598</ele>
        <time>2018-04-22T08:56:09Z</time>
      </trkpt>
      <trkpt lat="43.4461" lon="2.40214">
        <ele>598</ele>
        <time>2018-04-22T08:56:11Z</time>
      </trkpt>
      <trkpt lat="43.44607" lon="2.40222">
        <ele>597</ele>
        <time>2018-04-22T08:56:12Z</time>
      </trkpt>
      <trkpt lat="43.446" lon="2.40241">
        <ele>597</ele>
        <time>2018-04-22T08:56:15Z</time>
      </trkpt>
      <trkpt lat="43.44598" lon="2.40247">
        <ele>594</ele>
        <time>2018-04-22T08:56:16Z</time>
      </trkpt>
      <trkpt lat="43.44594" lon="2.40252">
        <ele>593</ele>
        <time>2018-04-22T08:56:17Z</time>
      </trkpt>
      <trkpt lat="43.44591" lon="2.40259">
        <ele>591</ele>
        <time>2018-04-22T08:56:18Z</time>
      </trkpt>
      <trkpt lat="43.44588" lon="2.40267">
        <ele>590</ele>
        <time>2018-04-22T08:56:19Z</time>
      </trkpt>
      <trkpt lat="43.44587" lon="2.40277">
        <ele>590</ele>
        <time>2018-04-22T08:56:20Z</time>
      </trkpt>
      <trkpt lat="43.44587" lon="2.40286">
        <ele>590</ele>
        <time>2018-04-22T08:56:21Z</time>
      </trkpt>
      <trkpt lat="43.44586" lon="2.40294">
        <ele>589</ele>
        <time>2018-04-22T08:56:22Z</time>
      </trkpt>
      <trkpt lat="43.44581" lon="2.40301">
        <ele>589</ele>
        <time>2018-04-22T08:56:24Z</time>
      </trkpt>
      <trkpt lat="43.44576" lon="2.40304">
        <ele>590</ele>
        <time>2018-04-22T08:56:26Z</time>
      </trkpt>
      <trkpt lat="43.44572" lon="2.40305">
        <ele>590</ele>
        <time>2018-04-22T08:56:28Z</time>
      </trkpt>
      <trkpt lat="43.44563" lon="2.40309">
        <ele>591</ele>
        <time>2018-04-22T08:56:33Z</time>
      </trkpt>
      <trkpt lat="43.44548" lon="2.40312">
        <ele>591</ele>
        <time>2018-04-22T08:56:38Z</time>
      </trkpt>
      <trkpt lat="43.44541" lon="2.40313">
        <ele>593</ele>
        <time>2018-04-22T08:56:41Z</time>
      </trkpt>
      <trkpt lat="43.44536" lon="2.40316">
        <ele>594</ele>
        <time>2018-04-22T08:56:43Z</time>
      </trkpt>
      <trkpt lat="43.44531" lon="2.40319">
        <ele>594</ele>
        <time>2018-04-22T08:56:46Z</time>
      </trkpt>
      <trkpt lat="43.44529" lon="2.40321">
        <ele>595</ele>
        <time>2018-04-22T08:56:48Z</time>
      </trkpt>
      <trkpt lat="43.44527" lon="2.40322">
        <ele>596</ele>
        <time>2018-04-22T08:56:49Z</time>
      </trkpt>
      <trkpt lat="43.44522" lon="2.40324">
        <ele>596</ele>
        <time>2018-04-22T08:56:52Z</time>
      </trkpt>
      <trkpt lat="43.44519" lon="2.40326">
        <ele>596</ele>
        <time>2018-04-22T08:56:54Z</time>
      </trkpt>
      <trkpt lat="43.44517" lon="2.40326">
        <ele>597</ele>
        <time>2018-04-22T08:56:55Z</time>
      </trkpt>
      <trkpt lat="43.44511" lon="2.40327">
        <ele>598</ele>
        <time>2018-04-22T08:56:59Z</time>
      </trkpt>
      <trkpt lat="43.44509" lon="2.40327">
        <ele>598</ele>
        <time>2018-04-22T08:57:00Z</time>
      </trkpt>
      <trkpt lat="43.44508" lon="2.40328">
        <ele>598</ele>
        <time>2018-04-22T08:57:01Z</time>
      </trkpt>
      <trkpt lat="43.44502" lon="2.40327">
        <ele>599</ele>
        <time>2018-04-22T08:57:04Z</time>
      </trkpt>
      <trkpt lat="43.44501" lon="2.40326">
        <ele>600</ele>
        <time>2018-04-22T08:57:06Z</time>
      </trkpt>
      <trkpt lat="43.44497" lon="2.40324">
        <ele>601</ele>
        <time>2018-04-22T08:57:11Z</time>
      </trkpt>
      <trkpt lat="43.44496" lon="2.40322">
        <ele>602</ele>
        <time>2018-04-22T08:57:13Z</time>
      </trkpt>
      <trkpt lat="43.44493" lon="2.40313">
        <ele>603</ele>
        <time>2018-04-22T08:57:20Z</time>
      </trkpt>
      <trkpt lat="43.4449" lon="2.40306">
        <ele>604</ele>
        <time>2018-04-22T08:57:24Z</time>
      </trkpt>
      <trkpt lat="43.44488" lon="2.403">
        <ele>604</ele>
        <time>2018-04-22T08:57:28Z</time>
      </trkpt>
      <trkpt lat="43.44482" lon="2.40292">
        <ele>605</ele>
        <time>2018-04-22T08:57:33Z</time>
      </trkpt>
      <trkpt lat="43.4448" lon="2.40288">
        <ele>606</ele>
        <time>2018-04-22T08:57:36Z</time>
      </trkpt>
      <trkpt lat="43.4448" lon="2.40286">
        <ele>606</ele>
        <time>2018-04-22T08:57:37Z</time>
      </trkpt>
      <trkpt lat="43.44476" lon="2.40282">
        <ele>607</ele>
        <time>2018-04-22T08:57:41Z</time>
      </trkpt>
      <trkpt lat="43.44475" lon="2.4028">
        <ele>608</ele>
        <time>2018-04-22T08:57:43Z</time>
      </trkpt>
      <trkpt lat="43.44474" lon="2.40273">
        <ele>609</ele>
        <time>2018-04-22T08:57:46Z</time>
      </trkpt>
      <trkpt lat="43.44471" lon="2.40264">
        <ele>610</ele>
        <time>2018-04-22T08:57:51Z</time>
      </trkpt>
      <trkpt lat="43.44471" lon="2.40262">
        <ele>610</ele>
        <time>2018-04-22T08:57:52Z</time>
      </trkpt>
      <trkpt lat="43.4447" lon="2.40261">
        <ele>610</ele>
        <time>2018-04-22T08:57:53Z</time>
      </trkpt>
      <trkpt lat="43.4447" lon="2.40253">
        <ele>610</ele>
        <time>2018-04-22T08:57:57Z</time>
      </trkpt>
      <trkpt lat="43.44469" lon="2.40249">
        <ele>611</ele>
        <time>2018-04-22T08:57:59Z</time>
      </trkpt>
      <trkpt lat="43.44469" lon="2.40247">
        <ele>611</ele>
        <time>2018-04-22T08:58:00Z</time>
      </trkpt>
      <trkpt lat="43.44468" lon="2.40241">
        <ele>611</ele>
        <time>2018-04-22T08:58:03Z</time>
      </trkpt>
      <trkpt lat="43.44468" lon="2.40235">
        <ele>612</ele>
        <time>2018-04-22T08:58:07Z</time>
      </trkpt>
      <trkpt lat="43.44468" lon="2.40234">
        <ele>612</ele>
        <time>2018-04-22T08:58:08Z</time>
      </trkpt>
      <trkpt lat="43.44469" lon="2.40223">
        <ele>613</ele>
        <time>2018-04-22T08:58:15Z</time>
      </trkpt>
      <trkpt lat="43.44469" lon="2.4022">
        <ele>613</ele>
        <time>2018-04-22T08:58:17Z</time>
      </trkpt>
      <trkpt lat="43.44469" lon="2.40212">
        <ele>614</ele>
        <time>2018-04-22T08:58:24Z</time>
      </trkpt>
      <trkpt lat="43.44468" lon="2.40207">
        <ele>615</ele>
        <time>2018-04-22T08:58:27Z</time>
      </trkpt>
      <trkpt lat="43.44463" lon="2.40189">
        <ele>615</ele>
        <time>2018-04-22T08:58:36Z</time>
      </trkpt>
      <trkpt lat="43.44462" lon="2.40186">
        <ele>615</ele>
        <time>2018-04-22T08:58:37Z</time>
      </trkpt>
      <trkpt lat="43.44459" lon="2.40177">
        <ele>616</ele>
        <time>2018-04-22T08:58:40Z</time>
      </trkpt>
      <trkpt lat="43.44457" lon="2.40173">
        <ele>616</ele>
        <time>2018-04-22T08:58:42Z</time>
      </trkpt>
      <trkpt lat="43.44452" lon="2.40161">
        <ele>616</ele>
        <time>2018-04-22T08:58:47Z</time>
      </trkpt>
      <trkpt lat="43.44451" lon="2.40159">
        <ele>617</ele>
        <time>2018-04-22T08:58:48Z</time>
      </trkpt>
      <trkpt lat="43.44447" lon="2.40156">
        <ele>617</ele>
        <time>2018-04-22T08:58:51Z</time>
      </trkpt>
      <trkpt lat="43.44446" lon="2.40155">
        <ele>618</ele>
        <time>2018-04-22T08:58:52Z</time>
      </trkpt>
      <trkpt lat="43.44445" lon="2.40153">
        <ele>618</ele>
        <time>2018-04-22T08:58:53Z</time>
      </trkpt>
      <trkpt lat="43.4444" lon="2.40146">
        <ele>618</ele>
        <time>2018-04-22T08:58:57Z</time>
      </trkpt>
      <trkpt lat="43.44437" lon="2.40143">
        <ele>619</ele>
        <time>2018-04-22T08:59:00Z</time>
      </trkpt>
      <trkpt lat="43.44435" lon="2.40141">
        <ele>620</ele>
        <time>2018-04-22T08:59:02Z</time>
      </trkpt>
      <trkpt lat="43.44429" lon="2.40135">
        <ele>621</ele>
        <time>2018-04-22T08:59:07Z</time>
      </trkpt>
      <trkpt lat="43.44428" lon="2.40134">
        <ele>622</ele>
        <time>2018-04-22T08:59:08Z</time>
      </trkpt>
      <trkpt lat="43.44424" lon="2.40131">
        <ele>622</ele>
        <time>2018-04-22T08:59:12Z</time>
      </trkpt>
      <trkpt lat="43.44421" lon="2.4013">
        <ele>623</ele>
        <time>2018-04-22T08:59:15Z</time>
      </trkpt>
      <trkpt lat="43.44415" lon="2.40127">
        <ele>624</ele>
        <time>2018-04-22T08:59:18Z</time>
      </trkpt>
      <trkpt lat="43.44412" lon="2.40126">
        <ele>624</ele>
        <time>2018-04-22T08:59:21Z</time>
      </trkpt>
      <trkpt lat="43.44409" lon="2.40125">
        <ele>624</ele>
        <time>2018-04-22T08:59:23Z</time>
      </trkpt>
      <trkpt lat="43.44405" lon="2.40125">
        <ele>625</ele>
        <time>2018-04-22T08:59:26Z</time>
      </trkpt>
      <trkpt lat="43.44399" lon="2.40124">
        <ele>626</ele>
        <time>2018-04-22T08:59:32Z</time>
      </trkpt>
      <trkpt lat="43.44394" lon="2.40125">
        <ele>627</ele>
        <time>2018-04-22T08:59:36Z</time>
      </trkpt>
      <trkpt lat="43.44393" lon="2.40125">
        <ele>627</ele>
        <time>2018-04-22T08:59:37Z</time>
      </trkpt>
      <trkpt lat="43.44386" lon="2.40128">
        <ele>628</ele>
        <time>2018-04-22T08:59:42Z</time>
      </trkpt>
      <trkpt lat="43.44381" lon="2.40128">
        <ele>629</ele>
        <time>2018-04-22T08:59:45Z</time>
      </trkpt>
      <trkpt lat="43.4438" lon="2.40128">
        <ele>629</ele>
        <time>2018-04-22T08:59:46Z</time>
      </trkpt>
      <trkpt lat="43.44374" lon="2.40133">
        <ele>630</ele>
        <time>2018-04-22T08:59:51Z</time>
      </trkpt>
      <trkpt lat="43.44373" lon="2.40135">
        <ele>630</ele>
        <time>2018-04-22T08:59:52Z</time>
      </trkpt>
      <trkpt lat="43.44371" lon="2.40137">
        <ele>631</ele>
        <time>2018-04-22T08:59:53Z</time>
      </trkpt>
      <trkpt lat="43.44369" lon="2.40139">
        <ele>631</ele>
        <time>2018-04-22T08:59:55Z</time>
      </trkpt>
      <trkpt lat="43.44367" lon="2.40141">
        <ele>632</ele>
        <time>2018-04-22T08:59:57Z</time>
      </trkpt>
      <trkpt lat="43.44366" lon="2.40142">
        <ele>632</ele>
        <time>2018-04-22T08:59:58Z</time>
      </trkpt>
      <trkpt lat="43.44364" lon="2.40143">
        <ele>632</ele>
        <time>2018-04-22T08:59:59Z</time>
      </trkpt>
      <trkpt lat="43.4436" lon="2.40145">
        <ele>633</ele>
        <time>2018-04-22T09:00:02Z</time>
      </trkpt>
      <trkpt lat="43.44357" lon="2.40146">
        <ele>633</ele>
        <time>2018-04-22T09:00:04Z</time>
      </trkpt>
      <trkpt lat="43.44356" lon="2.40147">
        <ele>633</ele>
        <time>2018-04-22T09:00:05Z</time>
      </trkpt>
      <trkpt lat="43.44354" lon="2.40148">
        <ele>634</ele>
        <time>2018-04-22T09:00:08Z</time>
      </trkpt>
      <trkpt lat="43.44353" lon="2.40148">
        <ele>634</ele>
        <time>2018-04-22T09:00:09Z</time>
      </trkpt>
      <trkpt lat="43.44348" lon="2.40151">
        <ele>635</ele>
        <time>2018-04-22T09:00:15Z</time>
      </trkpt>
      <trkpt lat="43.44347" lon="2.40151">
        <ele>635</ele>
        <time>2018-04-22T09:00:16Z</time>
      </trkpt>
      <trkpt lat="43.4434" lon="2.40159">
        <ele>637</ele>
        <time>2018-04-22T09:00:22Z</time>
      </trkpt>
      <trkpt lat="43.44339" lon="2.40159">
        <ele>637</ele>
        <time>2018-04-22T09:00:23Z</time>
      </trkpt>
      <trkpt lat="43.44334" lon="2.40162">
        <ele>638</ele>
        <time>2018-04-22T09:00:29Z</time>
      </trkpt>
      <trkpt lat="43.4433" lon="2.40166">
        <ele>639</ele>
        <time>2018-04-22T09:00:32Z</time>
      </trkpt>
      <trkpt lat="43.44327" lon="2.40167">
        <ele>639</ele>
        <time>2018-04-22T09:00:34Z</time>
      </trkpt>
      <trkpt lat="43.44322" lon="2.40168">
        <ele>640</ele>
        <time>2018-04-22T09:00:38Z</time>
      </trkpt>
      <trkpt lat="43.44317" lon="2.40169">
        <ele>641</ele>
        <time>2018-04-22T09:00:41Z</time>
      </trkpt>
      <trkpt lat="43.44316" lon="2.40168">
        <ele>641</ele>
        <time>2018-04-22T09:00:43Z</time>
      </trkpt>
      <trkpt lat="43.44315" lon="2.40169">
        <ele>641</ele>
        <time>2018-04-22T09:00:44Z</time>
      </trkpt>
      <trkpt lat="43.44314" lon="2.40175">
        <ele>642</ele>
        <time>2018-04-22T09:00:48Z</time>
      </trkpt>
      <trkpt lat="43.44315" lon="2.40176">
        <ele>642</ele>
        <time>2018-04-22T09:00:49Z</time>
      </trkpt>
      <trkpt lat="43.44316" lon="2.40181">
        <ele>642</ele>
        <time>2018-04-22T09:00:53Z</time>
      </trkpt>
      <trkpt lat="43.44316" lon="2.40183">
        <ele>642</ele>
        <time>2018-04-22T09:00:59Z</time>
      </trkpt>
      <trkpt lat="43.44315" lon="2.40184">
        <ele>642</ele>
        <time>2018-04-22T09:01:08Z</time>
      </trkpt>
      <trkpt lat="43.44315" lon="2.40183">
        <ele>642</ele>
        <time>2018-04-22T09:01:14Z</time>
      </trkpt>
      <trkpt lat="43.44315" lon="2.40183">
        <ele>642</ele>
        <time>2018-04-22T09:01:25Z</time>
      </trkpt>
      <trkpt lat="43.44315" lon="2.40183">
        <ele>642</ele>
        <time>2018-04-22T09:01:31Z</time>
      </trkpt>
      <trkpt lat="43.44315" lon="2.40183">
        <ele>642</ele>
        <time>2018-04-22T09:01:34Z</time>
      </trkpt>
      <trkpt lat="43.44315" lon="2.40183">
        <ele>642</ele>
        <time>2018-04-22T09:01:42Z</time>
      </trkpt>
      <trkpt lat="43.44315" lon="2.40183">
        <ele>642</ele>
        <time>2018-04-22T09:01:45Z</time>
      </trkpt>
      <trkpt lat="43.44315" lon="2.40183">
        <ele>642</ele>
        <time>2018-04-22T09:01:48Z</time>
      </trkpt>
      <trkpt lat="43.44315" lon="2.40183">
        <ele>642</ele>
        <time>2018-04-22T09:01:52Z</time>
      </trkpt>
      <trkpt lat="43.44315" lon="2.40183">
        <ele>642</ele>
        <time>2018-04-22T09:01:56Z</time>
      </trkpt>
      <trkpt lat="43.44315" lon="2.40183">
        <ele>642</ele>
        <time>2018-04-22T09:02:08Z</time>
      </trkpt>
      <trkpt lat="43.44315" lon="2.40183">
        <ele>642</ele>
        <time>2018-04-22T09:02:17Z</time>
      </trkpt>
      <trkpt lat="43.44315" lon="2.40184">
        <ele>642</ele>
        <time>2018-04-22T09:02:24Z</time>
      </trkpt>
      <trkpt lat="43.44315" lon="2.40184">
        <ele>642</ele>
        <time>2018-04-22T09:02:28Z</time>
      </trkpt>
      <trkpt lat="43.44315" lon="2.40184">
        <ele>642</ele>
        <time>2018-04-22T09:02:32Z</time>
      </trkpt>
      <trkpt lat="43.44315" lon="2.40184">
        <ele>642</ele>
        <time>2018-04-22T09:02:39Z</time>
      </trkpt>
      <trkpt lat="43.44314" lon="2.40187">
        <ele>642</ele>
        <time>2018-04-22T09:02:45Z</time>
      </trkpt>
      <trkpt lat="43.44313" lon="2.40201">
        <ele>643</ele>
        <time>2018-04-22T09:02:51Z</time>
      </trkpt>
      <trkpt lat="43.44315" lon="2.40212">
        <ele>644</ele>
        <time>2018-04-22T09:02:56Z</time>
      </trkpt>
      <trkpt lat="43.44316" lon="2.40215">
        <ele>644</ele>
        <time>2018-04-22T09:02:58Z</time>
      </trkpt>
      <trkpt lat="43.44319" lon="2.40221">
        <ele>645</ele>
        <time>2018-04-22T09:03:02Z</time>
      </trkpt>
      <trkpt lat="43.44321" lon="2.40227">
        <ele>646</ele>
        <time>2018-04-22T09:03:06Z</time>
      </trkpt>
      <trkpt lat="43.44321" lon="2.40228">
        <ele>646</ele>
        <time>2018-04-22T09:03:07Z</time>
      </trkpt>
      <trkpt lat="43.44322" lon="2.40231">
        <ele>647</ele>
        <time>2018-04-22T09:03:09Z</time>
      </trkpt>
      <trkpt lat="43.44323" lon="2.40234">
        <ele>648</ele>
        <time>2018-04-22T09:03:12Z</time>
      </trkpt>
      <trkpt lat="43.44324" lon="2.40237">
        <ele>649</ele>
        <time>2018-04-22T09:03:16Z</time>
      </trkpt>
      <trkpt lat="43.44329" lon="2.40242">
        <ele>649</ele>
        <time>2018-04-22T09:03:21Z</time>
      </trkpt>
      <trkpt lat="43.4433" lon="2.40244">
        <ele>650</ele>
        <time>2018-04-22T09:03:23Z</time>
      </trkpt>
      <trkpt lat="43.44331" lon="2.40246">
        <ele>650</ele>
        <time>2018-04-22T09:03:24Z</time>
      </trkpt>
      <trkpt lat="43.44332" lon="2.4025">
        <ele>651</ele>
        <time>2018-04-22T09:03:27Z</time>
      </trkpt>
      <trkpt lat="43.44333" lon="2.40257">
        <ele>652</ele>
        <time>2018-04-22T09:03:31Z</time>
      </trkpt>
      <trkpt lat="43.44335" lon="2.40262">
        <ele>653</ele>
        <time>2018-04-22T09:03:34Z</time>
      </trkpt>
      <trkpt lat="43.44335" lon="2.40265">
        <ele>653</ele>
        <time>2018-04-22T09:03:36Z</time>
      </trkpt>
      <trkpt lat="43.44336" lon="2.40269">
        <ele>654</ele>
        <time>2018-04-22T09:03:39Z</time>
      </trkpt>
      <trkpt lat="43.44337" lon="2.40273">
        <ele>654</ele>
        <time>2018-04-22T09:03:43Z</time>
      </trkpt>
      <trkpt lat="43.44339" lon="2.40275">
        <ele>655</ele>
        <time>2018-04-22T09:03:45Z</time>
      </trkpt>
      <trkpt lat="43.4434" lon="2.40277">
        <ele>655</ele>
        <time>2018-04-22T09:03:47Z</time>
      </trkpt>
      <trkpt lat="43.44341" lon="2.40286">
        <ele>656</ele>
        <time>2018-04-22T09:03:52Z</time>
      </trkpt>
      <trkpt lat="43.44342" lon="2.40288">
        <ele>656</ele>
        <time>2018-04-22T09:03:53Z</time>
      </trkpt>
      <trkpt lat="43.44344" lon="2.40294">
        <ele>657</ele>
        <time>2018-04-22T09:03:58Z</time>
      </trkpt>
      <trkpt lat="43.44346" lon="2.40296">
        <ele>657</ele>
        <time>2018-04-22T09:04:00Z</time>
      </trkpt>
      <trkpt lat="43.44347" lon="2.40298">
        <ele>658</ele>
        <time>2018-04-22T09:04:06Z</time>
      </trkpt>
      <trkpt lat="43.44347" lon="2.403">
        <ele>658</ele>
        <time>2018-04-22T09:04:13Z</time>
      </trkpt>
      <trkpt lat="43.44347" lon="2.403">
        <ele>658</ele>
        <time>2018-04-22T09:04:18Z</time>
      </trkpt>
      <trkpt lat="43.44347" lon="2.40302">
        <ele>658</ele>
        <time>2018-04-22T09:04:23Z</time>
      </trkpt>
      <trkpt lat="43.44347" lon="2.40307">
        <ele>659</ele>
        <time>2018-04-22T09:04:27Z</time>
      </trkpt>
      <trkpt lat="43.44348" lon="2.4031">
        <ele>659</ele>
        <time>2018-04-22T09:04:29Z</time>
      </trkpt>
      <trkpt lat="43.44347" lon="2.40319">
        <ele>661</ele>
        <time>2018-04-22T09:04:36Z</time>
      </trkpt>
      <trkpt lat="43.44347" lon="2.40325">
        <ele>661</ele>
        <time>2018-04-22T09:04:39Z</time>
      </trkpt>
      <trkpt lat="43.44346" lon="2.40331">
        <ele>662</ele>
        <time>2018-04-22T09:04:42Z</time>
      </trkpt>
      <trkpt lat="43.44343" lon="2.40339">
        <ele>662</ele>
        <time>2018-04-22T09:04:46Z</time>
      </trkpt>
      <trkpt lat="43.44341" lon="2.40342">
        <ele>663</ele>
        <time>2018-04-22T09:04:49Z</time>
      </trkpt>
      <trkpt lat="43.44339" lon="2.40343">
        <ele>663</ele>
        <time>2018-04-22T09:04:51Z</time>
      </trkpt>
      <trkpt lat="43.44332" lon="2.40348">
        <ele>664</ele>
        <time>2018-04-22T09:04:56Z</time>
      </trkpt>
      <trkpt lat="43.4433" lon="2.4035">
        <ele>664</ele>
        <time>2018-04-22T09:04:58Z</time>
      </trkpt>
      <trkpt lat="43.44325" lon="2.40352">
        <ele>665</ele>
        <time>2018-04-22T09:05:03Z</time>
      </trkpt>
      <trkpt lat="43.44324" lon="2.40352">
        <ele>665</ele>
        <time>2018-04-22T09:05:04Z</time>
      </trkpt>
      <trkpt lat="43.44317" lon="2.4035">
        <ele>666</ele>
        <time>2018-04-22T09:05:11Z</time>
      </trkpt>
      <trkpt lat="43.4431" lon="2.40348">
        <ele>667</ele>
        <time>2018-04-22T09:05:15Z</time>
      </trkpt>
      <trkpt lat="43.44305" lon="2.40347">
        <ele>667</ele>
        <time>2018-04-22T09:05:18Z</time>
      </trkpt>
      <trkpt lat="43.44293" lon="2.40348">
        <ele>668</ele>
        <time>2018-04-22T09:05:26Z</time>
      </trkpt>
      <trkpt lat="43.44292" lon="2.40348">
        <ele>668</ele>
        <time>2018-04-22T09:05:27Z</time>
      </trkpt>
      <trkpt lat="43.44287" lon="2.40348">
        <ele>669</ele>
        <time>2018-04-22T09:05:31Z</time>
      </trkpt>
      <trkpt lat="43.44283" lon="2.40345">
        <ele>669</ele>
        <time>2018-04-22T09:05:35Z</time>
      </trkpt>
      <trkpt lat="43.44282" lon="2.40345">
        <ele>669</ele>
        <time>2018-04-22T09:05:36Z</time>
      </trkpt>
      <trkpt lat="43.44277" lon="2.40345">
        <ele>670</ele>
        <time>2018-04-22T09:05:39Z</time>
      </trkpt>
      <trkpt lat="43.44274" lon="2.40346">
        <ele>670</ele>
        <time>2018-04-22T09:05:41Z</time>
      </trkpt>
      <trkpt lat="43.44271" lon="2.40345">
        <ele>670</ele>
        <time>2018-04-22T09:05:44Z</time>
      </trkpt>
      <trkpt lat="43.4427" lon="2.40345">
        <ele>670</ele>
        <time>2018-04-22T09:05:45Z</time>
      </trkpt>
      <trkpt lat="43.44269" lon="2.40344">
        <ele>671</ele>
        <time>2018-04-22T09:05:46Z</time>
      </trkpt>
      <trkpt lat="43.44266" lon="2.40344">
        <ele>671</ele>
        <time>2018-04-22T09:05:49Z</time>
      </trkpt>
      <trkpt lat="43.44256" lon="2.40343">
        <ele>672</ele>
        <time>2018-04-22T09:05:55Z</time>
      </trkpt>
      <trkpt lat="43.44245" lon="2.40341">
        <ele>673</ele>
        <time>2018-04-22T09:06:01Z</time>
      </trkpt>
      <trkpt lat="43.44244" lon="2.40341">
        <ele>673</ele>
        <time>2018-04-22T09:06:02Z</time>
      </trkpt>
      <trkpt lat="43.44239" lon="2.40342">
        <ele>673</ele>
        <time>2018-04-22T09:06:06Z</time>
      </trkpt>
      <trkpt lat="43.44237" lon="2.40341">
        <ele>673</ele>
        <time>2018-04-22T09:06:08Z</time>
      </trkpt>
      <trkpt lat="43.44233" lon="2.40341">
        <ele>674</ele>
        <time>2018-04-22T09:06:10Z</time>
      </trkpt>
      <trkpt lat="43.44228" lon="2.40341">
        <ele>674</ele>
        <time>2018-04-22T09:06:14Z</time>
      </trkpt>
      <trkpt lat="43.44227" lon="2.4034">
        <ele>675</ele>
        <time>2018-04-22T09:06:15Z</time>
      </trkpt>
      <trkpt lat="43.44225" lon="2.4034">
        <ele>675</ele>
        <time>2018-04-22T09:06:16Z</time>
      </trkpt>
      <trkpt lat="43.44219" lon="2.40338">
        <ele>675</ele>
        <time>2018-04-22T09:06:21Z</time>
      </trkpt>
      <trkpt lat="43.44217" lon="2.40338">
        <ele>675</ele>
        <time>2018-04-22T09:06:22Z</time>
      </trkpt>
      <trkpt lat="43.44211" lon="2.40336">
        <ele>675</ele>
        <time>2018-04-22T09:06:26Z</time>
      </trkpt>
      <trkpt lat="43.44208" lon="2.40336">
        <ele>676</ele>
        <time>2018-04-22T09:06:28Z</time>
      </trkpt>
      <trkpt lat="43.44205" lon="2.40335">
        <ele>676</ele>
        <time>2018-04-22T09:06:33Z</time>
      </trkpt>
      <trkpt lat="43.44202" lon="2.40334">
        <ele>677</ele>
        <time>2018-04-22T09:06:37Z</time>
      </trkpt>
      <trkpt lat="43.44198" lon="2.40334">
        <ele>676</ele>
        <time>2018-04-22T09:06:40Z</time>
      </trkpt>
      <trkpt lat="43.44187" lon="2.40327">
        <ele>677</ele>
        <time>2018-04-22T09:06:46Z</time>
      </trkpt>
      <trkpt lat="43.44183" lon="2.40325">
        <ele>677</ele>
        <time>2018-04-22T09:06:48Z</time>
      </trkpt>
      <trkpt lat="43.44177" lon="2.40321">
        <ele>678</ele>
        <time>2018-04-22T09:06:51Z</time>
      </trkpt>
      <trkpt lat="43.44175" lon="2.4032">
        <ele>679</ele>
        <time>2018-04-22T09:06:52Z</time>
      </trkpt>
      <trkpt lat="43.44168" lon="2.40315">
        <ele>680</ele>
        <time>2018-04-22T09:06:56Z</time>
      </trkpt>
      <trkpt lat="43.44165" lon="2.40313">
        <ele>680</ele>
        <time>2018-04-22T09:06:58Z</time>
      </trkpt>
      <trkpt lat="43.44159" lon="2.40311">
        <ele>681</ele>
        <time>2018-04-22T09:07:02Z</time>
      </trkpt>
      <trkpt lat="43.44155" lon="2.4031">
        <ele>681</ele>
        <time>2018-04-22T09:07:05Z</time>
      </trkpt>
      <trkpt lat="43.44147" lon="2.40308">
        <ele>682</ele>
        <time>2018-04-22T09:07:11Z</time>
      </trkpt>
      <trkpt lat="43.44146" lon="2.40307">
        <ele>682</ele>
        <time>2018-04-22T09:07:12Z</time>
      </trkpt>
      <trkpt lat="43.44138" lon="2.40306">
        <ele>683</ele>
        <time>2018-04-22T09:07:17Z</time>
      </trkpt>
      <trkpt lat="43.44137" lon="2.40306">
        <ele>683</ele>
        <time>2018-04-22T09:07:18Z</time>
      </trkpt>
      <trkpt lat="43.44132" lon="2.40307">
        <ele>684</ele>
        <time>2018-04-22T09:07:22Z</time>
      </trkpt>
      <trkpt lat="43.4413" lon="2.40306">
        <ele>684</ele>
        <time>2018-04-22T09:07:23Z</time>
      </trkpt>
      <trkpt lat="43.44122" lon="2.40301">
        <ele>685</ele>
        <time>2018-04-22T09:07:29Z</time>
      </trkpt>
      <trkpt lat="43.44121" lon="2.403">
        <ele>685</ele>
        <time>2018-04-22T09:07:30Z</time>
      </trkpt>
      <trkpt lat="43.44118" lon="2.40295">
        <ele>686</ele>
        <time>2018-04-22T09:07:34Z</time>
      </trkpt>
      <trkpt lat="43.44115" lon="2.40289">
        <ele>686</ele>
        <time>2018-04-22T09:07:37Z</time>
      </trkpt>
      <trkpt lat="43.44114" lon="2.40283">
        <ele>687</ele>
        <time>2018-04-22T09:07:40Z</time>
      </trkpt>
      <trkpt lat="43.44113" lon="2.40279">
        <ele>687</ele>
        <time>2018-04-22T09:07:44Z</time>
      </trkpt>
      <trkpt lat="43.44113" lon="2.40277">
        <ele>688</ele>
        <time>2018-04-22T09:07:45Z</time>
      </trkpt>
      <trkpt lat="43.44112" lon="2.40273">
        <ele>688</ele>
        <time>2018-04-22T09:07:48Z</time>
      </trkpt>
      <trkpt lat="43.44111" lon="2.40269">
        <ele>689</ele>
        <time>2018-04-22T09:07:50Z</time>
      </trkpt>
      <trkpt lat="43.4411" lon="2.40264">
        <ele>689</ele>
        <time>2018-04-22T09:07:53Z</time>
      </trkpt>
      <trkpt lat="43.4411" lon="2.40259">
        <ele>690</ele>
        <time>2018-04-22T09:07:56Z</time>
      </trkpt>
      <trkpt lat="43.44108" lon="2.40252">
        <ele>691</ele>
        <time>2018-04-22T09:08:01Z</time>
      </trkpt>
      <trkpt lat="43.44107" lon="2.40251">
        <ele>691</ele>
        <time>2018-04-22T09:08:02Z</time>
      </trkpt>
      <trkpt lat="43.44106" lon="2.40244">
        <ele>692</ele>
        <time>2018-04-22T09:08:06Z</time>
      </trkpt>
      <trkpt lat="43.44106" lon="2.40243">
        <ele>692</ele>
        <time>2018-04-22T09:08:07Z</time>
      </trkpt>
      <trkpt lat="43.44106" lon="2.40239">
        <ele>692</ele>
        <time>2018-04-22T09:08:09Z</time>
      </trkpt>
      <trkpt lat="43.44104" lon="2.40233">
        <ele>693</ele>
        <time>2018-04-22T09:08:13Z</time>
      </trkpt>
      <trkpt lat="43.44103" lon="2.40232">
        <ele>693</ele>
        <time>2018-04-22T09:08:14Z</time>
      </trkpt>
      <trkpt lat="43.44103" lon="2.4023">
        <ele>693</ele>
        <time>2018-04-22T09:08:15Z</time>
      </trkpt>
      <trkpt lat="43.44099" lon="2.40226">
        <ele>694</ele>
        <time>2018-04-22T09:08:19Z</time>
      </trkpt>
      <trkpt lat="43.44095" lon="2.40225">
        <ele>694</ele>
        <time>2018-04-22T09:08:23Z</time>
      </trkpt>
      <trkpt lat="43.44093" lon="2.40226">
        <ele>694</ele>
        <time>2018-04-22T09:08:25Z</time>
      </trkpt>
      <trkpt lat="43.44091" lon="2.4023">
        <ele>695</ele>
        <time>2018-04-22T09:08:29Z</time>
      </trkpt>
      <trkpt lat="43.44089" lon="2.40233">
        <ele>695</ele>
        <time>2018-04-22T09:08:32Z</time>
      </trkpt>
      <trkpt lat="43.44088" lon="2.40234">
        <ele>695</ele>
        <time>2018-04-22T09:08:33Z</time>
      </trkpt>
      <trkpt lat="43.44085" lon="2.40241">
        <ele>696</ele>
        <time>2018-04-22T09:08:39Z</time>
      </trkpt>
      <trkpt lat="43.44084" lon="2.40244">
        <ele>696</ele>
        <time>2018-04-22T09:08:41Z</time>
      </trkpt>
      <trkpt lat="43.4408" lon="2.40254">
        <ele>697</ele>
        <time>2018-04-22T09:08:47Z</time>
      </trkpt>
      <trkpt lat="43.44076" lon="2.40263">
        <ele>697</ele>
        <time>2018-04-22T09:08:52Z</time>
      </trkpt>
      <trkpt lat="43.44074" lon="2.40269">
        <ele>697</ele>
        <time>2018-04-22T09:08:55Z</time>
      </trkpt>
      <trkpt lat="43.44064" lon="2.4028">
        <ele>697</ele>
        <time>2018-04-22T09:09:03Z</time>
      </trkpt>
      <trkpt lat="43.44056" lon="2.40282">
        <ele>697</ele>
        <time>2018-04-22T09:09:08Z</time>
      </trkpt>
      <trkpt lat="43.44055" lon="2.40282">
        <ele>697</ele>
        <time>2018-04-22T09:09:09Z</time>
      </trkpt>
      <trkpt lat="43.44047" lon="2.40283">
        <ele>697</ele>
        <time>2018-04-22T09:09:15Z</time>
      </trkpt>
      <trkpt lat="43.44044" lon="2.40284">
        <ele>697</ele>
        <time>2018-04-22T09:09:17Z</time>
      </trkpt>
      <trkpt lat="43.44042" lon="2.40285">
        <ele>698</ele>
        <time>2018-04-22T09:09:21Z</time>
      </trkpt>
      <trkpt lat="43.44042" lon="2.40286">
        <ele>698</ele>
        <time>2018-04-22T09:09:24Z</time>
      </trkpt>
      <trkpt lat="43.44042" lon="2.40286">
        <ele>698</ele>
        <time>2018-04-22T09:09:33Z</time>
      </trkpt>
      <trkpt lat="43.44042" lon="2.40287">
        <ele>698</ele>
        <time>2018-04-22T09:09:46Z</time>
      </trkpt>
      <trkpt lat="43.44042" lon="2.40287">
        <ele>698</ele>
        <time>2018-04-22T09:10:01Z</time>
      </trkpt>
      <trkpt lat="43.44042" lon="2.40287">
        <ele>698</ele>
        <time>2018-04-22T09:10:09Z</time>
      </trkpt>
      <trkpt lat="43.44042" lon="2.40287">
        <ele>698</ele>
        <time>2018-04-22T09:10:16Z</time>
      </trkpt>
      <trkpt lat="43.44042" lon="2.40288">
        <ele>698</ele>
        <time>2018-04-22T09:10:31Z</time>
      </trkpt>
      <trkpt lat="43.44042" lon="2.40288">
        <ele>698</ele>
        <time>2018-04-22T09:10:36Z</time>
      </trkpt>
      <trkpt lat="43.44041" lon="2.40288">
        <ele>697</ele>
        <time>2018-04-22T09:10:53Z</time>
      </trkpt>
      <trkpt lat="43.44041" lon="2.40289">
        <ele>698</ele>
        <time>2018-04-22T09:11:07Z</time>
      </trkpt>
      <trkpt lat="43.4404" lon="2.40289">
        <ele>698</ele>
        <time>2018-04-22T09:11:31Z</time>
      </trkpt>
      <trkpt lat="43.44035" lon="2.40288">
        <ele>698</ele>
        <time>2018-04-22T09:11:44Z</time>
      </trkpt>
      <trkpt lat="43.44028" lon="2.40288">
        <ele>698</ele>
        <time>2018-04-22T09:11:47Z</time>
      </trkpt>
      <trkpt lat="43.44017" lon="2.40288">
        <ele>698</ele>
        <time>2018-04-22T09:11:51Z</time>
      </trkpt>
      <trkpt lat="43.44009" lon="2.40288">
        <ele>698</ele>
        <time>2018-04-22T09:11:54Z</time>
      </trkpt>
      <trkpt lat="43.43995" lon="2.40289">
        <ele>699</ele>
        <time>2018-04-22T09:11:59Z</time>
      </trkpt>
      <trkpt lat="43.43993" lon="2.40289">
        <ele>699</ele>
        <time>2018-04-22T09:12:00Z</time>
      </trkpt>
      <trkpt lat="43.43975" lon="2.40293">
        <ele>698</ele>
        <time>2018-04-22T09:12:06Z</time>
      </trkpt>
      <trkpt lat="43.43959" lon="2.40297">
        <ele>698</ele>
        <time>2018-04-22T09:12:12Z</time>
      </trkpt>
      <trkpt lat="43.43941" lon="2.40301">
        <ele>698</ele>
        <time>2018-04-22T09:12:18Z</time>
      </trkpt>
      <trkpt lat="43.43921" lon="2.403">
        <ele>698</ele>
        <time>2018-04-22T09:12:24Z</time>
      </trkpt>
      <trkpt lat="43.43907" lon="2.40299">
        <ele>698</ele>
        <time>2018-04-22T09:12:28Z</time>
      </trkpt>
      <trkpt lat="43.4389" lon="2.403">
        <ele>698</ele>
        <time>2018-04-22T09:12:33Z</time>
      </trkpt>
      <trkpt lat="43.43873" lon="2.40294">
        <ele>697</ele>
        <time>2018-04-22T09:12:38Z</time>
      </trkpt>
      <trkpt lat="43.43836" lon="2.40289">
        <ele>698</ele>
        <time>2018-04-22T09:12:47Z</time>
      </trkpt>
      <trkpt lat="43.43806" lon="2.4029">
        <ele>698</ele>
        <time>2018-04-22T09:12:55Z</time>
      </trkpt>
      <trkpt lat="43.43792" lon="2.40292">
        <ele>699</ele>
        <time>2018-04-22T09:12:59Z</time>
      </trkpt>
      <trkpt lat="43.43783" lon="2.40295">
        <ele>700</ele>
        <time>2018-04-22T09:13:02Z</time>
      </trkpt>
      <trkpt lat="43.4377" lon="2.40301">
        <ele>700</ele>
        <time>2018-04-22T09:13:07Z</time>
      </trkpt>
      <trkpt lat="43.43764" lon="2.40304">
        <ele>701</ele>
        <time>2018-04-22T09:13:09Z</time>
      </trkpt>
      <trkpt lat="43.4375" lon="2.40316">
        <ele>701</ele>
        <time>2018-04-22T09:13:15Z</time>
      </trkpt>
      <trkpt lat="43.43749" lon="2.40318">
        <ele>701</ele>
        <time>2018-04-22T09:13:16Z</time>
      </trkpt>
      <trkpt lat="43.43748" lon="2.4032">
        <ele>701</ele>
        <time>2018-04-22T09:13:17Z</time>
      </trkpt>
      <trkpt lat="43.43747" lon="2.40329">
        <ele>701</ele>
        <time>2018-04-22T09:13:20Z</time>
      </trkpt>
      <trkpt lat="43.43748" lon="2.40332">
        <ele>702</ele>
        <time>2018-04-22T09:13:22Z</time>
      </trkpt>
      <trkpt lat="43.43749" lon="2.40333">
        <ele>703</ele>
        <time>2018-04-22T09:13:23Z</time>
      </trkpt>
      <trkpt lat="43.4375" lon="2.40335">
        <ele>703</ele>
        <time>2018-04-22T09:13:25Z</time>
      </trkpt>
      <trkpt lat="43.43757" lon="2.40344">
        <ele>704</ele>
        <time>2018-04-22T09:13:30Z</time>
      </trkpt>
      <trkpt lat="43.4376" lon="2.40346">
        <ele>704</ele>
        <time>2018-04-22T09:13:32Z</time>
      </trkpt>
      <trkpt lat="43.43765" lon="2.40348">
        <ele>705</ele>
        <time>2018-04-22T09:13:35Z</time>
      </trkpt>
      <trkpt lat="43.43772" lon="2.4035">
        <ele>706</ele>
        <time>2018-04-22T09:13:39Z</time>
      </trkpt>
      <trkpt lat="43.43774" lon="2.4035">
        <ele>706</ele>
        <time>2018-04-22T09:13:40Z</time>
      </trkpt>
      <trkpt lat="43.43777" lon="2.40351">
        <ele>707</ele>
        <time>2018-04-22T09:13:42Z</time>
      </trkpt>
      <trkpt lat="43.43781" lon="2.40355">
        <ele>708</ele>
        <time>2018-04-22T09:13:45Z</time>
      </trkpt>
      <trkpt lat="43.43782" lon="2.40358">
        <ele>708</ele>
        <time>2018-04-22T09:13:46Z</time>
      </trkpt>
      <trkpt lat="43.43784" lon="2.40366">
        <ele>709</ele>
        <time>2018-04-22T09:13:50Z</time>
      </trkpt>
      <trkpt lat="43.43786" lon="2.40368">
        <ele>709</ele>
        <time>2018-04-22T09:13:51Z</time>
      </trkpt>
      <trkpt lat="43.4379" lon="2.40372">
        <ele>710</ele>
        <time>2018-04-22T09:13:54Z</time>
      </trkpt>
      <trkpt lat="43.43795" lon="2.40377">
        <ele>712</ele>
        <time>2018-04-22T09:13:58Z</time>
      </trkpt>
      <trkpt lat="43.43798" lon="2.4038">
        <ele>712</ele>
        <time>2018-04-22T09:14:00Z</time>
      </trkpt>
      <trkpt lat="43.43801" lon="2.40383">
        <ele>713</ele>
        <time>2018-04-22T09:14:02Z</time>
      </trkpt>
      <trkpt lat="43.43806" lon="2.40389">
        <ele>714</ele>
        <time>2018-04-22T09:14:06Z</time>
      </trkpt>
      <trkpt lat="43.43809" lon="2.40393">
        <ele>714</ele>
        <time>2018-04-22T09:14:09Z</time>
      </trkpt>
      <trkpt lat="43.43811" lon="2.40396">
        <ele>714</ele>
        <time>2018-04-22T09:14:11Z</time>
      </trkpt>
      <trkpt lat="43.43816" lon="2.40402">
        <ele>715</ele>
        <time>2018-04-22T09:14:15Z</time>
      </trkpt>
      <trkpt lat="43.43818" lon="2.40404">
        <ele>715</ele>
        <time>2018-04-22T09:14:16Z</time>
      </trkpt>
      <trkpt lat="43.43822" lon="2.40409">
        <ele>716</ele>
        <time>2018-04-22T09:14:20Z</time>
      </trkpt>
      <trkpt lat="43.43826" lon="2.40413">
        <ele>717</ele>
        <time>2018-04-22T09:14:23Z</time>
      </trkpt>
      <trkpt lat="43.43828" lon="2.40413">
        <ele>717</ele>
        <time>2018-04-22T09:14:24Z</time>
      </trkpt>
      <trkpt lat="43.4384" lon="2.40416">
        <ele>718</ele>
        <time>2018-04-22T09:14:30Z</time>
      </trkpt>
      <trkpt lat="43.43851" lon="2.40418">
        <ele>719</ele>
        <time>2018-04-22T09:14:36Z</time>
      </trkpt>
      <trkpt lat="43.43852" lon="2.40419">
        <ele>719</ele>
        <time>2018-04-22T09:14:37Z</time>
      </trkpt>
      <trkpt lat="43.43856" lon="2.40427">
        <ele>721</ele>
        <time>2018-04-22T09:14:41Z</time>
      </trkpt>
      <trkpt lat="43.43856" lon="2.40429">
        <ele>721</ele>
        <time>2018-04-22T09:14:42Z</time>
      </trkpt>
      <trkpt lat="43.43858" lon="2.40433">
        <ele>722</ele>
        <time>2018-04-22T09:14:44Z</time>
      </trkpt>
      <trkpt lat="43.43861" lon="2.40444">
        <ele>723</ele>
        <time>2018-04-22T09:14:49Z</time>
      </trkpt>
      <trkpt lat="43.43861" lon="2.40447">
        <ele>723</ele>
        <time>2018-04-22T09:14:50Z</time>
      </trkpt>
      <trkpt lat="43.43861" lon="2.40454">
        <ele>724</ele>
        <time>2018-04-22T09:14:53Z</time>
      </trkpt>
      <trkpt lat="43.43859" lon="2.40461">
        <ele>725</ele>
        <time>2018-04-22T09:14:57Z</time>
      </trkpt>
      <trkpt lat="43.43857" lon="2.40464">
        <ele>725</ele>
        <time>2018-04-22T09:14:59Z</time>
      </trkpt>
      <trkpt lat="43.43851" lon="2.40467">
        <ele>725</ele>
        <time>2018-04-22T09:15:03Z</time>
      </trkpt>
      <trkpt lat="43.43848" lon="2.40467">
        <ele>726</ele>
        <time>2018-04-22T09:15:05Z</time>
      </trkpt>
      <trkpt lat="43.43842" lon="2.40467">
        <ele>727</ele>
        <time>2018-04-22T09:15:09Z</time>
      </trkpt>
      <trkpt lat="43.43841" lon="2.40467">
        <ele>727</ele>
        <time>2018-04-22T09:15:10Z</time>
      </trkpt>
      <trkpt lat="43.43836" lon="2.40468">
        <ele>728</ele>
        <time>2018-04-22T09:15:13Z</time>
      </trkpt>
      <trkpt lat="43.43835" lon="2.40469">
        <ele>728</ele>
        <time>2018-04-22T09:15:14Z</time>
      </trkpt>
      <trkpt lat="43.43833" lon="2.40472">
        <ele>729</ele>
        <time>2018-04-22T09:15:16Z</time>
      </trkpt>
      <trkpt lat="43.43832" lon="2.40474">
        <ele>729</ele>
        <time>2018-04-22T09:15:17Z</time>
      </trkpt>
      <trkpt lat="43.4383" lon="2.40482">
        <ele>730</ele>
        <time>2018-04-22T09:15:20Z</time>
      </trkpt>
      <trkpt lat="43.4383" lon="2.40487">
        <ele>730</ele>
        <time>2018-04-22T09:15:22Z</time>
      </trkpt>
      <trkpt lat="43.4383" lon="2.40489">
        <ele>730</ele>
        <time>2018-04-22T09:15:23Z</time>
      </trkpt>
      <trkpt lat="43.43832" lon="2.40498">
        <ele>731</ele>
        <time>2018-04-22T09:15:27Z</time>
      </trkpt>
      <trkpt lat="43.43834" lon="2.40505">
        <ele>732</ele>
        <time>2018-04-22T09:15:30Z</time>
      </trkpt>
      <trkpt lat="43.43834" lon="2.40513">
        <ele>733</ele>
        <time>2018-04-22T09:15:34Z</time>
      </trkpt>
      <trkpt lat="43.43833" lon="2.40522">
        <ele>734</ele>
        <time>2018-04-22T09:15:38Z</time>
      </trkpt>
      <trkpt lat="43.43832" lon="2.40524">
        <ele>735</ele>
        <time>2018-04-22T09:15:39Z</time>
      </trkpt>
      <trkpt lat="43.43832" lon="2.40527">
        <ele>736</ele>
        <time>2018-04-22T09:15:41Z</time>
      </trkpt>
      <trkpt lat="43.43828" lon="2.40534">
        <ele>737</ele>
        <time>2018-04-22T09:15:45Z</time>
      </trkpt>
      <trkpt lat="43.43826" lon="2.40537">
        <ele>737</ele>
        <time>2018-04-22T09:15:47Z</time>
      </trkpt>
      <trkpt lat="43.43822" lon="2.40541">
        <ele>738</ele>
        <time>2018-04-22T09:15:51Z</time>
      </trkpt>
      <trkpt lat="43.43819" lon="2.40543">
        <ele>739</ele>
        <time>2018-04-22T09:15:53Z</time>
      </trkpt>
      <trkpt lat="43.43818" lon="2.40543">
        <ele>739</ele>
        <time>2018-04-22T09:15:54Z</time>
      </trkpt>
      <trkpt lat="43.4381" lon="2.40548">
        <ele>740</ele>
        <time>2018-04-22T09:16:00Z</time>
      </trkpt>
      <trkpt lat="43.43802" lon="2.40557">
        <ele>741</ele>
        <time>2018-04-22T09:16:06Z</time>
      </trkpt>
      <trkpt lat="43.438" lon="2.40558">
        <ele>741</ele>
        <time>2018-04-22T09:16:07Z</time>
      </trkpt>
      <trkpt lat="43.43796" lon="2.40562">
        <ele>742</ele>
        <time>2018-04-22T09:16:10Z</time>
      </trkpt>
      <trkpt lat="43.4379" lon="2.40569">
        <ele>742</ele>
        <time>2018-04-22T09:16:14Z</time>
      </trkpt>
      <trkpt lat="43.43784" lon="2.40575">
        <ele>742</ele>
        <time>2018-04-22T09:16:18Z</time>
      </trkpt>
      <trkpt lat="43.43783" lon="2.40576">
        <ele>742</ele>
        <time>2018-04-22T09:16:19Z</time>
      </trkpt>
      <trkpt lat="43.43774" lon="2.40583">
        <ele>743</ele>
        <time>2018-04-22T09:16:23Z</time>
      </trkpt>
      <trkpt lat="43.4377" lon="2.40586">
        <ele>743</ele>
        <time>2018-04-22T09:16:25Z</time>
      </trkpt>
      <trkpt lat="43.4376" lon="2.406">
        <ele>743</ele>
        <time>2018-04-22T09:16:30Z</time>
      </trkpt>
      <trkpt lat="43.43744" lon="2.40626">
        <ele>744</ele>
        <time>2018-04-22T09:16:38Z</time>
      </trkpt>
      <trkpt lat="43.43733" lon="2.4064">
        <ele>744</ele>
        <time>2018-04-22T09:16:43Z</time>
      </trkpt>
      <trkpt lat="43.43724" lon="2.40651">
        <ele>745</ele>
        <time>2018-04-22T09:16:47Z</time>
      </trkpt>
      <trkpt lat="43.43722" lon="2.40654">
        <ele>745</ele>
        <time>2018-04-22T09:16:48Z</time>
      </trkpt>
      <trkpt lat="43.4371" lon="2.40665">
        <ele>746</ele>
        <time>2018-04-22T09:16:53Z</time>
      </trkpt>
      <trkpt lat="43.43706" lon="2.40669">
        <ele>747</ele>
        <time>2018-04-22T09:16:55Z</time>
      </trkpt>
      <trkpt lat="43.43692" lon="2.40679">
        <ele>747</ele>
        <time>2018-04-22T09:17:01Z</time>
      </trkpt>
      <trkpt lat="43.4369" lon="2.40681">
        <ele>747</ele>
        <time>2018-04-22T09:17:02Z</time>
      </trkpt>
      <trkpt lat="43.43677" lon="2.40689">
        <ele>748</ele>
        <time>2018-04-22T09:17:07Z</time>
      </trkpt>
      <trkpt lat="43.43672" lon="2.40692">
        <ele>749</ele>
        <time>2018-04-22T09:17:09Z</time>
      </trkpt>
      <trkpt lat="43.43663" lon="2.40699">
        <ele>749</ele>
        <time>2018-04-22T09:17:13Z</time>
      </trkpt>
      <trkpt lat="43.43654" lon="2.40707">
        <ele>750</ele>
        <time>2018-04-22T09:17:17Z</time>
      </trkpt>
      <trkpt lat="43.43644" lon="2.40717">
        <ele>751</ele>
        <time>2018-04-22T09:17:22Z</time>
      </trkpt>
      <trkpt lat="43.43629" lon="2.40727">
        <ele>752</ele>
        <time>2018-04-22T09:17:29Z</time>
      </trkpt>
      <trkpt lat="43.43627" lon="2.40728">
        <ele>752</ele>
        <time>2018-04-22T09:17:30Z</time>
      </trkpt>
      <trkpt lat="43.43615" lon="2.40734">
        <ele>753</ele>
        <time>2018-04-22T09:17:35Z</time>
      </trkpt>
      <trkpt lat="43.43608" lon="2.40737">
        <ele>753</ele>
        <time>2018-04-22T09:17:38Z</time>
      </trkpt>
      <trkpt lat="43.43593" lon="2.40742">
        <ele>754</ele>
        <time>2018-04-22T09:17:44Z</time>
      </trkpt>
      <trkpt lat="43.43578" lon="2.40747">
        <ele>754</ele>
        <time>2018-04-22T09:17:50Z</time>
      </trkpt>
      <trkpt lat="43.43573" lon="2.40749">
        <ele>755</ele>
        <time>2018-04-22T09:17:52Z</time>
      </trkpt>
      <trkpt lat="43.43558" lon="2.40755">
        <ele>755</ele>
        <time>2018-04-22T09:17:59Z</time>
      </trkpt>
      <trkpt lat="43.43556" lon="2.40756">
        <ele>756</ele>
        <time>2018-04-22T09:18:00Z</time>
      </trkpt>
      <trkpt lat="43.43543" lon="2.40763">
        <ele>757</ele>
        <time>2018-04-22T09:18:06Z</time>
      </trkpt>
      <trkpt lat="43.43541" lon="2.40764">
        <ele>757</ele>
        <time>2018-04-22T09:18:07Z</time>
      </trkpt>
      <trkpt lat="43.43537" lon="2.40767">
        <ele>758</ele>
        <time>2018-04-22T09:18:09Z</time>
      </trkpt>
      <trkpt lat="43.43529" lon="2.40771">
        <ele>759</ele>
        <time>2018-04-22T09:18:13Z</time>
      </trkpt>
      <trkpt lat="43.43523" lon="2.40775">
        <ele>759</ele>
        <time>2018-04-22T09:18:16Z</time>
      </trkpt>
      <trkpt lat="43.43519" lon="2.40777">
        <ele>760</ele>
        <time>2018-04-22T09:18:18Z</time>
      </trkpt>
      <trkpt lat="43.43511" lon="2.40783">
        <ele>761</ele>
        <time>2018-04-22T09:18:22Z</time>
      </trkpt>
      <trkpt lat="43.43507" lon="2.40785">
        <ele>762</ele>
        <time>2018-04-22T09:18:24Z</time>
      </trkpt>
      <trkpt lat="43.43501" lon="2.40789">
        <ele>762</ele>
        <time>2018-04-22T09:18:27Z</time>
      </trkpt>
      <trkpt lat="43.4349" lon="2.40794">
        <ele>763</ele>
        <time>2018-04-22T09:18:32Z</time>
      </trkpt>
      <trkpt lat="43.43484" lon="2.40794">
        <ele>763</ele>
        <time>2018-04-22T09:18:35Z</time>
      </trkpt>
      <trkpt lat="43.43477" lon="2.40793">
        <ele>764</ele>
        <time>2018-04-22T09:18:38Z</time>
      </trkpt>
      <trkpt lat="43.43475" lon="2.40793">
        <ele>764</ele>
        <time>2018-04-22T09:18:39Z</time>
      </trkpt>
      <trkpt lat="43.43465" lon="2.40797">
        <ele>765</ele>
        <time>2018-04-22T09:18:44Z</time>
      </trkpt>
      <trkpt lat="43.4346" lon="2.40798">
        <ele>766</ele>
        <time>2018-04-22T09:18:47Z</time>
      </trkpt>
      <trkpt lat="43.43454" lon="2.40801">
        <ele>767</ele>
        <time>2018-04-22T09:18:51Z</time>
      </trkpt>
      <trkpt lat="43.43452" lon="2.40802">
        <ele>767</ele>
        <time>2018-04-22T09:18:52Z</time>
      </trkpt>
      <trkpt lat="43.43446" lon="2.40806">
        <ele>768</ele>
        <time>2018-04-22T09:18:56Z</time>
      </trkpt>
      <trkpt lat="43.4344" lon="2.4081">
        <ele>768</ele>
        <time>2018-04-22T09:19:00Z</time>
      </trkpt>
      <trkpt lat="43.43436" lon="2.40814">
        <ele>769</ele>
        <time>2018-04-22T09:19:04Z</time>
      </trkpt>
      <trkpt lat="43.43432" lon="2.40817">
        <ele>770</ele>
        <time>2018-04-22T09:19:07Z</time>
      </trkpt>
      <trkpt lat="43.43431" lon="2.40818">
        <ele>770</ele>
        <time>2018-04-22T09:19:08Z</time>
      </trkpt>
      <trkpt lat="43.43427" lon="2.40823">
        <ele>771</ele>
        <time>2018-04-22T09:19:12Z</time>
      </trkpt>
      <trkpt lat="43.43423" lon="2.40827">
        <ele>771</ele>
        <time>2018-04-22T09:19:16Z</time>
      </trkpt>
      <trkpt lat="43.4342" lon="2.40831">
        <ele>772</ele>
        <time>2018-04-22T09:19:19Z</time>
      </trkpt>
      <trkpt lat="43.43416" lon="2.40836">
        <ele>773</ele>
        <time>2018-04-22T09:19:23Z</time>
      </trkpt>
      <trkpt lat="43.43415" lon="2.40837">
        <ele>774</ele>
        <time>2018-04-22T09:19:24Z</time>
      </trkpt>
      <trkpt lat="43.43413" lon="2.4084">
        <ele>775</ele>
        <time>2018-04-22T09:19:26Z</time>
      </trkpt>
      <trkpt lat="43.4341" lon="2.40846">
        <ele>776</ele>
        <time>2018-04-22T09:19:30Z</time>
      </trkpt>
      <trkpt lat="43.43409" lon="2.40847">
        <ele>776</ele>
        <time>2018-04-22T09:19:31Z</time>
      </trkpt>
      <trkpt lat="43.43406" lon="2.40853">
        <ele>777</ele>
        <time>2018-04-22T09:19:35Z</time>
      </trkpt>
      <trkpt lat="43.43404" lon="2.40856">
        <ele>778</ele>
        <time>2018-04-22T09:19:38Z</time>
      </trkpt>
      <trkpt lat="43.43403" lon="2.40858">
        <ele>778</ele>
        <time>2018-04-22T09:19:39Z</time>
      </trkpt>
      <trkpt lat="43.43399" lon="2.40865">
        <ele>779</ele>
        <time>2018-04-22T09:19:45Z</time>
      </trkpt>
      <trkpt lat="43.43399" lon="2.40866">
        <ele>779</ele>
        <time>2018-04-22T09:19:46Z</time>
      </trkpt>
      <trkpt lat="43.43394" lon="2.40873">
        <ele>780</ele>
        <time>2018-04-22T09:19:52Z</time>
      </trkpt>
      <trkpt lat="43.43391" lon="2.40878">
        <ele>781</ele>
        <time>2018-04-22T09:19:56Z</time>
      </trkpt>
      <trkpt lat="43.4339" lon="2.40879">
        <ele>781</ele>
        <time>2018-04-22T09:19:57Z</time>
      </trkpt>
      <trkpt lat="43.43387" lon="2.40885">
        <ele>782</ele>
        <time>2018-04-22T09:20:02Z</time>
      </trkpt>
      <trkpt lat="43.43385" lon="2.40887">
        <ele>782</ele>
        <time>2018-04-22T09:20:04Z</time>
      </trkpt>
      <trkpt lat="43.43383" lon="2.4089">
        <ele>783</ele>
        <time>2018-04-22T09:20:07Z</time>
      </trkpt>
      <trkpt lat="43.43378" lon="2.40896">
        <ele>784</ele>
        <time>2018-04-22T09:20:13Z</time>
      </trkpt>
      <trkpt lat="43.43376" lon="2.40898">
        <ele>784</ele>
        <time>2018-04-22T09:20:15Z</time>
      </trkpt>
      <trkpt lat="43.43375" lon="2.409">
        <ele>784</ele>
        <time>2018-04-22T09:20:17Z</time>
      </trkpt>
      <trkpt lat="43.43373" lon="2.40903">
        <ele>784</ele>
        <time>2018-04-22T09:20:19Z</time>
      </trkpt>
      <trkpt lat="43.4337" lon="2.40907">
        <ele>785</ele>
        <time>2018-04-22T09:20:23Z</time>
      </trkpt>
      <trkpt lat="43.43367" lon="2.40911">
        <ele>785</ele>
        <time>2018-04-22T09:20:26Z</time>
      </trkpt>
      <trkpt lat="43.43364" lon="2.40917">
        <ele>786</ele>
        <time>2018-04-22T09:20:31Z</time>
      </trkpt>
      <trkpt lat="43.43362" lon="2.40921">
        <ele>787</ele>
        <time>2018-04-22T09:20:34Z</time>
      </trkpt>
      <trkpt lat="43.43359" lon="2.40931">
        <ele>787</ele>
        <time>2018-04-22T09:20:40Z</time>
      </trkpt>
      <trkpt lat="43.43357" lon="2.40934">
        <ele>788</ele>
        <time>2018-04-22T09:20:42Z</time>
      </trkpt>
      <trkpt lat="43.43356" lon="2.40935">
        <ele>789</ele>
        <time>2018-04-22T09:20:43Z</time>
      </trkpt>
      <trkpt lat="43.43354" lon="2.40942">
        <ele>790</ele>
        <time>2018-04-22T09:20:47Z</time>
      </trkpt>
      <trkpt lat="43.43353" lon="2.40945">
        <ele>790</ele>
        <time>2018-04-22T09:20:49Z</time>
      </trkpt>
      <trkpt lat="43.4335" lon="2.40951">
        <ele>791</ele>
        <time>2018-04-22T09:20:53Z</time>
      </trkpt>
      <trkpt lat="43.43347" lon="2.40958">
        <ele>792</ele>
        <time>2018-04-22T09:20:58Z</time>
      </trkpt>
      <trkpt lat="43.43343" lon="2.40964">
        <ele>793</ele>
        <time>2018-04-22T09:21:03Z</time>
      </trkpt>
      <trkpt lat="43.43341" lon="2.40969">
        <ele>794</ele>
        <time>2018-04-22T09:21:06Z</time>
      </trkpt>
      <trkpt lat="43.4334" lon="2.40972">
        <ele>794</ele>
        <time>2018-04-22T09:21:08Z</time>
      </trkpt>
      <trkpt lat="43.43336" lon="2.4098">
        <ele>795</ele>
        <time>2018-04-22T09:21:14Z</time>
      </trkpt>
      <trkpt lat="43.43334" lon="2.40983">
        <ele>796</ele>
        <time>2018-04-22T09:21:16Z</time>
      </trkpt>
      <trkpt lat="43.43332" lon="2.40989">
        <ele>796</ele>
        <time>2018-04-22T09:21:19Z</time>
      </trkpt>
      <trkpt lat="43.43328" lon="2.40997">
        <ele>796</ele>
        <time>2018-04-22T09:21:24Z</time>
      </trkpt>
      <trkpt lat="43.43321" lon="2.41009">
        <ele>797</ele>
        <time>2018-04-22T09:21:31Z</time>
      </trkpt>
      <trkpt lat="43.4332" lon="2.41012">
        <ele>798</ele>
        <time>2018-04-22T09:21:33Z</time>
      </trkpt>
      <trkpt lat="43.43313" lon="2.41025">
        <ele>798</ele>
        <time>2018-04-22T09:21:40Z</time>
      </trkpt>
      <trkpt lat="43.4331" lon="2.41033">
        <ele>799</ele>
        <time>2018-04-22T09:21:44Z</time>
      </trkpt>
      <trkpt lat="43.4331" lon="2.41035">
        <ele>800</ele>
        <time>2018-04-22T09:21:45Z</time>
      </trkpt>
      <trkpt lat="43.43306" lon="2.41048">
        <ele>800</ele>
        <time>2018-04-22T09:21:51Z</time>
      </trkpt>
      <trkpt lat="43.43305" lon="2.4105">
        <ele>801</ele>
        <time>2018-04-22T09:21:52Z</time>
      </trkpt>
      <trkpt lat="43.43301" lon="2.41064">
        <ele>801</ele>
        <time>2018-04-22T09:21:59Z</time>
      </trkpt>
      <trkpt lat="43.433" lon="2.41068">
        <ele>802</ele>
        <time>2018-04-22T09:22:01Z</time>
      </trkpt>
      <trkpt lat="43.43297" lon="2.41083">
        <ele>802</ele>
        <time>2018-04-22T09:22:08Z</time>
      </trkpt>
      <trkpt lat="43.43296" lon="2.41086">
        <ele>803</ele>
        <time>2018-04-22T09:22:10Z</time>
      </trkpt>
      <trkpt lat="43.43293" lon="2.41098">
        <ele>803</ele>
        <time>2018-04-22T09:22:16Z</time>
      </trkpt>
      <trkpt lat="43.43292" lon="2.41102">
        <ele>804</ele>
        <time>2018-04-22T09:22:18Z</time>
      </trkpt>
      <trkpt lat="43.43289" lon="2.41116">
        <ele>804</ele>
        <time>2018-04-22T09:22:24Z</time>
      </trkpt>
      <trkpt lat="43.43288" lon="2.4112">
        <ele>805</ele>
        <time>2018-04-22T09:22:26Z</time>
      </trkpt>
      <trkpt lat="43.43285" lon="2.41127">
        <ele>806</ele>
        <time>2018-04-22T09:22:30Z</time>
      </trkpt>
      <trkpt lat="43.43285" lon="2.41128">
        <ele>806</ele>
        <time>2018-04-22T09:22:31Z</time>
      </trkpt>
      <trkpt lat="43.43282" lon="2.41137">
        <ele>807</ele>
        <time>2018-04-22T09:22:36Z</time>
      </trkpt>
      <trkpt lat="43.43281" lon="2.41139">
        <ele>807</ele>
        <time>2018-04-22T09:22:37Z</time>
      </trkpt>
      <trkpt lat="43.43278" lon="2.41153">
        <ele>808</ele>
        <time>2018-04-22T09:22:44Z</time>
      </trkpt>
      <trkpt lat="43.43276" lon="2.4116">
        <ele>808</ele>
        <time>2018-04-22T09:22:47Z</time>
      </trkpt>
      <trkpt lat="43.43272" lon="2.41168">
        <ele>809</ele>
        <time>2018-04-22T09:22:51Z</time>
      </trkpt>
      <trkpt lat="43.4327" lon="2.41174">
        <ele>809</ele>
        <time>2018-04-22T09:22:54Z</time>
      </trkpt>
      <trkpt lat="43.4326" lon="2.41195">
        <ele>809</ele>
        <time>2018-04-22T09:23:03Z</time>
      </trkpt>
      <trkpt lat="43.43254" lon="2.41213">
        <ele>810</ele>
        <time>2018-04-22T09:23:10Z</time>
      </trkpt>
      <trkpt lat="43.43253" lon="2.4122">
        <ele>811</ele>
        <time>2018-04-22T09:23:13Z</time>
      </trkpt>
      <trkpt lat="43.43251" lon="2.41225">
        <ele>812</ele>
        <time>2018-04-22T09:23:15Z</time>
      </trkpt>
      <trkpt lat="43.43249" lon="2.41241">
        <ele>810</ele>
        <time>2018-04-22T09:23:21Z</time>
      </trkpt>
      <trkpt lat="43.43247" lon="2.41248">
        <ele>812</ele>
        <time>2018-04-22T09:23:24Z</time>
      </trkpt>
      <trkpt lat="43.43246" lon="2.41258">
        <ele>812</ele>
        <time>2018-04-22T09:23:28Z</time>
      </trkpt>
      <trkpt lat="43.43239" lon="2.41283">
        <ele>813</ele>
        <time>2018-04-22T09:23:38Z</time>
      </trkpt>
      <trkpt lat="43.43238" lon="2.41289">
        <ele>814</ele>
        <time>2018-04-22T09:23:40Z</time>
      </trkpt>
      <trkpt lat="43.43234" lon="2.41303">
        <ele>813</ele>
        <time>2018-04-22T09:23:46Z</time>
      </trkpt>
      <trkpt lat="43.43233" lon="2.41306">
        <ele>813</ele>
        <time>2018-04-22T09:23:47Z</time>
      </trkpt>
      <trkpt lat="43.43231" lon="2.4131">
        <ele>814</ele>
        <time>2018-04-22T09:23:49Z</time>
      </trkpt>
      <trkpt lat="43.43226" lon="2.41319">
        <ele>815</ele>
        <time>2018-04-22T09:23:53Z</time>
      </trkpt>
      <trkpt lat="43.43221" lon="2.41326">
        <ele>815</ele>
        <time>2018-04-22T09:23:57Z</time>
      </trkpt>
      <trkpt lat="43.4321" lon="2.41341">
        <ele>815</ele>
        <time>2018-04-22T09:24:04Z</time>
      </trkpt>
      <trkpt lat="43.43203" lon="2.41352">
        <ele>816</ele>
        <time>2018-04-22T09:24:09Z</time>
      </trkpt>
      <trkpt lat="43.43198" lon="2.41362">
        <ele>817</ele>
        <time>2018-04-22T09:24:13Z</time>
      </trkpt>
      <trkpt lat="43.43191" lon="2.41387">
        <ele>816</ele>
        <time>2018-04-22T09:24:23Z</time>
      </trkpt>
      <trkpt lat="43.43189" lon="2.41397">
        <ele>817</ele>
        <time>2018-04-22T09:24:27Z</time>
      </trkpt>
      <trkpt lat="43.43186" lon="2.41412">
        <ele>818</ele>
        <time>2018-04-22T09:24:33Z</time>
      </trkpt>
      <trkpt lat="43.43183" lon="2.41424">
        <ele>819</ele>
        <time>2018-04-22T09:24:38Z</time>
      </trkpt>
      <trkpt lat="43.43181" lon="2.41434">
        <ele>819</ele>
        <time>2018-04-22T09:24:42Z</time>
      </trkpt>
      <trkpt lat="43.43175" lon="2.41451">
        <ele>820</ele>
        <time>2018-04-22T09:24:50Z</time>
      </trkpt>
      <trkpt lat="43.43173" lon="2.41456">
        <ele>820</ele>
        <time>2018-04-22T09:24:52Z</time>
      </trkpt>
      <trkpt lat="43.43169" lon="2.41467">
        <ele>821</ele>
        <time>2018-04-22T09:24:58Z</time>
      </trkpt>
      <trkpt lat="43.43169" lon="2.41468">
        <ele>821</ele>
        <time>2018-04-22T09:24:59Z</time>
      </trkpt>
      <trkpt lat="43.43168" lon="2.41471">
        <ele>822</ele>
        <time>2018-04-22T09:25:01Z</time>
      </trkpt>
      <trkpt lat="43.43168" lon="2.41472">
        <ele>822</ele>
        <time>2018-04-22T09:25:02Z</time>
      </trkpt>
      <trkpt lat="43.43167" lon="2.41474">
        <ele>822</ele>
        <time>2018-04-22T09:25:04Z</time>
      </trkpt>
      <trkpt lat="43.43167" lon="2.41476">
        <ele>823</ele>
        <time>2018-04-22T09:25:10Z</time>
      </trkpt>
      <trkpt lat="43.43167" lon="2.41476">
        <ele>823</ele>
        <time>2018-04-22T09:25:22Z</time>
      </trkpt>
      <trkpt lat="43.43167" lon="2.41476">
        <ele>822</ele>
        <time>2018-04-22T09:25:42Z</time>
      </trkpt>
      <trkpt lat="43.43167" lon="2.41476">
        <ele>822</ele>
        <time>2018-04-22T09:25:48Z</time>
      </trkpt>
      <trkpt lat="43.43167" lon="2.41476">
        <ele>822</ele>
        <time>2018-04-22T09:25:59Z</time>
      </trkpt>
      <trkpt lat="43.43167" lon="2.41476">
        <ele>822</ele>
        <time>2018-04-22T09:26:04Z</time>
      </trkpt>
      <trkpt lat="43.43167" lon="2.41476">
        <ele>822</ele>
        <time>2018-04-22T09:26:15Z</time>
      </trkpt>
      <trkpt lat="43.43167" lon="2.41476">
        <ele>822</ele>
        <time>2018-04-22T09:26:25Z</time>
      </trkpt>
      <trkpt lat="43.43167" lon="2.41476">
        <ele>822</ele>
        <time>2018-04-22T09:26:37Z</time>
      </trkpt>
      <trkpt lat="43.43167" lon="2.41476">
        <ele>822</ele>
        <time>2018-04-22T09:26:41Z</time>
      </trkpt>
      <trkpt lat="43.43167" lon="2.41476">
        <ele>822</ele>
        <time>2018-04-22T09:26:49Z</time>
      </trkpt>
      <trkpt lat="43.43167" lon="2.41478">
        <ele>822</ele>
        <time>2018-04-22T09:27:09Z</time>
      </trkpt>
      <trkpt lat="43.43166" lon="2.41481">
        <ele>822</ele>
        <time>2018-04-22T09:27:11Z</time>
      </trkpt>
      <trkpt lat="43.43164" lon="2.41489">
        <ele>823</ele>
        <time>2018-04-22T09:27:15Z</time>
      </trkpt>
      <trkpt lat="43.43163" lon="2.41496">
        <ele>822</ele>
        <time>2018-04-22T09:27:17Z</time>
      </trkpt>
      <trkpt lat="43.43162" lon="2.41512">
        <ele>823</ele>
        <time>2018-04-22T09:27:22Z</time>
      </trkpt>
      <trkpt lat="43.43161" lon="2.41521">
        <ele>823</ele>
        <time>2018-04-22T09:27:25Z</time>
      </trkpt>
      <trkpt lat="43.4316" lon="2.41543">
        <ele>824</ele>
        <time>2018-04-22T09:27:31Z</time>
      </trkpt>
      <trkpt lat="43.4316" lon="2.41554">
        <ele>824</ele>
        <time>2018-04-22T09:27:34Z</time>
      </trkpt>
      <trkpt lat="43.4316" lon="2.41557">
        <ele>824</ele>
        <time>2018-04-22T09:27:35Z</time>
      </trkpt>
      <trkpt lat="43.43161" lon="2.41579">
        <ele>825</ele>
        <time>2018-04-22T09:27:41Z</time>
      </trkpt>
      <trkpt lat="43.43161" lon="2.41582">
        <ele>825</ele>
        <time>2018-04-22T09:27:42Z</time>
      </trkpt>
      <trkpt lat="43.43162" lon="2.41605">
        <ele>826</ele>
        <time>2018-04-22T09:27:49Z</time>
      </trkpt>
      <trkpt lat="43.43164" lon="2.41611">
        <ele>826</ele>
        <time>2018-04-22T09:27:51Z</time>
      </trkpt>
      <trkpt lat="43.4317" lon="2.4163">
        <ele>827</ele>
        <time>2018-04-22T09:27:58Z</time>
      </trkpt>
      <trkpt lat="43.43174" lon="2.41637">
        <ele>828</ele>
        <time>2018-04-22T09:28:01Z</time>
      </trkpt>
      <trkpt lat="43.43182" lon="2.41646">
        <ele>828</ele>
        <time>2018-04-22T09:28:05Z</time>
      </trkpt>
      <trkpt lat="43.43189" lon="2.41653">
        <ele>828</ele>
        <time>2018-04-22T09:28:08Z</time>
      </trkpt>
      <trkpt lat="43.43199" lon="2.41665">
        <ele>828</ele>
        <time>2018-04-22T09:28:13Z</time>
      </trkpt>
      <trkpt lat="43.432" lon="2.41666">
        <ele>828</ele>
        <time>2018-04-22T09:28:18Z</time>
      </trkpt>
      <trkpt lat="43.43201" lon="2.41667">
        <ele>828</ele>
        <time>2018-04-22T09:28:23Z</time>
      </trkpt>
      <trkpt lat="43.43201" lon="2.41667">
        <ele>828</ele>
        <time>2018-04-22T09:28:24Z</time>
      </trkpt>
      <trkpt lat="43.43202" lon="2.41669">
        <ele>828</ele>
        <time>2018-04-22T09:28:28Z</time>
      </trkpt>
      <trkpt lat="43.43202" lon="2.4167">
        <ele>828</ele>
        <time>2018-04-22T09:28:37Z</time>
      </trkpt>
      <trkpt lat="43.43202" lon="2.4167">
        <ele>828</ele>
        <time>2018-04-22T09:28:42Z</time>
      </trkpt>
      <trkpt lat="43.43202" lon="2.4167">
        <ele>828</ele>
        <time>2018-04-22T09:28:46Z</time>
      </trkpt>
      <trkpt lat="43.43202" lon="2.41671">
        <ele>828</ele>
        <time>2018-04-22T09:29:18Z</time>
      </trkpt>
      <trkpt lat="43.43202" lon="2.41671">
        <ele>828</ele>
        <time>2018-04-22T09:29:19Z</time>
      </trkpt>
      <trkpt lat="43.43202" lon="2.41671">
        <ele>828</ele>
        <time>2018-04-22T09:29:21Z</time>
      </trkpt>
      <trkpt lat="43.43202" lon="2.41671">
        <ele>828</ele>
        <time>2018-04-22T09:29:28Z</time>
      </trkpt>
      <trkpt lat="43.43202" lon="2.41671">
        <ele>828</ele>
        <time>2018-04-22T09:29:31Z</time>
      </trkpt>
      <trkpt lat="43.43202" lon="2.41671">
        <ele>829</ele>
        <time>2018-04-22T09:29:43Z</time>
      </trkpt>
      <trkpt lat="43.43202" lon="2.41671">
        <ele>829</ele>
        <time>2018-04-22T09:29:46Z</time>
      </trkpt>
      <trkpt lat="43.43202" lon="2.4167">
        <ele>828</ele>
        <time>2018-04-22T09:30:04Z</time>
      </trkpt>
      <trkpt lat="43.43202" lon="2.41671">
        <ele>828</ele>
        <time>2018-04-22T09:30:06Z</time>
      </trkpt>
      <trkpt lat="43.43202" lon="2.41671">
        <ele>828</ele>
        <time>2018-04-22T09:30:07Z</time>
      </trkpt>
      <trkpt lat="43.43202" lon="2.41671">
        <ele>828</ele>
        <time>2018-04-22T09:30:12Z</time>
      </trkpt>
      <trkpt lat="43.43202" lon="2.41671">
        <ele>829</ele>
        <time>2018-04-22T09:30:16Z</time>
      </trkpt>
      <trkpt lat="43.43202" lon="2.41671">
        <ele>828</ele>
        <time>2018-04-22T09:30:24Z</time>
      </trkpt>
      <trkpt lat="43.43202" lon="2.41671">
        <ele>828</ele>
        <time>2018-04-22T09:30:34Z</time>
      </trkpt>
      <trkpt lat="43.43202" lon="2.4167">
        <ele>828</ele>
        <time>2018-04-22T09:30:37Z</time>
      </trkpt>
      <trkpt lat="43.43202" lon="2.41669">
        <ele>828</ele>
        <time>2018-04-22T09:30:40Z</time>
      </trkpt>
      <trkpt lat="43.43202" lon="2.41669">
        <ele>828</ele>
        <time>2018-04-22T09:30:43Z</time>
      </trkpt>
      <trkpt lat="43.43202" lon="2.41669">
        <ele>828</ele>
        <time>2018-04-22T09:30:50Z</time>
      </trkpt>
      <trkpt lat="43.43202" lon="2.41669">
        <ele>828</ele>
        <time>2018-04-22T09:30:57Z</time>
      </trkpt>
      <trkpt lat="43.43202" lon="2.41669">
        <ele>828</ele>
        <time>2018-04-22T09:31:02Z</time>
      </trkpt>
      <trkpt lat="43.43202" lon="2.41669">
        <ele>828</ele>
        <time>2018-04-22T09:31:22Z</time>
      </trkpt>
      <trkpt lat="43.43202" lon="2.41669">
        <ele>828</ele>
        <time>2018-04-22T09:31:32Z</time>
      </trkpt>
      <trkpt lat="43.43202" lon="2.41669">
        <ele>828</ele>
        <time>2018-04-22T09:31:45Z</time>
      </trkpt>
      <trkpt lat="43.43203" lon="2.41667">
        <ele>828</ele>
        <time>2018-04-22T09:32:03Z</time>
      </trkpt>
      <trkpt lat="43.43203" lon="2.41668">
        <ele>828</ele>
        <time>2018-04-22T09:32:07Z</time>
      </trkpt>
      <trkpt lat="43.43204" lon="2.41668">
        <ele>827</ele>
        <time>2018-04-22T09:32:09Z</time>
      </trkpt>
      <trkpt lat="43.43203" lon="2.41668">
        <ele>827</ele>
        <time>2018-04-22T09:32:17Z</time>
      </trkpt>
      <trkpt lat="43.43203" lon="2.41668">
        <ele>828</ele>
        <time>2018-04-22T09:32:27Z</time>
      </trkpt>
      <trkpt lat="43.43203" lon="2.41668">
        <ele>827</ele>
        <time>2018-04-22T09:32:34Z</time>
      </trkpt>
      <trkpt lat="43.43203" lon="2.41668">
        <ele>827</ele>
        <time>2018-04-22T09:32:39Z</time>
      </trkpt>
      <trkpt lat="43.43203" lon="2.41668">
        <ele>827</ele>
        <time>2018-04-22T09:32:40Z</time>
      </trkpt>
      <trkpt lat="43.43203" lon="2.41668">
        <ele>828</ele>
        <time>2018-04-22T09:32:43Z</time>
      </trkpt>
      <trkpt lat="43.43203" lon="2.41667">
        <ele>828</ele>
        <time>2018-04-22T09:32:57Z</time>
      </trkpt>
      <trkpt lat="43.43203" lon="2.41667">
        <ele>828</ele>
        <time>2018-04-22T09:33:01Z</time>
      </trkpt>
      <trkpt lat="43.43203" lon="2.41667">
        <ele>828</ele>
        <time>2018-04-22T09:33:05Z</time>
      </trkpt>
      <trkpt lat="43.43203" lon="2.41667">
        <ele>828</ele>
        <time>2018-04-22T09:33:09Z</time>
      </trkpt>
      <trkpt lat="43.43203" lon="2.41667">
        <ele>828</ele>
        <time>2018-04-22T09:33:11Z</time>
      </trkpt>
      <trkpt lat="43.43203" lon="2.41667">
        <ele>828</ele>
        <time>2018-04-22T09:33:16Z</time>
      </trkpt>
      <trkpt lat="43.43203" lon="2.41667">
        <ele>827</ele>
        <time>2018-04-22T09:33:22Z</time>
      </trkpt>
      <trkpt lat="43.43203" lon="2.41667">
        <ele>827</ele>
        <time>2018-04-22T09:33:31Z</time>
      </trkpt>
      <trkpt lat="43.43203" lon="2.41667">
        <ele>828</ele>
        <time>2018-04-22T09:33:33Z</time>
      </trkpt>
      <trkpt lat="43.43203" lon="2.41667">
        <ele>828</ele>
        <time>2018-04-22T09:33:39Z</time>
      </trkpt>
      <trkpt lat="43.43203" lon="2.41667">
        <ele>827</ele>
        <time>2018-04-22T09:33:53Z</time>
      </trkpt>
      <trkpt lat="43.43203" lon="2.41667">
        <ele>827</ele>
        <time>2018-04-22T09:33:56Z</time>
      </trkpt>
      <trkpt lat="43.43203" lon="2.41667">
        <ele>827</ele>
        <time>2018-04-22T09:34:01Z</time>
      </trkpt>
      <trkpt lat="43.43203" lon="2.41667">
        <ele>828</ele>
        <time>2018-04-22T09:34:05Z</time>
      </trkpt>
      <trkpt lat="43.43203" lon="2.41667">
        <ele>828</ele>
        <time>2018-04-22T09:34:09Z</time>
      </trkpt>
      <trkpt lat="43.43204" lon="2.41668">
        <ele>827</ele>
        <time>2018-04-22T09:34:16Z</time>
      </trkpt>
      <trkpt lat="43.43207" lon="2.41671">
        <ele>827</ele>
        <time>2018-04-22T09:34:19Z</time>
      </trkpt>
      <trkpt lat="43.43209" lon="2.41673">
        <ele>827</ele>
        <time>2018-04-22T09:34:20Z</time>
      </trkpt>
      <trkpt lat="43.43217" lon="2.41683">
        <ele>828</ele>
        <time>2018-04-22T09:34:25Z</time>
      </trkpt>
      <trkpt lat="43.43219" lon="2.41686">
        <ele>827</ele>
        <time>2018-04-22T09:34:26Z</time>
      </trkpt>
      <trkpt lat="43.43229" lon="2.41704">
        <ele>828</ele>
        <time>2018-04-22T09:34:33Z</time>
      </trkpt>
      <trkpt lat="43.43234" lon="2.4172">
        <ele>827</ele>
        <time>2018-04-22T09:34:37Z</time>
      </trkpt>
      <trkpt lat="43.43236" lon="2.41728">
        <ele>826</ele>
        <time>2018-04-22T09:34:39Z</time>
      </trkpt>
      <trkpt lat="43.43236" lon="2.4175">
        <ele>827</ele>
        <time>2018-04-22T09:34:44Z</time>
      </trkpt>
      <trkpt lat="43.43235" lon="2.41753">
        <ele>828</ele>
        <time>2018-04-22T09:34:45Z</time>
      </trkpt>
      <trkpt lat="43.43228" lon="2.4176">
        <ele>828</ele>
        <time>2018-04-22T09:34:48Z</time>
      </trkpt>
      <trkpt lat="43.43214" lon="2.41772">
        <ele>829</ele>
        <time>2018-04-22T09:34:54Z</time>
      </trkpt>
      <trkpt lat="43.43209" lon="2.41775">
        <ele>829</ele>
        <time>2018-04-22T09:34:56Z</time>
      </trkpt>
      <trkpt lat="43.43182" lon="2.41787">
        <ele>829</ele>
        <time>2018-04-22T09:35:06Z</time>
      </trkpt>
      <trkpt lat="43.43179" lon="2.41789">
        <ele>829</ele>
        <time>2018-04-22T09:35:07Z</time>
      </trkpt>
      <trkpt lat="43.4317" lon="2.41796">
        <ele>830</ele>
        <time>2018-04-22T09:35:11Z</time>
      </trkpt>
      <trkpt lat="43.43164" lon="2.41804">
        <ele>831</ele>
        <time>2018-04-22T09:35:14Z</time>
      </trkpt>
      <trkpt lat="43.43163" lon="2.41807">
        <ele>831</ele>
        <time>2018-04-22T09:35:15Z</time>
      </trkpt>
      <trkpt lat="43.43153" lon="2.4183">
        <ele>832</ele>
        <time>2018-04-22T09:35:22Z</time>
      </trkpt>
      <trkpt lat="43.43151" lon="2.41837">
        <ele>832</ele>
        <time>2018-04-22T09:35:24Z</time>
      </trkpt>
      <trkpt lat="43.43147" lon="2.41855">
        <ele>833</ele>
        <time>2018-04-22T09:35:29Z</time>
      </trkpt>
      <trkpt lat="43.43146" lon="2.41858">
        <ele>833</ele>
        <time>2018-04-22T09:35:30Z</time>
      </trkpt>
      <trkpt lat="43.43145" lon="2.41861">
        <ele>834</ele>
        <time>2018-04-22T09:35:31Z</time>
      </trkpt>
      <trkpt lat="43.43142" lon="2.41885">
        <ele>835</ele>
        <time>2018-04-22T09:35:38Z</time>
      </trkpt>
      <trkpt lat="43.43141" lon="2.4191">
        <ele>834</ele>
        <time>2018-04-22T09:35:44Z</time>
      </trkpt>
      <trkpt lat="43.43141" lon="2.41922">
        <ele>835</ele>
        <time>2018-04-22T09:35:47Z</time>
      </trkpt>
      <trkpt lat="43.43142" lon="2.41941">
        <ele>835</ele>
        <time>2018-04-22T09:35:52Z</time>
      </trkpt>
      <trkpt lat="43.43151" lon="2.41975">
        <ele>834</ele>
        <time>2018-04-22T09:36:00Z</time>
      </trkpt>
      <trkpt lat="43.43157" lon="2.41999">
        <ele>833</ele>
        <time>2018-04-22T09:36:04Z</time>
      </trkpt>
      <trkpt lat="43.43159" lon="2.42006">
        <ele>832</ele>
        <time>2018-04-22T09:36:05Z</time>
      </trkpt>
      <trkpt lat="43.43161" lon="2.42014">
        <ele>831</ele>
        <time>2018-04-22T09:36:06Z</time>
      </trkpt>
      <trkpt lat="43.43163" lon="2.42022">
        <ele>831</ele>
        <time>2018-04-22T09:36:07Z</time>
      </trkpt>
      <trkpt lat="43.4317" lon="2.42045">
        <ele>830</ele>
        <time>2018-04-22T09:36:10Z</time>
      </trkpt>
      <trkpt lat="43.43173" lon="2.42058">
        <ele>832</ele>
        <time>2018-04-22T09:36:12Z</time>
      </trkpt>
      <trkpt lat="43.43174" lon="2.42063">
        <ele>832</ele>
        <time>2018-04-22T09:36:13Z</time>
      </trkpt>
      <trkpt lat="43.43181" lon="2.42079">
        <ele>833</ele>
        <time>2018-04-22T09:36:16Z</time>
      </trkpt>
      <trkpt lat="43.43184" lon="2.42083">
        <ele>833</ele>
        <time>2018-04-22T09:36:17Z</time>
      </trkpt>
      <trkpt lat="43.43198" lon="2.421">
        <ele>833</ele>
        <time>2018-04-22T09:36:21Z</time>
      </trkpt>
      <trkpt lat="43.43206" lon="2.42108">
        <ele>833</ele>
        <time>2018-04-22T09:36:23Z</time>
      </trkpt>
      <trkpt lat="43.43216" lon="2.42126">
        <ele>833</ele>
        <time>2018-04-22T09:36:27Z</time>
      </trkpt>
      <trkpt lat="43.43218" lon="2.42132">
        <ele>832</ele>
        <time>2018-04-22T09:36:28Z</time>
      </trkpt>
      <trkpt lat="43.43219" lon="2.42138">
        <ele>830</ele>
        <time>2018-04-22T09:36:29Z</time>
      </trkpt>
      <trkpt lat="43.43221" lon="2.42143">
        <ele>828</ele>
        <time>2018-04-22T09:36:30Z</time>
      </trkpt>
      <trkpt lat="43.43222" lon="2.42153">
        <ele>828</ele>
        <time>2018-04-22T09:36:32Z</time>
      </trkpt>
      <trkpt lat="43.43222" lon="2.42157">
        <ele>828</ele>
        <time>2018-04-22T09:36:33Z</time>
      </trkpt>
      <trkpt lat="43.43224" lon="2.42164">
        <ele>828</ele>
        <time>2018-04-22T09:36:36Z</time>
      </trkpt>
      <trkpt lat="43.43225" lon="2.42165">
        <ele>827</ele>
        <time>2018-04-22T09:36:37Z</time>
      </trkpt>
      <trkpt lat="43.43225" lon="2.42165">
        <ele>827</ele>
        <time>2018-04-22T09:36:38Z</time>
      </trkpt>
      <trkpt lat="43.43227" lon="2.42166">
        <ele>827</ele>
        <time>2018-04-22T09:36:42Z</time>
      </trkpt>
      <trkpt lat="43.43231" lon="2.42165">
        <ele>828</ele>
        <time>2018-04-22T09:36:48Z</time>
      </trkpt>
      <trkpt lat="43.43233" lon="2.42165">
        <ele>828</ele>
        <time>2018-04-22T09:36:51Z</time>
      </trkpt>
      <trkpt lat="43.43233" lon="2.42165">
        <ele>828</ele>
        <time>2018-04-22T09:36:52Z</time>
      </trkpt>
      <trkpt lat="43.43237" lon="2.42167">
        <ele>828</ele>
        <time>2018-04-22T09:36:59Z</time>
      </trkpt>
      <trkpt lat="43.4324" lon="2.42171">
        <ele>827</ele>
        <time>2018-04-22T09:37:05Z</time>
      </trkpt>
      <trkpt lat="43.43241" lon="2.42172">
        <ele>827</ele>
        <time>2018-04-22T09:37:06Z</time>
      </trkpt>
      <trkpt lat="43.43243" lon="2.42175">
        <ele>826</ele>
        <time>2018-04-22T09:37:13Z</time>
      </trkpt>
      <trkpt lat="43.43245" lon="2.4218">
        <ele>826</ele>
        <time>2018-04-22T09:37:18Z</time>
      </trkpt>
      <trkpt lat="43.43244" lon="2.42182">
        <ele>825</ele>
        <time>2018-04-22T09:37:21Z</time>
      </trkpt>
      <trkpt lat="43.43245" lon="2.42184">
        <ele>824</ele>
        <time>2018-04-22T09:37:23Z</time>
      </trkpt>
      <trkpt lat="43.43246" lon="2.42185">
        <ele>823</ele>
        <time>2018-04-22T09:37:25Z</time>
      </trkpt>
      <trkpt lat="43.43248" lon="2.42187">
        <ele>823</ele>
        <time>2018-04-22T09:37:27Z</time>
      </trkpt>
      <trkpt lat="43.43254" lon="2.4219">
        <ele>822</ele>
        <time>2018-04-22T09:37:30Z</time>
      </trkpt>
      <trkpt lat="43.43259" lon="2.42193">
        <ele>820</ele>
        <time>2018-04-22T09:37:33Z</time>
      </trkpt>
      <trkpt lat="43.43262" lon="2.42195">
        <ele>820</ele>
        <time>2018-04-22T09:37:35Z</time>
      </trkpt>
      <trkpt lat="43.43265" lon="2.42194">
        <ele>820</ele>
        <time>2018-04-22T09:37:37Z</time>
      </trkpt>
      <trkpt lat="43.43265" lon="2.42194">
        <ele>819</ele>
        <time>2018-04-22T09:37:38Z</time>
      </trkpt>
      <trkpt lat="43.43266" lon="2.42194">
        <ele>819</ele>
        <time>2018-04-22T09:37:40Z</time>
      </trkpt>
      <trkpt lat="43.43267" lon="2.42194">
        <ele>819</ele>
        <time>2018-04-22T09:37:46Z</time>
      </trkpt>
      <trkpt lat="43.43268" lon="2.42194">
        <ele>819</ele>
        <time>2018-04-22T09:37:49Z</time>
      </trkpt>
      <trkpt lat="43.43268" lon="2.42193">
        <ele>819</ele>
        <time>2018-04-22T09:37:56Z</time>
      </trkpt>
      <trkpt lat="43.43268" lon="2.42192">
        <ele>819</ele>
        <time>2018-04-22T09:37:58Z</time>
      </trkpt>
      <trkpt lat="43.43269" lon="2.4219">
        <ele>820</ele>
        <time>2018-04-22T09:38:01Z</time>
      </trkpt>
      <trkpt lat="43.43269" lon="2.42189">
        <ele>821</ele>
        <time>2018-04-22T09:38:04Z</time>
      </trkpt>
      <trkpt lat="43.4327" lon="2.42187">
        <ele>821</ele>
        <time>2018-04-22T09:38:10Z</time>
      </trkpt>
      <trkpt lat="43.43273" lon="2.42185">
        <ele>822</ele>
        <time>2018-04-22T09:38:13Z</time>
      </trkpt>
      <trkpt lat="43.43273" lon="2.42185">
        <ele>822</ele>
        <time>2018-04-22T09:38:14Z</time>
      </trkpt>
      <trkpt lat="43.43275" lon="2.42184">
        <ele>822</ele>
        <time>2018-04-22T09:38:17Z</time>
      </trkpt>
      <trkpt lat="43.43277" lon="2.42186">
        <ele>822</ele>
        <time>2018-04-22T09:38:20Z</time>
      </trkpt>
      <trkpt lat="43.43279" lon="2.42186">
        <ele>822</ele>
        <time>2018-04-22T09:38:25Z</time>
      </trkpt>
      <trkpt lat="43.4328" lon="2.42188">
        <ele>822</ele>
        <time>2018-04-22T09:38:28Z</time>
      </trkpt>
      <trkpt lat="43.43281" lon="2.42188">
        <ele>821</ele>
        <time>2018-04-22T09:38:33Z</time>
      </trkpt>
      <trkpt lat="43.43282" lon="2.42191">
        <ele>820</ele>
        <time>2018-04-22T09:38:39Z</time>
      </trkpt>
      <trkpt lat="43.43283" lon="2.42195">
        <ele>819</ele>
        <time>2018-04-22T09:38:45Z</time>
      </trkpt>
      <trkpt lat="43.43283" lon="2.42195">
        <ele>818</ele>
        <time>2018-04-22T09:38:48Z</time>
      </trkpt>
      <trkpt lat="43.43283" lon="2.42195">
        <ele>818</ele>
        <time>2018-04-22T09:38:51Z</time>
      </trkpt>
      <trkpt lat="43.43283" lon="2.42195">
        <ele>818</ele>
        <time>2018-04-22T09:38:55Z</time>
      </trkpt>
      <trkpt lat="43.43284" lon="2.42196">
        <ele>818</ele>
        <time>2018-04-22T09:39:01Z</time>
      </trkpt>
      <trkpt lat="43.4329" lon="2.42196">
        <ele>817</ele>
        <time>2018-04-22T09:39:08Z</time>
      </trkpt>
      <trkpt lat="43.43292" lon="2.42195">
        <ele>817</ele>
        <time>2018-04-22T09:39:09Z</time>
      </trkpt>
      <trkpt lat="43.43297" lon="2.42193">
        <ele>817</ele>
        <time>2018-04-22T09:39:12Z</time>
      </trkpt>
      <trkpt lat="43.43298" lon="2.42192">
        <ele>817</ele>
        <time>2018-04-22T09:39:13Z</time>
      </trkpt>
      <trkpt lat="43.43303" lon="2.4219">
        <ele>817</ele>
        <time>2018-04-22T09:39:16Z</time>
      </trkpt>
      <trkpt lat="43.43305" lon="2.4219">
        <ele>817</ele>
        <time>2018-04-22T09:39:17Z</time>
      </trkpt>
      <trkpt lat="43.43313" lon="2.42192">
        <ele>816</ele>
        <time>2018-04-22T09:39:22Z</time>
      </trkpt>
      <trkpt lat="43.43316" lon="2.42193">
        <ele>816</ele>
        <time>2018-04-22T09:39:24Z</time>
      </trkpt>
      <trkpt lat="43.43321" lon="2.42195">
        <ele>816</ele>
        <time>2018-04-22T09:39:26Z</time>
      </trkpt>
      <trkpt lat="43.43327" lon="2.42198">
        <ele>817</ele>
        <time>2018-04-22T09:39:29Z</time>
      </trkpt>
      <trkpt lat="43.43328" lon="2.422">
        <ele>817</ele>
        <time>2018-04-22T09:39:30Z</time>
      </trkpt>
      <trkpt lat="43.43329" lon="2.422">
        <ele>817</ele>
        <time>2018-04-22T09:39:31Z</time>
      </trkpt>
      <trkpt lat="43.43331" lon="2.42201">
        <ele>818</ele>
        <time>2018-04-22T09:39:32Z</time>
      </trkpt>
      <trkpt lat="43.43332" lon="2.42203">
        <ele>818</ele>
        <time>2018-04-22T09:39:33Z</time>
      </trkpt>
      <trkpt lat="43.43338" lon="2.42207">
        <ele>819</ele>
        <time>2018-04-22T09:39:36Z</time>
      </trkpt>
      <trkpt lat="43.43347" lon="2.42213">
        <ele>819</ele>
        <time>2018-04-22T09:39:40Z</time>
      </trkpt>
      <trkpt lat="43.43349" lon="2.42215">
        <ele>819</ele>
        <time>2018-04-22T09:39:42Z</time>
      </trkpt>
      <trkpt lat="43.43361" lon="2.42221">
        <ele>819</ele>
        <time>2018-04-22T09:39:48Z</time>
      </trkpt>
      <trkpt lat="43.43362" lon="2.42223">
        <ele>819</ele>
        <time>2018-04-22T09:39:49Z</time>
      </trkpt>
      <trkpt lat="43.43363" lon="2.42225">
        <ele>819</ele>
        <time>2018-04-22T09:39:50Z</time>
      </trkpt>
      <trkpt lat="43.43365" lon="2.42232">
        <ele>819</ele>
        <time>2018-04-22T09:39:53Z</time>
      </trkpt>
      <trkpt lat="43.43368" lon="2.42246">
        <ele>818</ele>
        <time>2018-04-22T09:39:58Z</time>
      </trkpt>
      <trkpt lat="43.43367" lon="2.42255">
        <ele>819</ele>
        <time>2018-04-22T09:40:01Z</time>
      </trkpt>
      <trkpt lat="43.43365" lon="2.42262">
        <ele>819</ele>
        <time>2018-04-22T09:40:03Z</time>
      </trkpt>
      <trkpt lat="43.4336" lon="2.42269">
        <ele>818</ele>
        <time>2018-04-22T09:40:07Z</time>
      </trkpt>
      <trkpt lat="43.43354" lon="2.42284">
        <ele>819</ele>
        <time>2018-04-22T09:40:12Z</time>
      </trkpt>
      <trkpt lat="43.43353" lon="2.42301">
        <ele>818</ele>
        <time>2018-04-22T09:40:17Z</time>
      </trkpt>
      <trkpt lat="43.43355" lon="2.42306">
        <ele>818</ele>
        <time>2018-04-22T09:40:19Z</time>
      </trkpt>
      <trkpt lat="43.43358" lon="2.42317">
        <ele>819</ele>
        <time>2018-04-22T09:40:23Z</time>
      </trkpt>
      <trkpt lat="43.4336" lon="2.42333">
        <ele>818</ele>
        <time>2018-04-22T09:40:28Z</time>
      </trkpt>
      <trkpt lat="43.43362" lon="2.42338">
        <ele>818</ele>
        <time>2018-04-22T09:40:29Z</time>
      </trkpt>
      <trkpt lat="43.43364" lon="2.42343">
        <ele>817</ele>
        <time>2018-04-22T09:40:30Z</time>
      </trkpt>
      <trkpt lat="43.43365" lon="2.42349">
        <ele>816</ele>
        <time>2018-04-22T09:40:31Z</time>
      </trkpt>
      <trkpt lat="43.43368" lon="2.42355">
        <ele>816</ele>
        <time>2018-04-22T09:40:32Z</time>
      </trkpt>
      <trkpt lat="43.4337" lon="2.42362">
        <ele>815</ele>
        <time>2018-04-22T09:40:33Z</time>
      </trkpt>
      <trkpt lat="43.43375" lon="2.42379">
        <ele>814</ele>
        <time>2018-04-22T09:40:35Z</time>
      </trkpt>
      <trkpt lat="43.43378" lon="2.42388">
        <ele>813</ele>
        <time>2018-04-22T09:40:36Z</time>
      </trkpt>
      <trkpt lat="43.43379" lon="2.42398">
        <ele>811</ele>
        <time>2018-04-22T09:40:37Z</time>
      </trkpt>
      <trkpt lat="43.4338" lon="2.4241">
        <ele>810</ele>
        <time>2018-04-22T09:40:38Z</time>
      </trkpt>
      <trkpt lat="43.43381" lon="2.42422">
        <ele>809</ele>
        <time>2018-04-22T09:40:39Z</time>
      </trkpt>
      <trkpt lat="43.43381" lon="2.42433">
        <ele>808</ele>
        <time>2018-04-22T09:40:40Z</time>
      </trkpt>
      <trkpt lat="43.43381" lon="2.42442">
        <ele>808</ele>
        <time>2018-04-22T09:40:41Z</time>
      </trkpt>
      <trkpt lat="43.43383" lon="2.42459">
        <ele>808</ele>
        <time>2018-04-22T09:40:44Z</time>
      </trkpt>
      <trkpt lat="43.43391" lon="2.42474">
        <ele>808</ele>
        <time>2018-04-22T09:40:49Z</time>
      </trkpt>
      <trkpt lat="43.43395" lon="2.42481">
        <ele>807</ele>
        <time>2018-04-22T09:40:51Z</time>
      </trkpt>
      <trkpt lat="43.43399" lon="2.42486">
        <ele>807</ele>
        <time>2018-04-22T09:40:52Z</time>
      </trkpt>
      <trkpt lat="43.43402" lon="2.42491">
        <ele>806</ele>
        <time>2018-04-22T09:40:53Z</time>
      </trkpt>
      <trkpt lat="43.43406" lon="2.42496">
        <ele>805</ele>
        <time>2018-04-22T09:40:54Z</time>
      </trkpt>
      <trkpt lat="43.43415" lon="2.42515">
        <ele>805</ele>
        <time>2018-04-22T09:40:57Z</time>
      </trkpt>
      <trkpt lat="43.43417" lon="2.42522">
        <ele>806</ele>
        <time>2018-04-22T09:40:58Z</time>
      </trkpt>
      <trkpt lat="43.43423" lon="2.42532">
        <ele>805</ele>
        <time>2018-04-22T09:41:00Z</time>
      </trkpt>
      <trkpt lat="43.43426" lon="2.42536">
        <ele>805</ele>
        <time>2018-04-22T09:41:01Z</time>
      </trkpt>
      <trkpt lat="43.4343" lon="2.4254">
        <ele>804</ele>
        <time>2018-04-22T09:41:02Z</time>
      </trkpt>
      <trkpt lat="43.43444" lon="2.42547">
        <ele>803</ele>
        <time>2018-04-22T09:41:05Z</time>
      </trkpt>
      <trkpt lat="43.4345" lon="2.42548">
        <ele>804</ele>
        <time>2018-04-22T09:41:06Z</time>
      </trkpt>
      <trkpt lat="43.43458" lon="2.4255">
        <ele>804</ele>
        <time>2018-04-22T09:41:08Z</time>
      </trkpt>
      <trkpt lat="43.43462" lon="2.42551">
        <ele>803</ele>
        <time>2018-04-22T09:41:09Z</time>
      </trkpt>
      <trkpt lat="43.43471" lon="2.42551">
        <ele>803</ele>
        <time>2018-04-22T09:41:11Z</time>
      </trkpt>
      <trkpt lat="43.43476" lon="2.42551">
        <ele>802</ele>
        <time>2018-04-22T09:41:12Z</time>
      </trkpt>
      <trkpt lat="43.43481" lon="2.42553">
        <ele>802</ele>
        <time>2018-04-22T09:41:13Z</time>
      </trkpt>
      <trkpt lat="43.43487" lon="2.42557">
        <ele>802</ele>
        <time>2018-04-22T09:41:14Z</time>
      </trkpt>
      <trkpt lat="43.43498" lon="2.42573">
        <ele>801</ele>
        <time>2018-04-22T09:41:17Z</time>
      </trkpt>
      <trkpt lat="43.43505" lon="2.42583">
        <ele>801</ele>
        <time>2018-04-22T09:41:19Z</time>
      </trkpt>
      <trkpt lat="43.43508" lon="2.42594">
        <ele>801</ele>
        <time>2018-04-22T09:41:21Z</time>
      </trkpt>
      <trkpt lat="43.43514" lon="2.42609">
        <ele>802</ele>
        <time>2018-04-22T09:41:24Z</time>
      </trkpt>
      <trkpt lat="43.4352" lon="2.42616">
        <ele>803</ele>
        <time>2018-04-22T09:41:26Z</time>
      </trkpt>
      <trkpt lat="43.43531" lon="2.42626">
        <ele>804</ele>
        <time>2018-04-22T09:41:30Z</time>
      </trkpt>
      <trkpt lat="43.43538" lon="2.42633">
        <ele>805</ele>
        <time>2018-04-22T09:41:34Z</time>
      </trkpt>
      <trkpt lat="43.4354" lon="2.42634">
        <ele>805</ele>
        <time>2018-04-22T09:41:35Z</time>
      </trkpt>
      <trkpt lat="43.43546" lon="2.4264">
        <ele>806</ele>
        <time>2018-04-22T09:41:38Z</time>
      </trkpt>
      <trkpt lat="43.43549" lon="2.42644">
        <ele>806</ele>
        <time>2018-04-22T09:41:40Z</time>
      </trkpt>
      <trkpt lat="43.43555" lon="2.42651">
        <ele>807</ele>
        <time>2018-04-22T09:41:43Z</time>
      </trkpt>
      <trkpt lat="43.43556" lon="2.42653">
        <ele>807</ele>
        <time>2018-04-22T09:41:44Z</time>
      </trkpt>
      <trkpt lat="43.43558" lon="2.42656">
        <ele>807</ele>
        <time>2018-04-22T09:41:45Z</time>
      </trkpt>
      <trkpt lat="43.43565" lon="2.42666">
        <ele>807</ele>
        <time>2018-04-22T09:41:49Z</time>
      </trkpt>
      <trkpt lat="43.43571" lon="2.42672">
        <ele>808</ele>
        <time>2018-04-22T09:41:52Z</time>
      </trkpt>
      <trkpt lat="43.43573" lon="2.42673">
        <ele>808</ele>
        <time>2018-04-22T09:41:53Z</time>
      </trkpt>
      <trkpt lat="43.43583" lon="2.42673">
        <ele>809</ele>
        <time>2018-04-22T09:41:58Z</time>
      </trkpt>
      <trkpt lat="43.43584" lon="2.42673">
        <ele>809</ele>
        <time>2018-04-22T09:41:59Z</time>
      </trkpt>
      <trkpt lat="43.43591" lon="2.42676">
        <ele>810</ele>
        <time>2018-04-22T09:42:03Z</time>
      </trkpt>
      <trkpt lat="43.43594" lon="2.42677">
        <ele>810</ele>
        <time>2018-04-22T09:42:04Z</time>
      </trkpt>
      <trkpt lat="43.43603" lon="2.42681">
        <ele>810</ele>
        <time>2018-04-22T09:42:08Z</time>
      </trkpt>
      <trkpt lat="43.43604" lon="2.42682">
        <ele>810</ele>
        <time>2018-04-22T09:42:09Z</time>
      </trkpt>
      <trkpt lat="43.43608" lon="2.42682">
        <ele>811</ele>
        <time>2018-04-22T09:42:11Z</time>
      </trkpt>
      <trkpt lat="43.43609" lon="2.42683">
        <ele>811</ele>
        <time>2018-04-22T09:42:12Z</time>
      </trkpt>
      <trkpt lat="43.43611" lon="2.42683">
        <ele>811</ele>
        <time>2018-04-22T09:42:13Z</time>
      </trkpt>
      <trkpt lat="43.43614" lon="2.42685">
        <ele>811</ele>
        <time>2018-04-22T09:42:15Z</time>
      </trkpt>
      <trkpt lat="43.43622" lon="2.42685">
        <ele>812</ele>
        <time>2018-04-22T09:42:22Z</time>
      </trkpt>
      <trkpt lat="43.43625" lon="2.42687">
        <ele>812</ele>
        <time>2018-04-22T09:42:26Z</time>
      </trkpt>
      <trkpt lat="43.43628" lon="2.42689">
        <ele>812</ele>
        <time>2018-04-22T09:42:28Z</time>
      </trkpt>
      <trkpt lat="43.4363" lon="2.42691">
        <ele>812</ele>
        <time>2018-04-22T09:42:30Z</time>
      </trkpt>
      <trkpt lat="43.43631" lon="2.42692">
        <ele>812</ele>
        <time>2018-04-22T09:42:31Z</time>
      </trkpt>
      <trkpt lat="43.43634" lon="2.42697">
        <ele>812</ele>
        <time>2018-04-22T09:42:36Z</time>
      </trkpt>
      <trkpt lat="43.43639" lon="2.4271">
        <ele>813</ele>
        <time>2018-04-22T09:42:43Z</time>
      </trkpt>
      <trkpt lat="43.43639" lon="2.42712">
        <ele>813</ele>
        <time>2018-04-22T09:42:44Z</time>
      </trkpt>
      <trkpt lat="43.43636" lon="2.42719">
        <ele>814</ele>
        <time>2018-04-22T09:42:47Z</time>
      </trkpt>
      <trkpt lat="43.43635" lon="2.42721">
        <ele>814</ele>
        <time>2018-04-22T09:42:48Z</time>
      </trkpt>
      <trkpt lat="43.43634" lon="2.42723">
        <ele>814</ele>
        <time>2018-04-22T09:42:49Z</time>
      </trkpt>
      <trkpt lat="43.43625" lon="2.42732">
        <ele>815</ele>
        <time>2018-04-22T09:42:54Z</time>
      </trkpt>
      <trkpt lat="43.43623" lon="2.42734">
        <ele>815</ele>
        <time>2018-04-22T09:42:55Z</time>
      </trkpt>
      <trkpt lat="43.43618" lon="2.42745">
        <ele>816</ele>
        <time>2018-04-22T09:42:59Z</time>
      </trkpt>
      <trkpt lat="43.43617" lon="2.42753">
        <ele>816</ele>
        <time>2018-04-22T09:43:01Z</time>
      </trkpt>
      <trkpt lat="43.4362" lon="2.42763">
        <ele>816</ele>
        <time>2018-04-22T09:43:04Z</time>
      </trkpt>
      <trkpt lat="43.43624" lon="2.42775">
        <ele>816</ele>
        <time>2018-04-22T09:43:08Z</time>
      </trkpt>
      <trkpt lat="43.43625" lon="2.42777">
        <ele>816</ele>
        <time>2018-04-22T09:43:09Z</time>
      </trkpt>
      <trkpt lat="43.43628" lon="2.4278">
        <ele>816</ele>
        <time>2018-04-22T09:43:10Z</time>
      </trkpt>
      <trkpt lat="43.4363" lon="2.42785">
        <ele>816</ele>
        <time>2018-04-22T09:43:12Z</time>
      </trkpt>
      <trkpt lat="43.43639" lon="2.42797">
        <ele>817</ele>
        <time>2018-04-22T09:43:17Z</time>
      </trkpt>
      <trkpt lat="43.43646" lon="2.42816">
        <ele>817</ele>
        <time>2018-04-22T09:43:22Z</time>
      </trkpt>
      <trkpt lat="43.43646" lon="2.42821">
        <ele>817</ele>
        <time>2018-04-22T09:43:23Z</time>
      </trkpt>
      <trkpt lat="43.43645" lon="2.42826">
        <ele>817</ele>
        <time>2018-04-22T09:43:24Z</time>
      </trkpt>
      <trkpt lat="43.43645" lon="2.42834">
        <ele>818</ele>
        <time>2018-04-22T09:43:26Z</time>
      </trkpt>
      <trkpt lat="43.43642" lon="2.42846">
        <ele>818</ele>
        <time>2018-04-22T09:43:30Z</time>
      </trkpt>
      <trkpt lat="43.43641" lon="2.42852">
        <ele>819</ele>
        <time>2018-04-22T09:43:32Z</time>
      </trkpt>
      <trkpt lat="43.43641" lon="2.42855">
        <ele>819</ele>
        <time>2018-04-22T09:43:33Z</time>
      </trkpt>
      <trkpt lat="43.4364" lon="2.42861">
        <ele>819</ele>
        <time>2018-04-22T09:43:35Z</time>
      </trkpt>
      <trkpt lat="43.4364" lon="2.42868">
        <ele>820</ele>
        <time>2018-04-22T09:43:39Z</time>
      </trkpt>
      <trkpt lat="43.4364" lon="2.42872">
        <ele>820</ele>
        <time>2018-04-22T09:43:40Z</time>
      </trkpt>
      <trkpt lat="43.43639" lon="2.42877">
        <ele>820</ele>
        <time>2018-04-22T09:43:42Z</time>
      </trkpt>
      <trkpt lat="43.4364" lon="2.42884">
        <ele>821</ele>
        <time>2018-04-22T09:43:44Z</time>
      </trkpt>
      <trkpt lat="43.43639" lon="2.42894">
        <ele>821</ele>
        <time>2018-04-22T09:43:47Z</time>
      </trkpt>
      <trkpt lat="43.43638" lon="2.42899">
        <ele>821</ele>
        <time>2018-04-22T09:43:48Z</time>
      </trkpt>
      <trkpt lat="43.43637" lon="2.42907">
        <ele>821</ele>
        <time>2018-04-22T09:43:50Z</time>
      </trkpt>
      <trkpt lat="43.43637" lon="2.42916">
        <ele>822</ele>
        <time>2018-04-22T09:43:53Z</time>
      </trkpt>
      <trkpt lat="43.43637" lon="2.42934">
        <ele>822</ele>
        <time>2018-04-22T09:43:59Z</time>
      </trkpt>
      <trkpt lat="43.43636" lon="2.42946">
        <ele>822</ele>
        <time>2018-04-22T09:44:03Z</time>
      </trkpt>
      <trkpt lat="43.43636" lon="2.4295">
        <ele>823</ele>
        <time>2018-04-22T09:44:04Z</time>
      </trkpt>
      <trkpt lat="43.43636" lon="2.42959">
        <ele>823</ele>
        <time>2018-04-22T09:44:08Z</time>
      </trkpt>
      <trkpt lat="43.43636" lon="2.42963">
        <ele>823</ele>
        <time>2018-04-22T09:44:09Z</time>
      </trkpt>
      <trkpt lat="43.43635" lon="2.42965">
        <ele>823</ele>
        <time>2018-04-22T09:44:10Z</time>
      </trkpt>
      <trkpt lat="43.43634" lon="2.42975">
        <ele>823</ele>
        <time>2018-04-22T09:44:13Z</time>
      </trkpt>
      <trkpt lat="43.43634" lon="2.4298">
        <ele>823</ele>
        <time>2018-04-22T09:44:14Z</time>
      </trkpt>
      <trkpt lat="43.43632" lon="2.42994">
        <ele>823</ele>
        <time>2018-04-22T09:44:18Z</time>
      </trkpt>
      <trkpt lat="43.43634" lon="2.43001">
        <ele>824</ele>
        <time>2018-04-22T09:44:20Z</time>
      </trkpt>
      <trkpt lat="43.43633" lon="2.43015">
        <ele>824</ele>
        <time>2018-04-22T09:44:23Z</time>
      </trkpt>
      <trkpt lat="43.43641" lon="2.43021">
        <ele>825</ele>
        <time>2018-04-22T09:44:27Z</time>
      </trkpt>
      <trkpt lat="43.43644" lon="2.43022">
        <ele>825</ele>
        <time>2018-04-22T09:44:28Z</time>
      </trkpt>
      <trkpt lat="43.43654" lon="2.43021">
        <ele>826</ele>
        <time>2018-04-22T09:44:32Z</time>
      </trkpt>
      <trkpt lat="43.4366" lon="2.43021">
        <ele>826</ele>
        <time>2018-04-22T09:44:34Z</time>
      </trkpt>
      <trkpt lat="43.43667" lon="2.43019">
        <ele>827</ele>
        <time>2018-04-22T09:44:39Z</time>
      </trkpt>
      <trkpt lat="43.43674" lon="2.43016">
        <ele>828</ele>
        <time>2018-04-22T09:44:43Z</time>
      </trkpt>
      <trkpt lat="43.43676" lon="2.43016">
        <ele>828</ele>
        <time>2018-04-22T09:44:44Z</time>
      </trkpt>
      <trkpt lat="43.43688" lon="2.43012">
        <ele>829</ele>
        <time>2018-04-22T09:44:50Z</time>
      </trkpt>
      <trkpt lat="43.4369" lon="2.43011">
        <ele>829</ele>
        <time>2018-04-22T09:44:51Z</time>
      </trkpt>
      <trkpt lat="43.437" lon="2.43007">
        <ele>829</ele>
        <time>2018-04-22T09:44:56Z</time>
      </trkpt>
      <trkpt lat="43.43708" lon="2.43015">
        <ele>830</ele>
        <time>2018-04-22T09:45:00Z</time>
      </trkpt>
      <trkpt lat="43.43711" lon="2.43023">
        <ele>830</ele>
        <time>2018-04-22T09:45:03Z</time>
      </trkpt>
      <trkpt lat="43.43712" lon="2.43028">
        <ele>831</ele>
        <time>2018-04-22T09:45:05Z</time>
      </trkpt>
      <trkpt lat="43.43711" lon="2.43034">
        <ele>831</ele>
        <time>2018-04-22T09:45:08Z</time>
      </trkpt>
      <trkpt lat="43.43711" lon="2.43036">
        <ele>831</ele>
        <time>2018-04-22T09:45:09Z</time>
      </trkpt>
      <trkpt lat="43.43711" lon="2.43041">
        <ele>831</ele>
        <time>2018-04-22T09:45:11Z</time>
      </trkpt>
      <trkpt lat="43.4371" lon="2.43049">
        <ele>832</ele>
        <time>2018-04-22T09:45:16Z</time>
      </trkpt>
      <trkpt lat="43.4371" lon="2.43054">
        <ele>833</ele>
        <time>2018-04-22T09:45:18Z</time>
      </trkpt>
      <trkpt lat="43.43707" lon="2.43063">
        <ele>833</ele>
        <time>2018-04-22T09:45:22Z</time>
      </trkpt>
      <trkpt lat="43.43701" lon="2.43076">
        <ele>833</ele>
        <time>2018-04-22T09:45:27Z</time>
      </trkpt>
      <trkpt lat="43.43698" lon="2.43083">
        <ele>834</ele>
        <time>2018-04-22T09:45:29Z</time>
      </trkpt>
      <trkpt lat="43.43694" lon="2.43095">
        <ele>834</ele>
        <time>2018-04-22T09:45:32Z</time>
      </trkpt>
      <trkpt lat="43.43693" lon="2.43099">
        <ele>835</ele>
        <time>2018-04-22T09:45:33Z</time>
      </trkpt>
      <trkpt lat="43.4369" lon="2.43107">
        <ele>835</ele>
        <time>2018-04-22T09:45:35Z</time>
      </trkpt>
      <trkpt lat="43.43686" lon="2.43117">
        <ele>835</ele>
        <time>2018-04-22T09:45:38Z</time>
      </trkpt>
      <trkpt lat="43.43685" lon="2.4312">
        <ele>836</ele>
        <time>2018-04-22T09:45:39Z</time>
      </trkpt>
      <trkpt lat="43.43676" lon="2.43137">
        <ele>836</ele>
        <time>2018-04-22T09:45:45Z</time>
      </trkpt>
      <trkpt lat="43.43671" lon="2.43153">
        <ele>837</ele>
        <time>2018-04-22T09:45:50Z</time>
      </trkpt>
      <trkpt lat="43.43665" lon="2.43167">
        <ele>837</ele>
        <time>2018-04-22T09:45:55Z</time>
      </trkpt>
      <trkpt lat="43.4366" lon="2.43182">
        <ele>838</ele>
        <time>2018-04-22T09:46:00Z</time>
      </trkpt>
      <trkpt lat="43.43655" lon="2.43197">
        <ele>838</ele>
        <time>2018-04-22T09:46:05Z</time>
      </trkpt>
      <trkpt lat="43.43654" lon="2.432">
        <ele>838</ele>
        <time>2018-04-22T09:46:06Z</time>
      </trkpt>
      <trkpt lat="43.43651" lon="2.43207">
        <ele>839</ele>
        <time>2018-04-22T09:46:09Z</time>
      </trkpt>
      <trkpt lat="43.4365" lon="2.43209">
        <ele>839</ele>
        <time>2018-04-22T09:46:10Z</time>
      </trkpt>
      <trkpt lat="43.43645" lon="2.43222">
        <ele>839</ele>
        <time>2018-04-22T09:46:16Z</time>
      </trkpt>
      <trkpt lat="43.43642" lon="2.43229">
        <ele>839</ele>
        <time>2018-04-22T09:46:20Z</time>
      </trkpt>
      <trkpt lat="43.43639" lon="2.43237">
        <ele>839</ele>
        <time>2018-04-22T09:46:24Z</time>
      </trkpt>
      <trkpt lat="43.43638" lon="2.43241">
        <ele>839</ele>
        <time>2018-04-22T09:46:37Z</time>
      </trkpt>
      <trkpt lat="43.43638" lon="2.43241">
        <ele>839</ele>
        <time>2018-04-22T09:46:45Z</time>
      </trkpt>
      <trkpt lat="43.43638" lon="2.43242">
        <ele>838</ele>
        <time>2018-04-22T09:46:51Z</time>
      </trkpt>
      <trkpt lat="43.43638" lon="2.43242">
        <ele>839</ele>
        <time>2018-04-22T09:46:57Z</time>
      </trkpt>
      <trkpt lat="43.43638" lon="2.43242">
        <ele>839</ele>
        <time>2018-04-22T09:47:01Z</time>
      </trkpt>
      <trkpt lat="43.43638" lon="2.43242">
        <ele>838</ele>
        <time>2018-04-22T09:47:08Z</time>
      </trkpt>
      <trkpt lat="43.43638" lon="2.43242">
        <ele>838</ele>
        <time>2018-04-22T09:47:17Z</time>
      </trkpt>
      <trkpt lat="43.43638" lon="2.43242">
        <ele>839</ele>
        <time>2018-04-22T09:47:31Z</time>
      </trkpt>
      <trkpt lat="43.43638" lon="2.43242">
        <ele>839</ele>
        <time>2018-04-22T09:47:42Z</time>
      </trkpt>
      <trkpt lat="43.43637" lon="2.43242">
        <ele>838</ele>
        <time>2018-04-22T09:48:08Z</time>
      </trkpt>
      <trkpt lat="43.4363" lon="2.43246">
        <ele>838</ele>
        <time>2018-04-22T09:48:13Z</time>
      </trkpt>
      <trkpt lat="43.43626" lon="2.43249">
        <ele>837</ele>
        <time>2018-04-22T09:48:15Z</time>
      </trkpt>
      <trkpt lat="43.43622" lon="2.43253">
        <ele>837</ele>
        <time>2018-04-22T09:48:16Z</time>
      </trkpt>
      <trkpt lat="43.43619" lon="2.43256">
        <ele>837</ele>
        <time>2018-04-22T09:48:17Z</time>
      </trkpt>
      <trkpt lat="43.43616" lon="2.43259">
        <ele>836</ele>
        <time>2018-04-22T09:48:18Z</time>
      </trkpt>
      <trkpt lat="43.4361" lon="2.43266">
        <ele>834</ele>
        <time>2018-04-22T09:48:20Z</time>
      </trkpt>
      <trkpt lat="43.43606" lon="2.4327">
        <ele>833</ele>
        <time>2018-04-22T09:48:21Z</time>
      </trkpt>
      <trkpt lat="43.43603" lon="2.43273">
        <ele>832</ele>
        <time>2018-04-22T09:48:22Z</time>
      </trkpt>
      <trkpt lat="43.43592" lon="2.43284">
        <ele>831</ele>
        <time>2018-04-22T09:48:25Z</time>
      </trkpt>
      <trkpt lat="43.43588" lon="2.43288">
        <ele>831</ele>
        <time>2018-04-22T09:48:26Z</time>
      </trkpt>
      <trkpt lat="43.43578" lon="2.43295">
        <ele>829</ele>
        <time>2018-04-22T09:48:28Z</time>
      </trkpt>
      <trkpt lat="43.43573" lon="2.43298">
        <ele>828</ele>
        <time>2018-04-22T09:48:29Z</time>
      </trkpt>
      <trkpt lat="43.43567" lon="2.43302">
        <ele>827</ele>
        <time>2018-04-22T09:48:30Z</time>
      </trkpt>
      <trkpt lat="43.43562" lon="2.43306">
        <ele>825</ele>
        <time>2018-04-22T09:48:31Z</time>
      </trkpt>
      <trkpt lat="43.43556" lon="2.4331">
        <ele>823</ele>
        <time>2018-04-22T09:48:32Z</time>
      </trkpt>
      <trkpt lat="43.43538" lon="2.43321">
        <ele>821</ele>
        <time>2018-04-22T09:48:35Z</time>
      </trkpt>
      <trkpt lat="43.43532" lon="2.43324">
        <ele>820</ele>
        <time>2018-04-22T09:48:36Z</time>
      </trkpt>
      <trkpt lat="43.43519" lon="2.43328">
        <ele>819</ele>
        <time>2018-04-22T09:48:38Z</time>
      </trkpt>
      <trkpt lat="43.43515" lon="2.43329">
        <ele>818</ele>
        <time>2018-04-22T09:48:39Z</time>
      </trkpt>
      <trkpt lat="43.43504" lon="2.43331">
        <ele>816</ele>
        <time>2018-04-22T09:48:41Z</time>
      </trkpt>
      <trkpt lat="43.43496" lon="2.43328">
        <ele>814</ele>
        <time>2018-04-22T09:48:43Z</time>
      </trkpt>
      <trkpt lat="43.43498" lon="2.43318">
        <ele>814</ele>
        <time>2018-04-22T09:48:46Z</time>
      </trkpt>
      <trkpt lat="43.43503" lon="2.43309">
        <ele>813</ele>
        <time>2018-04-22T09:48:48Z</time>
      </trkpt>
      <trkpt lat="43.43506" lon="2.43305">
        <ele>811</ele>
        <time>2018-04-22T09:48:49Z</time>
      </trkpt>
      <trkpt lat="43.4351" lon="2.43301">
        <ele>810</ele>
        <time>2018-04-22T09:48:50Z</time>
      </trkpt>
      <trkpt lat="43.43517" lon="2.4329">
        <ele>808</ele>
        <time>2018-04-22T09:48:52Z</time>
      </trkpt>
      <trkpt lat="43.43526" lon="2.4328">
        <ele>807</ele>
        <time>2018-04-22T09:48:54Z</time>
      </trkpt>
      <trkpt lat="43.43537" lon="2.43269">
        <ele>805</ele>
        <time>2018-04-22T09:48:56Z</time>
      </trkpt>
      <trkpt lat="43.43542" lon="2.43264">
        <ele>804</ele>
        <time>2018-04-22T09:48:57Z</time>
      </trkpt>
      <trkpt lat="43.43546" lon="2.4326">
        <ele>803</ele>
        <time>2018-04-22T09:48:58Z</time>
      </trkpt>
      <trkpt lat="43.43553" lon="2.43251">
        <ele>802</ele>
        <time>2018-04-22T09:49:00Z</time>
      </trkpt>
      <trkpt lat="43.43556" lon="2.43247">
        <ele>801</ele>
        <time>2018-04-22T09:49:01Z</time>
      </trkpt>
      <trkpt lat="43.4356" lon="2.4324">
        <ele>800</ele>
        <time>2018-04-22T09:49:03Z</time>
      </trkpt>
      <trkpt lat="43.43562" lon="2.43235">
        <ele>798</ele>
        <time>2018-04-22T09:49:04Z</time>
      </trkpt>
      <trkpt lat="43.43564" lon="2.43229">
        <ele>797</ele>
        <time>2018-04-22T09:49:05Z</time>
      </trkpt>
      <trkpt lat="43.43565" lon="2.43223">
        <ele>796</ele>
        <time>2018-04-22T09:49:06Z</time>
      </trkpt>
      <trkpt lat="43.43567" lon="2.43216">
        <ele>795</ele>
        <time>2018-04-22T09:49:07Z</time>
      </trkpt>
      <trkpt lat="43.4357" lon="2.4321">
        <ele>795</ele>
        <time>2018-04-22T09:49:08Z</time>
      </trkpt>
      <trkpt lat="43.43575" lon="2.43194">
        <ele>794</ele>
        <time>2018-04-22T09:49:11Z</time>
      </trkpt>
      <trkpt lat="43.43576" lon="2.43192">
        <ele>794</ele>
        <time>2018-04-22T09:49:12Z</time>
      </trkpt>
      <trkpt lat="43.4358" lon="2.43176">
        <ele>794</ele>
        <time>2018-04-22T09:49:18Z</time>
      </trkpt>
      <trkpt lat="43.43579" lon="2.43166">
        <ele>793</ele>
        <time>2018-04-22T09:49:22Z</time>
      </trkpt>
      <trkpt lat="43.43579" lon="2.43165">
        <ele>793</ele>
        <time>2018-04-22T09:49:24Z</time>
      </trkpt>
      <trkpt lat="43.43579" lon="2.43165">
        <ele>793</ele>
        <time>2018-04-22T09:49:29Z</time>
      </trkpt>
      <trkpt lat="43.43578" lon="2.43164">
        <ele>793</ele>
        <time>2018-04-22T09:49:41Z</time>
      </trkpt>
      <trkpt lat="43.43578" lon="2.43164">
        <ele>793</ele>
        <time>2018-04-22T09:49:43Z</time>
      </trkpt>
      <trkpt lat="43.43578" lon="2.43163">
        <ele>793</ele>
        <time>2018-04-22T09:49:52Z</time>
      </trkpt>
      <trkpt lat="43.43578" lon="2.43162">
        <ele>793</ele>
        <time>2018-04-22T09:49:55Z</time>
      </trkpt>
      <trkpt lat="43.43578" lon="2.43161">
        <ele>792</ele>
        <time>2018-04-22T09:50:03Z</time>
      </trkpt>
      <trkpt lat="43.43578" lon="2.43161">
        <ele>792</ele>
        <time>2018-04-22T09:50:04Z</time>
      </trkpt>
      <trkpt lat="43.43578" lon="2.43159">
        <ele>792</ele>
        <time>2018-04-22T09:50:09Z</time>
      </trkpt>
      <trkpt lat="43.43578" lon="2.43157">
        <ele>792</ele>
        <time>2018-04-22T09:50:13Z</time>
      </trkpt>
      <trkpt lat="43.43579" lon="2.43156">
        <ele>792</ele>
        <time>2018-04-22T09:50:16Z</time>
      </trkpt>
      <trkpt lat="43.43548" lon="2.43069">
        <ele>793</ele>
        <time>2018-04-22T09:55:30Z</time>
      </trkpt>
      <trkpt lat="43.43547" lon="2.43057">
        <ele>793</ele>
        <time>2018-04-22T09:55:33Z</time>
      </trkpt>
      <trkpt lat="43.43547" lon="2.43053">
        <ele>792</ele>
        <time>2018-04-22T09:55:34Z</time>
      </trkpt>
      <trkpt lat="43.43544" lon="2.43035">
        <ele>793</ele>
        <time>2018-04-22T09:55:38Z</time>
      </trkpt>
      <trkpt lat="43.43543" lon="2.43031">
        <ele>793</ele>
        <time>2018-04-22T09:55:39Z</time>
      </trkpt>
      <trkpt lat="43.43542" lon="2.43018">
        <ele>793</ele>
        <time>2018-04-22T09:55:42Z</time>
      </trkpt>
      <trkpt lat="43.43543" lon="2.43008">
        <ele>793</ele>
        <time>2018-04-22T09:55:44Z</time>
      </trkpt>
      <trkpt lat="43.43544" lon="2.42999">
        <ele>794</ele>
        <time>2018-04-22T09:55:47Z</time>
      </trkpt>
      <trkpt lat="43.43543" lon="2.42994">
        <ele>795</ele>
        <time>2018-04-22T09:55:48Z</time>
      </trkpt>
      <trkpt lat="43.43543" lon="2.42991">
        <ele>795</ele>
        <time>2018-04-22T09:55:49Z</time>
      </trkpt>
      <trkpt lat="43.43541" lon="2.42978">
        <ele>795</ele>
        <time>2018-04-22T09:55:52Z</time>
      </trkpt>
      <trkpt lat="43.4354" lon="2.42974">
        <ele>796</ele>
        <time>2018-04-22T09:55:53Z</time>
      </trkpt>
      <trkpt lat="43.43539" lon="2.42972">
        <ele>796</ele>
        <time>2018-04-22T09:55:54Z</time>
      </trkpt>
      <trkpt lat="43.43539" lon="2.42958">
        <ele>796</ele>
        <time>2018-04-22T09:55:58Z</time>
      </trkpt>
      <trkpt lat="43.43539" lon="2.42953">
        <ele>796</ele>
        <time>2018-04-22T09:55:59Z</time>
      </trkpt>
      <trkpt lat="43.43539" lon="2.4293">
        <ele>795</ele>
        <time>2018-04-22T09:56:04Z</time>
      </trkpt>
      <trkpt lat="43.43535" lon="2.42904">
        <ele>796</ele>
        <time>2018-04-22T09:56:09Z</time>
      </trkpt>
      <trkpt lat="43.43534" lon="2.42899">
        <ele>796</ele>
        <time>2018-04-22T09:56:10Z</time>
      </trkpt>
      <trkpt lat="43.43526" lon="2.42879">
        <ele>797</ele>
        <time>2018-04-22T09:56:15Z</time>
      </trkpt>
      <trkpt lat="43.43524" lon="2.42876">
        <ele>797</ele>
        <time>2018-04-22T09:56:16Z</time>
      </trkpt>
      <trkpt lat="43.4351" lon="2.42863">
        <ele>797</ele>
        <time>2018-04-22T09:56:21Z</time>
      </trkpt>
      <trkpt lat="43.43505" lon="2.42859">
        <ele>798</ele>
        <time>2018-04-22T09:56:23Z</time>
      </trkpt>
      <trkpt lat="43.43501" lon="2.42855">
        <ele>798</ele>
        <time>2018-04-22T09:56:25Z</time>
      </trkpt>
      <trkpt lat="43.435" lon="2.42854">
        <ele>798</ele>
        <time>2018-04-22T09:56:26Z</time>
      </trkpt>
      <trkpt lat="43.43494" lon="2.42846">
        <ele>799</ele>
        <time>2018-04-22T09:56:30Z</time>
      </trkpt>
      <trkpt lat="43.4349" lon="2.42841">
        <ele>799</ele>
        <time>2018-04-22T09:56:33Z</time>
      </trkpt>
      <trkpt lat="43.43486" lon="2.42839">
        <ele>799</ele>
        <time>2018-04-22T09:56:35Z</time>
      </trkpt>
      <trkpt lat="43.43479" lon="2.42836">
        <ele>800</ele>
        <time>2018-04-22T09:56:38Z</time>
      </trkpt>
      <trkpt lat="43.43472" lon="2.42832">
        <ele>801</ele>
        <time>2018-04-22T09:56:41Z</time>
      </trkpt>
      <trkpt lat="43.43465" lon="2.42825">
        <ele>801</ele>
        <time>2018-04-22T09:56:44Z</time>
      </trkpt>
      <trkpt lat="43.43458" lon="2.4282">
        <ele>802</ele>
        <time>2018-04-22T09:56:48Z</time>
      </trkpt>
      <trkpt lat="43.43455" lon="2.42817">
        <ele>803</ele>
        <time>2018-04-22T09:56:50Z</time>
      </trkpt>
      <trkpt lat="43.43448" lon="2.42812">
        <ele>804</ele>
        <time>2018-04-22T09:56:54Z</time>
      </trkpt>
      <trkpt lat="43.43447" lon="2.42812">
        <ele>804</ele>
        <time>2018-04-22T09:56:55Z</time>
      </trkpt>
      <trkpt lat="43.43438" lon="2.42807">
        <ele>805</ele>
        <time>2018-04-22T09:57:01Z</time>
      </trkpt>
      <trkpt lat="43.43431" lon="2.42804">
        <ele>806</ele>
        <time>2018-04-22T09:57:06Z</time>
      </trkpt>
      <trkpt lat="43.43428" lon="2.42802">
        <ele>806</ele>
        <time>2018-04-22T09:57:08Z</time>
      </trkpt>
      <trkpt lat="43.43426" lon="2.42801">
        <ele>807</ele>
        <time>2018-04-22T09:57:10Z</time>
      </trkpt>
      <trkpt lat="43.43424" lon="2.428">
        <ele>808</ele>
        <time>2018-04-22T09:57:11Z</time>
      </trkpt>
      <trkpt lat="43.43421" lon="2.42799">
        <ele>808</ele>
        <time>2018-04-22T09:57:14Z</time>
      </trkpt>
      <trkpt lat="43.43419" lon="2.42798">
        <ele>808</ele>
        <time>2018-04-22T09:57:15Z</time>
      </trkpt>
      <trkpt lat="43.43417" lon="2.42796">
        <ele>809</ele>
        <time>2018-04-22T09:57:16Z</time>
      </trkpt>
      <trkpt lat="43.43416" lon="2.42795">
        <ele>809</ele>
        <time>2018-04-22T09:57:17Z</time>
      </trkpt>
      <trkpt lat="43.43411" lon="2.42792">
        <ele>809</ele>
        <time>2018-04-22T09:57:20Z</time>
      </trkpt>
      <trkpt lat="43.43409" lon="2.42791">
        <ele>809</ele>
        <time>2018-04-22T09:57:21Z</time>
      </trkpt>
      <trkpt lat="43.43403" lon="2.4279">
        <ele>811</ele>
        <time>2018-04-22T09:57:25Z</time>
      </trkpt>
      <trkpt lat="43.43402" lon="2.42789">
        <ele>811</ele>
        <time>2018-04-22T09:57:26Z</time>
      </trkpt>
      <trkpt lat="43.434" lon="2.42788">
        <ele>811</ele>
        <time>2018-04-22T09:57:27Z</time>
      </trkpt>
      <trkpt lat="43.43394" lon="2.42787">
        <ele>811</ele>
        <time>2018-04-22T09:57:31Z</time>
      </trkpt>
      <trkpt lat="43.43392" lon="2.42787">
        <ele>812</ele>
        <time>2018-04-22T09:57:32Z</time>
      </trkpt>
      <trkpt lat="43.43388" lon="2.42787">
        <ele>812</ele>
        <time>2018-04-22T09:57:35Z</time>
      </trkpt>
      <trkpt lat="43.43384" lon="2.42786">
        <ele>813</ele>
        <time>2018-04-22T09:57:37Z</time>
      </trkpt>
      <trkpt lat="43.4338" lon="2.42785">
        <ele>813</ele>
        <time>2018-04-22T09:57:39Z</time>
      </trkpt>
      <trkpt lat="43.43373" lon="2.42786">
        <ele>813</ele>
        <time>2018-04-22T09:57:43Z</time>
      </trkpt>
      <trkpt lat="43.43366" lon="2.42787">
        <ele>813</ele>
        <time>2018-04-22T09:57:47Z</time>
      </trkpt>
      <trkpt lat="43.43363" lon="2.42789">
        <ele>814</ele>
        <time>2018-04-22T09:57:49Z</time>
      </trkpt>
      <trkpt lat="43.43357" lon="2.42791">
        <ele>814</ele>
        <time>2018-04-22T09:57:53Z</time>
      </trkpt>
      <trkpt lat="43.43355" lon="2.42791">
        <ele>814</ele>
        <time>2018-04-22T09:57:54Z</time>
      </trkpt>
      <trkpt lat="43.43344" lon="2.42792">
        <ele>815</ele>
        <time>2018-04-22T09:58:01Z</time>
      </trkpt>
      <trkpt lat="43.43342" lon="2.42792">
        <ele>815</ele>
        <time>2018-04-22T09:58:02Z</time>
      </trkpt>
      <trkpt lat="43.43334" lon="2.42794">
        <ele>816</ele>
        <time>2018-04-22T09:58:08Z</time>
      </trkpt>
      <trkpt lat="43.4333" lon="2.42796">
        <ele>816</ele>
        <time>2018-04-22T09:58:11Z</time>
      </trkpt>
      <trkpt lat="43.43326" lon="2.42797">
        <ele>817</ele>
        <time>2018-04-22T09:58:13Z</time>
      </trkpt>
      <trkpt lat="43.43323" lon="2.42798">
        <ele>817</ele>
        <time>2018-04-22T09:58:15Z</time>
      </trkpt>
      <trkpt lat="43.43316" lon="2.428">
        <ele>817</ele>
        <time>2018-04-22T09:58:20Z</time>
      </trkpt>
      <trkpt lat="43.4331" lon="2.42804">
        <ele>818</ele>
        <time>2018-04-22T09:58:24Z</time>
      </trkpt>
      <trkpt lat="43.43309" lon="2.42805">
        <ele>819</ele>
        <time>2018-04-22T09:58:25Z</time>
      </trkpt>
      <trkpt lat="43.43304" lon="2.42807">
        <ele>819</ele>
        <time>2018-04-22T09:58:29Z</time>
      </trkpt>
      <trkpt lat="43.43302" lon="2.42807">
        <ele>820</ele>
        <time>2018-04-22T09:58:31Z</time>
      </trkpt>
      <trkpt lat="43.43298" lon="2.42808">
        <ele>821</ele>
        <time>2018-04-22T09:58:34Z</time>
      </trkpt>
      <trkpt lat="43.43295" lon="2.42809">
        <ele>821</ele>
        <time>2018-04-22T09:58:36Z</time>
      </trkpt>
      <trkpt lat="43.4329" lon="2.42808">
        <ele>821</ele>
        <time>2018-04-22T09:58:39Z</time>
      </trkpt>
      <trkpt lat="43.43286" lon="2.4281">
        <ele>822</ele>
        <time>2018-04-22T09:58:41Z</time>
      </trkpt>
      <trkpt lat="43.43284" lon="2.4281">
        <ele>822</ele>
        <time>2018-04-22T09:58:42Z</time>
      </trkpt>
      <trkpt lat="43.43279" lon="2.42811">
        <ele>822</ele>
        <time>2018-04-22T09:58:46Z</time>
      </trkpt>
      <trkpt lat="43.43278" lon="2.42811">
        <ele>822</ele>
        <time>2018-04-22T09:58:47Z</time>
      </trkpt>
      <trkpt lat="43.43275" lon="2.42813">
        <ele>822</ele>
        <time>2018-04-22T09:58:49Z</time>
      </trkpt>
      <trkpt lat="43.43269" lon="2.42815">
        <ele>823</ele>
        <time>2018-04-22T09:58:52Z</time>
      </trkpt>
      <trkpt lat="43.43268" lon="2.42815">
        <ele>823</ele>
        <time>2018-04-22T09:58:53Z</time>
      </trkpt>
      <trkpt lat="43.43263" lon="2.42816">
        <ele>824</ele>
        <time>2018-04-22T09:58:56Z</time>
      </trkpt>
      <trkpt lat="43.4326" lon="2.42815">
        <ele>824</ele>
        <time>2018-04-22T09:58:58Z</time>
      </trkpt>
      <trkpt lat="43.43251" lon="2.42814">
        <ele>825</ele>
        <time>2018-04-22T09:59:03Z</time>
      </trkpt>
      <trkpt lat="43.43248" lon="2.42816">
        <ele>825</ele>
        <time>2018-04-22T09:59:05Z</time>
      </trkpt>
      <trkpt lat="43.43242" lon="2.4282">
        <ele>826</ele>
        <time>2018-04-22T09:59:09Z</time>
      </trkpt>
      <trkpt lat="43.4324" lon="2.42821">
        <ele>826</ele>
        <time>2018-04-22T09:59:10Z</time>
      </trkpt>
      <trkpt lat="43.43238" lon="2.42822">
        <ele>826</ele>
        <time>2018-04-22T09:59:11Z</time>
      </trkpt>
      <trkpt lat="43.43226" lon="2.42821">
        <ele>827</ele>
        <time>2018-04-22T09:59:17Z</time>
      </trkpt>
      <trkpt lat="43.43224" lon="2.4282">
        <ele>826</ele>
        <time>2018-04-22T09:59:18Z</time>
      </trkpt>
      <trkpt lat="43.43213" lon="2.42812">
        <ele>826</ele>
        <time>2018-04-22T09:59:24Z</time>
      </trkpt>
      <trkpt lat="43.43202" lon="2.42799">
        <ele>827</ele>
        <time>2018-04-22T09:59:30Z</time>
      </trkpt>
      <trkpt lat="43.43197" lon="2.42794">
        <ele>827</ele>
        <time>2018-04-22T09:59:32Z</time>
      </trkpt>
      <trkpt lat="43.43188" lon="2.42782">
        <ele>827</ele>
        <time>2018-04-22T09:59:36Z</time>
      </trkpt>
      <trkpt lat="43.43178" lon="2.42766">
        <ele>826</ele>
        <time>2018-04-22T09:59:41Z</time>
      </trkpt>
      <trkpt lat="43.43172" lon="2.42751">
        <ele>826</ele>
        <time>2018-04-22T09:59:45Z</time>
      </trkpt>
      <trkpt lat="43.43167" lon="2.42745">
        <ele>826</ele>
        <time>2018-04-22T09:59:47Z</time>
      </trkpt>
      <trkpt lat="43.43157" lon="2.42721">
        <ele>827</ele>
        <time>2018-04-22T09:59:52Z</time>
      </trkpt>
      <trkpt lat="43.43148" lon="2.42699">
        <ele>826</ele>
        <time>2018-04-22T09:59:56Z</time>
      </trkpt>
      <trkpt lat="43.43144" lon="2.42687">
        <ele>825</ele>
        <time>2018-04-22T09:59:58Z</time>
      </trkpt>
      <trkpt lat="43.43142" lon="2.42681">
        <ele>824</ele>
        <time>2018-04-22T09:59:59Z</time>
      </trkpt>
      <trkpt lat="43.43139" lon="2.42674">
        <ele>824</ele>
        <time>2018-04-22T10:00:00Z</time>
      </trkpt>
      <trkpt lat="43.43131" lon="2.42655">
        <ele>824</ele>
        <time>2018-04-22T10:00:03Z</time>
      </trkpt>
      <trkpt lat="43.43128" lon="2.42648">
        <ele>823</ele>
        <time>2018-04-22T10:00:04Z</time>
      </trkpt>
      <trkpt lat="43.43119" lon="2.42635">
        <ele>822</ele>
        <time>2018-04-22T10:00:06Z</time>
      </trkpt>
      <trkpt lat="43.43114" lon="2.42629">
        <ele>821</ele>
        <time>2018-04-22T10:00:07Z</time>
      </trkpt>
      <trkpt lat="43.43109" lon="2.42625">
        <ele>821</ele>
        <time>2018-04-22T10:00:08Z</time>
      </trkpt>
      <trkpt lat="43.43094" lon="2.42614">
        <ele>820</ele>
        <time>2018-04-22T10:00:11Z</time>
      </trkpt>
      <trkpt lat="43.43087" lon="2.42613">
        <ele>819</ele>
        <time>2018-04-22T10:00:12Z</time>
      </trkpt>
      <trkpt lat="43.43073" lon="2.42616">
        <ele>818</ele>
        <time>2018-04-22T10:00:14Z</time>
      </trkpt>
      <trkpt lat="43.43067" lon="2.42619">
        <ele>817</ele>
        <time>2018-04-22T10:00:15Z</time>
      </trkpt>
      <trkpt lat="43.43062" lon="2.42624">
        <ele>816</ele>
        <time>2018-04-22T10:00:16Z</time>
      </trkpt>
      <trkpt lat="43.43049" lon="2.42644">
        <ele>816</ele>
        <time>2018-04-22T10:00:19Z</time>
      </trkpt>
      <trkpt lat="43.43045" lon="2.42653">
        <ele>815</ele>
        <time>2018-04-22T10:00:20Z</time>
      </trkpt>
      <trkpt lat="43.43038" lon="2.42669">
        <ele>814</ele>
        <time>2018-04-22T10:00:22Z</time>
      </trkpt>
      <trkpt lat="43.43033" lon="2.42677">
        <ele>814</ele>
        <time>2018-04-22T10:00:23Z</time>
      </trkpt>
      <trkpt lat="43.43014" lon="2.42703">
        <ele>814</ele>
        <time>2018-04-22T10:00:27Z</time>
      </trkpt>
      <trkpt lat="43.43009" lon="2.42707">
        <ele>814</ele>
        <time>2018-04-22T10:00:28Z</time>
      </trkpt>
      <trkpt lat="43.42988" lon="2.42727">
        <ele>814</ele>
        <time>2018-04-22T10:00:33Z</time>
      </trkpt>
      <trkpt lat="43.42975" lon="2.42739">
        <ele>814</ele>
        <time>2018-04-22T10:00:36Z</time>
      </trkpt>
      <trkpt lat="43.42971" lon="2.42742">
        <ele>814</ele>
        <time>2018-04-22T10:00:37Z</time>
      </trkpt>
      <trkpt lat="43.42964" lon="2.42749">
        <ele>813</ele>
        <time>2018-04-22T10:00:39Z</time>
      </trkpt>
      <trkpt lat="43.42961" lon="2.42751">
        <ele>813</ele>
        <time>2018-04-22T10:00:40Z</time>
      </trkpt>
      <trkpt lat="43.42949" lon="2.42761">
        <ele>813</ele>
        <time>2018-04-22T10:00:43Z</time>
      </trkpt>
      <trkpt lat="43.42945" lon="2.42765">
        <ele>813</ele>
        <time>2018-04-22T10:00:44Z</time>
      </trkpt>
      <trkpt lat="43.42928" lon="2.42778">
        <ele>812</ele>
        <time>2018-04-22T10:00:48Z</time>
      </trkpt>
      <trkpt lat="43.42916" lon="2.42776">
        <ele>812</ele>
        <time>2018-04-22T10:00:51Z</time>
      </trkpt>
      <trkpt lat="43.42912" lon="2.42769">
        <ele>813</ele>
        <time>2018-04-22T10:00:53Z</time>
      </trkpt>
      <trkpt lat="43.42911" lon="2.42764">
        <ele>813</ele>
        <time>2018-04-22T10:00:55Z</time>
      </trkpt>
      <trkpt lat="43.4291" lon="2.42761">
        <ele>813</ele>
        <time>2018-04-22T10:00:57Z</time>
      </trkpt>
      <trkpt lat="43.4291" lon="2.42758">
        <ele>814</ele>
        <time>2018-04-22T10:00:59Z</time>
      </trkpt>
      <trkpt lat="43.42909" lon="2.42753">
        <ele>815</ele>
        <time>2018-04-22T10:01:01Z</time>
      </trkpt>
      <trkpt lat="43.42909" lon="2.42751">
        <ele>815</ele>
        <time>2018-04-22T10:01:02Z</time>
      </trkpt>
      <trkpt lat="43.4291" lon="2.42747">
        <ele>816</ele>
        <time>2018-04-22T10:01:04Z</time>
      </trkpt>
      <trkpt lat="43.42909" lon="2.42741">
        <ele>816</ele>
        <time>2018-04-22T10:01:06Z</time>
      </trkpt>
      <trkpt lat="43.4291" lon="2.42732">
        <ele>817</ele>
        <time>2018-04-22T10:01:09Z</time>
      </trkpt>
      <trkpt lat="43.4291" lon="2.42727">
        <ele>818</ele>
        <time>2018-04-22T10:01:11Z</time>
      </trkpt>
      <trkpt lat="43.42912" lon="2.42722">
        <ele>819</ele>
        <time>2018-04-22T10:01:13Z</time>
      </trkpt>
      <trkpt lat="43.42913" lon="2.42716">
        <ele>819</ele>
        <time>2018-04-22T10:01:15Z</time>
      </trkpt>
      <trkpt lat="43.42914" lon="2.42707">
        <ele>820</ele>
        <time>2018-04-22T10:01:18Z</time>
      </trkpt>
      <trkpt lat="43.42914" lon="2.42698">
        <ele>820</ele>
        <time>2018-04-22T10:01:21Z</time>
      </trkpt>
      <trkpt lat="43.42913" lon="2.42691">
        <ele>821</ele>
        <time>2018-04-22T10:01:23Z</time>
      </trkpt>
      <trkpt lat="43.42912" lon="2.42682">
        <ele>821</ele>
        <time>2018-04-22T10:01:26Z</time>
      </trkpt>
      <trkpt lat="43.42911" lon="2.42677">
        <ele>821</ele>
        <time>2018-04-22T10:01:28Z</time>
      </trkpt>
      <trkpt lat="43.42907" lon="2.42667">
        <ele>822</ele>
        <time>2018-04-22T10:01:32Z</time>
      </trkpt>
      <trkpt lat="43.42907" lon="2.42665">
        <ele>822</ele>
        <time>2018-04-22T10:01:33Z</time>
      </trkpt>
      <trkpt lat="43.42905" lon="2.42656">
        <ele>823</ele>
        <time>2018-04-22T10:01:37Z</time>
      </trkpt>
      <trkpt lat="43.42903" lon="2.42651">
        <ele>824</ele>
        <time>2018-04-22T10:01:40Z</time>
      </trkpt>
      <trkpt lat="43.42902" lon="2.42649">
        <ele>824</ele>
        <time>2018-04-22T10:01:41Z</time>
      </trkpt>
      <trkpt lat="43.42901" lon="2.42647">
        <ele>824</ele>
        <time>2018-04-22T10:01:42Z</time>
      </trkpt>
      <trkpt lat="43.42899" lon="2.42641">
        <ele>824</ele>
        <time>2018-04-22T10:01:45Z</time>
      </trkpt>
      <trkpt lat="43.42898" lon="2.42639">
        <ele>825</ele>
        <time>2018-04-22T10:01:46Z</time>
      </trkpt>
      <trkpt lat="43.42896" lon="2.42635">
        <ele>825</ele>
        <time>2018-04-22T10:01:48Z</time>
      </trkpt>
      <trkpt lat="43.42894" lon="2.42627">
        <ele>827</ele>
        <time>2018-04-22T10:01:52Z</time>
      </trkpt>
      <trkpt lat="43.42894" lon="2.42625">
        <ele>827</ele>
        <time>2018-04-22T10:01:53Z</time>
      </trkpt>
      <trkpt lat="43.42888" lon="2.42617">
        <ele>827</ele>
        <time>2018-04-22T10:01:57Z</time>
      </trkpt>
      <trkpt lat="43.42888" lon="2.42614">
        <ele>828</ele>
        <time>2018-04-22T10:01:58Z</time>
      </trkpt>
      <trkpt lat="43.42885" lon="2.42608">
        <ele>828</ele>
        <time>2018-04-22T10:02:01Z</time>
      </trkpt>
      <trkpt lat="43.42884" lon="2.42606">
        <ele>829</ele>
        <time>2018-04-22T10:02:02Z</time>
      </trkpt>
      <trkpt lat="43.42883" lon="2.42604">
        <ele>829</ele>
        <time>2018-04-22T10:02:03Z</time>
      </trkpt>
      <trkpt lat="43.42883" lon="2.42602">
        <ele>830</ele>
        <time>2018-04-22T10:02:04Z</time>
      </trkpt>
      <trkpt lat="43.4288" lon="2.42595">
        <ele>830</ele>
        <time>2018-04-22T10:02:08Z</time>
      </trkpt>
      <trkpt lat="43.4288" lon="2.42592">
        <ele>831</ele>
        <time>2018-04-22T10:02:09Z</time>
      </trkpt>
      <trkpt lat="43.42878" lon="2.42587">
        <ele>832</ele>
        <time>2018-04-22T10:02:12Z</time>
      </trkpt>
      <trkpt lat="43.42876" lon="2.42581">
        <ele>832</ele>
        <time>2018-04-22T10:02:15Z</time>
      </trkpt>
      <trkpt lat="43.42874" lon="2.42577">
        <ele>832</ele>
        <time>2018-04-22T10:02:17Z</time>
      </trkpt>
      <trkpt lat="43.42872" lon="2.42571">
        <ele>833</ele>
        <time>2018-04-22T10:02:20Z</time>
      </trkpt>
      <trkpt lat="43.4287" lon="2.42564">
        <ele>834</ele>
        <time>2018-04-22T10:02:23Z</time>
      </trkpt>
      <trkpt lat="43.42869" lon="2.42561">
        <ele>834</ele>
        <time>2018-04-22T10:02:25Z</time>
      </trkpt>
      <trkpt lat="43.42867" lon="2.42556">
        <ele>835</ele>
        <time>2018-04-22T10:02:27Z</time>
      </trkpt>
      <trkpt lat="43.42865" lon="2.42549">
        <ele>835</ele>
        <time>2018-04-22T10:02:30Z</time>
      </trkpt>
      <trkpt lat="43.42864" lon="2.42544">
        <ele>836</ele>
        <time>2018-04-22T10:02:32Z</time>
      </trkpt>
      <trkpt lat="43.42864" lon="2.42542">
        <ele>836</ele>
        <time>2018-04-22T10:02:33Z</time>
      </trkpt>
      <trkpt lat="43.42862" lon="2.42534">
        <ele>837</ele>
        <time>2018-04-22T10:02:36Z</time>
      </trkpt>
      <trkpt lat="43.42856" lon="2.42523">
        <ele>837</ele>
        <time>2018-04-22T10:02:41Z</time>
      </trkpt>
      <trkpt lat="43.42854" lon="2.42519">
        <ele>838</ele>
        <time>2018-04-22T10:02:43Z</time>
      </trkpt>
      <trkpt lat="43.42851" lon="2.42512">
        <ele>839</ele>
        <time>2018-04-22T10:02:46Z</time>
      </trkpt>
      <trkpt lat="43.4285" lon="2.42508">
        <ele>839</ele>
        <time>2018-04-22T10:02:48Z</time>
      </trkpt>
      <trkpt lat="43.42848" lon="2.42504">
        <ele>840</ele>
        <time>2018-04-22T10:02:50Z</time>
      </trkpt>
      <trkpt lat="43.42847" lon="2.42502">
        <ele>840</ele>
        <time>2018-04-22T10:02:51Z</time>
      </trkpt>
      <trkpt lat="43.42846" lon="2.42499">
        <ele>840</ele>
        <time>2018-04-22T10:02:52Z</time>
      </trkpt>
      <trkpt lat="43.42841" lon="2.42491">
        <ele>841</ele>
        <time>2018-04-22T10:02:56Z</time>
      </trkpt>
      <trkpt lat="43.42839" lon="2.42489">
        <ele>841</ele>
        <time>2018-04-22T10:02:57Z</time>
      </trkpt>
      <trkpt lat="43.42834" lon="2.42482">
        <ele>842</ele>
        <time>2018-04-22T10:03:01Z</time>
      </trkpt>
      <trkpt lat="43.42832" lon="2.4248">
        <ele>842</ele>
        <time>2018-04-22T10:03:02Z</time>
      </trkpt>
      <trkpt lat="43.42827" lon="2.42475">
        <ele>843</ele>
        <time>2018-04-22T10:03:06Z</time>
      </trkpt>
      <trkpt lat="43.42823" lon="2.42472">
        <ele>843</ele>
        <time>2018-04-22T10:03:08Z</time>
      </trkpt>
      <trkpt lat="43.42814" lon="2.42467">
        <ele>844</ele>
        <time>2018-04-22T10:03:12Z</time>
      </trkpt>
      <trkpt lat="43.42812" lon="2.42467">
        <ele>844</ele>
        <time>2018-04-22T10:03:13Z</time>
      </trkpt>
      <trkpt lat="43.42809" lon="2.42466">
        <ele>844</ele>
        <time>2018-04-22T10:03:14Z</time>
      </trkpt>
      <trkpt lat="43.42806" lon="2.42464">
        <ele>845</ele>
        <time>2018-04-22T10:03:16Z</time>
      </trkpt>
      <trkpt lat="43.42802" lon="2.42462">
        <ele>845</ele>
        <time>2018-04-22T10:03:18Z</time>
      </trkpt>
      <trkpt lat="43.42797" lon="2.42459">
        <ele>845</ele>
        <time>2018-04-22T10:03:21Z</time>
      </trkpt>
      <trkpt lat="43.42792" lon="2.42457">
        <ele>846</ele>
        <time>2018-04-22T10:03:23Z</time>
      </trkpt>
      <trkpt lat="43.42783" lon="2.42452">
        <ele>846</ele>
        <time>2018-04-22T10:03:28Z</time>
      </trkpt>
      <trkpt lat="43.42781" lon="2.42452">
        <ele>847</ele>
        <time>2018-04-22T10:03:29Z</time>
      </trkpt>
      <trkpt lat="43.42772" lon="2.4245">
        <ele>848</ele>
        <time>2018-04-22T10:03:34Z</time>
      </trkpt>
      <trkpt lat="43.4277" lon="2.42449">
        <ele>848</ele>
        <time>2018-04-22T10:03:35Z</time>
      </trkpt>
      <trkpt lat="43.42764" lon="2.42446">
        <ele>849</ele>
        <time>2018-04-22T10:03:38Z</time>
      </trkpt>
      <trkpt lat="43.42759" lon="2.42443">
        <ele>849</ele>
        <time>2018-04-22T10:03:41Z</time>
      </trkpt>
      <trkpt lat="43.42753" lon="2.42442">
        <ele>850</ele>
        <time>2018-04-22T10:03:44Z</time>
      </trkpt>
      <trkpt lat="43.42749" lon="2.42441">
        <ele>850</ele>
        <time>2018-04-22T10:03:46Z</time>
      </trkpt>
      <trkpt lat="43.42742" lon="2.4244">
        <ele>851</ele>
        <time>2018-04-22T10:03:49Z</time>
      </trkpt>
      <trkpt lat="43.42733" lon="2.42436">
        <ele>851</ele>
        <time>2018-04-22T10:03:53Z</time>
      </trkpt>
      <trkpt lat="43.42723" lon="2.42433">
        <ele>852</ele>
        <time>2018-04-22T10:03:58Z</time>
      </trkpt>
      <trkpt lat="43.42717" lon="2.42432">
        <ele>852</ele>
        <time>2018-04-22T10:04:01Z</time>
      </trkpt>
      <trkpt lat="43.42711" lon="2.42431">
        <ele>853</ele>
        <time>2018-04-22T10:04:04Z</time>
      </trkpt>
      <trkpt lat="43.42707" lon="2.42429">
        <ele>853</ele>
        <time>2018-04-22T10:04:06Z</time>
      </trkpt>
      <trkpt lat="43.427" lon="2.42429">
        <ele>854</ele>
        <time>2018-04-22T10:04:09Z</time>
      </trkpt>
      <trkpt lat="43.42692" lon="2.42426">
        <ele>854</ele>
        <time>2018-04-22T10:04:13Z</time>
      </trkpt>
      <trkpt lat="43.42676" lon="2.42423">
        <ele>855</ele>
        <time>2018-04-22T10:04:20Z</time>
      </trkpt>
      <trkpt lat="43.42673" lon="2.42422">
        <ele>855</ele>
        <time>2018-04-22T10:04:21Z</time>
      </trkpt>
      <trkpt lat="43.42656" lon="2.42419">
        <ele>856</ele>
        <time>2018-04-22T10:04:28Z</time>
      </trkpt>
      <trkpt lat="43.42642" lon="2.42415">
        <ele>857</ele>
        <time>2018-04-22T10:04:34Z</time>
      </trkpt>
      <trkpt lat="43.42627" lon="2.42414">
        <ele>857</ele>
        <time>2018-04-22T10:04:41Z</time>
      </trkpt>
      <trkpt lat="43.42621" lon="2.42412">
        <ele>857</ele>
        <time>2018-04-22T10:04:45Z</time>
      </trkpt>
      <trkpt lat="43.42619" lon="2.42411">
        <ele>857</ele>
        <time>2018-04-22T10:04:46Z</time>
      </trkpt>
      <trkpt lat="43.42619" lon="2.42411">
        <ele>857</ele>
        <time>2018-04-22T10:04:47Z</time>
      </trkpt>
      <trkpt lat="43.42617" lon="2.4241">
        <ele>858</ele>
        <time>2018-04-22T10:04:52Z</time>
      </trkpt>
      <trkpt lat="43.42617" lon="2.4241">
        <ele>858</ele>
        <time>2018-04-22T10:04:55Z</time>
      </trkpt>
      <trkpt lat="43.42617" lon="2.4241">
        <ele>858</ele>
        <time>2018-04-22T10:05:03Z</time>
      </trkpt>
      <trkpt lat="43.42617" lon="2.42411">
        <ele>858</ele>
        <time>2018-04-22T10:05:08Z</time>
      </trkpt>
      <trkpt lat="43.42617" lon="2.42411">
        <ele>858</ele>
        <time>2018-04-22T10:05:15Z</time>
      </trkpt>
      <trkpt lat="43.42616" lon="2.42411">
        <ele>858</ele>
        <time>2018-04-22T10:05:20Z</time>
      </trkpt>
      <trkpt lat="43.42614" lon="2.42411">
        <ele>858</ele>
        <time>2018-04-22T10:05:22Z</time>
      </trkpt>
      <trkpt lat="43.42609" lon="2.42409">
        <ele>858</ele>
        <time>2018-04-22T10:05:25Z</time>
      </trkpt>
      <trkpt lat="43.42605" lon="2.42407">
        <ele>858</ele>
        <time>2018-04-22T10:05:27Z</time>
      </trkpt>
      <trkpt lat="43.42599" lon="2.42404">
        <ele>858</ele>
        <time>2018-04-22T10:05:30Z</time>
      </trkpt>
      <trkpt lat="43.42592" lon="2.42401">
        <ele>858</ele>
        <time>2018-04-22T10:05:33Z</time>
      </trkpt>
      <trkpt lat="43.42575" lon="2.42392">
        <ele>858</ele>
        <time>2018-04-22T10:05:40Z</time>
      </trkpt>
      <trkpt lat="43.4256" lon="2.42383">
        <ele>858</ele>
        <time>2018-04-22T10:05:45Z</time>
      </trkpt>
      <trkpt lat="43.42547" lon="2.42376">
        <ele>858</ele>
        <time>2018-04-22T10:05:49Z</time>
      </trkpt>
      <trkpt lat="43.42536" lon="2.42372">
        <ele>858</ele>
        <time>2018-04-22T10:05:52Z</time>
      </trkpt>
      <trkpt lat="43.42526" lon="2.42369">
        <ele>858</ele>
        <time>2018-04-22T10:05:55Z</time>
      </trkpt>
      <trkpt lat="43.42522" lon="2.42368">
        <ele>858</ele>
        <time>2018-04-22T10:05:56Z</time>
      </trkpt>
      <trkpt lat="43.42506" lon="2.42365">
        <ele>858</ele>
        <time>2018-04-22T10:06:01Z</time>
      </trkpt>
      <trkpt lat="43.42494" lon="2.42363">
        <ele>858</ele>
        <time>2018-04-22T10:06:06Z</time>
      </trkpt>
      <trkpt lat="43.42486" lon="2.42362">
        <ele>858</ele>
        <time>2018-04-22T10:06:11Z</time>
      </trkpt>
      <trkpt lat="43.42484" lon="2.42364">
        <ele>859</ele>
        <time>2018-04-22T10:06:12Z</time>
      </trkpt>
      <trkpt lat="43.42485" lon="2.42367">
        <ele>859</ele>
        <time>2018-04-22T10:06:14Z</time>
      </trkpt>
      <trkpt lat="43.42485" lon="2.42369">
        <ele>859</ele>
        <time>2018-04-22T10:06:16Z</time>
      </trkpt>
      <trkpt lat="43.42486" lon="2.4237">
        <ele>860</ele>
        <time>2018-04-22T10:06:17Z</time>
      </trkpt>
      <trkpt lat="43.42487" lon="2.42377">
        <ele>860</ele>
        <time>2018-04-22T10:06:21Z</time>
      </trkpt>
      <trkpt lat="43.42488" lon="2.42378">
        <ele>861</ele>
        <time>2018-04-22T10:06:23Z</time>
      </trkpt>
      <trkpt lat="43.4249" lon="2.42379">
        <ele>861</ele>
        <time>2018-04-22T10:06:25Z</time>
      </trkpt>
      <trkpt lat="43.42492" lon="2.42383">
        <ele>862</ele>
        <time>2018-04-22T10:06:28Z</time>
      </trkpt>
      <trkpt lat="43.42494" lon="2.42385">
        <ele>862</ele>
        <time>2018-04-22T10:06:30Z</time>
      </trkpt>
      <trkpt lat="43.42494" lon="2.42386">
        <ele>863</ele>
        <time>2018-04-22T10:06:31Z</time>
      </trkpt>
      <trkpt lat="43.42495" lon="2.42389">
        <ele>863</ele>
        <time>2018-04-22T10:06:34Z</time>
      </trkpt>
      <trkpt lat="43.42497" lon="2.42393">
        <ele>864</ele>
        <time>2018-04-22T10:06:36Z</time>
      </trkpt>
      <trkpt lat="43.42497" lon="2.42395">
        <ele>864</ele>
        <time>2018-04-22T10:06:38Z</time>
      </trkpt>
      <trkpt lat="43.425" lon="2.42399">
        <ele>865</ele>
        <time>2018-04-22T10:06:42Z</time>
      </trkpt>
      <trkpt lat="43.425" lon="2.424">
        <ele>865</ele>
        <time>2018-04-22T10:06:43Z</time>
      </trkpt>
      <trkpt lat="43.42501" lon="2.42402">
        <ele>865</ele>
        <time>2018-04-22T10:06:45Z</time>
      </trkpt>
      <trkpt lat="43.42507" lon="2.42409">
        <ele>866</ele>
        <time>2018-04-22T10:06:50Z</time>
      </trkpt>
      <trkpt lat="43.42511" lon="2.42414">
        <ele>868</ele>
        <time>2018-04-22T10:06:53Z</time>
      </trkpt>
      <trkpt lat="43.42512" lon="2.42415">
        <ele>868</ele>
        <time>2018-04-22T10:06:54Z</time>
      </trkpt>
      <trkpt lat="43.42516" lon="2.4242">
        <ele>869</ele>
        <time>2018-04-22T10:06:57Z</time>
      </trkpt>
      <trkpt lat="43.42522" lon="2.42425">
        <ele>870</ele>
        <time>2018-04-22T10:07:03Z</time>
      </trkpt>
      <trkpt lat="43.42523" lon="2.42428">
        <ele>870</ele>
        <time>2018-04-22T10:07:04Z</time>
      </trkpt>
      <trkpt lat="43.42526" lon="2.42433">
        <ele>871</ele>
        <time>2018-04-22T10:07:08Z</time>
      </trkpt>
      <trkpt lat="43.42528" lon="2.42437">
        <ele>872</ele>
        <time>2018-04-22T10:07:12Z</time>
      </trkpt>
      <trkpt lat="43.42528" lon="2.42439">
        <ele>872</ele>
        <time>2018-04-22T10:07:13Z</time>
      </trkpt>
      <trkpt lat="43.42532" lon="2.42447">
        <ele>873</ele>
        <time>2018-04-22T10:07:20Z</time>
      </trkpt>
      <trkpt lat="43.42535" lon="2.42449">
        <ele>874</ele>
        <time>2018-04-22T10:07:23Z</time>
      </trkpt>
      <trkpt lat="43.42537" lon="2.4245">
        <ele>874</ele>
        <time>2018-04-22T10:07:24Z</time>
      </trkpt>
      <trkpt lat="43.42543" lon="2.42457">
        <ele>875</ele>
        <time>2018-04-22T10:07:31Z</time>
      </trkpt>
      <trkpt lat="43.42543" lon="2.42458">
        <ele>876</ele>
        <time>2018-04-22T10:07:32Z</time>
      </trkpt>
      <trkpt lat="43.42548" lon="2.42465">
        <ele>876</ele>
        <time>2018-04-22T10:07:39Z</time>
      </trkpt>
      <trkpt lat="43.4255" lon="2.42466">
        <ele>877</ele>
        <time>2018-04-22T10:07:41Z</time>
      </trkpt>
      <trkpt lat="43.42556" lon="2.42475">
        <ele>877</ele>
        <time>2018-04-22T10:07:46Z</time>
      </trkpt>
      <trkpt lat="43.42562" lon="2.42479">
        <ele>878</ele>
        <time>2018-04-22T10:07:50Z</time>
      </trkpt>
      <trkpt lat="43.42575" lon="2.42492">
        <ele>878</ele>
        <time>2018-04-22T10:07:57Z</time>
      </trkpt>
      <trkpt lat="43.42576" lon="2.42494">
        <ele>878</ele>
        <time>2018-04-22T10:07:58Z</time>
      </trkpt>
      <trkpt lat="43.42578" lon="2.42497">
        <ele>879</ele>
        <time>2018-04-22T10:08:00Z</time>
      </trkpt>
      <trkpt lat="43.42584" lon="2.42503">
        <ele>879</ele>
        <time>2018-04-22T10:08:03Z</time>
      </trkpt>
      <trkpt lat="43.42586" lon="2.42505">
        <ele>879</ele>
        <time>2018-04-22T10:08:05Z</time>
      </trkpt>
      <trkpt lat="43.42594" lon="2.42512">
        <ele>880</ele>
        <time>2018-04-22T10:08:09Z</time>
      </trkpt>
      <trkpt lat="43.42597" lon="2.42515">
        <ele>881</ele>
        <time>2018-04-22T10:08:10Z</time>
      </trkpt>
      <trkpt lat="43.42603" lon="2.42523">
        <ele>881</ele>
        <time>2018-04-22T10:08:15Z</time>
      </trkpt>
      <trkpt lat="43.42608" lon="2.42529">
        <ele>882</ele>
        <time>2018-04-22T10:08:18Z</time>
      </trkpt>
      <trkpt lat="43.4261" lon="2.42531">
        <ele>882</ele>
        <time>2018-04-22T10:08:19Z</time>
      </trkpt>
      <trkpt lat="43.42614" lon="2.42536">
        <ele>882</ele>
        <time>2018-04-22T10:08:21Z</time>
      </trkpt>
      <trkpt lat="43.42615" lon="2.42539">
        <ele>882</ele>
        <time>2018-04-22T10:08:22Z</time>
      </trkpt>
      <trkpt lat="43.4262" lon="2.42547">
        <ele>882</ele>
        <time>2018-04-22T10:08:25Z</time>
      </trkpt>
      <trkpt lat="43.42622" lon="2.42549">
        <ele>882</ele>
        <time>2018-04-22T10:08:26Z</time>
      </trkpt>
      <trkpt lat="43.42623" lon="2.42551">
        <ele>882</ele>
        <time>2018-04-22T10:08:27Z</time>
      </trkpt>
      <trkpt lat="43.42627" lon="2.42555">
        <ele>883</ele>
        <time>2018-04-22T10:08:29Z</time>
      </trkpt>
      <trkpt lat="43.42631" lon="2.4256">
        <ele>883</ele>
        <time>2018-04-22T10:08:31Z</time>
      </trkpt>
      <trkpt lat="43.42632" lon="2.42563">
        <ele>883</ele>
        <time>2018-04-22T10:08:33Z</time>
      </trkpt>
      <trkpt lat="43.42635" lon="2.42566">
        <ele>884</ele>
        <time>2018-04-22T10:08:35Z</time>
      </trkpt>
      <trkpt lat="43.42643" lon="2.42577">
        <ele>884</ele>
        <time>2018-04-22T10:08:41Z</time>
      </trkpt>
      <trkpt lat="43.42646" lon="2.4258">
        <ele>885</ele>
        <time>2018-04-22T10:08:43Z</time>
      </trkpt>
      <trkpt lat="43.42652" lon="2.42586">
        <ele>885</ele>
        <time>2018-04-22T10:08:47Z</time>
      </trkpt>
      <trkpt lat="43.4266" lon="2.42598">
        <ele>886</ele>
        <time>2018-04-22T10:08:53Z</time>
      </trkpt>
      <trkpt lat="43.42665" lon="2.42613">
        <ele>887</ele>
        <time>2018-04-22T10:08:58Z</time>
      </trkpt>
      <trkpt lat="43.42667" lon="2.42616">
        <ele>887</ele>
        <time>2018-04-22T10:08:59Z</time>
      </trkpt>
      <trkpt lat="43.4267" lon="2.42622">
        <ele>887</ele>
        <time>2018-04-22T10:09:02Z</time>
      </trkpt>
      <trkpt lat="43.42674" lon="2.4263">
        <ele>887</ele>
        <time>2018-04-22T10:09:06Z</time>
      </trkpt>
      <trkpt lat="43.42675" lon="2.42633">
        <ele>887</ele>
        <time>2018-04-22T10:09:07Z</time>
      </trkpt>
      <trkpt lat="43.4268" lon="2.42646">
        <ele>887</ele>
        <time>2018-04-22T10:09:13Z</time>
      </trkpt>
      <trkpt lat="43.42679" lon="2.42659">
        <ele>887</ele>
        <time>2018-04-22T10:09:17Z</time>
      </trkpt>
      <trkpt lat="43.4268" lon="2.42666">
        <ele>887</ele>
        <time>2018-04-22T10:09:19Z</time>
      </trkpt>
      <trkpt lat="43.42683" lon="2.42672">
        <ele>888</ele>
        <time>2018-04-22T10:09:21Z</time>
      </trkpt>
      <trkpt lat="43.42688" lon="2.42681">
        <ele>888</ele>
        <time>2018-04-22T10:09:25Z</time>
      </trkpt>
      <trkpt lat="43.42689" lon="2.42685">
        <ele>888</ele>
        <time>2018-04-22T10:09:26Z</time>
      </trkpt>
      <trkpt lat="43.42693" lon="2.42696">
        <ele>889</ele>
        <time>2018-04-22T10:09:29Z</time>
      </trkpt>
      <trkpt lat="43.42693" lon="2.427">
        <ele>889</ele>
        <time>2018-04-22T10:09:30Z</time>
      </trkpt>
      <trkpt lat="43.42697" lon="2.42715">
        <ele>887</ele>
        <time>2018-04-22T10:09:33Z</time>
      </trkpt>
      <trkpt lat="43.42698" lon="2.42721">
        <ele>887</ele>
        <time>2018-04-22T10:09:34Z</time>
      </trkpt>
      <trkpt lat="43.427" lon="2.42727">
        <ele>887</ele>
        <time>2018-04-22T10:09:35Z</time>
      </trkpt>
      <trkpt lat="43.42702" lon="2.42753">
        <ele>885</ele>
        <time>2018-04-22T10:09:39Z</time>
      </trkpt>
      <trkpt lat="43.42703" lon="2.4276">
        <ele>884</ele>
        <time>2018-04-22T10:09:40Z</time>
      </trkpt>
      <trkpt lat="43.42703" lon="2.42791">
        <ele>884</ele>
        <time>2018-04-22T10:09:44Z</time>
      </trkpt>
      <trkpt lat="43.42701" lon="2.42799">
        <ele>885</ele>
        <time>2018-04-22T10:09:45Z</time>
      </trkpt>
      <trkpt lat="43.427" lon="2.42809">
        <ele>886</ele>
        <time>2018-04-22T10:09:47Z</time>
      </trkpt>
      <trkpt lat="43.42699" lon="2.42816">
        <ele>886</ele>
        <time>2018-04-22T10:09:49Z</time>
      </trkpt>
      <trkpt lat="43.42703" lon="2.42829">
        <ele>886</ele>
        <time>2018-04-22T10:09:52Z</time>
      </trkpt>
      <trkpt lat="43.42706" lon="2.42847">
        <ele>888</ele>
        <time>2018-04-22T10:09:56Z</time>
      </trkpt>
      <trkpt lat="43.42708" lon="2.42856">
        <ele>888</ele>
        <time>2018-04-22T10:09:58Z</time>
      </trkpt>
      <trkpt lat="43.42705" lon="2.42875">
        <ele>889</ele>
        <time>2018-04-22T10:10:03Z</time>
      </trkpt>
      <trkpt lat="43.42707" lon="2.42886">
        <ele>889</ele>
        <time>2018-04-22T10:10:07Z</time>
      </trkpt>
      <trkpt lat="43.4271" lon="2.42891">
        <ele>890</ele>
        <time>2018-04-22T10:10:09Z</time>
      </trkpt>
      <trkpt lat="43.42709" lon="2.42899">
        <ele>890</ele>
        <time>2018-04-22T10:10:12Z</time>
      </trkpt>
      <trkpt lat="43.4271" lon="2.4291">
        <ele>891</ele>
        <time>2018-04-22T10:10:16Z</time>
      </trkpt>
      <trkpt lat="43.42712" lon="2.42913">
        <ele>891</ele>
        <time>2018-04-22T10:10:17Z</time>
      </trkpt>
      <trkpt lat="43.42713" lon="2.42928">
        <ele>891</ele>
        <time>2018-04-22T10:10:21Z</time>
      </trkpt>
      <trkpt lat="43.42714" lon="2.42932">
        <ele>891</ele>
        <time>2018-04-22T10:10:22Z</time>
      </trkpt>
      <trkpt lat="43.42715" lon="2.4294">
        <ele>892</ele>
        <time>2018-04-22T10:10:24Z</time>
      </trkpt>
      <trkpt lat="43.42715" lon="2.42951">
        <ele>891</ele>
        <time>2018-04-22T10:10:26Z</time>
      </trkpt>
      <trkpt lat="43.42718" lon="2.42967">
        <ele>890</ele>
        <time>2018-04-22T10:10:29Z</time>
      </trkpt>
      <trkpt lat="43.4272" lon="2.42978">
        <ele>890</ele>
        <time>2018-04-22T10:10:31Z</time>
      </trkpt>
      <trkpt lat="43.42723" lon="2.4299">
        <ele>889</ele>
        <time>2018-04-22T10:10:33Z</time>
      </trkpt>
      <trkpt lat="43.42723" lon="2.42996">
        <ele>889</ele>
        <time>2018-04-22T10:10:34Z</time>
      </trkpt>
      <trkpt lat="43.42725" lon="2.43012">
        <ele>889</ele>
        <time>2018-04-22T10:10:37Z</time>
      </trkpt>
      <trkpt lat="43.42725" lon="2.43024">
        <ele>889</ele>
        <time>2018-04-22T10:10:39Z</time>
      </trkpt>
      <trkpt lat="43.42728" lon="2.43036">
        <ele>888</ele>
        <time>2018-04-22T10:10:41Z</time>
      </trkpt>
      <trkpt lat="43.42732" lon="2.43054">
        <ele>887</ele>
        <time>2018-04-22T10:10:44Z</time>
      </trkpt>
      <trkpt lat="43.42739" lon="2.43078">
        <ele>888</ele>
        <time>2018-04-22T10:10:48Z</time>
      </trkpt>
      <trkpt lat="43.42744" lon="2.43084">
        <ele>887</ele>
        <time>2018-04-22T10:10:49Z</time>
      </trkpt>
      <trkpt lat="43.42747" lon="2.43102">
        <ele>886</ele>
        <time>2018-04-22T10:10:52Z</time>
      </trkpt>
      <trkpt lat="43.42748" lon="2.43105">
        <ele>886</ele>
        <time>2018-04-22T10:10:53Z</time>
      </trkpt>
      <trkpt lat="43.42748" lon="2.43109">
        <ele>886</ele>
        <time>2018-04-22T10:10:54Z</time>
      </trkpt>
      <trkpt lat="43.42747" lon="2.43129">
        <ele>887</ele>
        <time>2018-04-22T10:10:58Z</time>
      </trkpt>
      <trkpt lat="43.42755" lon="2.43153">
        <ele>885</ele>
        <time>2018-04-22T10:11:02Z</time>
      </trkpt>
      <trkpt lat="43.42761" lon="2.43175">
        <ele>885</ele>
        <time>2018-04-22T10:11:05Z</time>
      </trkpt>
      <trkpt lat="43.42761" lon="2.43188">
        <ele>884</ele>
        <time>2018-04-22T10:11:07Z</time>
      </trkpt>
      <trkpt lat="43.4276" lon="2.43193">
        <ele>884</ele>
        <time>2018-04-22T10:11:08Z</time>
      </trkpt>
      <trkpt lat="43.42759" lon="2.43198">
        <ele>885</ele>
        <time>2018-04-22T10:11:09Z</time>
      </trkpt>
      <trkpt lat="43.42759" lon="2.43204">
        <ele>885</ele>
        <time>2018-04-22T10:11:10Z</time>
      </trkpt>
      <trkpt lat="43.42758" lon="2.43214">
        <ele>886</ele>
        <time>2018-04-22T10:11:12Z</time>
      </trkpt>
      <trkpt lat="43.4277" lon="2.4323">
        <ele>885</ele>
        <time>2018-04-22T10:11:14Z</time>
      </trkpt>
      <trkpt lat="43.42772" lon="2.43239">
        <ele>885</ele>
        <time>2018-04-22T10:11:15Z</time>
      </trkpt>
      <trkpt lat="43.42774" lon="2.43247">
        <ele>883</ele>
        <time>2018-04-22T10:11:16Z</time>
      </trkpt>
      <trkpt lat="43.42775" lon="2.43256">
        <ele>881</ele>
        <time>2018-04-22T10:11:17Z</time>
      </trkpt>
      <trkpt lat="43.42778" lon="2.43266">
        <ele>881</ele>
        <time>2018-04-22T10:11:18Z</time>
      </trkpt>
      <trkpt lat="43.42785" lon="2.43289">
        <ele>882</ele>
        <time>2018-04-22T10:11:21Z</time>
      </trkpt>
      <trkpt lat="43.42795" lon="2.43311">
        <ele>882</ele>
        <time>2018-04-22T10:11:24Z</time>
      </trkpt>
      <trkpt lat="43.42808" lon="2.4333">
        <ele>882</ele>
        <time>2018-04-22T10:11:27Z</time>
      </trkpt>
      <trkpt lat="43.42811" lon="2.43346">
        <ele>882</ele>
        <time>2018-04-22T10:11:30Z</time>
      </trkpt>
      <trkpt lat="43.42816" lon="2.43357">
        <ele>883</ele>
        <time>2018-04-22T10:11:34Z</time>
      </trkpt>
      <trkpt lat="43.42817" lon="2.43359">
        <ele>883</ele>
        <time>2018-04-22T10:11:35Z</time>
      </trkpt>
      <trkpt lat="43.42819" lon="2.43372">
        <ele>884</ele>
        <time>2018-04-22T10:11:39Z</time>
      </trkpt>
      <trkpt lat="43.42826" lon="2.43378">
        <ele>884</ele>
        <time>2018-04-22T10:11:43Z</time>
      </trkpt>
      <trkpt lat="43.4283" lon="2.43376">
        <ele>885</ele>
        <time>2018-04-22T10:11:45Z</time>
      </trkpt>
      <trkpt lat="43.42833" lon="2.43375">
        <ele>885</ele>
        <time>2018-04-22T10:11:47Z</time>
      </trkpt>
      <trkpt lat="43.42835" lon="2.43374">
        <ele>885</ele>
        <time>2018-04-22T10:11:48Z</time>
      </trkpt>
      <trkpt lat="43.42839" lon="2.43371">
        <ele>886</ele>
        <time>2018-04-22T10:11:50Z</time>
      </trkpt>
      <trkpt lat="43.42843" lon="2.43368">
        <ele>886</ele>
        <time>2018-04-22T10:11:52Z</time>
      </trkpt>
      <trkpt lat="43.42846" lon="2.43365">
        <ele>887</ele>
        <time>2018-04-22T10:11:54Z</time>
      </trkpt>
      <trkpt lat="43.4285" lon="2.43362">
        <ele>888</ele>
        <time>2018-04-22T10:11:56Z</time>
      </trkpt>
      <trkpt lat="43.42852" lon="2.43361">
        <ele>888</ele>
        <time>2018-04-22T10:11:57Z</time>
      </trkpt>
      <trkpt lat="43.42859" lon="2.43357">
        <ele>889</ele>
        <time>2018-04-22T10:12:01Z</time>
      </trkpt>
      <trkpt lat="43.42865" lon="2.43353">
        <ele>890</ele>
        <time>2018-04-22T10:12:04Z</time>
      </trkpt>
      <trkpt lat="43.42873" lon="2.43351">
        <ele>891</ele>
        <time>2018-04-22T10:12:09Z</time>
      </trkpt>
      <trkpt lat="43.42874" lon="2.43351">
        <ele>891</ele>
        <time>2018-04-22T10:12:10Z</time>
      </trkpt>
      <trkpt lat="43.42878" lon="2.43349">
        <ele>891</ele>
        <time>2018-04-22T10:12:12Z</time>
      </trkpt>
      <trkpt lat="43.42883" lon="2.43347">
        <ele>892</ele>
        <time>2018-04-22T10:12:16Z</time>
      </trkpt>
      <trkpt lat="43.42884" lon="2.43345">
        <ele>893</ele>
        <time>2018-04-22T10:12:17Z</time>
      </trkpt>
      <trkpt lat="43.42886" lon="2.43345">
        <ele>893</ele>
        <time>2018-04-22T10:12:18Z</time>
      </trkpt>
      <trkpt lat="43.42888" lon="2.43345">
        <ele>893</ele>
        <time>2018-04-22T10:12:20Z</time>
      </trkpt>
      <trkpt lat="43.42891" lon="2.43344">
        <ele>894</ele>
        <time>2018-04-22T10:12:24Z</time>
      </trkpt>
      <trkpt lat="43.42892" lon="2.43345">
        <ele>895</ele>
        <time>2018-04-22T10:12:27Z</time>
      </trkpt>
      <trkpt lat="43.42893" lon="2.43345">
        <ele>895</ele>
        <time>2018-04-22T10:12:30Z</time>
      </trkpt>
      <trkpt lat="43.42894" lon="2.43345">
        <ele>896</ele>
        <time>2018-04-22T10:12:33Z</time>
      </trkpt>
      <trkpt lat="43.42897" lon="2.43348">
        <ele>897</ele>
        <time>2018-04-22T10:12:36Z</time>
      </trkpt>
      <trkpt lat="43.429" lon="2.4335">
        <ele>898</ele>
        <time>2018-04-22T10:12:39Z</time>
      </trkpt>
      <trkpt lat="43.42904" lon="2.43351">
        <ele>899</ele>
        <time>2018-04-22T10:12:42Z</time>
      </trkpt>
      <trkpt lat="43.42905" lon="2.43352">
        <ele>899</ele>
        <time>2018-04-22T10:12:43Z</time>
      </trkpt>
      <trkpt lat="43.4291" lon="2.43355">
        <ele>900</ele>
        <time>2018-04-22T10:12:48Z</time>
      </trkpt>
      <trkpt lat="43.42914" lon="2.43356">
        <ele>901</ele>
        <time>2018-04-22T10:12:51Z</time>
      </trkpt>
      <trkpt lat="43.42915" lon="2.43356">
        <ele>902</ele>
        <time>2018-04-22T10:12:52Z</time>
      </trkpt>
      <trkpt lat="43.42922" lon="2.43356">
        <ele>902</ele>
        <time>2018-04-22T10:12:57Z</time>
      </trkpt>
      <trkpt lat="43.42926" lon="2.43355">
        <ele>903</ele>
        <time>2018-04-22T10:13:00Z</time>
      </trkpt>
      <trkpt lat="43.42932" lon="2.43353">
        <ele>904</ele>
        <time>2018-04-22T10:13:04Z</time>
      </trkpt>
      <trkpt lat="43.42933" lon="2.43353">
        <ele>904</ele>
        <time>2018-04-22T10:13:05Z</time>
      </trkpt>
      <trkpt lat="43.42939" lon="2.43352">
        <ele>904</ele>
        <time>2018-04-22T10:13:09Z</time>
      </trkpt>
      <trkpt lat="43.42941" lon="2.43352">
        <ele>905</ele>
        <time>2018-04-22T10:13:10Z</time>
      </trkpt>
      <trkpt lat="43.42945" lon="2.43349">
        <ele>905</ele>
        <time>2018-04-22T10:13:13Z</time>
      </trkpt>
      <trkpt lat="43.42948" lon="2.43348">
        <ele>905</ele>
        <time>2018-04-22T10:13:15Z</time>
      </trkpt>
      <trkpt lat="43.42952" lon="2.43346">
        <ele>905</ele>
        <time>2018-04-22T10:13:18Z</time>
      </trkpt>
      <trkpt lat="43.42953" lon="2.43345">
        <ele>905</ele>
        <time>2018-04-22T10:13:19Z</time>
      </trkpt>
      <trkpt lat="43.42956" lon="2.43344">
        <ele>905</ele>
        <time>2018-04-22T10:13:20Z</time>
      </trkpt>
      <trkpt lat="43.4296" lon="2.43343">
        <ele>905</ele>
        <time>2018-04-22T10:13:22Z</time>
      </trkpt>
      <trkpt lat="43.42967" lon="2.43339">
        <ele>905</ele>
        <time>2018-04-22T10:13:26Z</time>
      </trkpt>
      <trkpt lat="43.42973" lon="2.43336">
        <ele>906</ele>
        <time>2018-04-22T10:13:31Z</time>
      </trkpt>
      <trkpt lat="43.42974" lon="2.43335">
        <ele>906</ele>
        <time>2018-04-22T10:13:32Z</time>
      </trkpt>
      <trkpt lat="43.4298" lon="2.43332">
        <ele>907</ele>
        <time>2018-04-22T10:13:35Z</time>
      </trkpt>
      <trkpt lat="43.42983" lon="2.43331">
        <ele>907</ele>
        <time>2018-04-22T10:13:36Z</time>
      </trkpt>
      <trkpt lat="43.42987" lon="2.4333">
        <ele>908</ele>
        <time>2018-04-22T10:13:38Z</time>
      </trkpt>
      <trkpt lat="43.42991" lon="2.43328">
        <ele>908</ele>
        <time>2018-04-22T10:13:40Z</time>
      </trkpt>
      <trkpt lat="43.42996" lon="2.43326">
        <ele>909</ele>
        <time>2018-04-22T10:13:43Z</time>
      </trkpt>
      <trkpt lat="43.42997" lon="2.43325">
        <ele>909</ele>
        <time>2018-04-22T10:13:44Z</time>
      </trkpt>
      <trkpt lat="43.43002" lon="2.43321">
        <ele>910</ele>
        <time>2018-04-22T10:13:48Z</time>
      </trkpt>
      <trkpt lat="43.43007" lon="2.4332">
        <ele>910</ele>
        <time>2018-04-22T10:13:51Z</time>
      </trkpt>
      <trkpt lat="43.4301" lon="2.43318">
        <ele>911</ele>
        <time>2018-04-22T10:13:54Z</time>
      </trkpt>
      <trkpt lat="43.43013" lon="2.43317">
        <ele>912</ele>
        <time>2018-04-22T10:13:56Z</time>
      </trkpt>
      <trkpt lat="43.43016" lon="2.43314">
        <ele>912</ele>
        <time>2018-04-22T10:13:59Z</time>
      </trkpt>
      <trkpt lat="43.43019" lon="2.4331">
        <ele>913</ele>
        <time>2018-04-22T10:14:03Z</time>
      </trkpt>
      <trkpt lat="43.4302" lon="2.43309">
        <ele>914</ele>
        <time>2018-04-22T10:14:04Z</time>
      </trkpt>
      <trkpt lat="43.43022" lon="2.43307">
        <ele>914</ele>
        <time>2018-04-22T10:14:06Z</time>
      </trkpt>
      <trkpt lat="43.43024" lon="2.43304">
        <ele>914</ele>
        <time>2018-04-22T10:14:08Z</time>
      </trkpt>
      <trkpt lat="43.43025" lon="2.43302">
        <ele>915</ele>
        <time>2018-04-22T10:14:09Z</time>
      </trkpt>
      <trkpt lat="43.43026" lon="2.43299">
        <ele>915</ele>
        <time>2018-04-22T10:14:11Z</time>
      </trkpt>
      <trkpt lat="43.4303" lon="2.43294">
        <ele>916</ele>
        <time>2018-04-22T10:14:14Z</time>
      </trkpt>
      <trkpt lat="43.43032" lon="2.43291">
        <ele>917</ele>
        <time>2018-04-22T10:14:16Z</time>
      </trkpt>
      <trkpt lat="43.43034" lon="2.43288">
        <ele>918</ele>
        <time>2018-04-22T10:14:19Z</time>
      </trkpt>
      <trkpt lat="43.4304" lon="2.43286">
        <ele>918</ele>
        <time>2018-04-22T10:14:23Z</time>
      </trkpt>
      <trkpt lat="43.43041" lon="2.43285">
        <ele>918</ele>
        <time>2018-04-22T10:14:24Z</time>
      </trkpt>
      <trkpt lat="43.43045" lon="2.43282">
        <ele>919</ele>
        <time>2018-04-22T10:14:29Z</time>
      </trkpt>
      <trkpt lat="43.43049" lon="2.4328">
        <ele>920</ele>
        <time>2018-04-22T10:14:33Z</time>
      </trkpt>
      <trkpt lat="43.4305" lon="2.4328">
        <ele>921</ele>
        <time>2018-04-22T10:14:34Z</time>
      </trkpt>
      <trkpt lat="43.43059" lon="2.4328">
        <ele>921</ele>
        <time>2018-04-22T10:14:41Z</time>
      </trkpt>
      <trkpt lat="43.43065" lon="2.43283">
        <ele>922</ele>
        <time>2018-04-22T10:14:46Z</time>
      </trkpt>
      <trkpt lat="43.43066" lon="2.43285">
        <ele>922</ele>
        <time>2018-04-22T10:14:47Z</time>
      </trkpt>
      <trkpt lat="43.43067" lon="2.43286">
        <ele>922</ele>
        <time>2018-04-22T10:14:48Z</time>
      </trkpt>
      <trkpt lat="43.43069" lon="2.43296">
        <ele>922</ele>
        <time>2018-04-22T10:14:54Z</time>
      </trkpt>
      <trkpt lat="43.43069" lon="2.43299">
        <ele>923</ele>
        <time>2018-04-22T10:14:56Z</time>
      </trkpt>
      <trkpt lat="43.43071" lon="2.43308">
        <ele>923</ele>
        <time>2018-04-22T10:15:01Z</time>
      </trkpt>
      <trkpt lat="43.4307" lon="2.4332">
        <ele>924</ele>
        <time>2018-04-22T10:15:07Z</time>
      </trkpt>
      <trkpt lat="43.4307" lon="2.43325">
        <ele>925</ele>
        <time>2018-04-22T10:15:09Z</time>
      </trkpt>
      <trkpt lat="43.4307" lon="2.43327">
        <ele>925</ele>
        <time>2018-04-22T10:15:10Z</time>
      </trkpt>
      <trkpt lat="43.43068" lon="2.43339">
        <ele>926</ele>
        <time>2018-04-22T10:15:16Z</time>
      </trkpt>
      <trkpt lat="43.43067" lon="2.43349">
        <ele>926</ele>
        <time>2018-04-22T10:15:21Z</time>
      </trkpt>
      <trkpt lat="43.43066" lon="2.43358">
        <ele>927</ele>
        <time>2018-04-22T10:15:25Z</time>
      </trkpt>
      <trkpt lat="43.43066" lon="2.4336">
        <ele>928</ele>
        <time>2018-04-22T10:15:26Z</time>
      </trkpt>
      <trkpt lat="43.43065" lon="2.43365">
        <ele>928</ele>
        <time>2018-04-22T10:15:28Z</time>
      </trkpt>
      <trkpt lat="43.43063" lon="2.4338">
        <ele>929</ele>
        <time>2018-04-22T10:15:35Z</time>
      </trkpt>
      <trkpt lat="43.43059" lon="2.43391">
        <ele>930</ele>
        <time>2018-04-22T10:15:40Z</time>
      </trkpt>
      <trkpt lat="43.43055" lon="2.43406">
        <ele>931</ele>
        <time>2018-04-22T10:15:47Z</time>
      </trkpt>
      <trkpt lat="43.43054" lon="2.4341">
        <ele>931</ele>
        <time>2018-04-22T10:15:49Z</time>
      </trkpt>
      <trkpt lat="43.43054" lon="2.43415">
        <ele>931</ele>
        <time>2018-04-22T10:15:51Z</time>
      </trkpt>
      <trkpt lat="43.43054" lon="2.43417">
        <ele>932</ele>
        <time>2018-04-22T10:15:52Z</time>
      </trkpt>
      <trkpt lat="43.43052" lon="2.43426">
        <ele>932</ele>
        <time>2018-04-22T10:15:56Z</time>
      </trkpt>
      <trkpt lat="43.4305" lon="2.43433">
        <ele>933</ele>
        <time>2018-04-22T10:16:00Z</time>
      </trkpt>
      <trkpt lat="43.43049" lon="2.43435">
        <ele>933</ele>
        <time>2018-04-22T10:16:01Z</time>
      </trkpt>
      <trkpt lat="43.43047" lon="2.4344">
        <ele>933</ele>
        <time>2018-04-22T10:16:04Z</time>
      </trkpt>
      <trkpt lat="43.43047" lon="2.43442">
        <ele>933</ele>
        <time>2018-04-22T10:16:05Z</time>
      </trkpt>
      <trkpt lat="43.43047" lon="2.43446">
        <ele>934</ele>
        <time>2018-04-22T10:16:07Z</time>
      </trkpt>
      <trkpt lat="43.43047" lon="2.43449">
        <ele>934</ele>
        <time>2018-04-22T10:16:08Z</time>
      </trkpt>
      <trkpt lat="43.43047" lon="2.43453">
        <ele>935</ele>
        <time>2018-04-22T10:16:10Z</time>
      </trkpt>
      <trkpt lat="43.43047" lon="2.4346">
        <ele>936</ele>
        <time>2018-04-22T10:16:13Z</time>
      </trkpt>
      <trkpt lat="43.43046" lon="2.43471">
        <ele>936</ele>
        <time>2018-04-22T10:16:19Z</time>
      </trkpt>
      <trkpt lat="43.43044" lon="2.43475">
        <ele>936</ele>
        <time>2018-04-22T10:16:22Z</time>
      </trkpt>
      <trkpt lat="43.43042" lon="2.43479">
        <ele>937</ele>
        <time>2018-04-22T10:16:25Z</time>
      </trkpt>
      <trkpt lat="43.43041" lon="2.43481">
        <ele>938</ele>
        <time>2018-04-22T10:16:26Z</time>
      </trkpt>
      <trkpt lat="43.43038" lon="2.43488">
        <ele>938</ele>
        <time>2018-04-22T10:16:30Z</time>
      </trkpt>
      <trkpt lat="43.43034" lon="2.43495">
        <ele>940</ele>
        <time>2018-04-22T10:16:34Z</time>
      </trkpt>
      <trkpt lat="43.43033" lon="2.43496">
        <ele>940</ele>
        <time>2018-04-22T10:16:35Z</time>
      </trkpt>
      <trkpt lat="43.4303" lon="2.43498">
        <ele>941</ele>
        <time>2018-04-22T10:16:37Z</time>
      </trkpt>
      <trkpt lat="43.43026" lon="2.43504">
        <ele>942</ele>
        <time>2018-04-22T10:16:41Z</time>
      </trkpt>
      <trkpt lat="43.43025" lon="2.43506">
        <ele>942</ele>
        <time>2018-04-22T10:16:42Z</time>
      </trkpt>
      <trkpt lat="43.43021" lon="2.43511">
        <ele>943</ele>
        <time>2018-04-22T10:16:46Z</time>
      </trkpt>
      <trkpt lat="43.4302" lon="2.43513">
        <ele>944</ele>
        <time>2018-04-22T10:16:47Z</time>
      </trkpt>
      <trkpt lat="43.43016" lon="2.43519">
        <ele>944</ele>
        <time>2018-04-22T10:16:51Z</time>
      </trkpt>
      <trkpt lat="43.43014" lon="2.43522">
        <ele>945</ele>
        <time>2018-04-22T10:16:53Z</time>
      </trkpt>
      <trkpt lat="43.43009" lon="2.43528">
        <ele>945</ele>
        <time>2018-04-22T10:16:58Z</time>
      </trkpt>
      <trkpt lat="43.43008" lon="2.43529">
        <ele>945</ele>
        <time>2018-04-22T10:16:59Z</time>
      </trkpt>
      <trkpt lat="43.43002" lon="2.43535">
        <ele>946</ele>
        <time>2018-04-22T10:17:04Z</time>
      </trkpt>
      <trkpt lat="43.43001" lon="2.43536">
        <ele>947</ele>
        <time>2018-04-22T10:17:05Z</time>
      </trkpt>
      <trkpt lat="43.42995" lon="2.43541">
        <ele>947</ele>
        <time>2018-04-22T10:17:10Z</time>
      </trkpt>
      <trkpt lat="43.42994" lon="2.43542">
        <ele>948</ele>
        <time>2018-04-22T10:17:11Z</time>
      </trkpt>
      <trkpt lat="43.42982" lon="2.43552">
        <ele>948</ele>
        <time>2018-04-22T10:17:19Z</time>
      </trkpt>
      <trkpt lat="43.42979" lon="2.43555">
        <ele>949</ele>
        <time>2018-04-22T10:17:21Z</time>
      </trkpt>
      <trkpt lat="43.42976" lon="2.4356">
        <ele>950</ele>
        <time>2018-04-22T10:17:24Z</time>
      </trkpt>
      <trkpt lat="43.42974" lon="2.43562">
        <ele>950</ele>
        <time>2018-04-22T10:17:25Z</time>
      </trkpt>
      <trkpt lat="43.42971" lon="2.43567">
        <ele>951</ele>
        <time>2018-04-22T10:17:28Z</time>
      </trkpt>
      <trkpt lat="43.42966" lon="2.43574">
        <ele>951</ele>
        <time>2018-04-22T10:17:32Z</time>
      </trkpt>
      <trkpt lat="43.42965" lon="2.43575">
        <ele>952</ele>
        <time>2018-04-22T10:17:33Z</time>
      </trkpt>
      <trkpt lat="43.42963" lon="2.43583">
        <ele>953</ele>
        <time>2018-04-22T10:17:37Z</time>
      </trkpt>
      <trkpt lat="43.42962" lon="2.43587">
        <ele>954</ele>
        <time>2018-04-22T10:17:39Z</time>
      </trkpt>
      <trkpt lat="43.42961" lon="2.43591">
        <ele>954</ele>
        <time>2018-04-22T10:17:41Z</time>
      </trkpt>
      <trkpt lat="43.4296" lon="2.43593">
        <ele>954</ele>
        <time>2018-04-22T10:17:42Z</time>
      </trkpt>
      <trkpt lat="43.42958" lon="2.43596">
        <ele>954</ele>
        <time>2018-04-22T10:17:44Z</time>
      </trkpt>
      <trkpt lat="43.42955" lon="2.43599">
        <ele>955</ele>
        <time>2018-04-22T10:17:47Z</time>
      </trkpt>
      <trkpt lat="43.42953" lon="2.43602">
        <ele>955</ele>
        <time>2018-04-22T10:17:49Z</time>
      </trkpt>
      <trkpt lat="43.42952" lon="2.43603">
        <ele>955</ele>
        <time>2018-04-22T10:17:50Z</time>
      </trkpt>
      <trkpt lat="43.42949" lon="2.4361">
        <ele>956</ele>
        <time>2018-04-22T10:17:54Z</time>
      </trkpt>
      <trkpt lat="43.42948" lon="2.43615">
        <ele>957</ele>
        <time>2018-04-22T10:17:57Z</time>
      </trkpt>
      <trkpt lat="43.42948" lon="2.43618">
        <ele>957</ele>
        <time>2018-04-22T10:17:58Z</time>
      </trkpt>
      <trkpt lat="43.42946" lon="2.43626">
        <ele>959</ele>
        <time>2018-04-22T10:18:03Z</time>
      </trkpt>
      <trkpt lat="43.42945" lon="2.43628">
        <ele>959</ele>
        <time>2018-04-22T10:18:04Z</time>
      </trkpt>
      <trkpt lat="43.42945" lon="2.43632">
        <ele>960</ele>
        <time>2018-04-22T10:18:06Z</time>
      </trkpt>
      <trkpt lat="43.42944" lon="2.43639">
        <ele>961</ele>
        <time>2018-04-22T10:18:10Z</time>
      </trkpt>
      <trkpt lat="43.42943" lon="2.43644">
        <ele>961</ele>
        <time>2018-04-22T10:18:13Z</time>
      </trkpt>
      <trkpt lat="43.42943" lon="2.43647">
        <ele>962</ele>
        <time>2018-04-22T10:18:14Z</time>
      </trkpt>
      <trkpt lat="43.42944" lon="2.43654">
        <ele>963</ele>
        <time>2018-04-22T10:18:18Z</time>
      </trkpt>
      <trkpt lat="43.42945" lon="2.43656">
        <ele>963</ele>
        <time>2018-04-22T10:18:19Z</time>
      </trkpt>
      <trkpt lat="43.42948" lon="2.43659">
        <ele>964</ele>
        <time>2018-04-22T10:18:22Z</time>
      </trkpt>
      <trkpt lat="43.42951" lon="2.43661">
        <ele>964</ele>
        <time>2018-04-22T10:18:26Z</time>
      </trkpt>
      <trkpt lat="43.42952" lon="2.43662">
        <ele>965</ele>
        <time>2018-04-22T10:18:28Z</time>
      </trkpt>
      <trkpt lat="43.42956" lon="2.43668">
        <ele>966</ele>
        <time>2018-04-22T10:18:34Z</time>
      </trkpt>
      <trkpt lat="43.42957" lon="2.4367">
        <ele>966</ele>
        <time>2018-04-22T10:18:35Z</time>
      </trkpt>
      <trkpt lat="43.42958" lon="2.43675">
        <ele>967</ele>
        <time>2018-04-22T10:18:39Z</time>
      </trkpt>
      <trkpt lat="43.42959" lon="2.43681">
        <ele>967</ele>
        <time>2018-04-22T10:18:44Z</time>
      </trkpt>
      <trkpt lat="43.42959" lon="2.43683">
        <ele>968</ele>
        <time>2018-04-22T10:18:46Z</time>
      </trkpt>
      <trkpt lat="43.42959" lon="2.43686">
        <ele>969</ele>
        <time>2018-04-22T10:18:48Z</time>
      </trkpt>
      <trkpt lat="43.42959" lon="2.43692">
        <ele>970</ele>
        <time>2018-04-22T10:18:52Z</time>
      </trkpt>
      <trkpt lat="43.42959" lon="2.43693">
        <ele>970</ele>
        <time>2018-04-22T10:18:53Z</time>
      </trkpt>
      <trkpt lat="43.42959" lon="2.43695">
        <ele>971</ele>
        <time>2018-04-22T10:18:54Z</time>
      </trkpt>
      <trkpt lat="43.42958" lon="2.43699">
        <ele>971</ele>
        <time>2018-04-22T10:18:57Z</time>
      </trkpt>
      <trkpt lat="43.42958" lon="2.43703">
        <ele>971</ele>
        <time>2018-04-22T10:19:00Z</time>
      </trkpt>
      <trkpt lat="43.42957" lon="2.43708">
        <ele>972</ele>
        <time>2018-04-22T10:19:03Z</time>
      </trkpt>
      <trkpt lat="43.42957" lon="2.43709">
        <ele>973</ele>
        <time>2018-04-22T10:19:04Z</time>
      </trkpt>
      <trkpt lat="43.42956" lon="2.43712">
        <ele>973</ele>
        <time>2018-04-22T10:19:06Z</time>
      </trkpt>
      <trkpt lat="43.42957" lon="2.43715">
        <ele>973</ele>
        <time>2018-04-22T10:19:08Z</time>
      </trkpt>
      <trkpt lat="43.42957" lon="2.43716">
        <ele>974</ele>
        <time>2018-04-22T10:19:09Z</time>
      </trkpt>
      <trkpt lat="43.42957" lon="2.43721">
        <ele>975</ele>
        <time>2018-04-22T10:19:12Z</time>
      </trkpt>
      <trkpt lat="43.42957" lon="2.43728">
        <ele>976</ele>
        <time>2018-04-22T10:19:16Z</time>
      </trkpt>
      <trkpt lat="43.42957" lon="2.4373">
        <ele>976</ele>
        <time>2018-04-22T10:19:17Z</time>
      </trkpt>
      <trkpt lat="43.42957" lon="2.43733">
        <ele>976</ele>
        <time>2018-04-22T10:19:19Z</time>
      </trkpt>
      <trkpt lat="43.42957" lon="2.4374">
        <ele>976</ele>
        <time>2018-04-22T10:19:22Z</time>
      </trkpt>
      <trkpt lat="43.42957" lon="2.43745">
        <ele>977</ele>
        <time>2018-04-22T10:19:24Z</time>
      </trkpt>
      <trkpt lat="43.42956" lon="2.43751">
        <ele>977</ele>
        <time>2018-04-22T10:19:27Z</time>
      </trkpt>
      <trkpt lat="43.42955" lon="2.43759">
        <ele>978</ele>
        <time>2018-04-22T10:19:31Z</time>
      </trkpt>
      <trkpt lat="43.42954" lon="2.43763">
        <ele>979</ele>
        <time>2018-04-22T10:19:33Z</time>
      </trkpt>
      <trkpt lat="43.42953" lon="2.43767">
        <ele>979</ele>
        <time>2018-04-22T10:19:35Z</time>
      </trkpt>
      <trkpt lat="43.42953" lon="2.43769">
        <ele>979</ele>
        <time>2018-04-22T10:19:36Z</time>
      </trkpt>
      <trkpt lat="43.42952" lon="2.43772">
        <ele>980</ele>
        <time>2018-04-22T10:19:38Z</time>
      </trkpt>
      <trkpt lat="43.42952" lon="2.43773">
        <ele>980</ele>
        <time>2018-04-22T10:19:39Z</time>
      </trkpt>
      <trkpt lat="43.4295" lon="2.43778">
        <ele>981</ele>
        <time>2018-04-22T10:19:42Z</time>
      </trkpt>
      <trkpt lat="43.42949" lon="2.4378">
        <ele>981</ele>
        <time>2018-04-22T10:19:44Z</time>
      </trkpt>
      <trkpt lat="43.42948" lon="2.43783">
        <ele>981</ele>
        <time>2018-04-22T10:19:46Z</time>
      </trkpt>
      <trkpt lat="43.42946" lon="2.43792">
        <ele>983</ele>
        <time>2018-04-22T10:19:51Z</time>
      </trkpt>
      <trkpt lat="43.42945" lon="2.43793">
        <ele>983</ele>
        <time>2018-04-22T10:19:52Z</time>
      </trkpt>
      <trkpt lat="43.42943" lon="2.43802">
        <ele>984</ele>
        <time>2018-04-22T10:19:57Z</time>
      </trkpt>
      <trkpt lat="43.42942" lon="2.43806">
        <ele>984</ele>
        <time>2018-04-22T10:19:59Z</time>
      </trkpt>
      <trkpt lat="43.42938" lon="2.43816">
        <ele>985</ele>
        <time>2018-04-22T10:20:05Z</time>
      </trkpt>
      <trkpt lat="43.42936" lon="2.4382">
        <ele>985</ele>
        <time>2018-04-22T10:20:07Z</time>
      </trkpt>
      <trkpt lat="43.42933" lon="2.43826">
        <ele>987</ele>
        <time>2018-04-22T10:20:11Z</time>
      </trkpt>
      <trkpt lat="43.42931" lon="2.43832">
        <ele>987</ele>
        <time>2018-04-22T10:20:15Z</time>
      </trkpt>
      <trkpt lat="43.42929" lon="2.43837">
        <ele>988</ele>
        <time>2018-04-22T10:20:18Z</time>
      </trkpt>
      <trkpt lat="43.42928" lon="2.43843">
        <ele>988</ele>
        <time>2018-04-22T10:20:21Z</time>
      </trkpt>
      <trkpt lat="43.42928" lon="2.43851">
        <ele>989</ele>
        <time>2018-04-22T10:20:25Z</time>
      </trkpt>
      <trkpt lat="43.42928" lon="2.43858">
        <ele>990</ele>
        <time>2018-04-22T10:20:29Z</time>
      </trkpt>
      <trkpt lat="43.42928" lon="2.4387">
        <ele>991</ele>
        <time>2018-04-22T10:20:36Z</time>
      </trkpt>
      <trkpt lat="43.42929" lon="2.43874">
        <ele>991</ele>
        <time>2018-04-22T10:20:38Z</time>
      </trkpt>
      <trkpt lat="43.42934" lon="2.43883">
        <ele>992</ele>
        <time>2018-04-22T10:20:44Z</time>
      </trkpt>
      <trkpt lat="43.42935" lon="2.43884">
        <ele>993</ele>
        <time>2018-04-22T10:20:45Z</time>
      </trkpt>
      <trkpt lat="43.42936" lon="2.43888">
        <ele>994</ele>
        <time>2018-04-22T10:20:47Z</time>
      </trkpt>
      <trkpt lat="43.4294" lon="2.43896">
        <ele>994</ele>
        <time>2018-04-22T10:20:52Z</time>
      </trkpt>
      <trkpt lat="43.4294" lon="2.439">
        <ele>995</ele>
        <time>2018-04-22T10:20:54Z</time>
      </trkpt>
      <trkpt lat="43.42939" lon="2.43905">
        <ele>996</ele>
        <time>2018-04-22T10:20:57Z</time>
      </trkpt>
      <trkpt lat="43.42939" lon="2.43906">
        <ele>996</ele>
        <time>2018-04-22T10:20:58Z</time>
      </trkpt>
      <trkpt lat="43.42937" lon="2.43909">
        <ele>996</ele>
        <time>2018-04-22T10:21:01Z</time>
      </trkpt>
      <trkpt lat="43.42933" lon="2.43912">
        <ele>996</ele>
        <time>2018-04-22T10:21:05Z</time>
      </trkpt>
      <trkpt lat="43.42932" lon="2.43913">
        <ele>997</ele>
        <time>2018-04-22T10:21:06Z</time>
      </trkpt>
      <trkpt lat="43.42931" lon="2.43914">
        <ele>997</ele>
        <time>2018-04-22T10:21:07Z</time>
      </trkpt>
      <trkpt lat="43.42926" lon="2.43921">
        <ele>998</ele>
        <time>2018-04-22T10:21:12Z</time>
      </trkpt>
      <trkpt lat="43.42925" lon="2.43925">
        <ele>999</ele>
        <time>2018-04-22T10:21:17Z</time>
      </trkpt>
      <trkpt lat="43.42925" lon="2.43926">
        <ele>999</ele>
        <time>2018-04-22T10:21:18Z</time>
      </trkpt>
      <trkpt lat="43.42922" lon="2.43935">
        <ele>1000</ele>
        <time>2018-04-22T10:21:24Z</time>
      </trkpt>
      <trkpt lat="43.42921" lon="2.43938">
        <ele>1001</ele>
        <time>2018-04-22T10:21:26Z</time>
      </trkpt>
      <trkpt lat="43.42919" lon="2.4395">
        <ele>1002</ele>
        <time>2018-04-22T10:21:32Z</time>
      </trkpt>
      <trkpt lat="43.42918" lon="2.43954">
        <ele>1003</ele>
        <time>2018-04-22T10:21:34Z</time>
      </trkpt>
      <trkpt lat="43.42917" lon="2.4396">
        <ele>1003</ele>
        <time>2018-04-22T10:21:38Z</time>
      </trkpt>
      <trkpt lat="43.42916" lon="2.43966">
        <ele>1004</ele>
        <time>2018-04-22T10:21:41Z</time>
      </trkpt>
      <trkpt lat="43.42915" lon="2.43968">
        <ele>1004</ele>
        <time>2018-04-22T10:21:42Z</time>
      </trkpt>
      <trkpt lat="43.42912" lon="2.43975">
        <ele>1005</ele>
        <time>2018-04-22T10:21:47Z</time>
      </trkpt>
      <trkpt lat="43.4291" lon="2.43978">
        <ele>1006</ele>
        <time>2018-04-22T10:21:49Z</time>
      </trkpt>
      <trkpt lat="43.42907" lon="2.43986">
        <ele>1006</ele>
        <time>2018-04-22T10:21:54Z</time>
      </trkpt>
      <trkpt lat="43.42906" lon="2.43989">
        <ele>1006</ele>
        <time>2018-04-22T10:21:56Z</time>
      </trkpt>
      <trkpt lat="43.42905" lon="2.43992">
        <ele>1007</ele>
        <time>2018-04-22T10:21:58Z</time>
      </trkpt>
      <trkpt lat="43.42904" lon="2.43996">
        <ele>1007</ele>
        <time>2018-04-22T10:22:00Z</time>
      </trkpt>
      <trkpt lat="43.42904" lon="2.43999">
        <ele>1008</ele>
        <time>2018-04-22T10:22:02Z</time>
      </trkpt>
      <trkpt lat="43.42904" lon="2.44001">
        <ele>1008</ele>
        <time>2018-04-22T10:22:03Z</time>
      </trkpt>
      <trkpt lat="43.42904" lon="2.44002">
        <ele>1008</ele>
        <time>2018-04-22T10:22:04Z</time>
      </trkpt>
      <trkpt lat="43.42904" lon="2.44008">
        <ele>1009</ele>
        <time>2018-04-22T10:22:08Z</time>
      </trkpt>
      <trkpt lat="43.42903" lon="2.44011">
        <ele>1009</ele>
        <time>2018-04-22T10:22:10Z</time>
      </trkpt>
      <trkpt lat="43.42903" lon="2.44012">
        <ele>1009</ele>
        <time>2018-04-22T10:22:11Z</time>
      </trkpt>
      <trkpt lat="43.42902" lon="2.44015">
        <ele>1010</ele>
        <time>2018-04-22T10:22:13Z</time>
      </trkpt>
      <trkpt lat="43.42902" lon="2.44017">
        <ele>1011</ele>
        <time>2018-04-22T10:22:15Z</time>
      </trkpt>
      <trkpt lat="43.42901" lon="2.44021">
        <ele>1010</ele>
        <time>2018-04-22T10:22:18Z</time>
      </trkpt>
      <trkpt lat="43.42898" lon="2.44029">
        <ele>1011</ele>
        <time>2018-04-22T10:22:22Z</time>
      </trkpt>
      <trkpt lat="43.42894" lon="2.44038">
        <ele>1012</ele>
        <time>2018-04-22T10:22:27Z</time>
      </trkpt>
      <trkpt lat="43.42892" lon="2.44043">
        <ele>1013</ele>
        <time>2018-04-22T10:22:30Z</time>
      </trkpt>
      <trkpt lat="43.4289" lon="2.44048">
        <ele>1013</ele>
        <time>2018-04-22T10:22:33Z</time>
      </trkpt>
      <trkpt lat="43.42888" lon="2.44056">
        <ele>1014</ele>
        <time>2018-04-22T10:22:37Z</time>
      </trkpt>
      <trkpt lat="43.42888" lon="2.44061">
        <ele>1014</ele>
        <time>2018-04-22T10:22:40Z</time>
      </trkpt>
      <trkpt lat="43.42888" lon="2.44065">
        <ele>1015</ele>
        <time>2018-04-22T10:22:42Z</time>
      </trkpt>
      <trkpt lat="43.42889" lon="2.44069">
        <ele>1015</ele>
        <time>2018-04-22T10:22:44Z</time>
      </trkpt>
      <trkpt lat="43.42889" lon="2.44075">
        <ele>1016</ele>
        <time>2018-04-22T10:22:47Z</time>
      </trkpt>
      <trkpt lat="43.42891" lon="2.44083">
        <ele>1016</ele>
        <time>2018-04-22T10:22:51Z</time>
      </trkpt>
      <trkpt lat="43.42892" lon="2.44091">
        <ele>1016</ele>
        <time>2018-04-22T10:22:54Z</time>
      </trkpt>
      <trkpt lat="43.42891" lon="2.44093">
        <ele>1017</ele>
        <time>2018-04-22T10:22:55Z</time>
      </trkpt>
      <trkpt lat="43.42891" lon="2.441">
        <ele>1018</ele>
        <time>2018-04-22T10:22:59Z</time>
      </trkpt>
      <trkpt lat="43.42891" lon="2.44102">
        <ele>1018</ele>
        <time>2018-04-22T10:23:00Z</time>
      </trkpt>
      <trkpt lat="43.42889" lon="2.44107">
        <ele>1018</ele>
        <time>2018-04-22T10:23:03Z</time>
      </trkpt>
      <trkpt lat="43.42889" lon="2.44111">
        <ele>1018</ele>
        <time>2018-04-22T10:23:05Z</time>
      </trkpt>
      <trkpt lat="43.42889" lon="2.44112">
        <ele>1018</ele>
        <time>2018-04-22T10:23:06Z</time>
      </trkpt>
      <trkpt lat="43.42889" lon="2.44114">
        <ele>1018</ele>
        <time>2018-04-22T10:23:07Z</time>
      </trkpt>
      <trkpt lat="43.4289" lon="2.4412">
        <ele>1019</ele>
        <time>2018-04-22T10:23:10Z</time>
      </trkpt>
      <trkpt lat="43.4289" lon="2.44123">
        <ele>1019</ele>
        <time>2018-04-22T10:23:11Z</time>
      </trkpt>
      <trkpt lat="43.42893" lon="2.4414">
        <ele>1020</ele>
        <time>2018-04-22T10:23:17Z</time>
      </trkpt>
      <trkpt lat="43.42891" lon="2.44153">
        <ele>1019</ele>
        <time>2018-04-22T10:23:22Z</time>
      </trkpt>
      <trkpt lat="43.42888" lon="2.44162">
        <ele>1021</ele>
        <time>2018-04-22T10:23:27Z</time>
      </trkpt>
      <trkpt lat="43.42886" lon="2.44166">
        <ele>1021</ele>
        <time>2018-04-22T10:23:29Z</time>
      </trkpt>
      <trkpt lat="43.42882" lon="2.44177">
        <ele>1022</ele>
        <time>2018-04-22T10:23:37Z</time>
      </trkpt>
      <trkpt lat="43.42882" lon="2.44177">
        <ele>1021</ele>
        <time>2018-04-22T10:23:45Z</time>
      </trkpt>
      <trkpt lat="43.42882" lon="2.44177">
        <ele>1021</ele>
        <time>2018-04-22T10:23:51Z</time>
      </trkpt>
      <trkpt lat="43.42882" lon="2.44177">
        <ele>1021</ele>
        <time>2018-04-22T10:23:53Z</time>
      </trkpt>
      <trkpt lat="43.42882" lon="2.44177">
        <ele>1020</ele>
        <time>2018-04-22T10:23:59Z</time>
      </trkpt>
      <trkpt lat="43.42881" lon="2.44177">
        <ele>1021</ele>
        <time>2018-04-22T10:24:09Z</time>
      </trkpt>
      <trkpt lat="43.42881" lon="2.44179">
        <ele>1021</ele>
        <time>2018-04-22T10:24:21Z</time>
      </trkpt>
      <trkpt lat="43.4288" lon="2.44181">
        <ele>1021</ele>
        <time>2018-04-22T10:24:23Z</time>
      </trkpt>
      <trkpt lat="43.4288" lon="2.44182">
        <ele>1021</ele>
        <time>2018-04-22T10:24:24Z</time>
      </trkpt>
      <trkpt lat="43.4288" lon="2.44184">
        <ele>1021</ele>
        <time>2018-04-22T10:24:25Z</time>
      </trkpt>
      <trkpt lat="43.42878" lon="2.44192">
        <ele>1022</ele>
        <time>2018-04-22T10:24:31Z</time>
      </trkpt>
      <trkpt lat="43.42877" lon="2.44197">
        <ele>1023</ele>
        <time>2018-04-22T10:24:34Z</time>
      </trkpt>
      <trkpt lat="43.42876" lon="2.44206">
        <ele>1023</ele>
        <time>2018-04-22T10:24:40Z</time>
      </trkpt>
      <trkpt lat="43.42876" lon="2.44212">
        <ele>1024</ele>
        <time>2018-04-22T10:24:44Z</time>
      </trkpt>
      <trkpt lat="43.42875" lon="2.44229">
        <ele>1024</ele>
        <time>2018-04-22T10:24:55Z</time>
      </trkpt>
      <trkpt lat="43.42875" lon="2.44234">
        <ele>1024</ele>
        <time>2018-04-22T10:25:02Z</time>
      </trkpt>
      <trkpt lat="43.42875" lon="2.44234">
        <ele>1024</ele>
        <time>2018-04-22T10:25:10Z</time>
      </trkpt>
      <trkpt lat="43.42875" lon="2.44234">
        <ele>1023</ele>
        <time>2018-04-22T10:25:16Z</time>
      </trkpt>
      <trkpt lat="43.42875" lon="2.44234">
        <ele>1024</ele>
        <time>2018-04-22T10:25:26Z</time>
      </trkpt>
      <trkpt lat="43.42875" lon="2.44234">
        <ele>1024</ele>
        <time>2018-04-22T10:25:36Z</time>
      </trkpt>
      <trkpt lat="43.42875" lon="2.44234">
        <ele>1024</ele>
        <time>2018-04-22T10:25:40Z</time>
      </trkpt>
      <trkpt lat="43.42875" lon="2.44234">
        <ele>1024</ele>
        <time>2018-04-22T10:25:53Z</time>
      </trkpt>
      <trkpt lat="43.42875" lon="2.44233">
        <ele>1025</ele>
        <time>2018-04-22T10:26:01Z</time>
      </trkpt>
      <trkpt lat="43.42875" lon="2.44235">
        <ele>1024</ele>
        <time>2018-04-22T10:26:12Z</time>
      </trkpt>
      <trkpt lat="43.42875" lon="2.44238">
        <ele>1023</ele>
        <time>2018-04-22T10:26:17Z</time>
      </trkpt>
      <trkpt lat="43.42875" lon="2.44238">
        <ele>1023</ele>
        <time>2018-04-22T10:26:43Z</time>
      </trkpt>
      <trkpt lat="43.42875" lon="2.44238">
        <ele>1023</ele>
        <time>2018-04-22T10:26:45Z</time>
      </trkpt>
      <trkpt lat="43.42875" lon="2.44238">
        <ele>1023</ele>
        <time>2018-04-22T10:26:49Z</time>
      </trkpt>
      <trkpt lat="43.42875" lon="2.44238">
        <ele>1023</ele>
        <time>2018-04-22T10:26:55Z</time>
      </trkpt>
      <trkpt lat="43.42875" lon="2.44238">
        <ele>1023</ele>
        <time>2018-04-22T10:26:59Z</time>
      </trkpt>
      <trkpt lat="43.42875" lon="2.44238">
        <ele>1023</ele>
        <time>2018-04-22T10:27:02Z</time>
      </trkpt>
      <trkpt lat="43.42875" lon="2.44238">
        <ele>1023</ele>
        <time>2018-04-22T10:27:34Z</time>
      </trkpt>
      <trkpt lat="43.42874" lon="2.44239">
        <ele>1023</ele>
        <time>2018-04-22T10:27:46Z</time>
      </trkpt>
      <trkpt lat="43.42874" lon="2.4424">
        <ele>1023</ele>
        <time>2018-04-22T10:27:47Z</time>
      </trkpt>
      <trkpt lat="43.42872" lon="2.4425">
        <ele>1023</ele>
        <time>2018-04-22T10:27:52Z</time>
      </trkpt>
      <trkpt lat="43.42872" lon="2.44253">
        <ele>1024</ele>
        <time>2018-04-22T10:27:53Z</time>
      </trkpt>
      <trkpt lat="43.42871" lon="2.4426">
        <ele>1024</ele>
        <time>2018-04-22T10:27:56Z</time>
      </trkpt>
      <trkpt lat="43.42869" lon="2.44273">
        <ele>1024</ele>
        <time>2018-04-22T10:28:01Z</time>
      </trkpt>
      <trkpt lat="43.42872" lon="2.44287">
        <ele>1025</ele>
        <time>2018-04-22T10:28:06Z</time>
      </trkpt>
      <trkpt lat="43.42874" lon="2.44293">
        <ele>1025</ele>
        <time>2018-04-22T10:28:08Z</time>
      </trkpt>
      <trkpt lat="43.42875" lon="2.44312">
        <ele>1025</ele>
        <time>2018-04-22T10:28:14Z</time>
      </trkpt>
      <trkpt lat="43.42872" lon="2.44316">
        <ele>1025</ele>
        <time>2018-04-22T10:28:16Z</time>
      </trkpt>
      <trkpt lat="43.42867" lon="2.44318">
        <ele>1026</ele>
        <time>2018-04-22T10:28:19Z</time>
      </trkpt>
      <trkpt lat="43.42865" lon="2.44318">
        <ele>1027</ele>
        <time>2018-04-22T10:28:20Z</time>
      </trkpt>
      <trkpt lat="43.42856" lon="2.44321">
        <ele>1027</ele>
        <time>2018-04-22T10:28:25Z</time>
      </trkpt>
      <trkpt lat="43.42853" lon="2.44327">
        <ele>1028</ele>
        <time>2018-04-22T10:28:29Z</time>
      </trkpt>
      <trkpt lat="43.42853" lon="2.44329">
        <ele>1028</ele>
        <time>2018-04-22T10:28:30Z</time>
      </trkpt>
      <trkpt lat="43.42852" lon="2.4433">
        <ele>1028</ele>
        <time>2018-04-22T10:28:31Z</time>
      </trkpt>
      <trkpt lat="43.42851" lon="2.44338">
        <ele>1028</ele>
        <time>2018-04-22T10:28:36Z</time>
      </trkpt>
      <trkpt lat="43.4285" lon="2.44342">
        <ele>1029</ele>
        <time>2018-04-22T10:28:38Z</time>
      </trkpt>
      <trkpt lat="43.42849" lon="2.44351">
        <ele>1029</ele>
        <time>2018-04-22T10:28:42Z</time>
      </trkpt>
      <trkpt lat="43.42848" lon="2.44363">
        <ele>1030</ele>
        <time>2018-04-22T10:28:48Z</time>
      </trkpt>
      <trkpt lat="43.42848" lon="2.44365">
        <ele>1030</ele>
        <time>2018-04-22T10:28:49Z</time>
      </trkpt>
      <trkpt lat="43.42845" lon="2.44371">
        <ele>1030</ele>
        <time>2018-04-22T10:28:52Z</time>
      </trkpt>
      <trkpt lat="43.4284" lon="2.44383">
        <ele>1031</ele>
        <time>2018-04-22T10:28:58Z</time>
      </trkpt>
      <trkpt lat="43.42838" lon="2.44387">
        <ele>1031</ele>
        <time>2018-04-22T10:29:00Z</time>
      </trkpt>
      <trkpt lat="43.42835" lon="2.44395">
        <ele>1032</ele>
        <time>2018-04-22T10:29:04Z</time>
      </trkpt>
      <trkpt lat="43.42833" lon="2.44401">
        <ele>1033</ele>
        <time>2018-04-22T10:29:07Z</time>
      </trkpt>
      <trkpt lat="43.42833" lon="2.44403">
        <ele>1033</ele>
        <time>2018-04-22T10:29:08Z</time>
      </trkpt>
      <trkpt lat="43.42829" lon="2.44412">
        <ele>1034</ele>
        <time>2018-04-22T10:29:13Z</time>
      </trkpt>
      <trkpt lat="43.42828" lon="2.44416">
        <ele>1035</ele>
        <time>2018-04-22T10:29:15Z</time>
      </trkpt>
      <trkpt lat="43.42824" lon="2.4442">
        <ele>1035</ele>
        <time>2018-04-22T10:29:18Z</time>
      </trkpt>
      <trkpt lat="43.42819" lon="2.44429">
        <ele>1036</ele>
        <time>2018-04-22T10:29:23Z</time>
      </trkpt>
      <trkpt lat="43.42816" lon="2.44436">
        <ele>1036</ele>
        <time>2018-04-22T10:29:27Z</time>
      </trkpt>
      <trkpt lat="43.42814" lon="2.44444">
        <ele>1037</ele>
        <time>2018-04-22T10:29:31Z</time>
      </trkpt>
      <trkpt lat="43.42813" lon="2.44446">
        <ele>1038</ele>
        <time>2018-04-22T10:29:32Z</time>
      </trkpt>
      <trkpt lat="43.42813" lon="2.44453">
        <ele>1038</ele>
        <time>2018-04-22T10:29:35Z</time>
      </trkpt>
      <trkpt lat="43.42812" lon="2.44456">
        <ele>1039</ele>
        <time>2018-04-22T10:29:37Z</time>
      </trkpt>
      <trkpt lat="43.42811" lon="2.44467">
        <ele>1040</ele>
        <time>2018-04-22T10:29:43Z</time>
      </trkpt>
      <trkpt lat="43.42811" lon="2.44469">
        <ele>1040</ele>
        <time>2018-04-22T10:29:44Z</time>
      </trkpt>
      <trkpt lat="43.42811" lon="2.44471">
        <ele>1040</ele>
        <time>2018-04-22T10:29:45Z</time>
      </trkpt>
      <trkpt lat="43.42812" lon="2.44475">
        <ele>1041</ele>
        <time>2018-04-22T10:29:47Z</time>
      </trkpt>
      <trkpt lat="43.42811" lon="2.44478">
        <ele>1042</ele>
        <time>2018-04-22T10:29:49Z</time>
      </trkpt>
      <trkpt lat="43.4281" lon="2.44482">
        <ele>1042</ele>
        <time>2018-04-22T10:29:51Z</time>
      </trkpt>
      <trkpt lat="43.4281" lon="2.44484">
        <ele>1042</ele>
        <time>2018-04-22T10:29:52Z</time>
      </trkpt>
      <trkpt lat="43.42807" lon="2.44489">
        <ele>1043</ele>
        <time>2018-04-22T10:29:56Z</time>
      </trkpt>
      <trkpt lat="43.42805" lon="2.44492">
        <ele>1043</ele>
        <time>2018-04-22T10:29:58Z</time>
      </trkpt>
      <trkpt lat="43.42805" lon="2.44499">
        <ele>1044</ele>
        <time>2018-04-22T10:30:02Z</time>
      </trkpt>
      <trkpt lat="43.42806" lon="2.44504">
        <ele>1045</ele>
        <time>2018-04-22T10:30:05Z</time>
      </trkpt>
      <trkpt lat="43.42806" lon="2.44506">
        <ele>1045</ele>
        <time>2018-04-22T10:30:06Z</time>
      </trkpt>
      <trkpt lat="43.42808" lon="2.44508">
        <ele>1046</ele>
        <time>2018-04-22T10:30:08Z</time>
      </trkpt>
      <trkpt lat="43.4281" lon="2.44513">
        <ele>1046</ele>
        <time>2018-04-22T10:30:11Z</time>
      </trkpt>
      <trkpt lat="43.42811" lon="2.44516">
        <ele>1046</ele>
        <time>2018-04-22T10:30:13Z</time>
      </trkpt>
      <trkpt lat="43.42813" lon="2.44526">
        <ele>1047</ele>
        <time>2018-04-22T10:30:19Z</time>
      </trkpt>
      <trkpt lat="43.42813" lon="2.44528">
        <ele>1047</ele>
        <time>2018-04-22T10:30:20Z</time>
      </trkpt>
      <trkpt lat="43.42814" lon="2.44531">
        <ele>1048</ele>
        <time>2018-04-22T10:30:22Z</time>
      </trkpt>
      <trkpt lat="43.42815" lon="2.44536">
        <ele>1048</ele>
        <time>2018-04-22T10:30:25Z</time>
      </trkpt>
      <trkpt lat="43.42815" lon="2.44537">
        <ele>1048</ele>
        <time>2018-04-22T10:30:26Z</time>
      </trkpt>
      <trkpt lat="43.42816" lon="2.44546">
        <ele>1049</ele>
        <time>2018-04-22T10:30:31Z</time>
      </trkpt>
      <trkpt lat="43.42816" lon="2.44548">
        <ele>1050</ele>
        <time>2018-04-22T10:30:32Z</time>
      </trkpt>
      <trkpt lat="43.42817" lon="2.44556">
        <ele>1050</ele>
        <time>2018-04-22T10:30:37Z</time>
      </trkpt>
      <trkpt lat="43.42818" lon="2.4456">
        <ele>1051</ele>
        <time>2018-04-22T10:30:39Z</time>
      </trkpt>
      <trkpt lat="43.42817" lon="2.4457">
        <ele>1052</ele>
        <time>2018-04-22T10:30:45Z</time>
      </trkpt>
      <trkpt lat="43.42817" lon="2.44571">
        <ele>1052</ele>
        <time>2018-04-22T10:30:46Z</time>
      </trkpt>
      <trkpt lat="43.42817" lon="2.44578">
        <ele>1053</ele>
        <time>2018-04-22T10:30:50Z</time>
      </trkpt>
      <trkpt lat="43.42817" lon="2.44582">
        <ele>1053</ele>
        <time>2018-04-22T10:30:53Z</time>
      </trkpt>
      <trkpt lat="43.42818" lon="2.44589">
        <ele>1054</ele>
        <time>2018-04-22T10:30:57Z</time>
      </trkpt>
      <trkpt lat="43.42819" lon="2.44595">
        <ele>1055</ele>
        <time>2018-04-22T10:31:01Z</time>
      </trkpt>
      <trkpt lat="43.4282" lon="2.44598">
        <ele>1055</ele>
        <time>2018-04-22T10:31:03Z</time>
      </trkpt>
      <trkpt lat="43.42821" lon="2.44604">
        <ele>1056</ele>
        <time>2018-04-22T10:31:07Z</time>
      </trkpt>
      <trkpt lat="43.42822" lon="2.44607">
        <ele>1056</ele>
        <time>2018-04-22T10:31:09Z</time>
      </trkpt>
      <trkpt lat="43.42823" lon="2.4461">
        <ele>1057</ele>
        <time>2018-04-22T10:31:11Z</time>
      </trkpt>
      <trkpt lat="43.42823" lon="2.44613">
        <ele>1058</ele>
        <time>2018-04-22T10:31:13Z</time>
      </trkpt>
      <trkpt lat="43.42825" lon="2.44621">
        <ele>1058</ele>
        <time>2018-04-22T10:31:18Z</time>
      </trkpt>
      <trkpt lat="43.42825" lon="2.44625">
        <ele>1058</ele>
        <time>2018-04-22T10:31:21Z</time>
      </trkpt>
      <trkpt lat="43.42825" lon="2.44632">
        <ele>1059</ele>
        <time>2018-04-22T10:31:25Z</time>
      </trkpt>
      <trkpt lat="43.42825" lon="2.44634">
        <ele>1059</ele>
        <time>2018-04-22T10:31:26Z</time>
      </trkpt>
      <trkpt lat="43.42825" lon="2.4464">
        <ele>1060</ele>
        <time>2018-04-22T10:31:30Z</time>
      </trkpt>
      <trkpt lat="43.42824" lon="2.44647">
        <ele>1061</ele>
        <time>2018-04-22T10:31:34Z</time>
      </trkpt>
      <trkpt lat="43.42823" lon="2.44652">
        <ele>1061</ele>
        <time>2018-04-22T10:31:38Z</time>
      </trkpt>
      <trkpt lat="43.4282" lon="2.44661">
        <ele>1061</ele>
        <time>2018-04-22T10:31:44Z</time>
      </trkpt>
      <trkpt lat="43.42817" lon="2.44665">
        <ele>1063</ele>
        <time>2018-04-22T10:31:47Z</time>
      </trkpt>
      <trkpt lat="43.42812" lon="2.4467">
        <ele>1063</ele>
        <time>2018-04-22T10:31:53Z</time>
      </trkpt>
      <trkpt lat="43.42805" lon="2.4468">
        <ele>1064</ele>
        <time>2018-04-22T10:32:02Z</time>
      </trkpt>
      <trkpt lat="43.42804" lon="2.44682">
        <ele>1065</ele>
        <time>2018-04-22T10:32:04Z</time>
      </trkpt>
      <trkpt lat="43.428" lon="2.4469">
        <ele>1066</ele>
        <time>2018-04-22T10:32:10Z</time>
      </trkpt>
      <trkpt lat="43.42799" lon="2.44693">
        <ele>1066</ele>
        <time>2018-04-22T10:32:12Z</time>
      </trkpt>
      <trkpt lat="43.42798" lon="2.44697">
        <ele>1067</ele>
        <time>2018-04-22T10:32:15Z</time>
      </trkpt>
      <trkpt lat="43.42797" lon="2.447">
        <ele>1067</ele>
        <time>2018-04-22T10:32:17Z</time>
      </trkpt>
      <trkpt lat="43.42797" lon="2.44704">
        <ele>1068</ele>
        <time>2018-04-22T10:32:20Z</time>
      </trkpt>
      <trkpt lat="43.42796" lon="2.44706">
        <ele>1068</ele>
        <time>2018-04-22T10:32:21Z</time>
      </trkpt>
      <trkpt lat="43.42796" lon="2.44708">
        <ele>1069</ele>
        <time>2018-04-22T10:32:23Z</time>
      </trkpt>
      <trkpt lat="43.42794" lon="2.44715">
        <ele>1069</ele>
        <time>2018-04-22T10:32:28Z</time>
      </trkpt>
      <trkpt lat="43.42794" lon="2.44716">
        <ele>1069</ele>
        <time>2018-04-22T10:32:29Z</time>
      </trkpt>
      <trkpt lat="43.42795" lon="2.44722">
        <ele>1070</ele>
        <time>2018-04-22T10:32:34Z</time>
      </trkpt>
      <trkpt lat="43.42794" lon="2.44725">
        <ele>1070</ele>
        <time>2018-04-22T10:32:37Z</time>
      </trkpt>
      <trkpt lat="43.42795" lon="2.4473">
        <ele>1071</ele>
        <time>2018-04-22T10:32:42Z</time>
      </trkpt>
      <trkpt lat="43.42795" lon="2.44735">
        <ele>1072</ele>
        <time>2018-04-22T10:32:45Z</time>
      </trkpt>
      <trkpt lat="43.42793" lon="2.44741">
        <ele>1073</ele>
        <time>2018-04-22T10:32:49Z</time>
      </trkpt>
      <trkpt lat="43.42793" lon="2.44743">
        <ele>1073</ele>
        <time>2018-04-22T10:32:50Z</time>
      </trkpt>
      <trkpt lat="43.42794" lon="2.44745">
        <ele>1073</ele>
        <time>2018-04-22T10:32:51Z</time>
      </trkpt>
      <trkpt lat="43.42795" lon="2.4475">
        <ele>1073</ele>
        <time>2018-04-22T10:32:54Z</time>
      </trkpt>
      <trkpt lat="43.42795" lon="2.44757">
        <ele>1074</ele>
        <time>2018-04-22T10:32:58Z</time>
      </trkpt>
      <trkpt lat="43.42795" lon="2.4476">
        <ele>1074</ele>
        <time>2018-04-22T10:32:59Z</time>
      </trkpt>
      <trkpt lat="43.42794" lon="2.44762">
        <ele>1074</ele>
        <time>2018-04-22T10:33:00Z</time>
      </trkpt>
      <trkpt lat="43.42792" lon="2.44773">
        <ele>1074</ele>
        <time>2018-04-22T10:33:05Z</time>
      </trkpt>
      <trkpt lat="43.42791" lon="2.44778">
        <ele>1074</ele>
        <time>2018-04-22T10:33:07Z</time>
      </trkpt>
      <trkpt lat="43.42789" lon="2.44788">
        <ele>1075</ele>
        <time>2018-04-22T10:33:11Z</time>
      </trkpt>
      <trkpt lat="43.42789" lon="2.44795">
        <ele>1075</ele>
        <time>2018-04-22T10:33:14Z</time>
      </trkpt>
      <trkpt lat="43.42788" lon="2.4481">
        <ele>1076</ele>
        <time>2018-04-22T10:33:20Z</time>
      </trkpt>
      <trkpt lat="43.42788" lon="2.44818">
        <ele>1077</ele>
        <time>2018-04-22T10:33:23Z</time>
      </trkpt>
      <trkpt lat="43.42788" lon="2.44839">
        <ele>1077</ele>
        <time>2018-04-22T10:33:31Z</time>
      </trkpt>
      <trkpt lat="43.42788" lon="2.44844">
        <ele>1077</ele>
        <time>2018-04-22T10:33:33Z</time>
      </trkpt>
      <trkpt lat="43.42788" lon="2.44864">
        <ele>1078</ele>
        <time>2018-04-22T10:33:41Z</time>
      </trkpt>
      <trkpt lat="43.42788" lon="2.44872">
        <ele>1078</ele>
        <time>2018-04-22T10:33:44Z</time>
      </trkpt>
      <trkpt lat="43.42789" lon="2.44887">
        <ele>1079</ele>
        <time>2018-04-22T10:33:50Z</time>
      </trkpt>
      <trkpt lat="43.42789" lon="2.44892">
        <ele>1080</ele>
        <time>2018-04-22T10:33:52Z</time>
      </trkpt>
      <trkpt lat="43.42789" lon="2.44901">
        <ele>1080</ele>
        <time>2018-04-22T10:33:56Z</time>
      </trkpt>
      <trkpt lat="43.42789" lon="2.4491">
        <ele>1080</ele>
        <time>2018-04-22T10:34:00Z</time>
      </trkpt>
      <trkpt lat="43.4279" lon="2.44916">
        <ele>1081</ele>
        <time>2018-04-22T10:34:03Z</time>
      </trkpt>
      <trkpt lat="43.4279" lon="2.44927">
        <ele>1082</ele>
        <time>2018-04-22T10:34:08Z</time>
      </trkpt>
      <trkpt lat="43.42792" lon="2.44946">
        <ele>1083</ele>
        <time>2018-04-22T10:34:16Z</time>
      </trkpt>
      <trkpt lat="43.42794" lon="2.44956">
        <ele>1083</ele>
        <time>2018-04-22T10:34:20Z</time>
      </trkpt>
      <trkpt lat="43.42796" lon="2.4497">
        <ele>1084</ele>
        <time>2018-04-22T10:34:26Z</time>
      </trkpt>
      <trkpt lat="43.42796" lon="2.44972">
        <ele>1084</ele>
        <time>2018-04-22T10:34:27Z</time>
      </trkpt>
      <trkpt lat="43.42796" lon="2.44988">
        <ele>1085</ele>
        <time>2018-04-22T10:34:34Z</time>
      </trkpt>
      <trkpt lat="43.42797" lon="2.44992">
        <ele>1086</ele>
        <time>2018-04-22T10:34:36Z</time>
      </trkpt>
      <trkpt lat="43.42798" lon="2.45009">
        <ele>1086</ele>
        <time>2018-04-22T10:34:43Z</time>
      </trkpt>
      <trkpt lat="43.42798" lon="2.45017">
        <ele>1087</ele>
        <time>2018-04-22T10:34:46Z</time>
      </trkpt>
      <trkpt lat="43.42798" lon="2.45031">
        <ele>1087</ele>
        <time>2018-04-22T10:34:52Z</time>
      </trkpt>
      <trkpt lat="43.42799" lon="2.45038">
        <ele>1088</ele>
        <time>2018-04-22T10:34:55Z</time>
      </trkpt>
      <trkpt lat="43.42799" lon="2.45048">
        <ele>1088</ele>
        <time>2018-04-22T10:34:59Z</time>
      </trkpt>
      <trkpt lat="43.42799" lon="2.45055">
        <ele>1089</ele>
        <time>2018-04-22T10:35:02Z</time>
      </trkpt>
      <trkpt lat="43.42799" lon="2.45067">
        <ele>1089</ele>
        <time>2018-04-22T10:35:07Z</time>
      </trkpt>
      <trkpt lat="43.42798" lon="2.45079">
        <ele>1090</ele>
        <time>2018-04-22T10:35:12Z</time>
      </trkpt>
      <trkpt lat="43.42798" lon="2.45087">
        <ele>1090</ele>
        <time>2018-04-22T10:35:15Z</time>
      </trkpt>
      <trkpt lat="43.42798" lon="2.45093">
        <ele>1091</ele>
        <time>2018-04-22T10:35:18Z</time>
      </trkpt>
      <trkpt lat="43.42798" lon="2.45098">
        <ele>1091</ele>
        <time>2018-04-22T10:35:20Z</time>
      </trkpt>
      <trkpt lat="43.42798" lon="2.45104">
        <ele>1092</ele>
        <time>2018-04-22T10:35:23Z</time>
      </trkpt>
      <trkpt lat="43.42799" lon="2.45115">
        <ele>1093</ele>
        <time>2018-04-22T10:35:29Z</time>
      </trkpt>
      <trkpt lat="43.42798" lon="2.45125">
        <ele>1094</ele>
        <time>2018-04-22T10:35:33Z</time>
      </trkpt>
      <trkpt lat="43.42799" lon="2.45135">
        <ele>1094</ele>
        <time>2018-04-22T10:35:37Z</time>
      </trkpt>
      <trkpt lat="43.42799" lon="2.45139">
        <ele>1095</ele>
        <time>2018-04-22T10:35:39Z</time>
      </trkpt>
      <trkpt lat="43.42799" lon="2.45148">
        <ele>1096</ele>
        <time>2018-04-22T10:35:43Z</time>
      </trkpt>
      <trkpt lat="43.42799" lon="2.45153">
        <ele>1096</ele>
        <time>2018-04-22T10:35:45Z</time>
      </trkpt>
      <trkpt lat="43.428" lon="2.45163">
        <ele>1097</ele>
        <time>2018-04-22T10:35:49Z</time>
      </trkpt>
      <trkpt lat="43.428" lon="2.45167">
        <ele>1098</ele>
        <time>2018-04-22T10:35:51Z</time>
      </trkpt>
      <trkpt lat="43.42802" lon="2.4518">
        <ele>1098</ele>
        <time>2018-04-22T10:35:57Z</time>
      </trkpt>
      <trkpt lat="43.42803" lon="2.45185">
        <ele>1099</ele>
        <time>2018-04-22T10:35:59Z</time>
      </trkpt>
      <trkpt lat="43.42803" lon="2.45198">
        <ele>1099</ele>
        <time>2018-04-22T10:36:05Z</time>
      </trkpt>
      <trkpt lat="43.42804" lon="2.45201">
        <ele>1100</ele>
        <time>2018-04-22T10:36:07Z</time>
      </trkpt>
      <trkpt lat="43.42805" lon="2.45211">
        <ele>1100</ele>
        <time>2018-04-22T10:36:12Z</time>
      </trkpt>
      <trkpt lat="43.42805" lon="2.45213">
        <ele>1101</ele>
        <time>2018-04-22T10:36:13Z</time>
      </trkpt>
      <trkpt lat="43.42806" lon="2.45221">
        <ele>1102</ele>
        <time>2018-04-22T10:36:17Z</time>
      </trkpt>
      <trkpt lat="43.42807" lon="2.45222">
        <ele>1102</ele>
        <time>2018-04-22T10:36:18Z</time>
      </trkpt>
      <trkpt lat="43.42809" lon="2.45237">
        <ele>1103</ele>
        <time>2018-04-22T10:36:25Z</time>
      </trkpt>
      <trkpt lat="43.42809" lon="2.45239">
        <ele>1103</ele>
        <time>2018-04-22T10:36:26Z</time>
      </trkpt>
      <trkpt lat="43.42811" lon="2.45255">
        <ele>1104</ele>
        <time>2018-04-22T10:36:33Z</time>
      </trkpt>
      <trkpt lat="43.42812" lon="2.4527">
        <ele>1104</ele>
        <time>2018-04-22T10:36:40Z</time>
      </trkpt>
      <trkpt lat="43.42813" lon="2.45288">
        <ele>1104</ele>
        <time>2018-04-22T10:36:48Z</time>
      </trkpt>
      <trkpt lat="43.42813" lon="2.45301">
        <ele>1105</ele>
        <time>2018-04-22T10:36:54Z</time>
      </trkpt>
      <trkpt lat="43.42813" lon="2.45305">
        <ele>1105</ele>
        <time>2018-04-22T10:36:56Z</time>
      </trkpt>
      <trkpt lat="43.42814" lon="2.45325">
        <ele>1105</ele>
        <time>2018-04-22T10:37:04Z</time>
      </trkpt>
      <trkpt lat="43.42814" lon="2.45329">
        <ele>1106</ele>
        <time>2018-04-22T10:37:06Z</time>
      </trkpt>
      <trkpt lat="43.42815" lon="2.45343">
        <ele>1107</ele>
        <time>2018-04-22T10:37:12Z</time>
      </trkpt>
      <trkpt lat="43.42815" lon="2.45345">
        <ele>1107</ele>
        <time>2018-04-22T10:37:13Z</time>
      </trkpt>
      <trkpt lat="43.42816" lon="2.45356">
        <ele>1108</ele>
        <time>2018-04-22T10:37:18Z</time>
      </trkpt>
      <trkpt lat="43.42816" lon="2.45358">
        <ele>1108</ele>
        <time>2018-04-22T10:37:19Z</time>
      </trkpt>
      <trkpt lat="43.42818" lon="2.45376">
        <ele>1108</ele>
        <time>2018-04-22T10:37:27Z</time>
      </trkpt>
      <trkpt lat="43.42818" lon="2.45383">
        <ele>1109</ele>
        <time>2018-04-22T10:37:30Z</time>
      </trkpt>
      <trkpt lat="43.42817" lon="2.4539">
        <ele>1110</ele>
        <time>2018-04-22T10:37:33Z</time>
      </trkpt>
      <trkpt lat="43.42817" lon="2.45392">
        <ele>1110</ele>
        <time>2018-04-22T10:37:34Z</time>
      </trkpt>
      <trkpt lat="43.42819" lon="2.45407">
        <ele>1111</ele>
        <time>2018-04-22T10:37:41Z</time>
      </trkpt>
      <trkpt lat="43.42819" lon="2.45411">
        <ele>1111</ele>
        <time>2018-04-22T10:37:43Z</time>
      </trkpt>
      <trkpt lat="43.4282" lon="2.45418">
        <ele>1112</ele>
        <time>2018-04-22T10:37:46Z</time>
      </trkpt>
      <trkpt lat="43.42823" lon="2.4543">
        <ele>1113</ele>
        <time>2018-04-22T10:37:52Z</time>
      </trkpt>
      <trkpt lat="43.42823" lon="2.45433">
        <ele>1113</ele>
        <time>2018-04-22T10:37:53Z</time>
      </trkpt>
      <trkpt lat="43.42826" lon="2.45445">
        <ele>1113</ele>
        <time>2018-04-22T10:37:59Z</time>
      </trkpt>
      <trkpt lat="43.4283" lon="2.45456">
        <ele>1114</ele>
        <time>2018-04-22T10:38:04Z</time>
      </trkpt>
      <trkpt lat="43.42832" lon="2.45464">
        <ele>1115</ele>
        <time>2018-04-22T10:38:08Z</time>
      </trkpt>
      <trkpt lat="43.42833" lon="2.45466">
        <ele>1115</ele>
        <time>2018-04-22T10:38:09Z</time>
      </trkpt>
      <trkpt lat="43.42835" lon="2.45477">
        <ele>1116</ele>
        <time>2018-04-22T10:38:15Z</time>
      </trkpt>
      <trkpt lat="43.42835" lon="2.4548">
        <ele>1116</ele>
        <time>2018-04-22T10:38:17Z</time>
      </trkpt>
      <trkpt lat="43.42837" lon="2.45488">
        <ele>1117</ele>
        <time>2018-04-22T10:38:21Z</time>
      </trkpt>
      <trkpt lat="43.42837" lon="2.4549">
        <ele>1118</ele>
        <time>2018-04-22T10:38:22Z</time>
      </trkpt>
      <trkpt lat="43.42837" lon="2.45491">
        <ele>1118</ele>
        <time>2018-04-22T10:38:23Z</time>
      </trkpt>
      <trkpt lat="43.42839" lon="2.45504">
        <ele>1118</ele>
        <time>2018-04-22T10:38:30Z</time>
      </trkpt>
      <trkpt lat="43.42839" lon="2.45508">
        <ele>1119</ele>
        <time>2018-04-22T10:38:32Z</time>
      </trkpt>
      <trkpt lat="43.4284" lon="2.45513">
        <ele>1120</ele>
        <time>2018-04-22T10:38:35Z</time>
      </trkpt>
      <trkpt lat="43.42841" lon="2.45517">
        <ele>1119</ele>
        <time>2018-04-22T10:38:37Z</time>
      </trkpt>
      <trkpt lat="43.42841" lon="2.45521">
        <ele>1119</ele>
        <time>2018-04-22T10:38:39Z</time>
      </trkpt>
      <trkpt lat="43.42844" lon="2.4553">
        <ele>1120</ele>
        <time>2018-04-22T10:38:44Z</time>
      </trkpt>
      <trkpt lat="43.42848" lon="2.45544">
        <ele>1121</ele>
        <time>2018-04-22T10:38:51Z</time>
      </trkpt>
      <trkpt lat="43.42849" lon="2.45549">
        <ele>1121</ele>
        <time>2018-04-22T10:38:53Z</time>
      </trkpt>
      <trkpt lat="43.42855" lon="2.45566">
        <ele>1122</ele>
        <time>2018-04-22T10:39:01Z</time>
      </trkpt>
      <trkpt lat="43.42864" lon="2.45592">
        <ele>1121</ele>
        <time>2018-04-22T10:39:10Z</time>
      </trkpt>
      <trkpt lat="43.4287" lon="2.45609">
        <ele>1121</ele>
        <time>2018-04-22T10:39:17Z</time>
      </trkpt>
      <trkpt lat="43.42872" lon="2.45618">
        <ele>1121</ele>
        <time>2018-04-22T10:39:22Z</time>
      </trkpt>
      <trkpt lat="43.42873" lon="2.45621">
        <ele>1121</ele>
        <time>2018-04-22T10:39:24Z</time>
      </trkpt>
      <trkpt lat="43.42874" lon="2.45625">
        <ele>1121</ele>
        <time>2018-04-22T10:39:29Z</time>
      </trkpt>
      <trkpt lat="43.42874" lon="2.45625">
        <ele>1121</ele>
        <time>2018-04-22T10:39:30Z</time>
      </trkpt>
      <trkpt lat="43.42874" lon="2.45625">
        <ele>1121</ele>
        <time>2018-04-22T10:39:36Z</time>
      </trkpt>
      <trkpt lat="43.42874" lon="2.45626">
        <ele>1121</ele>
        <time>2018-04-22T10:39:44Z</time>
      </trkpt>
      <trkpt lat="43.42874" lon="2.45626">
        <ele>1120</ele>
        <time>2018-04-22T10:40:02Z</time>
      </trkpt>
      <trkpt lat="43.42874" lon="2.45625">
        <ele>1120</ele>
        <time>2018-04-22T10:40:27Z</time>
      </trkpt>
      <trkpt lat="43.42874" lon="2.45625">
        <ele>1120</ele>
        <time>2018-04-22T10:40:31Z</time>
      </trkpt>
      <trkpt lat="43.42874" lon="2.45626">
        <ele>1120</ele>
        <time>2018-04-22T10:40:40Z</time>
      </trkpt>
      <trkpt lat="43.42874" lon="2.45626">
        <ele>1121</ele>
        <time>2018-04-22T10:40:44Z</time>
      </trkpt>
      <trkpt lat="43.42874" lon="2.45626">
        <ele>1121</ele>
        <time>2018-04-22T10:40:50Z</time>
      </trkpt>
      <trkpt lat="43.42874" lon="2.45626">
        <ele>1121</ele>
        <time>2018-04-22T10:41:06Z</time>
      </trkpt>
      <trkpt lat="43.42874" lon="2.45625">
        <ele>1121</ele>
        <time>2018-04-22T10:41:13Z</time>
      </trkpt>
      <trkpt lat="43.42874" lon="2.45625">
        <ele>1121</ele>
        <time>2018-04-22T10:41:20Z</time>
      </trkpt>
      <trkpt lat="43.42874" lon="2.45627">
        <ele>1120</ele>
        <time>2018-04-22T10:41:34Z</time>
      </trkpt>
      <trkpt lat="43.42875" lon="2.45628">
        <ele>1120</ele>
        <time>2018-04-22T10:41:35Z</time>
      </trkpt>
      <trkpt lat="43.42875" lon="2.45634">
        <ele>1120</ele>
        <time>2018-04-22T10:41:40Z</time>
      </trkpt>
      <trkpt lat="43.4287" lon="2.45641">
        <ele>1121</ele>
        <time>2018-04-22T10:41:44Z</time>
      </trkpt>
      <trkpt lat="43.42868" lon="2.45644">
        <ele>1122</ele>
        <time>2018-04-22T10:41:46Z</time>
      </trkpt>
      <trkpt lat="43.42867" lon="2.45645">
        <ele>1122</ele>
        <time>2018-04-22T10:41:47Z</time>
      </trkpt>
      <trkpt lat="43.4286" lon="2.4565">
        <ele>1123</ele>
        <time>2018-04-22T10:41:51Z</time>
      </trkpt>
      <trkpt lat="43.42858" lon="2.45651">
        <ele>1123</ele>
        <time>2018-04-22T10:41:52Z</time>
      </trkpt>
      <trkpt lat="43.42857" lon="2.45651">
        <ele>1123</ele>
        <time>2018-04-22T10:41:53Z</time>
      </trkpt>
      <trkpt lat="43.42854" lon="2.45653">
        <ele>1124</ele>
        <time>2018-04-22T10:41:55Z</time>
      </trkpt>
      <trkpt lat="43.42851" lon="2.45655">
        <ele>1125</ele>
        <time>2018-04-22T10:41:57Z</time>
      </trkpt>
      <trkpt lat="43.42847" lon="2.45657">
        <ele>1126</ele>
        <time>2018-04-22T10:41:59Z</time>
      </trkpt>
      <trkpt lat="43.42846" lon="2.45657">
        <ele>1126</ele>
        <time>2018-04-22T10:42:00Z</time>
      </trkpt>
      <trkpt lat="43.42843" lon="2.45658">
        <ele>1127</ele>
        <time>2018-04-22T10:42:02Z</time>
      </trkpt>
      <trkpt lat="43.42838" lon="2.45661">
        <ele>1127</ele>
        <time>2018-04-22T10:42:05Z</time>
      </trkpt>
      <trkpt lat="43.42834" lon="2.45663">
        <ele>1127</ele>
        <time>2018-04-22T10:42:08Z</time>
      </trkpt>
      <trkpt lat="43.42832" lon="2.45664">
        <ele>1127</ele>
        <time>2018-04-22T10:42:09Z</time>
      </trkpt>
      <trkpt lat="43.42827" lon="2.45666">
        <ele>1129</ele>
        <time>2018-04-22T10:42:12Z</time>
      </trkpt>
      <trkpt lat="43.42821" lon="2.4567">
        <ele>1129</ele>
        <time>2018-04-22T10:42:16Z</time>
      </trkpt>
      <trkpt lat="43.4281" lon="2.4568">
        <ele>1129</ele>
        <time>2018-04-22T10:42:23Z</time>
      </trkpt>
      <trkpt lat="43.42809" lon="2.45682">
        <ele>1130</ele>
        <time>2018-04-22T10:42:24Z</time>
      </trkpt>
      <trkpt lat="43.42797" lon="2.45692">
        <ele>1131</ele>
        <time>2018-04-22T10:42:31Z</time>
      </trkpt>
      <trkpt lat="43.42794" lon="2.45696">
        <ele>1131</ele>
        <time>2018-04-22T10:42:33Z</time>
      </trkpt>
      <trkpt lat="43.42791" lon="2.45713">
        <ele>1130</ele>
        <time>2018-04-22T10:42:39Z</time>
      </trkpt>
      <trkpt lat="43.42789" lon="2.45726">
        <ele>1131</ele>
        <time>2018-04-22T10:42:44Z</time>
      </trkpt>
      <trkpt lat="43.42787" lon="2.45741">
        <ele>1132</ele>
        <time>2018-04-22T10:42:50Z</time>
      </trkpt>
      <trkpt lat="43.42787" lon="2.45748">
        <ele>1132</ele>
        <time>2018-04-22T10:42:53Z</time>
      </trkpt>
      <trkpt lat="43.42785" lon="2.45771">
        <ele>1133</ele>
        <time>2018-04-22T10:43:02Z</time>
      </trkpt>
      <trkpt lat="43.42784" lon="2.45776">
        <ele>1133</ele>
        <time>2018-04-22T10:43:04Z</time>
      </trkpt>
      <trkpt lat="43.42782" lon="2.45788">
        <ele>1134</ele>
        <time>2018-04-22T10:43:09Z</time>
      </trkpt>
      <trkpt lat="43.42781" lon="2.45795">
        <ele>1134</ele>
        <time>2018-04-22T10:43:12Z</time>
      </trkpt>
      <trkpt lat="43.42779" lon="2.45808">
        <ele>1135</ele>
        <time>2018-04-22T10:43:18Z</time>
      </trkpt>
      <trkpt lat="43.42778" lon="2.45815">
        <ele>1136</ele>
        <time>2018-04-22T10:43:21Z</time>
      </trkpt>
      <trkpt lat="43.42778" lon="2.45819">
        <ele>1136</ele>
        <time>2018-04-22T10:43:23Z</time>
      </trkpt>
      <trkpt lat="43.42778" lon="2.4583">
        <ele>1137</ele>
        <time>2018-04-22T10:43:28Z</time>
      </trkpt>
      <trkpt lat="43.42777" lon="2.45834">
        <ele>1138</ele>
        <time>2018-04-22T10:43:30Z</time>
      </trkpt>
      <trkpt lat="43.42777" lon="2.45838">
        <ele>1138</ele>
        <time>2018-04-22T10:43:32Z</time>
      </trkpt>
      <trkpt lat="43.42778" lon="2.45851">
        <ele>1139</ele>
        <time>2018-04-22T10:43:38Z</time>
      </trkpt>
      <trkpt lat="43.42778" lon="2.45855">
        <ele>1140</ele>
        <time>2018-04-22T10:43:40Z</time>
      </trkpt>
      <trkpt lat="43.42777" lon="2.45864">
        <ele>1140</ele>
        <time>2018-04-22T10:43:44Z</time>
      </trkpt>
      <trkpt lat="43.42777" lon="2.45871">
        <ele>1141</ele>
        <time>2018-04-22T10:43:47Z</time>
      </trkpt>
      <trkpt lat="43.42776" lon="2.45877">
        <ele>1142</ele>
        <time>2018-04-22T10:43:50Z</time>
      </trkpt>
      <trkpt lat="43.42773" lon="2.45887">
        <ele>1142</ele>
        <time>2018-04-22T10:43:54Z</time>
      </trkpt>
      <trkpt lat="43.42769" lon="2.45895">
        <ele>1142</ele>
        <time>2018-04-22T10:43:58Z</time>
      </trkpt>
      <trkpt lat="43.42761" lon="2.45912">
        <ele>1144</ele>
        <time>2018-04-22T10:44:06Z</time>
      </trkpt>
      <trkpt lat="43.42751" lon="2.45931">
        <ele>1145</ele>
        <time>2018-04-22T10:44:16Z</time>
      </trkpt>
      <trkpt lat="43.42744" lon="2.45942">
        <ele>1145</ele>
        <time>2018-04-22T10:44:22Z</time>
      </trkpt>
      <trkpt lat="43.42741" lon="2.45947">
        <ele>1146</ele>
        <time>2018-04-22T10:44:25Z</time>
      </trkpt>
      <trkpt lat="43.42737" lon="2.45955">
        <ele>1146</ele>
        <time>2018-04-22T10:44:29Z</time>
      </trkpt>
      <trkpt lat="43.42734" lon="2.45959">
        <ele>1147</ele>
        <time>2018-04-22T10:44:31Z</time>
      </trkpt>
      <trkpt lat="43.42729" lon="2.45969">
        <ele>1148</ele>
        <time>2018-04-22T10:44:36Z</time>
      </trkpt>
      <trkpt lat="43.42724" lon="2.45975">
        <ele>1148</ele>
        <time>2018-04-22T10:44:40Z</time>
      </trkpt>
      <trkpt lat="43.42715" lon="2.45986">
        <ele>1149</ele>
        <time>2018-04-22T10:44:47Z</time>
      </trkpt>
      <trkpt lat="43.42713" lon="2.45987">
        <ele>1149</ele>
        <time>2018-04-22T10:44:48Z</time>
      </trkpt>
      <trkpt lat="43.42702" lon="2.45997">
        <ele>1150</ele>
        <time>2018-04-22T10:44:55Z</time>
      </trkpt>
      <trkpt lat="43.427" lon="2.45999">
        <ele>1150</ele>
        <time>2018-04-22T10:44:56Z</time>
      </trkpt>
      <trkpt lat="43.42695" lon="2.46009">
        <ele>1151</ele>
        <time>2018-04-22T10:45:01Z</time>
      </trkpt>
      <trkpt lat="43.42694" lon="2.46011">
        <ele>1151</ele>
        <time>2018-04-22T10:45:02Z</time>
      </trkpt>
      <trkpt lat="43.4269" lon="2.46015">
        <ele>1152</ele>
        <time>2018-04-22T10:45:04Z</time>
      </trkpt>
      <trkpt lat="43.42686" lon="2.46016">
        <ele>1152</ele>
        <time>2018-04-22T10:45:06Z</time>
      </trkpt>
      <trkpt lat="43.42672" lon="2.46019">
        <ele>1153</ele>
        <time>2018-04-22T10:45:13Z</time>
      </trkpt>
      <trkpt lat="43.4267" lon="2.46019">
        <ele>1153</ele>
        <time>2018-04-22T10:45:14Z</time>
      </trkpt>
      <trkpt lat="43.42659" lon="2.46023">
        <ele>1154</ele>
        <time>2018-04-22T10:45:20Z</time>
      </trkpt>
      <trkpt lat="43.42652" lon="2.46033">
        <ele>1154</ele>
        <time>2018-04-22T10:45:27Z</time>
      </trkpt>
      <trkpt lat="43.42647" lon="2.46043">
        <ele>1155</ele>
        <time>2018-04-22T10:45:32Z</time>
      </trkpt>
      <trkpt lat="43.42646" lon="2.46045">
        <ele>1156</ele>
        <time>2018-04-22T10:45:33Z</time>
      </trkpt>
      <trkpt lat="43.42644" lon="2.46052">
        <ele>1156</ele>
        <time>2018-04-22T10:45:36Z</time>
      </trkpt>
      <trkpt lat="43.42641" lon="2.4606">
        <ele>1157</ele>
        <time>2018-04-22T10:45:41Z</time>
      </trkpt>
      <trkpt lat="43.42628" lon="2.46067">
        <ele>1159</ele>
        <time>2018-04-22T10:45:50Z</time>
      </trkpt>
      <trkpt lat="43.42613" lon="2.46071">
        <ele>1159</ele>
        <time>2018-04-22T10:45:59Z</time>
      </trkpt>
      <trkpt lat="43.42611" lon="2.46071">
        <ele>1160</ele>
        <time>2018-04-22T10:46:00Z</time>
      </trkpt>
      <trkpt lat="43.42598" lon="2.46073">
        <ele>1159</ele>
        <time>2018-04-22T10:46:06Z</time>
      </trkpt>
      <trkpt lat="43.42588" lon="2.46076">
        <ele>1161</ele>
        <time>2018-04-22T10:46:11Z</time>
      </trkpt>
      <trkpt lat="43.42585" lon="2.46078">
        <ele>1161</ele>
        <time>2018-04-22T10:46:13Z</time>
      </trkpt>
      <trkpt lat="43.42572" lon="2.46085">
        <ele>1162</ele>
        <time>2018-04-22T10:46:21Z</time>
      </trkpt>
      <trkpt lat="43.42567" lon="2.46088">
        <ele>1162</ele>
        <time>2018-04-22T10:46:24Z</time>
      </trkpt>
      <trkpt lat="43.42561" lon="2.46091">
        <ele>1163</ele>
        <time>2018-04-22T10:46:28Z</time>
      </trkpt>
      <trkpt lat="43.42559" lon="2.46091">
        <ele>1163</ele>
        <time>2018-04-22T10:46:29Z</time>
      </trkpt>
      <trkpt lat="43.42547" lon="2.46097">
        <ele>1164</ele>
        <time>2018-04-22T10:46:37Z</time>
      </trkpt>
      <trkpt lat="43.42546" lon="2.46098">
        <ele>1164</ele>
        <time>2018-04-22T10:46:38Z</time>
      </trkpt>
      <trkpt lat="43.42534" lon="2.46104">
        <ele>1165</ele>
        <time>2018-04-22T10:46:45Z</time>
      </trkpt>
      <trkpt lat="43.42531" lon="2.46106">
        <ele>1165</ele>
        <time>2018-04-22T10:46:47Z</time>
      </trkpt>
      <trkpt lat="43.42519" lon="2.46114">
        <ele>1165</ele>
        <time>2018-04-22T10:46:55Z</time>
      </trkpt>
      <trkpt lat="43.42516" lon="2.46117">
        <ele>1166</ele>
        <time>2018-04-22T10:46:57Z</time>
      </trkpt>
      <trkpt lat="43.42511" lon="2.46122">
        <ele>1167</ele>
        <time>2018-04-22T10:47:01Z</time>
      </trkpt>
      <trkpt lat="43.4251" lon="2.46124">
        <ele>1167</ele>
        <time>2018-04-22T10:47:02Z</time>
      </trkpt>
      <trkpt lat="43.42502" lon="2.46131">
        <ele>1168</ele>
        <time>2018-04-22T10:47:08Z</time>
      </trkpt>
      <trkpt lat="43.42499" lon="2.46135">
        <ele>1169</ele>
        <time>2018-04-22T10:47:11Z</time>
      </trkpt>
      <trkpt lat="43.42493" lon="2.46141">
        <ele>1169</ele>
        <time>2018-04-22T10:47:16Z</time>
      </trkpt>
      <trkpt lat="43.42489" lon="2.46144">
        <ele>1170</ele>
        <time>2018-04-22T10:47:19Z</time>
      </trkpt>
      <trkpt lat="43.42483" lon="2.46148">
        <ele>1170</ele>
        <time>2018-04-22T10:47:23Z</time>
      </trkpt>
      <trkpt lat="43.42478" lon="2.46152">
        <ele>1171</ele>
        <time>2018-04-22T10:47:27Z</time>
      </trkpt>
      <trkpt lat="43.42476" lon="2.46154">
        <ele>1171</ele>
        <time>2018-04-22T10:47:29Z</time>
      </trkpt>
      <trkpt lat="43.42467" lon="2.46162">
        <ele>1172</ele>
        <time>2018-04-22T10:47:35Z</time>
      </trkpt>
      <trkpt lat="43.42466" lon="2.46163">
        <ele>1172</ele>
        <time>2018-04-22T10:47:36Z</time>
      </trkpt>
      <trkpt lat="43.42461" lon="2.46169">
        <ele>1173</ele>
        <time>2018-04-22T10:47:40Z</time>
      </trkpt>
      <trkpt lat="43.42457" lon="2.46176">
        <ele>1174</ele>
        <time>2018-04-22T10:47:44Z</time>
      </trkpt>
      <trkpt lat="43.42454" lon="2.46181">
        <ele>1174</ele>
        <time>2018-04-22T10:47:47Z</time>
      </trkpt>
      <trkpt lat="43.42448" lon="2.46188">
        <ele>1175</ele>
        <time>2018-04-22T10:47:52Z</time>
      </trkpt>
      <trkpt lat="43.42439" lon="2.462">
        <ele>1176</ele>
        <time>2018-04-22T10:48:00Z</time>
      </trkpt>
      <trkpt lat="43.42432" lon="2.46211">
        <ele>1177</ele>
        <time>2018-04-22T10:48:07Z</time>
      </trkpt>
      <trkpt lat="43.42426" lon="2.46217">
        <ele>1177</ele>
        <time>2018-04-22T10:48:11Z</time>
      </trkpt>
      <trkpt lat="43.42422" lon="2.46221">
        <ele>1178</ele>
        <time>2018-04-22T10:48:14Z</time>
      </trkpt>
      <trkpt lat="43.42421" lon="2.46222">
        <ele>1178</ele>
        <time>2018-04-22T10:48:15Z</time>
      </trkpt>
      <trkpt lat="43.42416" lon="2.46232">
        <ele>1179</ele>
        <time>2018-04-22T10:48:21Z</time>
      </trkpt>
      <trkpt lat="43.42413" lon="2.46247">
        <ele>1179</ele>
        <time>2018-04-22T10:48:28Z</time>
      </trkpt>
      <trkpt lat="43.42413" lon="2.46253">
        <ele>1179</ele>
        <time>2018-04-22T10:48:31Z</time>
      </trkpt>
      <trkpt lat="43.42411" lon="2.46256">
        <ele>1179</ele>
        <time>2018-04-22T10:48:33Z</time>
      </trkpt>
      <trkpt lat="43.4241" lon="2.46257">
        <ele>1179</ele>
        <time>2018-04-22T10:48:34Z</time>
      </trkpt>
      <trkpt lat="43.424" lon="2.4626">
        <ele>1180</ele>
        <time>2018-04-22T10:48:40Z</time>
      </trkpt>
      <trkpt lat="43.42392" lon="2.46272">
        <ele>1179</ele>
        <time>2018-04-22T10:48:47Z</time>
      </trkpt>
      <trkpt lat="43.42392" lon="2.46272">
        <ele>1179</ele>
        <time>2018-04-22T10:48:52Z</time>
      </trkpt>
      <trkpt lat="43.42392" lon="2.46273">
        <ele>1179</ele>
        <time>2018-04-22T10:48:53Z</time>
      </trkpt>
      <trkpt lat="43.42391" lon="2.46274">
        <ele>1180</ele>
        <time>2018-04-22T10:48:59Z</time>
      </trkpt>
      <trkpt lat="43.4239" lon="2.46274">
        <ele>1180</ele>
        <time>2018-04-22T10:49:08Z</time>
      </trkpt>
      <trkpt lat="43.4239" lon="2.46274">
        <ele>1179</ele>
        <time>2018-04-22T10:49:14Z</time>
      </trkpt>
      <trkpt lat="43.4239" lon="2.46274">
        <ele>1179</ele>
        <time>2018-04-22T10:49:22Z</time>
      </trkpt>
      <trkpt lat="43.4239" lon="2.46274">
        <ele>1180</ele>
        <time>2018-04-22T10:49:33Z</time>
      </trkpt>
      <trkpt lat="43.4239" lon="2.46274">
        <ele>1180</ele>
        <time>2018-04-22T10:49:34Z</time>
      </trkpt>
      <trkpt lat="43.4239" lon="2.46274">
        <ele>1180</ele>
        <time>2018-04-22T10:49:43Z</time>
      </trkpt>
      <trkpt lat="43.4239" lon="2.46274">
        <ele>1180</ele>
        <time>2018-04-22T10:49:50Z</time>
      </trkpt>
      <trkpt lat="43.4239" lon="2.46274">
        <ele>1180</ele>
        <time>2018-04-22T10:50:14Z</time>
      </trkpt>
      <trkpt lat="43.4239" lon="2.46274">
        <ele>1180</ele>
        <time>2018-04-22T10:50:27Z</time>
      </trkpt>
      <trkpt lat="43.4239" lon="2.46274">
        <ele>1180</ele>
        <time>2018-04-22T10:50:44Z</time>
      </trkpt>
      <trkpt lat="43.4239" lon="2.46274">
        <ele>1180</ele>
        <time>2018-04-22T10:50:45Z</time>
      </trkpt>
      <trkpt lat="43.4239" lon="2.46274">
        <ele>1181</ele>
        <time>2018-04-22T10:50:55Z</time>
      </trkpt>
      <trkpt lat="43.4239" lon="2.46274">
        <ele>1180</ele>
        <time>2018-04-22T10:51:19Z</time>
      </trkpt>
      <trkpt lat="43.4239" lon="2.46274">
        <ele>1180</ele>
        <time>2018-04-22T10:51:58Z</time>
      </trkpt>
      <trkpt lat="43.4239" lon="2.46274">
        <ele>1180</ele>
        <time>2018-04-22T10:52:21Z</time>
      </trkpt>
      <trkpt lat="43.4239" lon="2.46274">
        <ele>1180</ele>
        <time>2018-04-22T10:52:44Z</time>
      </trkpt>
      <trkpt lat="43.4239" lon="2.46274">
        <ele>1180</ele>
        <time>2018-04-22T10:52:50Z</time>
      </trkpt>
      <trkpt lat="43.4239" lon="2.46274">
        <ele>1180</ele>
        <time>2018-04-22T10:52:56Z</time>
      </trkpt>
      <trkpt lat="43.4239" lon="2.46274">
        <ele>1180</ele>
        <time>2018-04-22T10:53:01Z</time>
      </trkpt>
      <trkpt lat="43.4239" lon="2.46274">
        <ele>1180</ele>
        <time>2018-04-22T10:53:19Z</time>
      </trkpt>
      <trkpt lat="43.4239" lon="2.46274">
        <ele>1180</ele>
        <time>2018-04-22T10:53:22Z</time>
      </trkpt>
      <trkpt lat="43.4239" lon="2.46274">
        <ele>1180</ele>
        <time>2018-04-22T10:53:28Z</time>
      </trkpt>
      <trkpt lat="43.4239" lon="2.46274">
        <ele>1179</ele>
        <time>2018-04-22T10:53:39Z</time>
      </trkpt>
      <trkpt lat="43.4239" lon="2.46274">
        <ele>1180</ele>
        <time>2018-04-22T10:53:51Z</time>
      </trkpt>
      <trkpt lat="43.4239" lon="2.46273">
        <ele>1179</ele>
        <time>2018-04-22T10:53:58Z</time>
      </trkpt>
      <trkpt lat="43.4239" lon="2.46273">
        <ele>1179</ele>
        <time>2018-04-22T10:54:02Z</time>
      </trkpt>
      <trkpt lat="43.4239" lon="2.46273">
        <ele>1179</ele>
        <time>2018-04-22T10:55:29Z</time>
      </trkpt>
      <trkpt lat="43.4239" lon="2.46273">
        <ele>1179</ele>
        <time>2018-04-22T10:55:32Z</time>
      </trkpt>
      <trkpt lat="43.4239" lon="2.46273">
        <ele>1179</ele>
        <time>2018-04-22T10:55:36Z</time>
      </trkpt>
      <trkpt lat="43.4239" lon="2.46273">
        <ele>1179</ele>
        <time>2018-04-22T10:55:40Z</time>
      </trkpt>
      <trkpt lat="43.4239" lon="2.46273">
        <ele>1179</ele>
        <time>2018-04-22T10:55:46Z</time>
      </trkpt>
      <trkpt lat="43.4239" lon="2.46273">
        <ele>1179</ele>
        <time>2018-04-22T10:55:54Z</time>
      </trkpt>
      <trkpt lat="43.4239" lon="2.46273">
        <ele>1179</ele>
        <time>2018-04-22T10:56:07Z</time>
      </trkpt>
      <trkpt lat="43.4239" lon="2.46273">
        <ele>1179</ele>
        <time>2018-04-22T10:56:10Z</time>
      </trkpt>
      <trkpt lat="43.4239" lon="2.46273">
        <ele>1179</ele>
        <time>2018-04-22T10:56:13Z</time>
      </trkpt>
      <trkpt lat="43.4239" lon="2.46273">
        <ele>1179</ele>
        <time>2018-04-22T10:56:16Z</time>
      </trkpt>
      <trkpt lat="43.4239" lon="2.46274">
        <ele>1179</ele>
        <time>2018-04-22T10:56:38Z</time>
      </trkpt>
      <trkpt lat="43.4239" lon="2.46274">
        <ele>1179</ele>
        <time>2018-04-22T10:56:41Z</time>
      </trkpt>
      <trkpt lat="43.42391" lon="2.46275">
        <ele>1179</ele>
        <time>2018-04-22T10:56:51Z</time>
      </trkpt>
      <trkpt lat="43.42391" lon="2.46275">
        <ele>1179</ele>
        <time>2018-04-22T10:56:52Z</time>
      </trkpt>
      <trkpt lat="43.42391" lon="2.46275">
        <ele>1179</ele>
        <time>2018-04-22T10:56:53Z</time>
      </trkpt>
      <trkpt lat="43.42391" lon="2.46275">
        <ele>1179</ele>
        <time>2018-04-22T10:57:02Z</time>
      </trkpt>
      <trkpt lat="43.42391" lon="2.46275">
        <ele>1179</ele>
        <time>2018-04-22T10:57:05Z</time>
      </trkpt>
      <trkpt lat="43.42392" lon="2.46276">
        <ele>1179</ele>
        <time>2018-04-22T10:57:15Z</time>
      </trkpt>
      <trkpt lat="43.42392" lon="2.46276">
        <ele>1180</ele>
        <time>2018-04-22T10:57:17Z</time>
      </trkpt>
      <trkpt lat="43.42392" lon="2.46276">
        <ele>1179</ele>
        <time>2018-04-22T10:57:32Z</time>
      </trkpt>
      <trkpt lat="43.42392" lon="2.46276">
        <ele>1179</ele>
        <time>2018-04-22T10:57:38Z</time>
      </trkpt>
      <trkpt lat="43.42394" lon="2.46274">
        <ele>1179</ele>
        <time>2018-04-22T10:57:40Z</time>
      </trkpt>
      <trkpt lat="43.42399" lon="2.46265">
        <ele>1179</ele>
        <time>2018-04-22T10:57:47Z</time>
      </trkpt>
      <trkpt lat="43.42401" lon="2.4626">
        <ele>1179</ele>
        <time>2018-04-22T10:57:50Z</time>
      </trkpt>
      <trkpt lat="43.42405" lon="2.46255">
        <ele>1179</ele>
        <time>2018-04-22T10:57:53Z</time>
      </trkpt>
      <trkpt lat="43.42411" lon="2.46246">
        <ele>1179</ele>
        <time>2018-04-22T10:57:59Z</time>
      </trkpt>
      <trkpt lat="43.42413" lon="2.4624">
        <ele>1179</ele>
        <time>2018-04-22T10:58:04Z</time>
      </trkpt>
      <trkpt lat="43.42414" lon="2.46232">
        <ele>1179</ele>
        <time>2018-04-22T10:58:11Z</time>
      </trkpt>
      <trkpt lat="43.42414" lon="2.46232">
        <ele>1179</ele>
        <time>2018-04-22T10:58:16Z</time>
      </trkpt>
      <trkpt lat="43.42415" lon="2.46226">
        <ele>1179</ele>
        <time>2018-04-22T10:58:19Z</time>
      </trkpt>
      <trkpt lat="43.42419" lon="2.46223">
        <ele>1178</ele>
        <time>2018-04-22T10:58:22Z</time>
      </trkpt>
      <trkpt lat="43.4242" lon="2.46222">
        <ele>1178</ele>
        <time>2018-04-22T10:58:23Z</time>
      </trkpt>
      <trkpt lat="43.42421" lon="2.46221">
        <ele>1178</ele>
        <time>2018-04-22T10:58:24Z</time>
      </trkpt>
      <trkpt lat="43.4243" lon="2.46212">
        <ele>1178</ele>
        <time>2018-04-22T10:58:28Z</time>
      </trkpt>
      <trkpt lat="43.42432" lon="2.46209">
        <ele>1178</ele>
        <time>2018-04-22T10:58:29Z</time>
      </trkpt>
      <trkpt lat="43.42444" lon="2.46193">
        <ele>1176</ele>
        <time>2018-04-22T10:58:33Z</time>
      </trkpt>
      <trkpt lat="43.42452" lon="2.46183">
        <ele>1177</ele>
        <time>2018-04-22T10:58:35Z</time>
      </trkpt>
      <trkpt lat="43.42456" lon="2.46178">
        <ele>1176</ele>
        <time>2018-04-22T10:58:36Z</time>
      </trkpt>
      <trkpt lat="43.42463" lon="2.46167">
        <ele>1175</ele>
        <time>2018-04-22T10:58:38Z</time>
      </trkpt>
      <trkpt lat="43.42467" lon="2.46162">
        <ele>1174</ele>
        <time>2018-04-22T10:58:39Z</time>
      </trkpt>
      <trkpt lat="43.42472" lon="2.46157">
        <ele>1172</ele>
        <time>2018-04-22T10:58:40Z</time>
      </trkpt>
      <trkpt lat="43.42482" lon="2.46149">
        <ele>1171</ele>
        <time>2018-04-22T10:58:42Z</time>
      </trkpt>
      <trkpt lat="43.42492" lon="2.46141">
        <ele>1169</ele>
        <time>2018-04-22T10:58:44Z</time>
      </trkpt>
      <trkpt lat="43.42497" lon="2.46138">
        <ele>1169</ele>
        <time>2018-04-22T10:58:45Z</time>
      </trkpt>
      <trkpt lat="43.42501" lon="2.46132">
        <ele>1168</ele>
        <time>2018-04-22T10:58:46Z</time>
      </trkpt>
      <trkpt lat="43.42506" lon="2.46127">
        <ele>1167</ele>
        <time>2018-04-22T10:58:47Z</time>
      </trkpt>
      <trkpt lat="43.42515" lon="2.46119">
        <ele>1166</ele>
        <time>2018-04-22T10:58:49Z</time>
      </trkpt>
      <trkpt lat="43.42525" lon="2.46108">
        <ele>1164</ele>
        <time>2018-04-22T10:58:51Z</time>
      </trkpt>
      <trkpt lat="43.42531" lon="2.46104">
        <ele>1163</ele>
        <time>2018-04-22T10:58:52Z</time>
      </trkpt>
      <trkpt lat="43.42557" lon="2.46092">
        <ele>1163</ele>
        <time>2018-04-22T10:58:56Z</time>
      </trkpt>
      <trkpt lat="43.4257" lon="2.46086">
        <ele>1161</ele>
        <time>2018-04-22T10:58:58Z</time>
      </trkpt>
      <trkpt lat="43.42601" lon="2.46073">
        <ele>1160</ele>
        <time>2018-04-22T10:59:03Z</time>
      </trkpt>
      <trkpt lat="43.42608" lon="2.46072">
        <ele>1159</ele>
        <time>2018-04-22T10:59:04Z</time>
      </trkpt>
      <trkpt lat="43.42614" lon="2.4607">
        <ele>1158</ele>
        <time>2018-04-22T10:59:05Z</time>
      </trkpt>
      <trkpt lat="43.4263" lon="2.46066">
        <ele>1159</ele>
        <time>2018-04-22T10:59:08Z</time>
      </trkpt>
      <trkpt lat="43.42635" lon="2.46064">
        <ele>1158</ele>
        <time>2018-04-22T10:59:09Z</time>
      </trkpt>
      <trkpt lat="43.4264" lon="2.46061">
        <ele>1158</ele>
        <time>2018-04-22T10:59:10Z</time>
      </trkpt>
      <trkpt lat="43.42645" lon="2.46055">
        <ele>1158</ele>
        <time>2018-04-22T10:59:12Z</time>
      </trkpt>
      <trkpt lat="43.42647" lon="2.46051">
        <ele>1157</ele>
        <time>2018-04-22T10:59:13Z</time>
      </trkpt>
      <trkpt lat="43.42649" lon="2.46042">
        <ele>1156</ele>
        <time>2018-04-22T10:59:16Z</time>
      </trkpt>
      <trkpt lat="43.42651" lon="2.46039">
        <ele>1156</ele>
        <time>2018-04-22T10:59:17Z</time>
      </trkpt>
      <trkpt lat="43.42652" lon="2.46035">
        <ele>1155</ele>
        <time>2018-04-22T10:59:18Z</time>
      </trkpt>
      <trkpt lat="43.42654" lon="2.46031">
        <ele>1154</ele>
        <time>2018-04-22T10:59:19Z</time>
      </trkpt>
      <trkpt lat="43.42659" lon="2.46024">
        <ele>1154</ele>
        <time>2018-04-22T10:59:21Z</time>
      </trkpt>
      <trkpt lat="43.42661" lon="2.46021">
        <ele>1153</ele>
        <time>2018-04-22T10:59:22Z</time>
      </trkpt>
      <trkpt lat="43.42677" lon="2.46017">
        <ele>1153</ele>
        <time>2018-04-22T10:59:26Z</time>
      </trkpt>
      <trkpt lat="43.42681" lon="2.46016">
        <ele>1153</ele>
        <time>2018-04-22T10:59:27Z</time>
      </trkpt>
      <trkpt lat="43.42687" lon="2.46014">
        <ele>1152</ele>
        <time>2018-04-22T10:59:28Z</time>
      </trkpt>
      <trkpt lat="43.42696" lon="2.46009">
        <ele>1151</ele>
        <time>2018-04-22T10:59:30Z</time>
      </trkpt>
      <trkpt lat="43.42699" lon="2.46004">
        <ele>1150</ele>
        <time>2018-04-22T10:59:31Z</time>
      </trkpt>
      <trkpt lat="43.42707" lon="2.45993">
        <ele>1150</ele>
        <time>2018-04-22T10:59:33Z</time>
      </trkpt>
      <trkpt lat="43.42717" lon="2.45983">
        <ele>1148</ele>
        <time>2018-04-22T10:59:35Z</time>
      </trkpt>
      <trkpt lat="43.42728" lon="2.45972">
        <ele>1149</ele>
        <time>2018-04-22T10:59:37Z</time>
      </trkpt>
      <trkpt lat="43.42737" lon="2.45958">
        <ele>1147</ele>
        <time>2018-04-22T10:59:39Z</time>
      </trkpt>
      <trkpt lat="43.42745" lon="2.45944">
        <ele>1146</ele>
        <time>2018-04-22T10:59:41Z</time>
      </trkpt>
      <trkpt lat="43.42749" lon="2.45938">
        <ele>1145</ele>
        <time>2018-04-22T10:59:42Z</time>
      </trkpt>
      <trkpt lat="43.42761" lon="2.45915">
        <ele>1144</ele>
        <time>2018-04-22T10:59:46Z</time>
      </trkpt>
      <trkpt lat="43.42764" lon="2.45909">
        <ele>1144</ele>
        <time>2018-04-22T10:59:47Z</time>
      </trkpt>
      <trkpt lat="43.42766" lon="2.45904">
        <ele>1143</ele>
        <time>2018-04-22T10:59:48Z</time>
      </trkpt>
      <trkpt lat="43.42773" lon="2.45887">
        <ele>1142</ele>
        <time>2018-04-22T10:59:51Z</time>
      </trkpt>
      <trkpt lat="43.42776" lon="2.4588">
        <ele>1142</ele>
        <time>2018-04-22T10:59:52Z</time>
      </trkpt>
      <trkpt lat="43.42777" lon="2.45873">
        <ele>1141</ele>
        <time>2018-04-22T10:59:53Z</time>
      </trkpt>
      <trkpt lat="43.42778" lon="2.45865">
        <ele>1140</ele>
        <time>2018-04-22T10:59:54Z</time>
      </trkpt>
      <trkpt lat="43.42779" lon="2.45839">
        <ele>1140</ele>
        <time>2018-04-22T10:59:57Z</time>
      </trkpt>
      <trkpt lat="43.42779" lon="2.45818">
        <ele>1138</ele>
        <time>2018-04-22T10:59:59Z</time>
      </trkpt>
      <trkpt lat="43.4278" lon="2.45807">
        <ele>1136</ele>
        <time>2018-04-22T11:00:00Z</time>
      </trkpt>
      <trkpt lat="43.42781" lon="2.45797">
        <ele>1135</ele>
        <time>2018-04-22T11:00:01Z</time>
      </trkpt>
      <trkpt lat="43.42784" lon="2.45776">
        <ele>1134</ele>
        <time>2018-04-22T11:00:03Z</time>
      </trkpt>
      <trkpt lat="43.42789" lon="2.45742">
        <ele>1133</ele>
        <time>2018-04-22T11:00:06Z</time>
      </trkpt>
      <trkpt lat="43.42789" lon="2.45734">
        <ele>1133</ele>
        <time>2018-04-22T11:00:07Z</time>
      </trkpt>
      <trkpt lat="43.42791" lon="2.45719">
        <ele>1132</ele>
        <time>2018-04-22T11:00:09Z</time>
      </trkpt>
      <trkpt lat="43.42792" lon="2.45711">
        <ele>1131</ele>
        <time>2018-04-22T11:00:10Z</time>
      </trkpt>
      <trkpt lat="43.42799" lon="2.45691">
        <ele>1130</ele>
        <time>2018-04-22T11:00:13Z</time>
      </trkpt>
      <trkpt lat="43.42803" lon="2.45687">
        <ele>1130</ele>
        <time>2018-04-22T11:00:14Z</time>
      </trkpt>
      <trkpt lat="43.42807" lon="2.45683">
        <ele>1130</ele>
        <time>2018-04-22T11:00:15Z</time>
      </trkpt>
      <trkpt lat="43.42812" lon="2.45679">
        <ele>1129</ele>
        <time>2018-04-22T11:00:16Z</time>
      </trkpt>
      <trkpt lat="43.42816" lon="2.45674">
        <ele>1129</ele>
        <time>2018-04-22T11:00:17Z</time>
      </trkpt>
      <trkpt lat="43.42821" lon="2.4567">
        <ele>1128</ele>
        <time>2018-04-22T11:00:18Z</time>
      </trkpt>
      <trkpt lat="43.42827" lon="2.45666">
        <ele>1128</ele>
        <time>2018-04-22T11:00:19Z</time>
      </trkpt>
      <trkpt lat="43.42837" lon="2.45661">
        <ele>1127</ele>
        <time>2018-04-22T11:00:21Z</time>
      </trkpt>
      <trkpt lat="43.42841" lon="2.45658">
        <ele>1126</ele>
        <time>2018-04-22T11:00:22Z</time>
      </trkpt>
      <trkpt lat="43.42848" lon="2.45653">
        <ele>1125</ele>
        <time>2018-04-22T11:00:24Z</time>
      </trkpt>
      <trkpt lat="43.42851" lon="2.45652">
        <ele>1125</ele>
        <time>2018-04-22T11:00:25Z</time>
      </trkpt>
      <trkpt lat="43.42859" lon="2.45648">
        <ele>1124</ele>
        <time>2018-04-22T11:00:27Z</time>
      </trkpt>
      <trkpt lat="43.42865" lon="2.45643">
        <ele>1122</ele>
        <time>2018-04-22T11:00:29Z</time>
      </trkpt>
      <trkpt lat="43.4287" lon="2.45641">
        <ele>1122</ele>
        <time>2018-04-22T11:00:31Z</time>
      </trkpt>
      <trkpt lat="43.42872" lon="2.4564">
        <ele>1121</ele>
        <time>2018-04-22T11:00:32Z</time>
      </trkpt>
      <trkpt lat="43.42874" lon="2.4564">
        <ele>1120</ele>
        <time>2018-04-22T11:00:33Z</time>
      </trkpt>
      <trkpt lat="43.42876" lon="2.45641">
        <ele>1120</ele>
        <time>2018-04-22T11:00:34Z</time>
      </trkpt>
      <trkpt lat="43.42878" lon="2.45643">
        <ele>1120</ele>
        <time>2018-04-22T11:00:35Z</time>
      </trkpt>
      <trkpt lat="43.42878" lon="2.45646">
        <ele>1119</ele>
        <time>2018-04-22T11:00:39Z</time>
      </trkpt>
      <trkpt lat="43.42878" lon="2.4565">
        <ele>1119</ele>
        <time>2018-04-22T11:00:42Z</time>
      </trkpt>
      <trkpt lat="43.42879" lon="2.45655">
        <ele>1119</ele>
        <time>2018-04-22T11:00:44Z</time>
      </trkpt>
      <trkpt lat="43.42882" lon="2.45658">
        <ele>1120</ele>
        <time>2018-04-22T11:00:47Z</time>
      </trkpt>
      <trkpt lat="43.42884" lon="2.4566">
        <ele>1119</ele>
        <time>2018-04-22T11:00:49Z</time>
      </trkpt>
      <trkpt lat="43.42885" lon="2.45661">
        <ele>1119</ele>
        <time>2018-04-22T11:00:51Z</time>
      </trkpt>
      <trkpt lat="43.42885" lon="2.45661">
        <ele>1119</ele>
        <time>2018-04-22T11:00:54Z</time>
      </trkpt>
      <trkpt lat="43.42885" lon="2.45661">
        <ele>1119</ele>
        <time>2018-04-22T11:00:59Z</time>
      </trkpt>
      <trkpt lat="43.42885" lon="2.45661">
        <ele>1119</ele>
        <time>2018-04-22T11:01:05Z</time>
      </trkpt>
      <trkpt lat="43.42886" lon="2.45663">
        <ele>1118</ele>
        <time>2018-04-22T11:01:08Z</time>
      </trkpt>
      <trkpt lat="43.42888" lon="2.45664">
        <ele>1118</ele>
        <time>2018-04-22T11:01:10Z</time>
      </trkpt>
      <trkpt lat="43.42894" lon="2.45668">
        <ele>1117</ele>
        <time>2018-04-22T11:01:13Z</time>
      </trkpt>
      <trkpt lat="43.42902" lon="2.45673">
        <ele>1116</ele>
        <time>2018-04-22T11:01:16Z</time>
      </trkpt>
      <trkpt lat="43.42909" lon="2.4568">
        <ele>1115</ele>
        <time>2018-04-22T11:01:18Z</time>
      </trkpt>
      <trkpt lat="43.42913" lon="2.45682">
        <ele>1115</ele>
        <time>2018-04-22T11:01:19Z</time>
      </trkpt>
      <trkpt lat="43.42921" lon="2.45689">
        <ele>1113</ele>
        <time>2018-04-22T11:01:21Z</time>
      </trkpt>
      <trkpt lat="43.42925" lon="2.45692">
        <ele>1112</ele>
        <time>2018-04-22T11:01:22Z</time>
      </trkpt>
      <trkpt lat="43.42928" lon="2.45695">
        <ele>1112</ele>
        <time>2018-04-22T11:01:23Z</time>
      </trkpt>
      <trkpt lat="43.42936" lon="2.45698">
        <ele>1111</ele>
        <time>2018-04-22T11:01:25Z</time>
      </trkpt>
      <trkpt lat="43.42942" lon="2.45702">
        <ele>1110</ele>
        <time>2018-04-22T11:01:27Z</time>
      </trkpt>
      <trkpt lat="43.42946" lon="2.45704">
        <ele>1109</ele>
        <time>2018-04-22T11:01:28Z</time>
      </trkpt>
      <trkpt lat="43.42951" lon="2.45708">
        <ele>1108</ele>
        <time>2018-04-22T11:01:30Z</time>
      </trkpt>
      <trkpt lat="43.42956" lon="2.45713">
        <ele>1107</ele>
        <time>2018-04-22T11:01:32Z</time>
      </trkpt>
      <trkpt lat="43.42958" lon="2.45715">
        <ele>1106</ele>
        <time>2018-04-22T11:01:33Z</time>
      </trkpt>
      <trkpt lat="43.42964" lon="2.45721">
        <ele>1105</ele>
        <time>2018-04-22T11:01:36Z</time>
      </trkpt>
      <trkpt lat="43.4297" lon="2.45727">
        <ele>1105</ele>
        <time>2018-04-22T11:01:38Z</time>
      </trkpt>
      <trkpt lat="43.42972" lon="2.45729">
        <ele>1104</ele>
        <time>2018-04-22T11:01:39Z</time>
      </trkpt>
      <trkpt lat="43.42979" lon="2.45734">
        <ele>1104</ele>
        <time>2018-04-22T11:01:42Z</time>
      </trkpt>
      <trkpt lat="43.4298" lon="2.45735">
        <ele>1103</ele>
        <time>2018-04-22T11:01:43Z</time>
      </trkpt>
      <trkpt lat="43.42988" lon="2.45746">
        <ele>1102</ele>
        <time>2018-04-22T11:01:48Z</time>
      </trkpt>
      <trkpt lat="43.4299" lon="2.45748">
        <ele>1102</ele>
        <time>2018-04-22T11:01:49Z</time>
      </trkpt>
      <trkpt lat="43.42997" lon="2.45757">
        <ele>1100</ele>
        <time>2018-04-22T11:01:52Z</time>
      </trkpt>
      <trkpt lat="43.43002" lon="2.4576">
        <ele>1099</ele>
        <time>2018-04-22T11:01:54Z</time>
      </trkpt>
      <trkpt lat="43.43004" lon="2.45763">
        <ele>1099</ele>
        <time>2018-04-22T11:01:55Z</time>
      </trkpt>
      <trkpt lat="43.43008" lon="2.45768">
        <ele>1098</ele>
        <time>2018-04-22T11:01:57Z</time>
      </trkpt>
      <trkpt lat="43.43011" lon="2.45771">
        <ele>1097</ele>
        <time>2018-04-22T11:01:58Z</time>
      </trkpt>
      <trkpt lat="43.43013" lon="2.45772">
        <ele>1097</ele>
        <time>2018-04-22T11:01:59Z</time>
      </trkpt>
      <trkpt lat="43.4302" lon="2.45778">
        <ele>1095</ele>
        <time>2018-04-22T11:02:02Z</time>
      </trkpt>
      <trkpt lat="43.43022" lon="2.45777">
        <ele>1094</ele>
        <time>2018-04-22T11:02:03Z</time>
      </trkpt>
      <trkpt lat="43.43023" lon="2.45774">
        <ele>1094</ele>
        <time>2018-04-22T11:02:05Z</time>
      </trkpt>
      <trkpt lat="43.43025" lon="2.4577">
        <ele>1093</ele>
        <time>2018-04-22T11:02:08Z</time>
      </trkpt>
      <trkpt lat="43.43027" lon="2.45763">
        <ele>1093</ele>
        <time>2018-04-22T11:02:11Z</time>
      </trkpt>
      <trkpt lat="43.43026" lon="2.45755">
        <ele>1092</ele>
        <time>2018-04-22T11:02:13Z</time>
      </trkpt>
      <trkpt lat="43.43026" lon="2.4575">
        <ele>1091</ele>
        <time>2018-04-22T11:02:14Z</time>
      </trkpt>
      <trkpt lat="43.43026" lon="2.45746">
        <ele>1091</ele>
        <time>2018-04-22T11:02:15Z</time>
      </trkpt>
      <trkpt lat="43.43025" lon="2.4574">
        <ele>1089</ele>
        <time>2018-04-22T11:02:16Z</time>
      </trkpt>
      <trkpt lat="43.43027" lon="2.45724">
        <ele>1087</ele>
        <time>2018-04-22T11:02:20Z</time>
      </trkpt>
      <trkpt lat="43.43029" lon="2.45714">
        <ele>1086</ele>
        <time>2018-04-22T11:02:23Z</time>
      </trkpt>
      <trkpt lat="43.4303" lon="2.45707">
        <ele>1085</ele>
        <time>2018-04-22T11:02:25Z</time>
      </trkpt>
      <trkpt lat="43.4303" lon="2.45703">
        <ele>1085</ele>
        <time>2018-04-22T11:02:26Z</time>
      </trkpt>
      <trkpt lat="43.43031" lon="2.4569">
        <ele>1083</ele>
        <time>2018-04-22T11:02:29Z</time>
      </trkpt>
      <trkpt lat="43.43031" lon="2.45685">
        <ele>1082</ele>
        <time>2018-04-22T11:02:30Z</time>
      </trkpt>
      <trkpt lat="43.43031" lon="2.45681">
        <ele>1082</ele>
        <time>2018-04-22T11:02:31Z</time>
      </trkpt>
      <trkpt lat="43.43031" lon="2.45668">
        <ele>1081</ele>
        <time>2018-04-22T11:02:34Z</time>
      </trkpt>
      <trkpt lat="43.43032" lon="2.45662">
        <ele>1079</ele>
        <time>2018-04-22T11:02:36Z</time>
      </trkpt>
      <trkpt lat="43.43033" lon="2.45648">
        <ele>1078</ele>
        <time>2018-04-22T11:02:40Z</time>
      </trkpt>
      <trkpt lat="43.43034" lon="2.45645">
        <ele>1077</ele>
        <time>2018-04-22T11:02:41Z</time>
      </trkpt>
      <trkpt lat="43.43033" lon="2.45641">
        <ele>1076</ele>
        <time>2018-04-22T11:02:43Z</time>
      </trkpt>
      <trkpt lat="43.43033" lon="2.45637">
        <ele>1076</ele>
        <time>2018-04-22T11:02:46Z</time>
      </trkpt>
      <trkpt lat="43.43031" lon="2.45631">
        <ele>1076</ele>
        <time>2018-04-22T11:02:52Z</time>
      </trkpt>
      <trkpt lat="43.43031" lon="2.45627">
        <ele>1075</ele>
        <time>2018-04-22T11:02:54Z</time>
      </trkpt>
      <trkpt lat="43.43031" lon="2.45623">
        <ele>1075</ele>
        <time>2018-04-22T11:02:55Z</time>
      </trkpt>
      <trkpt lat="43.43032" lon="2.45616">
        <ele>1074</ele>
        <time>2018-04-22T11:02:57Z</time>
      </trkpt>
      <trkpt lat="43.43034" lon="2.45615">
        <ele>1073</ele>
        <time>2018-04-22T11:02:58Z</time>
      </trkpt>
      <trkpt lat="43.43036" lon="2.45614">
        <ele>1073</ele>
        <time>2018-04-22T11:02:59Z</time>
      </trkpt>
      <trkpt lat="43.43041" lon="2.45617">
        <ele>1071</ele>
        <time>2018-04-22T11:03:02Z</time>
      </trkpt>
      <trkpt lat="43.43049" lon="2.45624">
        <ele>1070</ele>
        <time>2018-04-22T11:03:05Z</time>
      </trkpt>
      <trkpt lat="43.43052" lon="2.45627">
        <ele>1070</ele>
        <time>2018-04-22T11:03:06Z</time>
      </trkpt>
      <trkpt lat="43.43055" lon="2.4563">
        <ele>1070</ele>
        <time>2018-04-22T11:03:07Z</time>
      </trkpt>
      <trkpt lat="43.43059" lon="2.45636">
        <ele>1069</ele>
        <time>2018-04-22T11:03:09Z</time>
      </trkpt>
      <trkpt lat="43.43063" lon="2.45641">
        <ele>1068</ele>
        <time>2018-04-22T11:03:11Z</time>
      </trkpt>
      <trkpt lat="43.43065" lon="2.45643">
        <ele>1067</ele>
        <time>2018-04-22T11:03:12Z</time>
      </trkpt>
      <trkpt lat="43.43068" lon="2.45644">
        <ele>1067</ele>
        <time>2018-04-22T11:03:13Z</time>
      </trkpt>
      <trkpt lat="43.43077" lon="2.45652">
        <ele>1065</ele>
        <time>2018-04-22T11:03:16Z</time>
      </trkpt>
      <trkpt lat="43.43081" lon="2.45655">
        <ele>1065</ele>
        <time>2018-04-22T11:03:17Z</time>
      </trkpt>
      <trkpt lat="43.43084" lon="2.45657">
        <ele>1064</ele>
        <time>2018-04-22T11:03:18Z</time>
      </trkpt>
      <trkpt lat="43.43091" lon="2.45663">
        <ele>1062</ele>
        <time>2018-04-22T11:03:20Z</time>
      </trkpt>
      <trkpt lat="43.43097" lon="2.45669">
        <ele>1061</ele>
        <time>2018-04-22T11:03:22Z</time>
      </trkpt>
      <trkpt lat="43.43112" lon="2.45683">
        <ele>1059</ele>
        <time>2018-04-22T11:03:27Z</time>
      </trkpt>
      <trkpt lat="43.43114" lon="2.45684">
        <ele>1059</ele>
        <time>2018-04-22T11:03:28Z</time>
      </trkpt>
      <trkpt lat="43.43118" lon="2.45684">
        <ele>1058</ele>
        <time>2018-04-22T11:03:30Z</time>
      </trkpt>
      <trkpt lat="43.4312" lon="2.45678">
        <ele>1056</ele>
        <time>2018-04-22T11:03:32Z</time>
      </trkpt>
      <trkpt lat="43.43119" lon="2.45674">
        <ele>1055</ele>
        <time>2018-04-22T11:03:33Z</time>
      </trkpt>
      <trkpt lat="43.43117" lon="2.4567">
        <ele>1055</ele>
        <time>2018-04-22T11:03:34Z</time>
      </trkpt>
      <trkpt lat="43.43115" lon="2.4566">
        <ele>1053</ele>
        <time>2018-04-22T11:03:36Z</time>
      </trkpt>
      <trkpt lat="43.43116" lon="2.45656">
        <ele>1052</ele>
        <time>2018-04-22T11:03:37Z</time>
      </trkpt>
      <trkpt lat="43.43116" lon="2.45649">
        <ele>1051</ele>
        <time>2018-04-22T11:03:38Z</time>
      </trkpt>
      <trkpt lat="43.43115" lon="2.45644">
        <ele>1051</ele>
        <time>2018-04-22T11:03:39Z</time>
      </trkpt>
      <trkpt lat="43.43113" lon="2.4563">
        <ele>1051</ele>
        <time>2018-04-22T11:03:41Z</time>
      </trkpt>
      <trkpt lat="43.43112" lon="2.45624">
        <ele>1050</ele>
        <time>2018-04-22T11:03:42Z</time>
      </trkpt>
      <trkpt lat="43.4311" lon="2.45619">
        <ele>1049</ele>
        <time>2018-04-22T11:03:43Z</time>
      </trkpt>
      <trkpt lat="43.43109" lon="2.45615">
        <ele>1049</ele>
        <time>2018-04-22T11:03:44Z</time>
      </trkpt>
      <trkpt lat="43.43108" lon="2.45612">
        <ele>1048</ele>
        <time>2018-04-22T11:03:45Z</time>
      </trkpt>
      <trkpt lat="43.43107" lon="2.45609">
        <ele>1048</ele>
        <time>2018-04-22T11:03:46Z</time>
      </trkpt>
      <trkpt lat="43.43104" lon="2.45602">
        <ele>1047</ele>
        <time>2018-04-22T11:03:49Z</time>
      </trkpt>
      <trkpt lat="43.43104" lon="2.45599">
        <ele>1047</ele>
        <time>2018-04-22T11:03:50Z</time>
      </trkpt>
      <trkpt lat="43.43105" lon="2.45597">
        <ele>1046</ele>
        <time>2018-04-22T11:03:51Z</time>
      </trkpt>
      <trkpt lat="43.43107" lon="2.45597">
        <ele>1046</ele>
        <time>2018-04-22T11:03:52Z</time>
      </trkpt>
      <trkpt lat="43.43113" lon="2.45603">
        <ele>1045</ele>
        <time>2018-04-22T11:03:55Z</time>
      </trkpt>
      <trkpt lat="43.43117" lon="2.45606">
        <ele>1044</ele>
        <time>2018-04-22T11:03:56Z</time>
      </trkpt>
      <trkpt lat="43.4312" lon="2.45608">
        <ele>1043</ele>
        <time>2018-04-22T11:03:57Z</time>
      </trkpt>
      <trkpt lat="43.43126" lon="2.45611">
        <ele>1042</ele>
        <time>2018-04-22T11:03:59Z</time>
      </trkpt>
      <trkpt lat="43.43128" lon="2.45613">
        <ele>1042</ele>
        <time>2018-04-22T11:04:00Z</time>
      </trkpt>
      <trkpt lat="43.4313" lon="2.45617">
        <ele>1042</ele>
        <time>2018-04-22T11:04:01Z</time>
      </trkpt>
      <trkpt lat="43.43137" lon="2.45622">
        <ele>1041</ele>
        <time>2018-04-22T11:04:03Z</time>
      </trkpt>
      <trkpt lat="43.43141" lon="2.45625">
        <ele>1041</ele>
        <time>2018-04-22T11:04:04Z</time>
      </trkpt>
      <trkpt lat="43.43144" lon="2.45627">
        <ele>1040</ele>
        <time>2018-04-22T11:04:05Z</time>
      </trkpt>
      <trkpt lat="43.43146" lon="2.45629">
        <ele>1039</ele>
        <time>2018-04-22T11:04:06Z</time>
      </trkpt>
      <trkpt lat="43.43152" lon="2.45635">
        <ele>1038</ele>
        <time>2018-04-22T11:04:08Z</time>
      </trkpt>
      <trkpt lat="43.43159" lon="2.45642">
        <ele>1037</ele>
        <time>2018-04-22T11:04:10Z</time>
      </trkpt>
      <trkpt lat="43.43164" lon="2.45646">
        <ele>1036</ele>
        <time>2018-04-22T11:04:12Z</time>
      </trkpt>
      <trkpt lat="43.43167" lon="2.45648">
        <ele>1035</ele>
        <time>2018-04-22T11:04:13Z</time>
      </trkpt>
      <trkpt lat="43.43175" lon="2.45657">
        <ele>1033</ele>
        <time>2018-04-22T11:04:16Z</time>
      </trkpt>
      <trkpt lat="43.43183" lon="2.45664">
        <ele>1032</ele>
        <time>2018-04-22T11:04:18Z</time>
      </trkpt>
      <trkpt lat="43.43195" lon="2.45679">
        <ele>1030</ele>
        <time>2018-04-22T11:04:21Z</time>
      </trkpt>
      <trkpt lat="43.43202" lon="2.45688">
        <ele>1029</ele>
        <time>2018-04-22T11:04:23Z</time>
      </trkpt>
      <trkpt lat="43.43205" lon="2.45691">
        <ele>1028</ele>
        <time>2018-04-22T11:04:24Z</time>
      </trkpt>
      <trkpt lat="43.43206" lon="2.45694">
        <ele>1027</ele>
        <time>2018-04-22T11:04:25Z</time>
      </trkpt>
      <trkpt lat="43.43208" lon="2.45695">
        <ele>1027</ele>
        <time>2018-04-22T11:04:26Z</time>
      </trkpt>
      <trkpt lat="43.43211" lon="2.45694">
        <ele>1026</ele>
        <time>2018-04-22T11:04:28Z</time>
      </trkpt>
      <trkpt lat="43.43213" lon="2.45688">
        <ele>1026</ele>
        <time>2018-04-22T11:04:30Z</time>
      </trkpt>
      <trkpt lat="43.43216" lon="2.45684">
        <ele>1026</ele>
        <time>2018-04-22T11:04:31Z</time>
      </trkpt>
      <trkpt lat="43.43219" lon="2.45679">
        <ele>1025</ele>
        <time>2018-04-22T11:04:32Z</time>
      </trkpt>
      <trkpt lat="43.43218" lon="2.45675">
        <ele>1024</ele>
        <time>2018-04-22T11:04:33Z</time>
      </trkpt>
      <trkpt lat="43.43219" lon="2.45669">
        <ele>1023</ele>
        <time>2018-04-22T11:04:34Z</time>
      </trkpt>
      <trkpt lat="43.43219" lon="2.45665">
        <ele>1023</ele>
        <time>2018-04-22T11:04:35Z</time>
      </trkpt>
      <trkpt lat="43.43218" lon="2.45661">
        <ele>1022</ele>
        <time>2018-04-22T11:04:36Z</time>
      </trkpt>
      <trkpt lat="43.43215" lon="2.45652">
        <ele>1021</ele>
        <time>2018-04-22T11:04:39Z</time>
      </trkpt>
      <trkpt lat="43.43214" lon="2.45644">
        <ele>1019</ele>
        <time>2018-04-22T11:04:41Z</time>
      </trkpt>
      <trkpt lat="43.43215" lon="2.45637">
        <ele>1018</ele>
        <time>2018-04-22T11:04:43Z</time>
      </trkpt>
      <trkpt lat="43.43214" lon="2.45626">
        <ele>1017</ele>
        <time>2018-04-22T11:04:45Z</time>
      </trkpt>
      <trkpt lat="43.43215" lon="2.45621">
        <ele>1015</ele>
        <time>2018-04-22T11:04:46Z</time>
      </trkpt>
      <trkpt lat="43.43212" lon="2.45614">
        <ele>1014</ele>
        <time>2018-04-22T11:04:48Z</time>
      </trkpt>
      <trkpt lat="43.43211" lon="2.45609">
        <ele>1013</ele>
        <time>2018-04-22T11:04:49Z</time>
      </trkpt>
      <trkpt lat="43.4321" lon="2.45605">
        <ele>1013</ele>
        <time>2018-04-22T11:04:50Z</time>
      </trkpt>
      <trkpt lat="43.43209" lon="2.45595">
        <ele>1012</ele>
        <time>2018-04-22T11:04:53Z</time>
      </trkpt>
      <trkpt lat="43.43208" lon="2.45591">
        <ele>1012</ele>
        <time>2018-04-22T11:04:54Z</time>
      </trkpt>
      <trkpt lat="43.43208" lon="2.45582">
        <ele>1010</ele>
        <time>2018-04-22T11:04:57Z</time>
      </trkpt>
      <trkpt lat="43.43207" lon="2.45577">
        <ele>1009</ele>
        <time>2018-04-22T11:04:58Z</time>
      </trkpt>
      <trkpt lat="43.43207" lon="2.45574">
        <ele>1008</ele>
        <time>2018-04-22T11:04:59Z</time>
      </trkpt>
      <trkpt lat="43.43206" lon="2.45571">
        <ele>1007</ele>
        <time>2018-04-22T11:05:00Z</time>
      </trkpt>
      <trkpt lat="43.43208" lon="2.4557">
        <ele>1006</ele>
        <time>2018-04-22T11:05:03Z</time>
      </trkpt>
      <trkpt lat="43.43209" lon="2.45571">
        <ele>1006</ele>
        <time>2018-04-22T11:05:04Z</time>
      </trkpt>
      <trkpt lat="43.43212" lon="2.45576">
        <ele>1004</ele>
        <time>2018-04-22T11:05:06Z</time>
      </trkpt>
      <trkpt lat="43.43214" lon="2.45578">
        <ele>1004</ele>
        <time>2018-04-22T11:05:07Z</time>
      </trkpt>
      <trkpt lat="43.43217" lon="2.45581">
        <ele>1003</ele>
        <time>2018-04-22T11:05:08Z</time>
      </trkpt>
      <trkpt lat="43.43223" lon="2.45584">
        <ele>1002</ele>
        <time>2018-04-22T11:05:10Z</time>
      </trkpt>
      <trkpt lat="43.43229" lon="2.45589">
        <ele>1002</ele>
        <time>2018-04-22T11:05:12Z</time>
      </trkpt>
      <trkpt lat="43.43232" lon="2.45591">
        <ele>1001</ele>
        <time>2018-04-22T11:05:13Z</time>
      </trkpt>
      <trkpt lat="43.43238" lon="2.45597">
        <ele>999</ele>
        <time>2018-04-22T11:05:15Z</time>
      </trkpt>
      <trkpt lat="43.43245" lon="2.45601">
        <ele>999</ele>
        <time>2018-04-22T11:05:17Z</time>
      </trkpt>
      <trkpt lat="43.43247" lon="2.45604">
        <ele>998</ele>
        <time>2018-04-22T11:05:18Z</time>
      </trkpt>
      <trkpt lat="43.43255" lon="2.45613">
        <ele>997</ele>
        <time>2018-04-22T11:05:21Z</time>
      </trkpt>
      <trkpt lat="43.43259" lon="2.45617">
        <ele>996</ele>
        <time>2018-04-22T11:05:22Z</time>
      </trkpt>
      <trkpt lat="43.43261" lon="2.4562">
        <ele>995</ele>
        <time>2018-04-22T11:05:23Z</time>
      </trkpt>
      <trkpt lat="43.43267" lon="2.45626">
        <ele>994</ele>
        <time>2018-04-22T11:05:26Z</time>
      </trkpt>
      <trkpt lat="43.43268" lon="2.45629">
        <ele>994</ele>
        <time>2018-04-22T11:05:27Z</time>
      </trkpt>
      <trkpt lat="43.4327" lon="2.4563">
        <ele>992</ele>
        <time>2018-04-22T11:05:29Z</time>
      </trkpt>
      <trkpt lat="43.4327" lon="2.45631">
        <ele>992</ele>
        <time>2018-04-22T11:05:30Z</time>
      </trkpt>
      <trkpt lat="43.43271" lon="2.45632">
        <ele>991</ele>
        <time>2018-04-22T11:05:31Z</time>
      </trkpt>
      <trkpt lat="43.43272" lon="2.45632">
        <ele>990</ele>
        <time>2018-04-22T11:05:33Z</time>
      </trkpt>
      <trkpt lat="43.43274" lon="2.45634">
        <ele>989</ele>
        <time>2018-04-22T11:05:36Z</time>
      </trkpt>
      <trkpt lat="43.43275" lon="2.45635">
        <ele>989</ele>
        <time>2018-04-22T11:05:42Z</time>
      </trkpt>
      <trkpt lat="43.43275" lon="2.45635">
        <ele>989</ele>
        <time>2018-04-22T11:05:47Z</time>
      </trkpt>
      <trkpt lat="43.43276" lon="2.45635">
        <ele>989</ele>
        <time>2018-04-22T11:05:56Z</time>
      </trkpt>
      <trkpt lat="43.43276" lon="2.45636">
        <ele>989</ele>
        <time>2018-04-22T11:06:00Z</time>
      </trkpt>
      <trkpt lat="43.43276" lon="2.45636">
        <ele>989</ele>
        <time>2018-04-22T11:06:02Z</time>
      </trkpt>
      <trkpt lat="43.43277" lon="2.45635">
        <ele>988</ele>
        <time>2018-04-22T11:06:15Z</time>
      </trkpt>
      <trkpt lat="43.43277" lon="2.45633">
        <ele>988</ele>
        <time>2018-04-22T11:06:23Z</time>
      </trkpt>
      <trkpt lat="43.43278" lon="2.45632">
        <ele>989</ele>
        <time>2018-04-22T11:06:30Z</time>
      </trkpt>
      <trkpt lat="43.43278" lon="2.45632">
        <ele>989</ele>
        <time>2018-04-22T11:06:43Z</time>
      </trkpt>
      <trkpt lat="43.43277" lon="2.45633">
        <ele>989</ele>
        <time>2018-04-22T11:06:47Z</time>
      </trkpt>
      <trkpt lat="43.43277" lon="2.45633">
        <ele>988</ele>
        <time>2018-04-22T11:06:52Z</time>
      </trkpt>
      <trkpt lat="43.43278" lon="2.45633">
        <ele>988</ele>
        <time>2018-04-22T11:07:01Z</time>
      </trkpt>
      <trkpt lat="43.43278" lon="2.45633">
        <ele>988</ele>
        <time>2018-04-22T11:07:07Z</time>
      </trkpt>
      <trkpt lat="43.43279" lon="2.45632">
        <ele>989</ele>
        <time>2018-04-22T11:07:14Z</time>
      </trkpt>
      <trkpt lat="43.43279" lon="2.45633">
        <ele>989</ele>
        <time>2018-04-22T11:07:17Z</time>
      </trkpt>
      <trkpt lat="43.43279" lon="2.45633">
        <ele>989</ele>
        <time>2018-04-22T11:07:20Z</time>
      </trkpt>
      <trkpt lat="43.43279" lon="2.45633">
        <ele>989</ele>
        <time>2018-04-22T11:07:23Z</time>
      </trkpt>
      <trkpt lat="43.4328" lon="2.45632">
        <ele>989</ele>
        <time>2018-04-22T11:07:28Z</time>
      </trkpt>
      <trkpt lat="43.4328" lon="2.45631">
        <ele>988</ele>
        <time>2018-04-22T11:07:30Z</time>
      </trkpt>
      <trkpt lat="43.43281" lon="2.45629">
        <ele>988</ele>
        <time>2018-04-22T11:07:31Z</time>
      </trkpt>
      <trkpt lat="43.43287" lon="2.45628">
        <ele>988</ele>
        <time>2018-04-22T11:07:37Z</time>
      </trkpt>
      <trkpt lat="43.4329" lon="2.45626">
        <ele>987</ele>
        <time>2018-04-22T11:07:43Z</time>
      </trkpt>
      <trkpt lat="43.43289" lon="2.45624">
        <ele>988</ele>
        <time>2018-04-22T11:07:48Z</time>
      </trkpt>
      <trkpt lat="43.43289" lon="2.45623">
        <ele>988</ele>
        <time>2018-04-22T11:07:53Z</time>
      </trkpt>
      <trkpt lat="43.4329" lon="2.45622">
        <ele>988</ele>
        <time>2018-04-22T11:07:54Z</time>
      </trkpt>
      <trkpt lat="43.43292" lon="2.45623">
        <ele>988</ele>
        <time>2018-04-22T11:07:59Z</time>
      </trkpt>
      <trkpt lat="43.43296" lon="2.45627">
        <ele>988</ele>
        <time>2018-04-22T11:08:05Z</time>
      </trkpt>
      <trkpt lat="43.43298" lon="2.45629">
        <ele>988</ele>
        <time>2018-04-22T11:08:07Z</time>
      </trkpt>
      <trkpt lat="43.43302" lon="2.45632">
        <ele>989</ele>
        <time>2018-04-22T11:08:13Z</time>
      </trkpt>
      <trkpt lat="43.43303" lon="2.45633">
        <ele>989</ele>
        <time>2018-04-22T11:08:14Z</time>
      </trkpt>
      <trkpt lat="43.43305" lon="2.45638">
        <ele>990</ele>
        <time>2018-04-22T11:08:21Z</time>
      </trkpt>
      <trkpt lat="43.43305" lon="2.4564">
        <ele>990</ele>
        <time>2018-04-22T11:08:23Z</time>
      </trkpt>
      <trkpt lat="43.43307" lon="2.45642">
        <ele>990</ele>
        <time>2018-04-22T11:08:30Z</time>
      </trkpt>
      <trkpt lat="43.43308" lon="2.45642">
        <ele>990</ele>
        <time>2018-04-22T11:08:33Z</time>
      </trkpt>
      <trkpt lat="43.4331" lon="2.45643">
        <ele>990</ele>
        <time>2018-04-22T11:08:39Z</time>
      </trkpt>
      <trkpt lat="43.43313" lon="2.4564">
        <ele>991</ele>
        <time>2018-04-22T11:08:45Z</time>
      </trkpt>
      <trkpt lat="43.43315" lon="2.45639">
        <ele>991</ele>
        <time>2018-04-22T11:08:48Z</time>
      </trkpt>
      <trkpt lat="43.43317" lon="2.45638">
        <ele>992</ele>
        <time>2018-04-22T11:08:54Z</time>
      </trkpt>
      <trkpt lat="43.43317" lon="2.45638">
        <ele>992</ele>
        <time>2018-04-22T11:08:55Z</time>
      </trkpt>
      <trkpt lat="43.43317" lon="2.45639">
        <ele>993</ele>
        <time>2018-04-22T11:08:57Z</time>
      </trkpt>
      <trkpt lat="43.43319" lon="2.4564">
        <ele>994</ele>
        <time>2018-04-22T11:09:03Z</time>
      </trkpt>
      <trkpt lat="43.43322" lon="2.45648">
        <ele>994</ele>
        <time>2018-04-22T11:09:11Z</time>
      </trkpt>
      <trkpt lat="43.43323" lon="2.45651">
        <ele>995</ele>
        <time>2018-04-22T11:09:13Z</time>
      </trkpt>
      <trkpt lat="43.43324" lon="2.45654">
        <ele>995</ele>
        <time>2018-04-22T11:09:15Z</time>
      </trkpt>
      <trkpt lat="43.43325" lon="2.45658">
        <ele>995</ele>
        <time>2018-04-22T11:09:18Z</time>
      </trkpt>
      <trkpt lat="43.43325" lon="2.45666">
        <ele>996</ele>
        <time>2018-04-22T11:09:23Z</time>
      </trkpt>
      <trkpt lat="43.43328" lon="2.45672">
        <ele>996</ele>
        <time>2018-04-22T11:09:26Z</time>
      </trkpt>
      <trkpt lat="43.43329" lon="2.45674">
        <ele>996</ele>
        <time>2018-04-22T11:09:27Z</time>
      </trkpt>
      <trkpt lat="43.43332" lon="2.45681">
        <ele>996</ele>
        <time>2018-04-22T11:09:31Z</time>
      </trkpt>
      <trkpt lat="43.43333" lon="2.45687">
        <ele>997</ele>
        <time>2018-04-22T11:09:34Z</time>
      </trkpt>
      <trkpt lat="43.43336" lon="2.4569">
        <ele>997</ele>
        <time>2018-04-22T11:09:40Z</time>
      </trkpt>
      <trkpt lat="43.43339" lon="2.45694">
        <ele>998</ele>
        <time>2018-04-22T11:09:45Z</time>
      </trkpt>
      <trkpt lat="43.43344" lon="2.45697">
        <ele>999</ele>
        <time>2018-04-22T11:09:50Z</time>
      </trkpt>
      <trkpt lat="43.43347" lon="2.457">
        <ele>999</ele>
        <time>2018-04-22T11:09:57Z</time>
      </trkpt>
      <trkpt lat="43.43349" lon="2.45701">
        <ele>999</ele>
        <time>2018-04-22T11:10:00Z</time>
      </trkpt>
      <trkpt lat="43.43355" lon="2.45704">
        <ele>1001</ele>
        <time>2018-04-22T11:10:09Z</time>
      </trkpt>
      <trkpt lat="43.43359" lon="2.45708">
        <ele>1002</ele>
        <time>2018-04-22T11:10:17Z</time>
      </trkpt>
      <trkpt lat="43.4336" lon="2.45709">
        <ele>1002</ele>
        <time>2018-04-22T11:10:20Z</time>
      </trkpt>
      <trkpt lat="43.43363" lon="2.4571">
        <ele>1003</ele>
        <time>2018-04-22T11:10:26Z</time>
      </trkpt>
      <trkpt lat="43.43363" lon="2.4571">
        <ele>1003</ele>
        <time>2018-04-22T11:10:29Z</time>
      </trkpt>
      <trkpt lat="43.43365" lon="2.4571">
        <ele>1004</ele>
        <time>2018-04-22T11:10:34Z</time>
      </trkpt>
      <trkpt lat="43.43365" lon="2.45711">
        <ele>1005</ele>
        <time>2018-04-22T11:10:39Z</time>
      </trkpt>
      <trkpt lat="43.43365" lon="2.45711">
        <ele>1005</ele>
        <time>2018-04-22T11:10:43Z</time>
      </trkpt>
      <trkpt lat="43.43367" lon="2.45713">
        <ele>1006</ele>
        <time>2018-04-22T11:10:48Z</time>
      </trkpt>
      <trkpt lat="43.43367" lon="2.45714">
        <ele>1006</ele>
        <time>2018-04-22T11:10:49Z</time>
      </trkpt>
      <trkpt lat="43.4337" lon="2.45716">
        <ele>1007</ele>
        <time>2018-04-22T11:10:56Z</time>
      </trkpt>
      <trkpt lat="43.43371" lon="2.45717">
        <ele>1007</ele>
        <time>2018-04-22T11:10:58Z</time>
      </trkpt>
      <trkpt lat="43.43371" lon="2.45718">
        <ele>1008</ele>
        <time>2018-04-22T11:11:01Z</time>
      </trkpt>
      <trkpt lat="43.43374" lon="2.4572">
        <ele>1009</ele>
        <time>2018-04-22T11:11:06Z</time>
      </trkpt>
      <trkpt lat="43.43375" lon="2.4572">
        <ele>1009</ele>
        <time>2018-04-22T11:11:10Z</time>
      </trkpt>
      <trkpt lat="43.43377" lon="2.45723">
        <ele>1011</ele>
        <time>2018-04-22T11:11:16Z</time>
      </trkpt>
      <trkpt lat="43.4338" lon="2.45728">
        <ele>1012</ele>
        <time>2018-04-22T11:11:23Z</time>
      </trkpt>
      <trkpt lat="43.4338" lon="2.4573">
        <ele>1012</ele>
        <time>2018-04-22T11:11:26Z</time>
      </trkpt>
      <trkpt lat="43.43382" lon="2.45733">
        <ele>1013</ele>
        <time>2018-04-22T11:11:32Z</time>
      </trkpt>
      <trkpt lat="43.43384" lon="2.45737">
        <ele>1014</ele>
        <time>2018-04-22T11:11:37Z</time>
      </trkpt>
      <trkpt lat="43.43387" lon="2.45743">
        <ele>1015</ele>
        <time>2018-04-22T11:11:47Z</time>
      </trkpt>
      <trkpt lat="43.43388" lon="2.45745">
        <ele>1015</ele>
        <time>2018-04-22T11:11:50Z</time>
      </trkpt>
      <trkpt lat="43.43391" lon="2.4575">
        <ele>1016</ele>
        <time>2018-04-22T11:11:56Z</time>
      </trkpt>
      <trkpt lat="43.43397" lon="2.45752">
        <ele>1017</ele>
        <time>2018-04-22T11:12:02Z</time>
      </trkpt>
      <trkpt lat="43.434" lon="2.45753">
        <ele>1017</ele>
        <time>2018-04-22T11:12:05Z</time>
      </trkpt>
      <trkpt lat="43.43403" lon="2.45754">
        <ele>1018</ele>
        <time>2018-04-22T11:12:10Z</time>
      </trkpt>
      <trkpt lat="43.43405" lon="2.45754">
        <ele>1019</ele>
        <time>2018-04-22T11:12:15Z</time>
      </trkpt>
      <trkpt lat="43.43407" lon="2.45754">
        <ele>1019</ele>
        <time>2018-04-22T11:12:18Z</time>
      </trkpt>
      <trkpt lat="43.43409" lon="2.45756">
        <ele>1020</ele>
        <time>2018-04-22T11:12:26Z</time>
      </trkpt>
      <trkpt lat="43.43411" lon="2.45756">
        <ele>1022</ele>
        <time>2018-04-22T11:12:31Z</time>
      </trkpt>
      <trkpt lat="43.43413" lon="2.45755">
        <ele>1023</ele>
        <time>2018-04-22T11:12:35Z</time>
      </trkpt>
      <trkpt lat="43.43414" lon="2.45754">
        <ele>1023</ele>
        <time>2018-04-22T11:12:36Z</time>
      </trkpt>
      <trkpt lat="43.43417" lon="2.45754">
        <ele>1024</ele>
        <time>2018-04-22T11:12:43Z</time>
      </trkpt>
      <trkpt lat="43.43419" lon="2.45754">
        <ele>1024</ele>
        <time>2018-04-22T11:12:47Z</time>
      </trkpt>
      <trkpt lat="43.43421" lon="2.45754">
        <ele>1025</ele>
        <time>2018-04-22T11:12:50Z</time>
      </trkpt>
      <trkpt lat="43.43425" lon="2.45753">
        <ele>1026</ele>
        <time>2018-04-22T11:12:55Z</time>
      </trkpt>
      <trkpt lat="43.43426" lon="2.45752">
        <ele>1026</ele>
        <time>2018-04-22T11:12:57Z</time>
      </trkpt>
      <trkpt lat="43.43431" lon="2.45755">
        <ele>1026</ele>
        <time>2018-04-22T11:13:05Z</time>
      </trkpt>
      <trkpt lat="43.43431" lon="2.45755">
        <ele>1027</ele>
        <time>2018-04-22T11:13:23Z</time>
      </trkpt>
      <trkpt lat="43.43431" lon="2.45755">
        <ele>1027</ele>
        <time>2018-04-22T11:13:30Z</time>
      </trkpt>
      <trkpt lat="43.43431" lon="2.45755">
        <ele>1028</ele>
        <time>2018-04-22T11:13:39Z</time>
      </trkpt>
      <trkpt lat="43.43431" lon="2.45755">
        <ele>1028</ele>
        <time>2018-04-22T11:13:43Z</time>
      </trkpt>
      <trkpt lat="43.43431" lon="2.45755">
        <ele>1027</ele>
        <time>2018-04-22T11:13:45Z</time>
      </trkpt>
      <trkpt lat="43.43431" lon="2.45755">
        <ele>1026</ele>
        <time>2018-04-22T11:13:48Z</time>
      </trkpt>
      <trkpt lat="43.43431" lon="2.45755">
        <ele>1027</ele>
        <time>2018-04-22T11:13:57Z</time>
      </trkpt>
      <trkpt lat="43.43431" lon="2.45756">
        <ele>1027</ele>
        <time>2018-04-22T11:14:03Z</time>
      </trkpt>
      <trkpt lat="43.43431" lon="2.45755">
        <ele>1027</ele>
        <time>2018-04-22T11:14:04Z</time>
      </trkpt>
      <trkpt lat="43.43431" lon="2.45755">
        <ele>1027</ele>
        <time>2018-04-22T11:14:06Z</time>
      </trkpt>
      <trkpt lat="43.43431" lon="2.45755">
        <ele>1027</ele>
        <time>2018-04-22T11:14:08Z</time>
      </trkpt>
      <trkpt lat="43.43431" lon="2.45755">
        <ele>1027</ele>
        <time>2018-04-22T11:14:14Z</time>
      </trkpt>
      <trkpt lat="43.43431" lon="2.45756">
        <ele>1027</ele>
        <time>2018-04-22T11:14:31Z</time>
      </trkpt>
      <trkpt lat="43.43433" lon="2.45757">
        <ele>1027</ele>
        <time>2018-04-22T11:14:35Z</time>
      </trkpt>
      <trkpt lat="43.43437" lon="2.45762">
        <ele>1027</ele>
        <time>2018-04-22T11:14:38Z</time>
      </trkpt>
      <trkpt lat="43.4344" lon="2.4577">
        <ele>1027</ele>
        <time>2018-04-22T11:14:42Z</time>
      </trkpt>
      <trkpt lat="43.43441" lon="2.45771">
        <ele>1027</ele>
        <time>2018-04-22T11:14:43Z</time>
      </trkpt>
      <trkpt lat="43.43446" lon="2.45786">
        <ele>1028</ele>
        <time>2018-04-22T11:14:49Z</time>
      </trkpt>
      <trkpt lat="43.43447" lon="2.45789">
        <ele>1028</ele>
        <time>2018-04-22T11:14:50Z</time>
      </trkpt>
      <trkpt lat="43.43447" lon="2.45791">
        <ele>1028</ele>
        <time>2018-04-22T11:14:51Z</time>
      </trkpt>
      <trkpt lat="43.43445" lon="2.45795">
        <ele>1029</ele>
        <time>2018-04-22T11:14:53Z</time>
      </trkpt>
      <trkpt lat="43.43443" lon="2.45808">
        <ele>1029</ele>
        <time>2018-04-22T11:14:59Z</time>
      </trkpt>
      <trkpt lat="43.43437" lon="2.45818">
        <ele>1030</ele>
        <time>2018-04-22T11:15:06Z</time>
      </trkpt>
      <trkpt lat="43.43432" lon="2.45824">
        <ele>1030</ele>
        <time>2018-04-22T11:15:10Z</time>
      </trkpt>
      <trkpt lat="43.43428" lon="2.45826">
        <ele>1031</ele>
        <time>2018-04-22T11:15:12Z</time>
      </trkpt>
      <trkpt lat="43.43421" lon="2.45831">
        <ele>1032</ele>
        <time>2018-04-22T11:15:16Z</time>
      </trkpt>
      <trkpt lat="43.43417" lon="2.45832">
        <ele>1032</ele>
        <time>2018-04-22T11:15:18Z</time>
      </trkpt>
      <trkpt lat="43.43411" lon="2.45836">
        <ele>1032</ele>
        <time>2018-04-22T11:15:21Z</time>
      </trkpt>
      <trkpt lat="43.43407" lon="2.45838">
        <ele>1032</ele>
        <time>2018-04-22T11:15:23Z</time>
      </trkpt>
      <trkpt lat="43.43403" lon="2.4584">
        <ele>1032</ele>
        <time>2018-04-22T11:15:25Z</time>
      </trkpt>
      <trkpt lat="43.43397" lon="2.45845">
        <ele>1032</ele>
        <time>2018-04-22T11:15:28Z</time>
      </trkpt>
      <trkpt lat="43.43394" lon="2.45848">
        <ele>1033</ele>
        <time>2018-04-22T11:15:30Z</time>
      </trkpt>
      <trkpt lat="43.4339" lon="2.45854">
        <ele>1033</ele>
        <time>2018-04-22T11:15:33Z</time>
      </trkpt>
      <trkpt lat="43.43387" lon="2.45859">
        <ele>1034</ele>
        <time>2018-04-22T11:15:35Z</time>
      </trkpt>
      <trkpt lat="43.43385" lon="2.45863">
        <ele>1034</ele>
        <time>2018-04-22T11:15:37Z</time>
      </trkpt>
      <trkpt lat="43.43381" lon="2.45868">
        <ele>1034</ele>
        <time>2018-04-22T11:15:39Z</time>
      </trkpt>
      <trkpt lat="43.43377" lon="2.45877">
        <ele>1035</ele>
        <time>2018-04-22T11:15:43Z</time>
      </trkpt>
      <trkpt lat="43.43375" lon="2.45881">
        <ele>1035</ele>
        <time>2018-04-22T11:15:45Z</time>
      </trkpt>
      <trkpt lat="43.43369" lon="2.45896">
        <ele>1036</ele>
        <time>2018-04-22T11:15:51Z</time>
      </trkpt>
      <trkpt lat="43.43368" lon="2.45898">
        <ele>1036</ele>
        <time>2018-04-22T11:15:52Z</time>
      </trkpt>
      <trkpt lat="43.43363" lon="2.45905">
        <ele>1037</ele>
        <time>2018-04-22T11:15:55Z</time>
      </trkpt>
      <trkpt lat="43.4336" lon="2.45911">
        <ele>1037</ele>
        <time>2018-04-22T11:15:58Z</time>
      </trkpt>
      <trkpt lat="43.43354" lon="2.45929">
        <ele>1037</ele>
        <time>2018-04-22T11:16:05Z</time>
      </trkpt>
      <trkpt lat="43.43351" lon="2.4594">
        <ele>1039</ele>
        <time>2018-04-22T11:16:09Z</time>
      </trkpt>
      <trkpt lat="43.43349" lon="2.45945">
        <ele>1039</ele>
        <time>2018-04-22T11:16:11Z</time>
      </trkpt>
      <trkpt lat="43.43348" lon="2.45953">
        <ele>1040</ele>
        <time>2018-04-22T11:16:14Z</time>
      </trkpt>
      <trkpt lat="43.43351" lon="2.45966">
        <ele>1039</ele>
        <time>2018-04-22T11:16:18Z</time>
      </trkpt>
      <trkpt lat="43.43355" lon="2.45985">
        <ele>1039</ele>
        <time>2018-04-22T11:16:24Z</time>
      </trkpt>
      <trkpt lat="43.43358" lon="2.45997">
        <ele>1041</ele>
        <time>2018-04-22T11:16:28Z</time>
      </trkpt>
      <trkpt lat="43.43361" lon="2.4601">
        <ele>1041</ele>
        <time>2018-04-22T11:16:32Z</time>
      </trkpt>
      <trkpt lat="43.43363" lon="2.46015">
        <ele>1042</ele>
        <time>2018-04-22T11:16:34Z</time>
      </trkpt>
      <trkpt lat="43.43365" lon="2.46024">
        <ele>1042</ele>
        <time>2018-04-22T11:16:37Z</time>
      </trkpt>
      <trkpt lat="43.43367" lon="2.46033">
        <ele>1043</ele>
        <time>2018-04-22T11:16:40Z</time>
      </trkpt>
      <trkpt lat="43.43372" lon="2.46038">
        <ele>1044</ele>
        <time>2018-04-22T11:16:43Z</time>
      </trkpt>
      <trkpt lat="43.43378" lon="2.46037">
        <ele>1044</ele>
        <time>2018-04-22T11:16:45Z</time>
      </trkpt>
      <trkpt lat="43.4338" lon="2.46033">
        <ele>1045</ele>
        <time>2018-04-22T11:16:47Z</time>
      </trkpt>
      <trkpt lat="43.43377" lon="2.46024">
        <ele>1045</ele>
        <time>2018-04-22T11:16:51Z</time>
      </trkpt>
      <trkpt lat="43.43375" lon="2.46021">
        <ele>1045</ele>
        <time>2018-04-22T11:16:52Z</time>
      </trkpt>
      <trkpt lat="43.43371" lon="2.46001">
        <ele>1046</ele>
        <time>2018-04-22T11:16:57Z</time>
      </trkpt>
      <trkpt lat="43.43369" lon="2.45983">
        <ele>1046</ele>
        <time>2018-04-22T11:17:03Z</time>
      </trkpt>
      <trkpt lat="43.43372" lon="2.45969">
        <ele>1047</ele>
        <time>2018-04-22T11:17:09Z</time>
      </trkpt>
      <trkpt lat="43.43381" lon="2.45955">
        <ele>1047</ele>
        <time>2018-04-22T11:17:15Z</time>
      </trkpt>
      <trkpt lat="43.43385" lon="2.45951">
        <ele>1048</ele>
        <time>2018-04-22T11:17:17Z</time>
      </trkpt>
      <trkpt lat="43.43391" lon="2.45945">
        <ele>1048</ele>
        <time>2018-04-22T11:17:21Z</time>
      </trkpt>
      <trkpt lat="43.43399" lon="2.4594">
        <ele>1049</ele>
        <time>2018-04-22T11:17:26Z</time>
      </trkpt>
      <trkpt lat="43.43408" lon="2.45935">
        <ele>1050</ele>
        <time>2018-04-22T11:17:32Z</time>
      </trkpt>
      <trkpt lat="43.43412" lon="2.45933">
        <ele>1050</ele>
        <time>2018-04-22T11:17:34Z</time>
      </trkpt>
      <trkpt lat="43.43417" lon="2.45931">
        <ele>1051</ele>
        <time>2018-04-22T11:17:37Z</time>
      </trkpt>
      <trkpt lat="43.4342" lon="2.45928">
        <ele>1051</ele>
        <time>2018-04-22T11:17:39Z</time>
      </trkpt>
      <trkpt lat="43.43428" lon="2.45927">
        <ele>1052</ele>
        <time>2018-04-22T11:17:43Z</time>
      </trkpt>
      <trkpt lat="43.43436" lon="2.45927">
        <ele>1053</ele>
        <time>2018-04-22T11:17:48Z</time>
      </trkpt>
      <trkpt lat="43.4344" lon="2.45929">
        <ele>1054</ele>
        <time>2018-04-22T11:17:51Z</time>
      </trkpt>
      <trkpt lat="43.43445" lon="2.45932">
        <ele>1054</ele>
        <time>2018-04-22T11:17:54Z</time>
      </trkpt>
      <trkpt lat="43.4345" lon="2.45935">
        <ele>1055</ele>
        <time>2018-04-22T11:17:56Z</time>
      </trkpt>
      <trkpt lat="43.43455" lon="2.45938">
        <ele>1055</ele>
        <time>2018-04-22T11:17:59Z</time>
      </trkpt>
      <trkpt lat="43.4346" lon="2.45941">
        <ele>1055</ele>
        <time>2018-04-22T11:18:02Z</time>
      </trkpt>
      <trkpt lat="43.43463" lon="2.45944">
        <ele>1056</ele>
        <time>2018-04-22T11:18:04Z</time>
      </trkpt>
      <trkpt lat="43.43474" lon="2.45951">
        <ele>1057</ele>
        <time>2018-04-22T11:18:10Z</time>
      </trkpt>
      <trkpt lat="43.43478" lon="2.45953">
        <ele>1057</ele>
        <time>2018-04-22T11:18:11Z</time>
      </trkpt>
      <trkpt lat="43.43489" lon="2.45959">
        <ele>1058</ele>
        <time>2018-04-22T11:18:16Z</time>
      </trkpt>
      <trkpt lat="43.43491" lon="2.45959">
        <ele>1058</ele>
        <time>2018-04-22T11:18:17Z</time>
      </trkpt>
      <trkpt lat="43.43501" lon="2.45964">
        <ele>1059</ele>
        <time>2018-04-22T11:18:22Z</time>
      </trkpt>
      <trkpt lat="43.43503" lon="2.45964">
        <ele>1059</ele>
        <time>2018-04-22T11:18:23Z</time>
      </trkpt>
      <trkpt lat="43.43514" lon="2.45967">
        <ele>1060</ele>
        <time>2018-04-22T11:18:27Z</time>
      </trkpt>
      <trkpt lat="43.43517" lon="2.45968">
        <ele>1060</ele>
        <time>2018-04-22T11:18:28Z</time>
      </trkpt>
      <trkpt lat="43.43525" lon="2.45971">
        <ele>1061</ele>
        <time>2018-04-22T11:18:32Z</time>
      </trkpt>
      <trkpt lat="43.43531" lon="2.45973">
        <ele>1061</ele>
        <time>2018-04-22T11:18:35Z</time>
      </trkpt>
      <trkpt lat="43.43535" lon="2.45974">
        <ele>1061</ele>
        <time>2018-04-22T11:18:37Z</time>
      </trkpt>
      <trkpt lat="43.43537" lon="2.45974">
        <ele>1061</ele>
        <time>2018-04-22T11:18:38Z</time>
      </trkpt>
      <trkpt lat="43.43545" lon="2.45975">
        <ele>1062</ele>
        <time>2018-04-22T11:18:41Z</time>
      </trkpt>
      <trkpt lat="43.43555" lon="2.45976">
        <ele>1062</ele>
        <time>2018-04-22T11:18:45Z</time>
      </trkpt>
      <trkpt lat="43.43558" lon="2.45976">
        <ele>1062</ele>
        <time>2018-04-22T11:18:46Z</time>
      </trkpt>
      <trkpt lat="43.43569" lon="2.45977">
        <ele>1063</ele>
        <time>2018-04-22T11:18:51Z</time>
      </trkpt>
      <trkpt lat="43.43571" lon="2.45976">
        <ele>1063</ele>
        <time>2018-04-22T11:18:52Z</time>
      </trkpt>
      <trkpt lat="43.43583" lon="2.4597">
        <ele>1064</ele>
        <time>2018-04-22T11:18:57Z</time>
      </trkpt>
      <trkpt lat="43.43589" lon="2.45965">
        <ele>1065</ele>
        <time>2018-04-22T11:19:00Z</time>
      </trkpt>
      <trkpt lat="43.43593" lon="2.45961">
        <ele>1065</ele>
        <time>2018-04-22T11:19:02Z</time>
      </trkpt>
      <trkpt lat="43.43604" lon="2.45953">
        <ele>1066</ele>
        <time>2018-04-22T11:19:07Z</time>
      </trkpt>
      <trkpt lat="43.4361" lon="2.4595">
        <ele>1066</ele>
        <time>2018-04-22T11:19:09Z</time>
      </trkpt>
      <trkpt lat="43.43622" lon="2.45942">
        <ele>1067</ele>
        <time>2018-04-22T11:19:14Z</time>
      </trkpt>
      <trkpt lat="43.43625" lon="2.45941">
        <ele>1067</ele>
        <time>2018-04-22T11:19:15Z</time>
      </trkpt>
      <trkpt lat="43.43628" lon="2.45939">
        <ele>1067</ele>
        <time>2018-04-22T11:19:16Z</time>
      </trkpt>
      <trkpt lat="43.43634" lon="2.45936">
        <ele>1067</ele>
        <time>2018-04-22T11:19:18Z</time>
      </trkpt>
      <trkpt lat="43.43639" lon="2.45934">
        <ele>1068</ele>
        <time>2018-04-22T11:19:20Z</time>
      </trkpt>
      <trkpt lat="43.43644" lon="2.45932">
        <ele>1068</ele>
        <time>2018-04-22T11:19:22Z</time>
      </trkpt>
      <trkpt lat="43.43656" lon="2.45922">
        <ele>1069</ele>
        <time>2018-04-22T11:19:27Z</time>
      </trkpt>
      <trkpt lat="43.4366" lon="2.4592">
        <ele>1069</ele>
        <time>2018-04-22T11:19:28Z</time>
      </trkpt>
      <trkpt lat="43.43668" lon="2.45906">
        <ele>1070</ele>
        <time>2018-04-22T11:19:33Z</time>
      </trkpt>
      <trkpt lat="43.43671" lon="2.45904">
        <ele>1071</ele>
        <time>2018-04-22T11:19:34Z</time>
      </trkpt>
      <trkpt lat="43.43673" lon="2.45901">
        <ele>1071</ele>
        <time>2018-04-22T11:19:35Z</time>
      </trkpt>
      <trkpt lat="43.43675" lon="2.45893">
        <ele>1070</ele>
        <time>2018-04-22T11:19:37Z</time>
      </trkpt>
      <trkpt lat="43.43687" lon="2.45873">
        <ele>1071</ele>
        <time>2018-04-22T11:19:43Z</time>
      </trkpt>
      <trkpt lat="43.43689" lon="2.45864">
        <ele>1072</ele>
        <time>2018-04-22T11:19:46Z</time>
      </trkpt>
      <trkpt lat="43.43689" lon="2.45856">
        <ele>1071</ele>
        <time>2018-04-22T11:19:49Z</time>
      </trkpt>
      <trkpt lat="43.43686" lon="2.45842">
        <ele>1072</ele>
        <time>2018-04-22T11:19:54Z</time>
      </trkpt>
      <trkpt lat="43.43681" lon="2.45834">
        <ele>1073</ele>
        <time>2018-04-22T11:19:57Z</time>
      </trkpt>
      <trkpt lat="43.43677" lon="2.45821">
        <ele>1073</ele>
        <time>2018-04-22T11:20:01Z</time>
      </trkpt>
      <trkpt lat="43.43676" lon="2.45817">
        <ele>1074</ele>
        <time>2018-04-22T11:20:02Z</time>
      </trkpt>
      <trkpt lat="43.43672" lon="2.45802">
        <ele>1075</ele>
        <time>2018-04-22T11:20:06Z</time>
      </trkpt>
      <trkpt lat="43.43671" lon="2.45799">
        <ele>1075</ele>
        <time>2018-04-22T11:20:07Z</time>
      </trkpt>
      <trkpt lat="43.43669" lon="2.45785">
        <ele>1076</ele>
        <time>2018-04-22T11:20:11Z</time>
      </trkpt>
      <trkpt lat="43.43669" lon="2.45781">
        <ele>1076</ele>
        <time>2018-04-22T11:20:12Z</time>
      </trkpt>
      <trkpt lat="43.43671" lon="2.45767">
        <ele>1076</ele>
        <time>2018-04-22T11:20:16Z</time>
      </trkpt>
      <trkpt lat="43.43672" lon="2.4575">
        <ele>1076</ele>
        <time>2018-04-22T11:20:21Z</time>
      </trkpt>
      <trkpt lat="43.43672" lon="2.45727">
        <ele>1076</ele>
        <time>2018-04-22T11:20:27Z</time>
      </trkpt>
      <trkpt lat="43.43671" lon="2.4571">
        <ele>1077</ele>
        <time>2018-04-22T11:20:31Z</time>
      </trkpt>
      <trkpt lat="43.43671" lon="2.45701">
        <ele>1077</ele>
        <time>2018-04-22T11:20:33Z</time>
      </trkpt>
      <trkpt lat="43.43665" lon="2.45689">
        <ele>1078</ele>
        <time>2018-04-22T11:20:36Z</time>
      </trkpt>
      <trkpt lat="43.43663" lon="2.45681">
        <ele>1078</ele>
        <time>2018-04-22T11:20:38Z</time>
      </trkpt>
      <trkpt lat="43.43661" lon="2.45672">
        <ele>1078</ele>
        <time>2018-04-22T11:20:40Z</time>
      </trkpt>
      <trkpt lat="43.4366" lon="2.45668">
        <ele>1079</ele>
        <time>2018-04-22T11:20:41Z</time>
      </trkpt>
      <trkpt lat="43.43659" lon="2.45657">
        <ele>1079</ele>
        <time>2018-04-22T11:20:44Z</time>
      </trkpt>
      <trkpt lat="43.43656" lon="2.45639">
        <ele>1080</ele>
        <time>2018-04-22T11:20:49Z</time>
      </trkpt>
      <trkpt lat="43.43655" lon="2.45635">
        <ele>1080</ele>
        <time>2018-04-22T11:20:50Z</time>
      </trkpt>
      <trkpt lat="43.43654" lon="2.45632">
        <ele>1080</ele>
        <time>2018-04-22T11:20:51Z</time>
      </trkpt>
      <trkpt lat="43.4365" lon="2.45616">
        <ele>1080</ele>
        <time>2018-04-22T11:20:56Z</time>
      </trkpt>
      <trkpt lat="43.43654" lon="2.45618">
        <ele>1081</ele>
        <time>2018-04-22T11:21:00Z</time>
      </trkpt>
      <trkpt lat="43.43654" lon="2.45619">
        <ele>1081</ele>
        <time>2018-04-22T11:21:01Z</time>
      </trkpt>
      <trkpt lat="43.43656" lon="2.45626">
        <ele>1082</ele>
        <time>2018-04-22T11:21:07Z</time>
      </trkpt>
      <trkpt lat="43.43656" lon="2.45627">
        <ele>1082</ele>
        <time>2018-04-22T11:21:08Z</time>
      </trkpt>
      <trkpt lat="43.43656" lon="2.45631">
        <ele>1082</ele>
        <time>2018-04-22T11:21:11Z</time>
      </trkpt>
      <trkpt lat="43.43655" lon="2.45634">
        <ele>1082</ele>
        <time>2018-04-22T11:21:14Z</time>
      </trkpt>
      <trkpt lat="43.43655" lon="2.45637">
        <ele>1082</ele>
        <time>2018-04-22T11:21:16Z</time>
      </trkpt>
      <trkpt lat="43.43658" lon="2.45651">
        <ele>1083</ele>
        <time>2018-04-22T11:21:23Z</time>
      </trkpt>
      <trkpt lat="43.43662" lon="2.4566">
        <ele>1084</ele>
        <time>2018-04-22T11:21:27Z</time>
      </trkpt>
      <trkpt lat="43.43663" lon="2.45663">
        <ele>1084</ele>
        <time>2018-04-22T11:21:29Z</time>
      </trkpt>
      <trkpt lat="43.43667" lon="2.45667">
        <ele>1084</ele>
        <time>2018-04-22T11:21:32Z</time>
      </trkpt>
      <trkpt lat="43.43669" lon="2.45671">
        <ele>1085</ele>
        <time>2018-04-22T11:21:35Z</time>
      </trkpt>
      <trkpt lat="43.4367" lon="2.45673">
        <ele>1085</ele>
        <time>2018-04-22T11:21:36Z</time>
      </trkpt>
      <trkpt lat="43.43674" lon="2.45678">
        <ele>1085</ele>
        <time>2018-04-22T11:21:40Z</time>
      </trkpt>
      <trkpt lat="43.43676" lon="2.45681">
        <ele>1086</ele>
        <time>2018-04-22T11:21:42Z</time>
      </trkpt>
      <trkpt lat="43.4368" lon="2.45685">
        <ele>1086</ele>
        <time>2018-04-22T11:21:44Z</time>
      </trkpt>
      <trkpt lat="43.43685" lon="2.45691">
        <ele>1087</ele>
        <time>2018-04-22T11:21:47Z</time>
      </trkpt>
      <trkpt lat="43.43701" lon="2.45706">
        <ele>1087</ele>
        <time>2018-04-22T11:21:55Z</time>
      </trkpt>
      <trkpt lat="43.43705" lon="2.45712">
        <ele>1088</ele>
        <time>2018-04-22T11:21:58Z</time>
      </trkpt>
      <trkpt lat="43.43711" lon="2.45722">
        <ele>1088</ele>
        <time>2018-04-22T11:22:02Z</time>
      </trkpt>
      <trkpt lat="43.43721" lon="2.45737">
        <ele>1089</ele>
        <time>2018-04-22T11:22:09Z</time>
      </trkpt>
      <trkpt lat="43.43725" lon="2.45745">
        <ele>1089</ele>
        <time>2018-04-22T11:22:13Z</time>
      </trkpt>
      <trkpt lat="43.43727" lon="2.45747">
        <ele>1089</ele>
        <time>2018-04-22T11:22:15Z</time>
      </trkpt>
      <trkpt lat="43.43732" lon="2.45751">
        <ele>1090</ele>
        <time>2018-04-22T11:22:18Z</time>
      </trkpt>
      <trkpt lat="43.43737" lon="2.45754">
        <ele>1091</ele>
        <time>2018-04-22T11:22:20Z</time>
      </trkpt>
      <trkpt lat="43.43745" lon="2.45758">
        <ele>1091</ele>
        <time>2018-04-22T11:22:23Z</time>
      </trkpt>
      <trkpt lat="43.43753" lon="2.45762">
        <ele>1091</ele>
        <time>2018-04-22T11:22:26Z</time>
      </trkpt>
      <trkpt lat="43.4376" lon="2.45765">
        <ele>1092</ele>
        <time>2018-04-22T11:22:31Z</time>
      </trkpt>
      <trkpt lat="43.43772" lon="2.4577">
        <ele>1093</ele>
        <time>2018-04-22T11:22:36Z</time>
      </trkpt>
      <trkpt lat="43.43781" lon="2.45772">
        <ele>1093</ele>
        <time>2018-04-22T11:22:41Z</time>
      </trkpt>
      <trkpt lat="43.43788" lon="2.45774">
        <ele>1094</ele>
        <time>2018-04-22T11:22:45Z</time>
      </trkpt>
      <trkpt lat="43.43789" lon="2.45775">
        <ele>1094</ele>
        <time>2018-04-22T11:22:46Z</time>
      </trkpt>
      <trkpt lat="43.43792" lon="2.45778">
        <ele>1094</ele>
        <time>2018-04-22T11:22:48Z</time>
      </trkpt>
      <trkpt lat="43.43795" lon="2.45779">
        <ele>1094</ele>
        <time>2018-04-22T11:22:49Z</time>
      </trkpt>
      <trkpt lat="43.438" lon="2.45782">
        <ele>1095</ele>
        <time>2018-04-22T11:22:51Z</time>
      </trkpt>
      <trkpt lat="43.43804" lon="2.45784">
        <ele>1095</ele>
        <time>2018-04-22T11:22:53Z</time>
      </trkpt>
      <trkpt lat="43.43813" lon="2.45791">
        <ele>1095</ele>
        <time>2018-04-22T11:22:57Z</time>
      </trkpt>
      <trkpt lat="43.43814" lon="2.45793">
        <ele>1096</ele>
        <time>2018-04-22T11:22:58Z</time>
      </trkpt>
      <trkpt lat="43.43817" lon="2.45801">
        <ele>1096</ele>
        <time>2018-04-22T11:23:03Z</time>
      </trkpt>
      <trkpt lat="43.43818" lon="2.45803">
        <ele>1097</ele>
        <time>2018-04-22T11:23:05Z</time>
      </trkpt>
      <trkpt lat="43.43822" lon="2.45806">
        <ele>1097</ele>
        <time>2018-04-22T11:23:08Z</time>
      </trkpt>
      <trkpt lat="43.43826" lon="2.45806">
        <ele>1097</ele>
        <time>2018-04-22T11:23:10Z</time>
      </trkpt>
      <trkpt lat="43.4383" lon="2.45806">
        <ele>1097</ele>
        <time>2018-04-22T11:23:14Z</time>
      </trkpt>
      <trkpt lat="43.43831" lon="2.45806">
        <ele>1097</ele>
        <time>2018-04-22T11:23:17Z</time>
      </trkpt>
      <trkpt lat="43.4383" lon="2.45805">
        <ele>1097</ele>
        <time>2018-04-22T11:23:32Z</time>
      </trkpt>
      <trkpt lat="43.4383" lon="2.458">
        <ele>1097</ele>
        <time>2018-04-22T11:23:39Z</time>
      </trkpt>
      <trkpt lat="43.4383" lon="2.45798">
        <ele>1097</ele>
        <time>2018-04-22T11:23:40Z</time>
      </trkpt>
      <trkpt lat="43.4383" lon="2.45795">
        <ele>1098</ele>
        <time>2018-04-22T11:23:42Z</time>
      </trkpt>
      <trkpt lat="43.43828" lon="2.45792">
        <ele>1098</ele>
        <time>2018-04-22T11:23:45Z</time>
      </trkpt>
      <trkpt lat="43.43829" lon="2.45792">
        <ele>1098</ele>
        <time>2018-04-22T11:23:46Z</time>
      </trkpt>
      <trkpt lat="43.43828" lon="2.4579">
        <ele>1098</ele>
        <time>2018-04-22T11:23:48Z</time>
      </trkpt>
      <trkpt lat="43.43826" lon="2.45784">
        <ele>1099</ele>
        <time>2018-04-22T11:23:54Z</time>
      </trkpt>
      <trkpt lat="43.43825" lon="2.45783">
        <ele>1099</ele>
        <time>2018-04-22T11:23:55Z</time>
      </trkpt>
      <trkpt lat="43.43819" lon="2.45773">
        <ele>1099</ele>
        <time>2018-04-22T11:24:02Z</time>
      </trkpt>
      <trkpt lat="43.43815" lon="2.45762">
        <ele>1100</ele>
        <time>2018-04-22T11:24:08Z</time>
      </trkpt>
      <trkpt lat="43.43815" lon="2.45752">
        <ele>1101</ele>
        <time>2018-04-22T11:24:13Z</time>
      </trkpt>
      <trkpt lat="43.43816" lon="2.45749">
        <ele>1101</ele>
        <time>2018-04-22T11:24:14Z</time>
      </trkpt>
      <trkpt lat="43.43821" lon="2.45741">
        <ele>1102</ele>
        <time>2018-04-22T11:24:18Z</time>
      </trkpt>
      <trkpt lat="43.43822" lon="2.45739">
        <ele>1102</ele>
        <time>2018-04-22T11:24:19Z</time>
      </trkpt>
      <trkpt lat="43.43825" lon="2.45728">
        <ele>1103</ele>
        <time>2018-04-22T11:24:24Z</time>
      </trkpt>
      <trkpt lat="43.43826" lon="2.45726">
        <ele>1103</ele>
        <time>2018-04-22T11:24:25Z</time>
      </trkpt>
      <trkpt lat="43.43829" lon="2.45724">
        <ele>1103</ele>
        <time>2018-04-22T11:24:27Z</time>
      </trkpt>
      <trkpt lat="43.43837" lon="2.45716">
        <ele>1104</ele>
        <time>2018-04-22T11:24:31Z</time>
      </trkpt>
      <trkpt lat="43.43838" lon="2.45713">
        <ele>1105</ele>
        <time>2018-04-22T11:24:32Z</time>
      </trkpt>
      <trkpt lat="43.43845" lon="2.45707">
        <ele>1106</ele>
        <time>2018-04-22T11:24:36Z</time>
      </trkpt>
      <trkpt lat="43.43847" lon="2.45706">
        <ele>1106</ele>
        <time>2018-04-22T11:24:37Z</time>
      </trkpt>
      <trkpt lat="43.4385" lon="2.45701">
        <ele>1106</ele>
        <time>2018-04-22T11:24:40Z</time>
      </trkpt>
      <trkpt lat="43.4386" lon="2.45696">
        <ele>1107</ele>
        <time>2018-04-22T11:24:44Z</time>
      </trkpt>
      <trkpt lat="43.4386" lon="2.45694">
        <ele>1107</ele>
        <time>2018-04-22T11:24:45Z</time>
      </trkpt>
      <trkpt lat="43.43863" lon="2.4569">
        <ele>1107</ele>
        <time>2018-04-22T11:24:49Z</time>
      </trkpt>
      <trkpt lat="43.43869" lon="2.45684">
        <ele>1108</ele>
        <time>2018-04-22T11:24:52Z</time>
      </trkpt>
      <trkpt lat="43.43876" lon="2.45674">
        <ele>1109</ele>
        <time>2018-04-22T11:24:56Z</time>
      </trkpt>
      <trkpt lat="43.43891" lon="2.45666">
        <ele>1108</ele>
        <time>2018-04-22T11:25:02Z</time>
      </trkpt>
      <trkpt lat="43.43909" lon="2.45661">
        <ele>1108</ele>
        <time>2018-04-22T11:25:07Z</time>
      </trkpt>
      <trkpt lat="43.43922" lon="2.45656">
        <ele>1109</ele>
        <time>2018-04-22T11:25:12Z</time>
      </trkpt>
      <trkpt lat="43.43925" lon="2.45655">
        <ele>1109</ele>
        <time>2018-04-22T11:25:13Z</time>
      </trkpt>
      <trkpt lat="43.43935" lon="2.45647">
        <ele>1109</ele>
        <time>2018-04-22T11:25:17Z</time>
      </trkpt>
      <trkpt lat="43.43949" lon="2.45635">
        <ele>1108</ele>
        <time>2018-04-22T11:25:22Z</time>
      </trkpt>
      <trkpt lat="43.43952" lon="2.45631">
        <ele>1108</ele>
        <time>2018-04-22T11:25:23Z</time>
      </trkpt>
      <trkpt lat="43.43968" lon="2.45615">
        <ele>1106</ele>
        <time>2018-04-22T11:25:27Z</time>
      </trkpt>
      <trkpt lat="43.43982" lon="2.45605">
        <ele>1105</ele>
        <time>2018-04-22T11:25:29Z</time>
      </trkpt>
      <trkpt lat="43.43989" lon="2.45601">
        <ele>1104</ele>
        <time>2018-04-22T11:25:30Z</time>
      </trkpt>
      <trkpt lat="43.44002" lon="2.45593">
        <ele>1103</ele>
        <time>2018-04-22T11:25:32Z</time>
      </trkpt>
      <trkpt lat="43.44008" lon="2.45588">
        <ele>1103</ele>
        <time>2018-04-22T11:25:33Z</time>
      </trkpt>
      <trkpt lat="43.44013" lon="2.45583">
        <ele>1102</ele>
        <time>2018-04-22T11:25:34Z</time>
      </trkpt>
      <trkpt lat="43.44019" lon="2.45576">
        <ele>1101</ele>
        <time>2018-04-22T11:25:35Z</time>
      </trkpt>
      <trkpt lat="43.44032" lon="2.45562">
        <ele>1100</ele>
        <time>2018-04-22T11:25:37Z</time>
      </trkpt>
      <trkpt lat="43.44039" lon="2.45556">
        <ele>1099</ele>
        <time>2018-04-22T11:25:38Z</time>
      </trkpt>
      <trkpt lat="43.4406" lon="2.45539">
        <ele>1098</ele>
        <time>2018-04-22T11:25:41Z</time>
      </trkpt>
      <trkpt lat="43.44068" lon="2.45535">
        <ele>1098</ele>
        <time>2018-04-22T11:25:42Z</time>
      </trkpt>
      <trkpt lat="43.4409" lon="2.45527">
        <ele>1098</ele>
        <time>2018-04-22T11:25:45Z</time>
      </trkpt>
      <trkpt lat="43.44097" lon="2.45525">
        <ele>1098</ele>
        <time>2018-04-22T11:25:46Z</time>
      </trkpt>
      <trkpt lat="43.44113" lon="2.4552">
        <ele>1098</ele>
        <time>2018-04-22T11:25:49Z</time>
      </trkpt>
      <trkpt lat="43.44123" lon="2.45514">
        <ele>1098</ele>
        <time>2018-04-22T11:25:51Z</time>
      </trkpt>
      <trkpt lat="43.44128" lon="2.4551">
        <ele>1098</ele>
        <time>2018-04-22T11:25:52Z</time>
      </trkpt>
      <trkpt lat="43.44145" lon="2.45496">
        <ele>1096</ele>
        <time>2018-04-22T11:25:55Z</time>
      </trkpt>
      <trkpt lat="43.44153" lon="2.45493">
        <ele>1096</ele>
        <time>2018-04-22T11:25:56Z</time>
      </trkpt>
      <trkpt lat="43.4416" lon="2.45492">
        <ele>1095</ele>
        <time>2018-04-22T11:25:57Z</time>
      </trkpt>
      <trkpt lat="43.44169" lon="2.45492">
        <ele>1094</ele>
        <time>2018-04-22T11:25:58Z</time>
      </trkpt>
      <trkpt lat="43.44184" lon="2.45495">
        <ele>1093</ele>
        <time>2018-04-22T11:26:00Z</time>
      </trkpt>
      <trkpt lat="43.44199" lon="2.45498">
        <ele>1092</ele>
        <time>2018-04-22T11:26:02Z</time>
      </trkpt>
      <trkpt lat="43.44206" lon="2.45501">
        <ele>1091</ele>
        <time>2018-04-22T11:26:03Z</time>
      </trkpt>
      <trkpt lat="43.44227" lon="2.4551">
        <ele>1091</ele>
        <time>2018-04-22T11:26:06Z</time>
      </trkpt>
      <trkpt lat="43.44234" lon="2.45512">
        <ele>1090</ele>
        <time>2018-04-22T11:26:07Z</time>
      </trkpt>
      <trkpt lat="43.44242" lon="2.45513">
        <ele>1089</ele>
        <time>2018-04-22T11:26:08Z</time>
      </trkpt>
      <trkpt lat="43.44258" lon="2.45516">
        <ele>1087</ele>
        <time>2018-04-22T11:26:10Z</time>
      </trkpt>
      <trkpt lat="43.44263" lon="2.4552">
        <ele>1087</ele>
        <time>2018-04-22T11:26:11Z</time>
      </trkpt>
      <trkpt lat="43.44277" lon="2.45524">
        <ele>1086</ele>
        <time>2018-04-22T11:26:13Z</time>
      </trkpt>
      <trkpt lat="43.44284" lon="2.45527">
        <ele>1086</ele>
        <time>2018-04-22T11:26:14Z</time>
      </trkpt>
      <trkpt lat="43.4429" lon="2.45529">
        <ele>1085</ele>
        <time>2018-04-22T11:26:15Z</time>
      </trkpt>
      <trkpt lat="43.44305" lon="2.45531">
        <ele>1083</ele>
        <time>2018-04-22T11:26:17Z</time>
      </trkpt>
      <trkpt lat="43.44314" lon="2.45529">
        <ele>1082</ele>
        <time>2018-04-22T11:26:18Z</time>
      </trkpt>
      <trkpt lat="43.44337" lon="2.45525">
        <ele>1082</ele>
        <time>2018-04-22T11:26:21Z</time>
      </trkpt>
      <trkpt lat="43.44345" lon="2.45526">
        <ele>1080</ele>
        <time>2018-04-22T11:26:22Z</time>
      </trkpt>
      <trkpt lat="43.44353" lon="2.45523">
        <ele>1079</ele>
        <time>2018-04-22T11:26:23Z</time>
      </trkpt>
      <trkpt lat="43.44368" lon="2.45518">
        <ele>1079</ele>
        <time>2018-04-22T11:26:25Z</time>
      </trkpt>
      <trkpt lat="43.44376" lon="2.45514">
        <ele>1077</ele>
        <time>2018-04-22T11:26:26Z</time>
      </trkpt>
      <trkpt lat="43.44383" lon="2.45513">
        <ele>1076</ele>
        <time>2018-04-22T11:26:27Z</time>
      </trkpt>
      <trkpt lat="43.44401" lon="2.45511">
        <ele>1075</ele>
        <time>2018-04-22T11:26:29Z</time>
      </trkpt>
      <trkpt lat="43.44411" lon="2.45509">
        <ele>1073</ele>
        <time>2018-04-22T11:26:30Z</time>
      </trkpt>
      <trkpt lat="43.4442" lon="2.45506">
        <ele>1071</ele>
        <time>2018-04-22T11:26:31Z</time>
      </trkpt>
      <trkpt lat="43.44447" lon="2.455">
        <ele>1072</ele>
        <time>2018-04-22T11:26:34Z</time>
      </trkpt>
      <trkpt lat="43.44463" lon="2.45494">
        <ele>1069</ele>
        <time>2018-04-22T11:26:36Z</time>
      </trkpt>
      <trkpt lat="43.44469" lon="2.45491">
        <ele>1068</ele>
        <time>2018-04-22T11:26:37Z</time>
      </trkpt>
      <trkpt lat="43.44487" lon="2.45486">
        <ele>1066</ele>
        <time>2018-04-22T11:26:39Z</time>
      </trkpt>
      <trkpt lat="43.44516" lon="2.45486">
        <ele>1065</ele>
        <time>2018-04-22T11:26:42Z</time>
      </trkpt>
      <trkpt lat="43.44524" lon="2.45487">
        <ele>1064</ele>
        <time>2018-04-22T11:26:43Z</time>
      </trkpt>
      <trkpt lat="43.44532" lon="2.4549">
        <ele>1063</ele>
        <time>2018-04-22T11:26:44Z</time>
      </trkpt>
      <trkpt lat="43.44546" lon="2.45496">
        <ele>1062</ele>
        <time>2018-04-22T11:26:46Z</time>
      </trkpt>
      <trkpt lat="43.44552" lon="2.45499">
        <ele>1061</ele>
        <time>2018-04-22T11:26:47Z</time>
      </trkpt>
      <trkpt lat="43.4456" lon="2.45501">
        <ele>1060</ele>
        <time>2018-04-22T11:26:48Z</time>
      </trkpt>
      <trkpt lat="43.44576" lon="2.45499">
        <ele>1060</ele>
        <time>2018-04-22T11:26:50Z</time>
      </trkpt>
      <trkpt lat="43.44591" lon="2.45491">
        <ele>1059</ele>
        <time>2018-04-22T11:26:52Z</time>
      </trkpt>
      <trkpt lat="43.44596" lon="2.45489">
        <ele>1059</ele>
        <time>2018-04-22T11:26:53Z</time>
      </trkpt>
      <trkpt lat="43.44624" lon="2.45487">
        <ele>1058</ele>
        <time>2018-04-22T11:26:57Z</time>
      </trkpt>
      <trkpt lat="43.44636" lon="2.45487">
        <ele>1058</ele>
        <time>2018-04-22T11:27:00Z</time>
      </trkpt>
      <trkpt lat="43.4465" lon="2.45476">
        <ele>1058</ele>
        <time>2018-04-22T11:27:04Z</time>
      </trkpt>
      <trkpt lat="43.44653" lon="2.45472">
        <ele>1058</ele>
        <time>2018-04-22T11:27:05Z</time>
      </trkpt>
      <trkpt lat="43.44657" lon="2.45467">
        <ele>1057</ele>
        <time>2018-04-22T11:27:06Z</time>
      </trkpt>
      <trkpt lat="43.4466" lon="2.45463">
        <ele>1056</ele>
        <time>2018-04-22T11:27:07Z</time>
      </trkpt>
      <trkpt lat="43.44663" lon="2.4546">
        <ele>1055</ele>
        <time>2018-04-22T11:27:08Z</time>
      </trkpt>
      <trkpt lat="43.4467" lon="2.45453">
        <ele>1055</ele>
        <time>2018-04-22T11:27:10Z</time>
      </trkpt>
      <trkpt lat="43.44678" lon="2.45445">
        <ele>1054</ele>
        <time>2018-04-22T11:27:12Z</time>
      </trkpt>
      <trkpt lat="43.44682" lon="2.4544">
        <ele>1054</ele>
        <time>2018-04-22T11:27:13Z</time>
      </trkpt>
      <trkpt lat="43.44688" lon="2.45432">
        <ele>1053</ele>
        <time>2018-04-22T11:27:15Z</time>
      </trkpt>
      <trkpt lat="43.44694" lon="2.45426">
        <ele>1052</ele>
        <time>2018-04-22T11:27:16Z</time>
      </trkpt>
      <trkpt lat="43.44699" lon="2.45421">
        <ele>1052</ele>
        <time>2018-04-22T11:27:17Z</time>
      </trkpt>
      <trkpt lat="43.44722" lon="2.45391">
        <ele>1051</ele>
        <time>2018-04-22T11:27:21Z</time>
      </trkpt>
      <trkpt lat="43.44728" lon="2.45383">
        <ele>1050</ele>
        <time>2018-04-22T11:27:22Z</time>
      </trkpt>
      <trkpt lat="43.44733" lon="2.45372">
        <ele>1049</ele>
        <time>2018-04-22T11:27:23Z</time>
      </trkpt>
      <trkpt lat="43.44742" lon="2.45353">
        <ele>1048</ele>
        <time>2018-04-22T11:27:25Z</time>
      </trkpt>
      <trkpt lat="43.44747" lon="2.45344">
        <ele>1047</ele>
        <time>2018-04-22T11:27:26Z</time>
      </trkpt>
      <trkpt lat="43.44752" lon="2.45335">
        <ele>1045</ele>
        <time>2018-04-22T11:27:27Z</time>
      </trkpt>
      <trkpt lat="43.44761" lon="2.45315">
        <ele>1044</ele>
        <time>2018-04-22T11:27:29Z</time>
      </trkpt>
      <trkpt lat="43.44776" lon="2.45289">
        <ele>1045</ele>
        <time>2018-04-22T11:27:32Z</time>
      </trkpt>
      <trkpt lat="43.44782" lon="2.45279">
        <ele>1045</ele>
        <time>2018-04-22T11:27:33Z</time>
      </trkpt>
      <trkpt lat="43.44789" lon="2.45254">
        <ele>1045</ele>
        <time>2018-04-22T11:27:36Z</time>
      </trkpt>
      <trkpt lat="43.4479" lon="2.45236">
        <ele>1045</ele>
        <time>2018-04-22T11:27:38Z</time>
      </trkpt>
      <trkpt lat="43.44788" lon="2.45227">
        <ele>1044</ele>
        <time>2018-04-22T11:27:39Z</time>
      </trkpt>
      <trkpt lat="43.44782" lon="2.45191">
        <ele>1045</ele>
        <time>2018-04-22T11:27:43Z</time>
      </trkpt>
      <trkpt lat="43.44781" lon="2.45183">
        <ele>1045</ele>
        <time>2018-04-22T11:27:44Z</time>
      </trkpt>
      <trkpt lat="43.44778" lon="2.45147">
        <ele>1043</ele>
        <time>2018-04-22T11:27:48Z</time>
      </trkpt>
      <trkpt lat="43.4478" lon="2.45127">
        <ele>1042</ele>
        <time>2018-04-22T11:27:50Z</time>
      </trkpt>
      <trkpt lat="43.44782" lon="2.45116">
        <ele>1042</ele>
        <time>2018-04-22T11:27:51Z</time>
      </trkpt>
      <trkpt lat="43.44783" lon="2.45106">
        <ele>1040</ele>
        <time>2018-04-22T11:27:52Z</time>
      </trkpt>
      <trkpt lat="43.44786" lon="2.45095">
        <ele>1040</ele>
        <time>2018-04-22T11:27:53Z</time>
      </trkpt>
      <trkpt lat="43.44787" lon="2.45083">
        <ele>1039</ele>
        <time>2018-04-22T11:27:54Z</time>
      </trkpt>
      <trkpt lat="43.4479" lon="2.45059">
        <ele>1038</ele>
        <time>2018-04-22T11:27:56Z</time>
      </trkpt>
      <trkpt lat="43.44794" lon="2.45046">
        <ele>1038</ele>
        <time>2018-04-22T11:27:57Z</time>
      </trkpt>
      <trkpt lat="43.44798" lon="2.45018">
        <ele>1037</ele>
        <time>2018-04-22T11:27:59Z</time>
      </trkpt>
      <trkpt lat="43.44801" lon="2.45005">
        <ele>1035</ele>
        <time>2018-04-22T11:28:00Z</time>
      </trkpt>
      <trkpt lat="43.44805" lon="2.44992">
        <ele>1033</ele>
        <time>2018-04-22T11:28:01Z</time>
      </trkpt>
      <trkpt lat="43.44809" lon="2.4498">
        <ele>1032</ele>
        <time>2018-04-22T11:28:02Z</time>
      </trkpt>
      <trkpt lat="43.4481" lon="2.44968">
        <ele>1031</ele>
        <time>2018-04-22T11:28:03Z</time>
      </trkpt>
      <trkpt lat="43.44813" lon="2.44953">
        <ele>1031</ele>
        <time>2018-04-22T11:28:05Z</time>
      </trkpt>
      <trkpt lat="43.44816" lon="2.44952">
        <ele>1030</ele>
        <time>2018-04-22T11:28:06Z</time>
      </trkpt>
      <trkpt lat="43.44817" lon="2.44951">
        <ele>1030</ele>
        <time>2018-04-22T11:28:07Z</time>
      </trkpt>
      <trkpt lat="43.44819" lon="2.44951">
        <ele>1030</ele>
        <time>2018-04-22T11:28:10Z</time>
      </trkpt>
      <trkpt lat="43.44816" lon="2.44943">
        <ele>1029</ele>
        <time>2018-04-22T11:28:16Z</time>
      </trkpt>
      <trkpt lat="43.44818" lon="2.44939">
        <ele>1029</ele>
        <time>2018-04-22T11:28:21Z</time>
      </trkpt>
      <trkpt lat="43.44819" lon="2.44939">
        <ele>1029</ele>
        <time>2018-04-22T11:28:30Z</time>
      </trkpt>
      <trkpt lat="43.44819" lon="2.44939">
        <ele>1030</ele>
        <time>2018-04-22T11:28:36Z</time>
      </trkpt>
      <trkpt lat="43.44818" lon="2.44939">
        <ele>1029</ele>
        <time>2018-04-22T11:28:56Z</time>
      </trkpt>
      <trkpt lat="43.44818" lon="2.44938">
        <ele>1030</ele>
        <time>2018-04-22T11:29:07Z</time>
      </trkpt>
      <trkpt lat="43.44818" lon="2.44938">
        <ele>1029</ele>
        <time>2018-04-22T11:29:09Z</time>
      </trkpt>
      <trkpt lat="43.44818" lon="2.44936">
        <ele>1029</ele>
        <time>2018-04-22T11:29:10Z</time>
      </trkpt>
      <trkpt lat="43.44818" lon="2.4493">
        <ele>1029</ele>
        <time>2018-04-22T11:29:12Z</time>
      </trkpt>
      <trkpt lat="43.44818" lon="2.44928">
        <ele>1028</ele>
        <time>2018-04-22T11:29:13Z</time>
      </trkpt>
      <trkpt lat="43.4482" lon="2.44919">
        <ele>1027</ele>
        <time>2018-04-22T11:29:15Z</time>
      </trkpt>
      <trkpt lat="43.44821" lon="2.44912">
        <ele>1026</ele>
        <time>2018-04-22T11:29:16Z</time>
      </trkpt>
      <trkpt lat="43.44822" lon="2.44904">
        <ele>1025</ele>
        <time>2018-04-22T11:29:17Z</time>
      </trkpt>
      <trkpt lat="43.44823" lon="2.44877">
        <ele>1024</ele>
        <time>2018-04-22T11:29:20Z</time>
      </trkpt>
      <trkpt lat="43.44824" lon="2.44868">
        <ele>1022</ele>
        <time>2018-04-22T11:29:21Z</time>
      </trkpt>
      <trkpt lat="43.44827" lon="2.44859">
        <ele>1020</ele>
        <time>2018-04-22T11:29:22Z</time>
      </trkpt>
      <trkpt lat="43.44829" lon="2.44848">
        <ele>1019</ele>
        <time>2018-04-22T11:29:23Z</time>
      </trkpt>
      <trkpt lat="43.44832" lon="2.44839">
        <ele>1019</ele>
        <time>2018-04-22T11:29:24Z</time>
      </trkpt>
      <trkpt lat="43.44833" lon="2.4483">
        <ele>1018</ele>
        <time>2018-04-22T11:29:25Z</time>
      </trkpt>
      <trkpt lat="43.44834" lon="2.44822">
        <ele>1017</ele>
        <time>2018-04-22T11:29:26Z</time>
      </trkpt>
      <trkpt lat="43.44839" lon="2.44813">
        <ele>1015</ele>
        <time>2018-04-22T11:29:27Z</time>
      </trkpt>
      <trkpt lat="43.44842" lon="2.44805">
        <ele>1014</ele>
        <time>2018-04-22T11:29:28Z</time>
      </trkpt>
      <trkpt lat="43.44847" lon="2.44796">
        <ele>1014</ele>
        <time>2018-04-22T11:29:29Z</time>
      </trkpt>
      <trkpt lat="43.44853" lon="2.44774">
        <ele>1012</ele>
        <time>2018-04-22T11:29:31Z</time>
      </trkpt>
      <trkpt lat="43.44857" lon="2.44763">
        <ele>1012</ele>
        <time>2018-04-22T11:29:32Z</time>
      </trkpt>
      <trkpt lat="43.44867" lon="2.44745">
        <ele>1010</ele>
        <time>2018-04-22T11:29:34Z</time>
      </trkpt>
      <trkpt lat="43.44873" lon="2.44739">
        <ele>1008</ele>
        <time>2018-04-22T11:29:35Z</time>
      </trkpt>
      <trkpt lat="43.44879" lon="2.44734">
        <ele>1009</ele>
        <time>2018-04-22T11:29:36Z</time>
      </trkpt>
      <trkpt lat="43.44891" lon="2.44722">
        <ele>1009</ele>
        <time>2018-04-22T11:29:38Z</time>
      </trkpt>
      <trkpt lat="43.44902" lon="2.44708">
        <ele>1007</ele>
        <time>2018-04-22T11:29:40Z</time>
      </trkpt>
      <trkpt lat="43.44912" lon="2.44689">
        <ele>1006</ele>
        <time>2018-04-22T11:29:42Z</time>
      </trkpt>
      <trkpt lat="43.44923" lon="2.44671">
        <ele>1004</ele>
        <time>2018-04-22T11:29:44Z</time>
      </trkpt>
      <trkpt lat="43.4494" lon="2.44634">
        <ele>1004</ele>
        <time>2018-04-22T11:29:48Z</time>
      </trkpt>
      <trkpt lat="43.44944" lon="2.44613">
        <ele>1003</ele>
        <time>2018-04-22T11:29:50Z</time>
      </trkpt>
      <trkpt lat="43.44946" lon="2.44602">
        <ele>1002</ele>
        <time>2018-04-22T11:29:51Z</time>
      </trkpt>
      <trkpt lat="43.44949" lon="2.44591">
        <ele>1001</ele>
        <time>2018-04-22T11:29:52Z</time>
      </trkpt>
      <trkpt lat="43.44955" lon="2.44569">
        <ele>999</ele>
        <time>2018-04-22T11:29:54Z</time>
      </trkpt>
      <trkpt lat="43.44965" lon="2.44529">
        <ele>998</ele>
        <time>2018-04-22T11:29:58Z</time>
      </trkpt>
      <trkpt lat="43.44968" lon="2.44507">
        <ele>998</ele>
        <time>2018-04-22T11:30:00Z</time>
      </trkpt>
      <trkpt lat="43.44972" lon="2.4449">
        <ele>999</ele>
        <time>2018-04-22T11:30:02Z</time>
      </trkpt>
      <trkpt lat="43.44974" lon="2.44482">
        <ele>999</ele>
        <time>2018-04-22T11:30:03Z</time>
      </trkpt>
      <trkpt lat="43.4498" lon="2.44458">
        <ele>1001</ele>
        <time>2018-04-22T11:30:06Z</time>
      </trkpt>
      <trkpt lat="43.4499" lon="2.44427">
        <ele>1001</ele>
        <time>2018-04-22T11:30:10Z</time>
      </trkpt>
      <trkpt lat="43.44994" lon="2.4441">
        <ele>999</ele>
        <time>2018-04-22T11:30:12Z</time>
      </trkpt>
      <trkpt lat="43.44993" lon="2.44389">
        <ele>1000</ele>
        <time>2018-04-22T11:30:14Z</time>
      </trkpt>
      <trkpt lat="43.44994" lon="2.44366">
        <ele>999</ele>
        <time>2018-04-22T11:30:16Z</time>
      </trkpt>
      <trkpt lat="43.44995" lon="2.44353">
        <ele>998</ele>
        <time>2018-04-22T11:30:17Z</time>
      </trkpt>
      <trkpt lat="43.44999" lon="2.44343">
        <ele>996</ele>
        <time>2018-04-22T11:30:18Z</time>
      </trkpt>
      <trkpt lat="43.45002" lon="2.44334">
        <ele>994</ele>
        <time>2018-04-22T11:30:19Z</time>
      </trkpt>
      <trkpt lat="43.45002" lon="2.44326">
        <ele>994</ele>
        <time>2018-04-22T11:30:20Z</time>
      </trkpt>
      <trkpt lat="43.45002" lon="2.44313">
        <ele>993</ele>
        <time>2018-04-22T11:30:21Z</time>
      </trkpt>
      <trkpt lat="43.45001" lon="2.44303">
        <ele>992</ele>
        <time>2018-04-22T11:30:22Z</time>
      </trkpt>
      <trkpt lat="43.44997" lon="2.44286">
        <ele>990</ele>
        <time>2018-04-22T11:30:24Z</time>
      </trkpt>
      <trkpt lat="43.44997" lon="2.44277">
        <ele>989</ele>
        <time>2018-04-22T11:30:25Z</time>
      </trkpt>
      <trkpt lat="43.44997" lon="2.44271">
        <ele>989</ele>
        <time>2018-04-22T11:30:26Z</time>
      </trkpt>
      <trkpt lat="43.44998" lon="2.44262">
        <ele>988</ele>
        <time>2018-04-22T11:30:27Z</time>
      </trkpt>
      <trkpt lat="43.44999" lon="2.44255">
        <ele>987</ele>
        <time>2018-04-22T11:30:28Z</time>
      </trkpt>
      <trkpt lat="43.45003" lon="2.44238">
        <ele>986</ele>
        <time>2018-04-22T11:30:31Z</time>
      </trkpt>
      <trkpt lat="43.45001" lon="2.44229">
        <ele>985</ele>
        <time>2018-04-22T11:30:35Z</time>
      </trkpt>
      <trkpt lat="43.44993" lon="2.44225">
        <ele>985</ele>
        <time>2018-04-22T11:30:46Z</time>
      </trkpt>
      <trkpt lat="43.44994" lon="2.44217">
        <ele>984</ele>
        <time>2018-04-22T11:30:52Z</time>
      </trkpt>
      <trkpt lat="43.44994" lon="2.44212">
        <ele>983</ele>
        <time>2018-04-22T11:30:53Z</time>
      </trkpt>
      <trkpt lat="43.44994" lon="2.44201">
        <ele>982</ele>
        <time>2018-04-22T11:30:55Z</time>
      </trkpt>
      <trkpt lat="43.44995" lon="2.44196">
        <ele>981</ele>
        <time>2018-04-22T11:30:56Z</time>
      </trkpt>
      <trkpt lat="43.44995" lon="2.44184">
        <ele>980</ele>
        <time>2018-04-22T11:30:58Z</time>
      </trkpt>
      <trkpt lat="43.44996" lon="2.44177">
        <ele>979</ele>
        <time>2018-04-22T11:30:59Z</time>
      </trkpt>
      <trkpt lat="43.44997" lon="2.4417">
        <ele>978</ele>
        <time>2018-04-22T11:31:00Z</time>
      </trkpt>
      <trkpt lat="43.44999" lon="2.44163">
        <ele>977</ele>
        <time>2018-04-22T11:31:01Z</time>
      </trkpt>
      <trkpt lat="43.45" lon="2.44157">
        <ele>975</ele>
        <time>2018-04-22T11:31:02Z</time>
      </trkpt>
      <trkpt lat="43.45001" lon="2.4415">
        <ele>974</ele>
        <time>2018-04-22T11:31:03Z</time>
      </trkpt>
      <trkpt lat="43.45004" lon="2.4414">
        <ele>972</ele>
        <time>2018-04-22T11:31:05Z</time>
      </trkpt>
      <trkpt lat="43.45005" lon="2.44133">
        <ele>972</ele>
        <time>2018-04-22T11:31:06Z</time>
      </trkpt>
      <trkpt lat="43.45011" lon="2.44118">
        <ele>970</ele>
        <time>2018-04-22T11:31:08Z</time>
      </trkpt>
      <trkpt lat="43.45015" lon="2.44112">
        <ele>969</ele>
        <time>2018-04-22T11:31:09Z</time>
      </trkpt>
      <trkpt lat="43.45018" lon="2.44102">
        <ele>967</ele>
        <time>2018-04-22T11:31:10Z</time>
      </trkpt>
      <trkpt lat="43.45021" lon="2.44092">
        <ele>966</ele>
        <time>2018-04-22T11:31:11Z</time>
      </trkpt>
      <trkpt lat="43.45026" lon="2.44085">
        <ele>965</ele>
        <time>2018-04-22T11:31:12Z</time>
      </trkpt>
      <trkpt lat="43.45032" lon="2.44069">
        <ele>964</ele>
        <time>2018-04-22T11:31:14Z</time>
      </trkpt>
      <trkpt lat="43.45036" lon="2.44061">
        <ele>964</ele>
        <time>2018-04-22T11:31:15Z</time>
      </trkpt>
      <trkpt lat="43.45038" lon="2.44054">
        <ele>963</ele>
        <time>2018-04-22T11:31:16Z</time>
      </trkpt>
      <trkpt lat="43.45042" lon="2.44047">
        <ele>963</ele>
        <time>2018-04-22T11:31:17Z</time>
      </trkpt>
      <trkpt lat="43.45049" lon="2.44035">
        <ele>961</ele>
        <time>2018-04-22T11:31:19Z</time>
      </trkpt>
      <trkpt lat="43.45052" lon="2.44031">
        <ele>961</ele>
        <time>2018-04-22T11:31:20Z</time>
      </trkpt>
      <trkpt lat="43.45057" lon="2.44021">
        <ele>960</ele>
        <time>2018-04-22T11:31:22Z</time>
      </trkpt>
      <trkpt lat="43.45067" lon="2.44017">
        <ele>960</ele>
        <time>2018-04-22T11:31:24Z</time>
      </trkpt>
      <trkpt lat="43.45071" lon="2.44015">
        <ele>959</ele>
        <time>2018-04-22T11:31:25Z</time>
      </trkpt>
      <trkpt lat="43.45077" lon="2.44015">
        <ele>958</ele>
        <time>2018-04-22T11:31:26Z</time>
      </trkpt>
      <trkpt lat="43.45084" lon="2.44015">
        <ele>958</ele>
        <time>2018-04-22T11:31:27Z</time>
      </trkpt>
      <trkpt lat="43.45089" lon="2.44015">
        <ele>957</ele>
        <time>2018-04-22T11:31:28Z</time>
      </trkpt>
      <trkpt lat="43.45094" lon="2.44014">
        <ele>957</ele>
        <time>2018-04-22T11:31:29Z</time>
      </trkpt>
      <trkpt lat="43.45098" lon="2.44014">
        <ele>956</ele>
        <time>2018-04-22T11:31:30Z</time>
      </trkpt>
      <trkpt lat="43.45105" lon="2.44015">
        <ele>956</ele>
        <time>2018-04-22T11:31:32Z</time>
      </trkpt>
      <trkpt lat="43.4511" lon="2.44015">
        <ele>955</ele>
        <time>2018-04-22T11:31:34Z</time>
      </trkpt>
      <trkpt lat="43.45113" lon="2.44014">
        <ele>955</ele>
        <time>2018-04-22T11:31:36Z</time>
      </trkpt>
      <trkpt lat="43.45113" lon="2.44009">
        <ele>956</ele>
        <time>2018-04-22T11:31:42Z</time>
      </trkpt>
      <trkpt lat="43.45113" lon="2.44007">
        <ele>956</ele>
        <time>2018-04-22T11:31:51Z</time>
      </trkpt>
      <trkpt lat="43.45114" lon="2.44006">
        <ele>956</ele>
        <time>2018-04-22T11:31:55Z</time>
      </trkpt>
      <trkpt lat="43.45114" lon="2.44006">
        <ele>955</ele>
        <time>2018-04-22T11:32:11Z</time>
      </trkpt>
      <trkpt lat="43.45116" lon="2.44006">
        <ele>955</ele>
        <time>2018-04-22T11:32:14Z</time>
      </trkpt>
      <trkpt lat="43.4512" lon="2.44008">
        <ele>955</ele>
        <time>2018-04-22T11:32:17Z</time>
      </trkpt>
      <trkpt lat="43.45127" lon="2.44013">
        <ele>955</ele>
        <time>2018-04-22T11:32:20Z</time>
      </trkpt>
      <trkpt lat="43.45129" lon="2.44015">
        <ele>954</ele>
        <time>2018-04-22T11:32:21Z</time>
      </trkpt>
      <trkpt lat="43.45136" lon="2.44022">
        <ele>954</ele>
        <time>2018-04-22T11:32:23Z</time>
      </trkpt>
      <trkpt lat="43.45144" lon="2.44029">
        <ele>953</ele>
        <time>2018-04-22T11:32:25Z</time>
      </trkpt>
      <trkpt lat="43.45147" lon="2.44034">
        <ele>952</ele>
        <time>2018-04-22T11:32:26Z</time>
      </trkpt>
      <trkpt lat="43.45158" lon="2.4405">
        <ele>951</ele>
        <time>2018-04-22T11:32:29Z</time>
      </trkpt>
      <trkpt lat="43.45161" lon="2.44057">
        <ele>951</ele>
        <time>2018-04-22T11:32:30Z</time>
      </trkpt>
      <trkpt lat="43.4517" lon="2.44076">
        <ele>951</ele>
        <time>2018-04-22T11:32:33Z</time>
      </trkpt>
      <trkpt lat="43.45173" lon="2.44083">
        <ele>950</ele>
        <time>2018-04-22T11:32:34Z</time>
      </trkpt>
      <trkpt lat="43.45177" lon="2.441">
        <ele>950</ele>
        <time>2018-04-22T11:32:36Z</time>
      </trkpt>
      <trkpt lat="43.45179" lon="2.44108">
        <ele>949</ele>
        <time>2018-04-22T11:32:37Z</time>
      </trkpt>
      <trkpt lat="43.45183" lon="2.44125">
        <ele>949</ele>
        <time>2018-04-22T11:32:39Z</time>
      </trkpt>
      <trkpt lat="43.45188" lon="2.44145">
        <ele>949</ele>
        <time>2018-04-22T11:32:41Z</time>
      </trkpt>
      <trkpt lat="43.45194" lon="2.44164">
        <ele>948</ele>
        <time>2018-04-22T11:32:43Z</time>
      </trkpt>
      <trkpt lat="43.45199" lon="2.44182">
        <ele>948</ele>
        <time>2018-04-22T11:32:45Z</time>
      </trkpt>
      <trkpt lat="43.45201" lon="2.44192">
        <ele>947</ele>
        <time>2018-04-22T11:32:46Z</time>
      </trkpt>
      <trkpt lat="43.45204" lon="2.44202">
        <ele>947</ele>
        <time>2018-04-22T11:32:47Z</time>
      </trkpt>
      <trkpt lat="43.45211" lon="2.44228">
        <ele>947</ele>
        <time>2018-04-22T11:32:50Z</time>
      </trkpt>
      <trkpt lat="43.45214" lon="2.44237">
        <ele>947</ele>
        <time>2018-04-22T11:32:51Z</time>
      </trkpt>
      <trkpt lat="43.45227" lon="2.44269">
        <ele>947</ele>
        <time>2018-04-22T11:32:55Z</time>
      </trkpt>
      <trkpt lat="43.45232" lon="2.44277">
        <ele>947</ele>
        <time>2018-04-22T11:32:56Z</time>
      </trkpt>
      <trkpt lat="43.45246" lon="2.44301">
        <ele>946</ele>
        <time>2018-04-22T11:32:59Z</time>
      </trkpt>
      <trkpt lat="43.45256" lon="2.44315">
        <ele>946</ele>
        <time>2018-04-22T11:33:01Z</time>
      </trkpt>
      <trkpt lat="43.4527" lon="2.44332">
        <ele>946</ele>
        <time>2018-04-22T11:33:04Z</time>
      </trkpt>
      <trkpt lat="43.45281" lon="2.44342">
        <ele>946</ele>
        <time>2018-04-22T11:33:06Z</time>
      </trkpt>
      <trkpt lat="43.45302" lon="2.44358">
        <ele>945</ele>
        <time>2018-04-22T11:33:09Z</time>
      </trkpt>
      <trkpt lat="43.45308" lon="2.44364">
        <ele>944</ele>
        <time>2018-04-22T11:33:10Z</time>
      </trkpt>
      <trkpt lat="43.45317" lon="2.44369">
        <ele>944</ele>
        <time>2018-04-22T11:33:11Z</time>
      </trkpt>
      <trkpt lat="43.45325" lon="2.44375">
        <ele>943</ele>
        <time>2018-04-22T11:33:12Z</time>
      </trkpt>
      <trkpt lat="43.45332" lon="2.4438">
        <ele>942</ele>
        <time>2018-04-22T11:33:13Z</time>
      </trkpt>
      <trkpt lat="43.45341" lon="2.44386">
        <ele>942</ele>
        <time>2018-04-22T11:33:14Z</time>
      </trkpt>
      <trkpt lat="43.45358" lon="2.44402">
        <ele>941</ele>
        <time>2018-04-22T11:33:16Z</time>
      </trkpt>
      <trkpt lat="43.45366" lon="2.44411">
        <ele>941</ele>
        <time>2018-04-22T11:33:17Z</time>
      </trkpt>
      <trkpt lat="43.45372" lon="2.44421">
        <ele>941</ele>
        <time>2018-04-22T11:33:18Z</time>
      </trkpt>
      <trkpt lat="43.45385" lon="2.44438">
        <ele>940</ele>
        <time>2018-04-22T11:33:20Z</time>
      </trkpt>
      <trkpt lat="43.45392" lon="2.44446">
        <ele>940</ele>
        <time>2018-04-22T11:33:21Z</time>
      </trkpt>
      <trkpt lat="43.45399" lon="2.44452">
        <ele>939</ele>
        <time>2018-04-22T11:33:22Z</time>
      </trkpt>
      <trkpt lat="43.45408" lon="2.44459">
        <ele>938</ele>
        <time>2018-04-22T11:33:23Z</time>
      </trkpt>
      <trkpt lat="43.45418" lon="2.44465">
        <ele>937</ele>
        <time>2018-04-22T11:33:24Z</time>
      </trkpt>
      <trkpt lat="43.45427" lon="2.44469">
        <ele>935</ele>
        <time>2018-04-22T11:33:25Z</time>
      </trkpt>
      <trkpt lat="43.45436" lon="2.44473">
        <ele>934</ele>
        <time>2018-04-22T11:33:26Z</time>
      </trkpt>
      <trkpt lat="43.45447" lon="2.44478">
        <ele>932</ele>
        <time>2018-04-22T11:33:27Z</time>
      </trkpt>
      <trkpt lat="43.45457" lon="2.44483">
        <ele>930</ele>
        <time>2018-04-22T11:33:28Z</time>
      </trkpt>
      <trkpt lat="43.45468" lon="2.44489">
        <ele>929</ele>
        <time>2018-04-22T11:33:29Z</time>
      </trkpt>
      <trkpt lat="43.45502" lon="2.44504">
        <ele>931</ele>
        <time>2018-04-22T11:33:33Z</time>
      </trkpt>
      <trkpt lat="43.45509" lon="2.44507">
        <ele>931</ele>
        <time>2018-04-22T11:33:34Z</time>
      </trkpt>
      <trkpt lat="43.45524" lon="2.44512">
        <ele>931</ele>
        <time>2018-04-22T11:33:36Z</time>
      </trkpt>
      <trkpt lat="43.45545" lon="2.44513">
        <ele>930</ele>
        <time>2018-04-22T11:33:39Z</time>
      </trkpt>
      <trkpt lat="43.4556" lon="2.4451">
        <ele>930</ele>
        <time>2018-04-22T11:33:42Z</time>
      </trkpt>
      <trkpt lat="43.45563" lon="2.4451">
        <ele>931</ele>
        <time>2018-04-22T11:33:45Z</time>
      </trkpt>
      <trkpt lat="43.45565" lon="2.44511">
        <ele>932</ele>
        <time>2018-04-22T11:33:56Z</time>
      </trkpt>
      <trkpt lat="43.45565" lon="2.44511">
        <ele>931</ele>
        <time>2018-04-22T11:34:09Z</time>
      </trkpt>
      <trkpt lat="43.45565" lon="2.44511">
        <ele>931</ele>
        <time>2018-04-22T11:34:11Z</time>
      </trkpt>
      <trkpt lat="43.45565" lon="2.44511">
        <ele>931</ele>
        <time>2018-04-22T11:34:16Z</time>
      </trkpt>
      <trkpt lat="43.45565" lon="2.44511">
        <ele>932</ele>
        <time>2018-04-22T11:34:33Z</time>
      </trkpt>
      <trkpt lat="43.45565" lon="2.44511">
        <ele>931</ele>
        <time>2018-04-22T11:34:36Z</time>
      </trkpt>
      <trkpt lat="43.45566" lon="2.44511">
        <ele>931</ele>
        <time>2018-04-22T11:34:38Z</time>
      </trkpt>
      <trkpt lat="43.45567" lon="2.44509">
        <ele>931</ele>
        <time>2018-04-22T11:34:40Z</time>
      </trkpt>
      <trkpt lat="43.45572" lon="2.44504">
        <ele>931</ele>
        <time>2018-04-22T11:34:43Z</time>
      </trkpt>
      <trkpt lat="43.45576" lon="2.445">
        <ele>931</ele>
        <time>2018-04-22T11:34:45Z</time>
      </trkpt>
      <trkpt lat="43.45588" lon="2.44482">
        <ele>931</ele>
        <time>2018-04-22T11:34:50Z</time>
      </trkpt>
      <trkpt lat="43.4559" lon="2.44478">
        <ele>930</ele>
        <time>2018-04-22T11:34:51Z</time>
      </trkpt>
      <trkpt lat="43.45593" lon="2.44475">
        <ele>930</ele>
        <time>2018-04-22T11:34:52Z</time>
      </trkpt>
      <trkpt lat="43.45606" lon="2.44453">
        <ele>931</ele>
        <time>2018-04-22T11:34:58Z</time>
      </trkpt>
      <trkpt lat="43.45608" lon="2.44449">
        <ele>930</ele>
        <time>2018-04-22T11:34:59Z</time>
      </trkpt>
      <trkpt lat="43.45622" lon="2.44432">
        <ele>931</ele>
        <time>2018-04-22T11:35:04Z</time>
      </trkpt>
      <trkpt lat="43.45626" lon="2.44426">
        <ele>931</ele>
        <time>2018-04-22T11:35:06Z</time>
      </trkpt>
      <trkpt lat="43.45633" lon="2.44421">
        <ele>932</ele>
        <time>2018-04-22T11:35:08Z</time>
      </trkpt>
      <trkpt lat="43.45638" lon="2.44415">
        <ele>933</ele>
        <time>2018-04-22T11:35:10Z</time>
      </trkpt>
      <trkpt lat="43.45644" lon="2.44405">
        <ele>933</ele>
        <time>2018-04-22T11:35:13Z</time>
      </trkpt>
      <trkpt lat="43.45649" lon="2.444">
        <ele>933</ele>
        <time>2018-04-22T11:35:16Z</time>
      </trkpt>
      <trkpt lat="43.45654" lon="2.44396">
        <ele>934</ele>
        <time>2018-04-22T11:35:18Z</time>
      </trkpt>
      <trkpt lat="43.45661" lon="2.44384">
        <ele>935</ele>
        <time>2018-04-22T11:35:22Z</time>
      </trkpt>
      <trkpt lat="43.45664" lon="2.44378">
        <ele>935</ele>
        <time>2018-04-22T11:35:24Z</time>
      </trkpt>
      <trkpt lat="43.45669" lon="2.44366">
        <ele>936</ele>
        <time>2018-04-22T11:35:27Z</time>
      </trkpt>
      <trkpt lat="43.45671" lon="2.44362">
        <ele>935</ele>
        <time>2018-04-22T11:35:28Z</time>
      </trkpt>
      <trkpt lat="43.45686" lon="2.44337">
        <ele>935</ele>
        <time>2018-04-22T11:35:34Z</time>
      </trkpt>
      <trkpt lat="43.457" lon="2.44316">
        <ele>935</ele>
        <time>2018-04-22T11:35:40Z</time>
      </trkpt>
      <trkpt lat="43.45709" lon="2.44293">
        <ele>935</ele>
        <time>2018-04-22T11:35:45Z</time>
      </trkpt>
      <trkpt lat="43.45716" lon="2.44272">
        <ele>934</ele>
        <time>2018-04-22T11:35:49Z</time>
      </trkpt>
      <trkpt lat="43.45721" lon="2.44264">
        <ele>934</ele>
        <time>2018-04-22T11:35:51Z</time>
      </trkpt>
      <trkpt lat="43.45726" lon="2.4425">
        <ele>934</ele>
        <time>2018-04-22T11:35:53Z</time>
      </trkpt>
      <trkpt lat="43.45732" lon="2.44236">
        <ele>933</ele>
        <time>2018-04-22T11:35:55Z</time>
      </trkpt>
      <trkpt lat="43.45734" lon="2.44228">
        <ele>933</ele>
        <time>2018-04-22T11:35:56Z</time>
      </trkpt>
      <trkpt lat="43.4574" lon="2.44214">
        <ele>932</ele>
        <time>2018-04-22T11:35:58Z</time>
      </trkpt>
      <trkpt lat="43.45742" lon="2.44205">
        <ele>932</ele>
        <time>2018-04-22T11:35:59Z</time>
      </trkpt>
      <trkpt lat="43.45745" lon="2.44198">
        <ele>931</ele>
        <time>2018-04-22T11:36:00Z</time>
      </trkpt>
      <trkpt lat="43.45752" lon="2.44184">
        <ele>931</ele>
        <time>2018-04-22T11:36:02Z</time>
      </trkpt>
      <trkpt lat="43.4576" lon="2.44165">
        <ele>930</ele>
        <time>2018-04-22T11:36:04Z</time>
      </trkpt>
      <trkpt lat="43.45776" lon="2.44143">
        <ele>930</ele>
        <time>2018-04-22T11:36:07Z</time>
      </trkpt>
      <trkpt lat="43.45786" lon="2.44117">
        <ele>929</ele>
        <time>2018-04-22T11:36:10Z</time>
      </trkpt>
      <trkpt lat="43.45791" lon="2.44109">
        <ele>928</ele>
        <time>2018-04-22T11:36:11Z</time>
      </trkpt>
      <trkpt lat="43.45795" lon="2.441">
        <ele>928</ele>
        <time>2018-04-22T11:36:12Z</time>
      </trkpt>
      <trkpt lat="43.45804" lon="2.44086">
        <ele>928</ele>
        <time>2018-04-22T11:36:14Z</time>
      </trkpt>
      <trkpt lat="43.45809" lon="2.44079">
        <ele>928</ele>
        <time>2018-04-22T11:36:15Z</time>
      </trkpt>
      <trkpt lat="43.45824" lon="2.44054">
        <ele>928</ele>
        <time>2018-04-22T11:36:18Z</time>
      </trkpt>
      <trkpt lat="43.45833" lon="2.4404">
        <ele>928</ele>
        <time>2018-04-22T11:36:20Z</time>
      </trkpt>
      <trkpt lat="43.45842" lon="2.44025">
        <ele>928</ele>
        <time>2018-04-22T11:36:22Z</time>
      </trkpt>
      <trkpt lat="43.45848" lon="2.4402">
        <ele>928</ele>
        <time>2018-04-22T11:36:23Z</time>
      </trkpt>
      <trkpt lat="43.45865" lon="2.43997">
        <ele>927</ele>
        <time>2018-04-22T11:36:27Z</time>
      </trkpt>
      <trkpt lat="43.45873" lon="2.43986">
        <ele>927</ele>
        <time>2018-04-22T11:36:29Z</time>
      </trkpt>
      <trkpt lat="43.45883" lon="2.43974">
        <ele>927</ele>
        <time>2018-04-22T11:36:31Z</time>
      </trkpt>
      <trkpt lat="43.45897" lon="2.43957">
        <ele>927</ele>
        <time>2018-04-22T11:36:34Z</time>
      </trkpt>
      <trkpt lat="43.45902" lon="2.43952">
        <ele>927</ele>
        <time>2018-04-22T11:36:35Z</time>
      </trkpt>
      <trkpt lat="43.45914" lon="2.43934">
        <ele>927</ele>
        <time>2018-04-22T11:36:38Z</time>
      </trkpt>
      <trkpt lat="43.45926" lon="2.43913">
        <ele>926</ele>
        <time>2018-04-22T11:36:41Z</time>
      </trkpt>
      <trkpt lat="43.45934" lon="2.43897">
        <ele>926</ele>
        <time>2018-04-22T11:36:43Z</time>
      </trkpt>
      <trkpt lat="43.45944" lon="2.43877">
        <ele>926</ele>
        <time>2018-04-22T11:36:46Z</time>
      </trkpt>
      <trkpt lat="43.45952" lon="2.43864">
        <ele>926</ele>
        <time>2018-04-22T11:36:48Z</time>
      </trkpt>
      <trkpt lat="43.45959" lon="2.43855">
        <ele>926</ele>
        <time>2018-04-22T11:36:50Z</time>
      </trkpt>
      <trkpt lat="43.45966" lon="2.43845">
        <ele>927</ele>
        <time>2018-04-22T11:36:52Z</time>
      </trkpt>
      <trkpt lat="43.4597" lon="2.43841">
        <ele>927</ele>
        <time>2018-04-22T11:36:53Z</time>
      </trkpt>
      <trkpt lat="43.45983" lon="2.4382">
        <ele>928</ele>
        <time>2018-04-22T11:36:57Z</time>
      </trkpt>
      <trkpt lat="43.45992" lon="2.43803">
        <ele>929</ele>
        <time>2018-04-22T11:37:00Z</time>
      </trkpt>
      <trkpt lat="43.45997" lon="2.43791">
        <ele>929</ele>
        <time>2018-04-22T11:37:02Z</time>
      </trkpt>
      <trkpt lat="43.46008" lon="2.43757">
        <ele>929</ele>
        <time>2018-04-22T11:37:07Z</time>
      </trkpt>
      <trkpt lat="43.4601" lon="2.43726">
        <ele>928</ele>
        <time>2018-04-22T11:37:11Z</time>
      </trkpt>
      <trkpt lat="43.46014" lon="2.43713">
        <ele>929</ele>
        <time>2018-04-22T11:37:13Z</time>
      </trkpt>
      <trkpt lat="43.46029" lon="2.43689">
        <ele>929</ele>
        <time>2018-04-22T11:37:18Z</time>
      </trkpt>
      <trkpt lat="43.46035" lon="2.43674">
        <ele>930</ele>
        <time>2018-04-22T11:37:21Z</time>
      </trkpt>
      <trkpt lat="43.46038" lon="2.43664">
        <ele>930</ele>
        <time>2018-04-22T11:37:23Z</time>
      </trkpt>
      <trkpt lat="43.46042" lon="2.43654">
        <ele>930</ele>
        <time>2018-04-22T11:37:25Z</time>
      </trkpt>
      <trkpt lat="43.46051" lon="2.43636">
        <ele>929</ele>
        <time>2018-04-22T11:37:28Z</time>
      </trkpt>
      <trkpt lat="43.46058" lon="2.43625">
        <ele>929</ele>
        <time>2018-04-22T11:37:30Z</time>
      </trkpt>
      <trkpt lat="43.46075" lon="2.43608">
        <ele>929</ele>
        <time>2018-04-22T11:37:34Z</time>
      </trkpt>
      <trkpt lat="43.46094" lon="2.43595">
        <ele>927</ele>
        <time>2018-04-22T11:37:38Z</time>
      </trkpt>
      <trkpt lat="43.46105" lon="2.43589">
        <ele>927</ele>
        <time>2018-04-22T11:37:40Z</time>
      </trkpt>
      <trkpt lat="43.4614" lon="2.43574">
        <ele>926</ele>
        <time>2018-04-22T11:37:47Z</time>
      </trkpt>
      <trkpt lat="43.46179" lon="2.43564">
        <ele>927</ele>
        <time>2018-04-22T11:37:55Z</time>
      </trkpt>
      <trkpt lat="43.4621" lon="2.43561">
        <ele>928</ele>
        <time>2018-04-22T11:38:02Z</time>
      </trkpt>
      <trkpt lat="43.46214" lon="2.4356">
        <ele>928</ele>
        <time>2018-04-22T11:38:03Z</time>
      </trkpt>
      <trkpt lat="43.46218" lon="2.43558">
        <ele>929</ele>
        <time>2018-04-22T11:38:04Z</time>
      </trkpt>
      <trkpt lat="43.4623" lon="2.43551">
        <ele>928</ele>
        <time>2018-04-22T11:38:07Z</time>
      </trkpt>
      <trkpt lat="43.46257" lon="2.4353">
        <ele>928</ele>
        <time>2018-04-22T11:38:14Z</time>
      </trkpt>
      <trkpt lat="43.46264" lon="2.43522">
        <ele>927</ele>
        <time>2018-04-22T11:38:16Z</time>
      </trkpt>
      <trkpt lat="43.46268" lon="2.43517">
        <ele>927</ele>
        <time>2018-04-22T11:38:17Z</time>
      </trkpt>
      <trkpt lat="43.4628" lon="2.43506">
        <ele>925</ele>
        <time>2018-04-22T11:38:20Z</time>
      </trkpt>
      <trkpt lat="43.4629" lon="2.43499">
        <ele>924</ele>
        <time>2018-04-22T11:38:22Z</time>
      </trkpt>
      <trkpt lat="43.46296" lon="2.43496">
        <ele>924</ele>
        <time>2018-04-22T11:38:23Z</time>
      </trkpt>
      <trkpt lat="43.46311" lon="2.43485">
        <ele>923</ele>
        <time>2018-04-22T11:38:26Z</time>
      </trkpt>
      <trkpt lat="43.46316" lon="2.43482">
        <ele>922</ele>
        <time>2018-04-22T11:38:27Z</time>
      </trkpt>
      <trkpt lat="43.46321" lon="2.43478">
        <ele>921</ele>
        <time>2018-04-22T11:38:28Z</time>
      </trkpt>
      <trkpt lat="43.46337" lon="2.43464">
        <ele>922</ele>
        <time>2018-04-22T11:38:31Z</time>
      </trkpt>
      <trkpt lat="43.46341" lon="2.4346">
        <ele>922</ele>
        <time>2018-04-22T11:38:32Z</time>
      </trkpt>
      <trkpt lat="43.46352" lon="2.43449">
        <ele>920</ele>
        <time>2018-04-22T11:38:34Z</time>
      </trkpt>
      <trkpt lat="43.46357" lon="2.43443">
        <ele>919</ele>
        <time>2018-04-22T11:38:35Z</time>
      </trkpt>
      <trkpt lat="43.46361" lon="2.43436">
        <ele>918</ele>
        <time>2018-04-22T11:38:36Z</time>
      </trkpt>
      <trkpt lat="43.46366" lon="2.4343">
        <ele>917</ele>
        <time>2018-04-22T11:38:37Z</time>
      </trkpt>
      <trkpt lat="43.46371" lon="2.43425">
        <ele>916</ele>
        <time>2018-04-22T11:38:38Z</time>
      </trkpt>
      <trkpt lat="43.46379" lon="2.43414">
        <ele>914</ele>
        <time>2018-04-22T11:38:40Z</time>
      </trkpt>
      <trkpt lat="43.46385" lon="2.43404">
        <ele>916</ele>
        <time>2018-04-22T11:38:42Z</time>
      </trkpt>
      <trkpt lat="43.4639" lon="2.43395">
        <ele>915</ele>
        <time>2018-04-22T11:38:44Z</time>
      </trkpt>
      <trkpt lat="43.46396" lon="2.43387">
        <ele>913</ele>
        <time>2018-04-22T11:38:46Z</time>
      </trkpt>
      <trkpt lat="43.46399" lon="2.43383">
        <ele>913</ele>
        <time>2018-04-22T11:38:47Z</time>
      </trkpt>
      <trkpt lat="43.46402" lon="2.4338">
        <ele>912</ele>
        <time>2018-04-22T11:38:48Z</time>
      </trkpt>
      <trkpt lat="43.46409" lon="2.43374">
        <ele>912</ele>
        <time>2018-04-22T11:38:50Z</time>
      </trkpt>
      <trkpt lat="43.46416" lon="2.43365">
        <ele>910</ele>
        <time>2018-04-22T11:38:52Z</time>
      </trkpt>
      <trkpt lat="43.4642" lon="2.4336">
        <ele>909</ele>
        <time>2018-04-22T11:38:53Z</time>
      </trkpt>
      <trkpt lat="43.46428" lon="2.43349">
        <ele>908</ele>
        <time>2018-04-22T11:38:56Z</time>
      </trkpt>
      <trkpt lat="43.4643" lon="2.43346">
        <ele>908</ele>
        <time>2018-04-22T11:38:57Z</time>
      </trkpt>
      <trkpt lat="43.46438" lon="2.43337">
        <ele>907</ele>
        <time>2018-04-22T11:39:00Z</time>
      </trkpt>
      <trkpt lat="43.46443" lon="2.43331">
        <ele>905</ele>
        <time>2018-04-22T11:39:02Z</time>
      </trkpt>
      <trkpt lat="43.46454" lon="2.43316">
        <ele>903</ele>
        <time>2018-04-22T11:39:06Z</time>
      </trkpt>
      <trkpt lat="43.46456" lon="2.43312">
        <ele>903</ele>
        <time>2018-04-22T11:39:07Z</time>
      </trkpt>
      <trkpt lat="43.46459" lon="2.43308">
        <ele>902</ele>
        <time>2018-04-22T11:39:08Z</time>
      </trkpt>
      <trkpt lat="43.46469" lon="2.43295">
        <ele>901</ele>
        <time>2018-04-22T11:39:11Z</time>
      </trkpt>
      <trkpt lat="43.46477" lon="2.43288">
        <ele>900</ele>
        <time>2018-04-22T11:39:13Z</time>
      </trkpt>
      <trkpt lat="43.46492" lon="2.43272">
        <ele>898</ele>
        <time>2018-04-22T11:39:17Z</time>
      </trkpt>
      <trkpt lat="43.46496" lon="2.43267">
        <ele>897</ele>
        <time>2018-04-22T11:39:18Z</time>
      </trkpt>
      <trkpt lat="43.46507" lon="2.43252">
        <ele>898</ele>
        <time>2018-04-22T11:39:21Z</time>
      </trkpt>
      <trkpt lat="43.46528" lon="2.43229">
        <ele>896</ele>
        <time>2018-04-22T11:39:26Z</time>
      </trkpt>
      <trkpt lat="43.46532" lon="2.43223">
        <ele>896</ele>
        <time>2018-04-22T11:39:27Z</time>
      </trkpt>
      <trkpt lat="43.46537" lon="2.43219">
        <ele>894</ele>
        <time>2018-04-22T11:39:28Z</time>
      </trkpt>
      <trkpt lat="43.46551" lon="2.43206">
        <ele>893</ele>
        <time>2018-04-22T11:39:31Z</time>
      </trkpt>
      <trkpt lat="43.46554" lon="2.43201">
        <ele>892</ele>
        <time>2018-04-22T11:39:32Z</time>
      </trkpt>
      <trkpt lat="43.46557" lon="2.43195">
        <ele>892</ele>
        <time>2018-04-22T11:39:33Z</time>
      </trkpt>
      <trkpt lat="43.46563" lon="2.43183">
        <ele>891</ele>
        <time>2018-04-22T11:39:35Z</time>
      </trkpt>
      <trkpt lat="43.4657" lon="2.43173">
        <ele>890</ele>
        <time>2018-04-22T11:39:37Z</time>
      </trkpt>
      <trkpt lat="43.46573" lon="2.43169">
        <ele>889</ele>
        <time>2018-04-22T11:39:38Z</time>
      </trkpt>
      <trkpt lat="43.4658" lon="2.43156">
        <ele>888</ele>
        <time>2018-04-22T11:39:40Z</time>
      </trkpt>
      <trkpt lat="43.46582" lon="2.43149">
        <ele>886</ele>
        <time>2018-04-22T11:39:41Z</time>
      </trkpt>
      <trkpt lat="43.46585" lon="2.43141">
        <ele>886</ele>
        <time>2018-04-22T11:39:42Z</time>
      </trkpt>
      <trkpt lat="43.46588" lon="2.43135">
        <ele>886</ele>
        <time>2018-04-22T11:39:43Z</time>
      </trkpt>
      <trkpt lat="43.46592" lon="2.4313">
        <ele>885</ele>
        <time>2018-04-22T11:39:44Z</time>
      </trkpt>
      <trkpt lat="43.46596" lon="2.43126">
        <ele>885</ele>
        <time>2018-04-22T11:39:45Z</time>
      </trkpt>
      <trkpt lat="43.46604" lon="2.43121">
        <ele>884</ele>
        <time>2018-04-22T11:39:47Z</time>
      </trkpt>
      <trkpt lat="43.46611" lon="2.43115">
        <ele>884</ele>
        <time>2018-04-22T11:39:49Z</time>
      </trkpt>
      <trkpt lat="43.46616" lon="2.43105">
        <ele>882</ele>
        <time>2018-04-22T11:39:51Z</time>
      </trkpt>
      <trkpt lat="43.46621" lon="2.43096">
        <ele>881</ele>
        <time>2018-04-22T11:39:53Z</time>
      </trkpt>
      <trkpt lat="43.46624" lon="2.43092">
        <ele>881</ele>
        <time>2018-04-22T11:39:54Z</time>
      </trkpt>
      <trkpt lat="43.46628" lon="2.4309">
        <ele>879</ele>
        <time>2018-04-22T11:39:55Z</time>
      </trkpt>
      <trkpt lat="43.46636" lon="2.43084">
        <ele>878</ele>
        <time>2018-04-22T11:39:57Z</time>
      </trkpt>
      <trkpt lat="43.46643" lon="2.43072">
        <ele>876</ele>
        <time>2018-04-22T11:39:59Z</time>
      </trkpt>
      <trkpt lat="43.46646" lon="2.43067">
        <ele>876</ele>
        <time>2018-04-22T11:40:00Z</time>
      </trkpt>
      <trkpt lat="43.46652" lon="2.43058">
        <ele>875</ele>
        <time>2018-04-22T11:40:02Z</time>
      </trkpt>
      <trkpt lat="43.4666" lon="2.43043">
        <ele>874</ele>
        <time>2018-04-22T11:40:05Z</time>
      </trkpt>
      <trkpt lat="43.46665" lon="2.43035">
        <ele>872</ele>
        <time>2018-04-22T11:40:07Z</time>
      </trkpt>
      <trkpt lat="43.46667" lon="2.43031">
        <ele>871</ele>
        <time>2018-04-22T11:40:08Z</time>
      </trkpt>
      <trkpt lat="43.4667" lon="2.43026">
        <ele>870</ele>
        <time>2018-04-22T11:40:09Z</time>
      </trkpt>
      <trkpt lat="43.46678" lon="2.43013">
        <ele>868</ele>
        <time>2018-04-22T11:40:12Z</time>
      </trkpt>
      <trkpt lat="43.4668" lon="2.43008">
        <ele>868</ele>
        <time>2018-04-22T11:40:13Z</time>
      </trkpt>
      <trkpt lat="43.46687" lon="2.42994">
        <ele>866</ele>
        <time>2018-04-22T11:40:16Z</time>
      </trkpt>
      <trkpt lat="43.46687" lon="2.42989">
        <ele>866</ele>
        <time>2018-04-22T11:40:17Z</time>
      </trkpt>
      <trkpt lat="43.46687" lon="2.42974">
        <ele>864</ele>
        <time>2018-04-22T11:40:20Z</time>
      </trkpt>
      <trkpt lat="43.46688" lon="2.42969">
        <ele>864</ele>
        <time>2018-04-22T11:40:21Z</time>
      </trkpt>
      <trkpt lat="43.46689" lon="2.42964">
        <ele>863</ele>
        <time>2018-04-22T11:40:22Z</time>
      </trkpt>
      <trkpt lat="43.46693" lon="2.42954">
        <ele>862</ele>
        <time>2018-04-22T11:40:24Z</time>
      </trkpt>
      <trkpt lat="43.46695" lon="2.42949">
        <ele>862</ele>
        <time>2018-04-22T11:40:25Z</time>
      </trkpt>
      <trkpt lat="43.46697" lon="2.42944">
        <ele>861</ele>
        <time>2018-04-22T11:40:26Z</time>
      </trkpt>
      <trkpt lat="43.46702" lon="2.42935">
        <ele>860</ele>
        <time>2018-04-22T11:40:28Z</time>
      </trkpt>
      <trkpt lat="43.46703" lon="2.4293">
        <ele>858</ele>
        <time>2018-04-22T11:40:29Z</time>
      </trkpt>
      <trkpt lat="43.46704" lon="2.42926">
        <ele>857</ele>
        <time>2018-04-22T11:40:30Z</time>
      </trkpt>
      <trkpt lat="43.46706" lon="2.42917">
        <ele>855</ele>
        <time>2018-04-22T11:40:32Z</time>
      </trkpt>
      <trkpt lat="43.46708" lon="2.42908">
        <ele>854</ele>
        <time>2018-04-22T11:40:34Z</time>
      </trkpt>
      <trkpt lat="43.4671" lon="2.42901">
        <ele>853</ele>
        <time>2018-04-22T11:40:36Z</time>
      </trkpt>
      <trkpt lat="43.46712" lon="2.42898">
        <ele>853</ele>
        <time>2018-04-22T11:40:37Z</time>
      </trkpt>
      <trkpt lat="43.46715" lon="2.42881">
        <ele>852</ele>
        <time>2018-04-22T11:40:41Z</time>
      </trkpt>
      <trkpt lat="43.46715" lon="2.42877">
        <ele>851</ele>
        <time>2018-04-22T11:40:42Z</time>
      </trkpt>
      <trkpt lat="43.46713" lon="2.42859">
        <ele>849</ele>
        <time>2018-04-22T11:40:46Z</time>
      </trkpt>
      <trkpt lat="43.46712" lon="2.42854">
        <ele>848</ele>
        <time>2018-04-22T11:40:47Z</time>
      </trkpt>
      <trkpt lat="43.46712" lon="2.42849">
        <ele>847</ele>
        <time>2018-04-22T11:40:48Z</time>
      </trkpt>
      <trkpt lat="43.46704" lon="2.4283">
        <ele>846</ele>
        <time>2018-04-22T11:40:52Z</time>
      </trkpt>
      <trkpt lat="43.46699" lon="2.4282">
        <ele>845</ele>
        <time>2018-04-22T11:40:54Z</time>
      </trkpt>
      <trkpt lat="43.46698" lon="2.42814">
        <ele>843</ele>
        <time>2018-04-22T11:40:55Z</time>
      </trkpt>
      <trkpt lat="43.46696" lon="2.42801">
        <ele>843</ele>
        <time>2018-04-22T11:40:57Z</time>
      </trkpt>
      <trkpt lat="43.46693" lon="2.42785">
        <ele>842</ele>
        <time>2018-04-22T11:40:59Z</time>
      </trkpt>
      <trkpt lat="43.46691" lon="2.42767">
        <ele>840</ele>
        <time>2018-04-22T11:41:01Z</time>
      </trkpt>
      <trkpt lat="43.46689" lon="2.42759">
        <ele>840</ele>
        <time>2018-04-22T11:41:02Z</time>
      </trkpt>
      <trkpt lat="43.46682" lon="2.42732">
        <ele>839</ele>
        <time>2018-04-22T11:41:05Z</time>
      </trkpt>
      <trkpt lat="43.4668" lon="2.42723">
        <ele>839</ele>
        <time>2018-04-22T11:41:06Z</time>
      </trkpt>
      <trkpt lat="43.46679" lon="2.42695">
        <ele>839</ele>
        <time>2018-04-22T11:41:09Z</time>
      </trkpt>
      <trkpt lat="43.4668" lon="2.4268">
        <ele>839</ele>
        <time>2018-04-22T11:41:11Z</time>
      </trkpt>
      <trkpt lat="43.46682" lon="2.4267">
        <ele>838</ele>
        <time>2018-04-22T11:41:13Z</time>
      </trkpt>
      <trkpt lat="43.46685" lon="2.42662">
        <ele>839</ele>
        <time>2018-04-22T11:41:15Z</time>
      </trkpt>
      <trkpt lat="43.46687" lon="2.42658">
        <ele>839</ele>
        <time>2018-04-22T11:41:17Z</time>
      </trkpt>
      <trkpt lat="43.46688" lon="2.42658">
        <ele>839</ele>
        <time>2018-04-22T11:41:22Z</time>
      </trkpt>
      <trkpt lat="43.46688" lon="2.42658">
        <ele>839</ele>
        <time>2018-04-22T11:41:30Z</time>
      </trkpt>
      <trkpt lat="43.46688" lon="2.42658">
        <ele>839</ele>
        <time>2018-04-22T11:41:38Z</time>
      </trkpt>
      <trkpt lat="43.46688" lon="2.42658">
        <ele>839</ele>
        <time>2018-04-22T11:41:43Z</time>
      </trkpt>
      <trkpt lat="43.46688" lon="2.42658">
        <ele>839</ele>
        <time>2018-04-22T11:41:47Z</time>
      </trkpt>
      <trkpt lat="43.46688" lon="2.42657">
        <ele>839</ele>
        <time>2018-04-22T11:41:52Z</time>
      </trkpt>
      <trkpt lat="43.46688" lon="2.42657">
        <ele>839</ele>
        <time>2018-04-22T11:41:54Z</time>
      </trkpt>
      <trkpt lat="43.46688" lon="2.42658">
        <ele>838</ele>
        <time>2018-04-22T11:42:04Z</time>
      </trkpt>
      <trkpt lat="43.46688" lon="2.42658">
        <ele>838</ele>
        <time>2018-04-22T11:42:10Z</time>
      </trkpt>
      <trkpt lat="43.46688" lon="2.42658">
        <ele>838</ele>
        <time>2018-04-22T11:42:18Z</time>
      </trkpt>
      <trkpt lat="43.46688" lon="2.42658">
        <ele>838</ele>
        <time>2018-04-22T11:42:39Z</time>
      </trkpt>
      <trkpt lat="43.46688" lon="2.42658">
        <ele>838</ele>
        <time>2018-04-22T11:42:41Z</time>
      </trkpt>
      <trkpt lat="43.46688" lon="2.42658">
        <ele>838</ele>
        <time>2018-04-22T11:42:51Z</time>
      </trkpt>
      <trkpt lat="43.46688" lon="2.42658">
        <ele>839</ele>
        <time>2018-04-22T11:43:06Z</time>
      </trkpt>
      <trkpt lat="43.46688" lon="2.42658">
        <ele>838</ele>
        <time>2018-04-22T11:43:44Z</time>
      </trkpt>
      <trkpt lat="43.46688" lon="2.42657">
        <ele>839</ele>
        <time>2018-04-22T11:43:50Z</time>
      </trkpt>
      <trkpt lat="43.46688" lon="2.42657">
        <ele>838</ele>
        <time>2018-04-22T11:43:58Z</time>
      </trkpt>
      <trkpt lat="43.46689" lon="2.42655">
        <ele>838</ele>
        <time>2018-04-22T11:44:07Z</time>
      </trkpt>
      <trkpt lat="43.46691" lon="2.42652">
        <ele>838</ele>
        <time>2018-04-22T11:44:09Z</time>
      </trkpt>
      <trkpt lat="43.46692" lon="2.42647">
        <ele>838</ele>
        <time>2018-04-22T11:44:11Z</time>
      </trkpt>
      <trkpt lat="43.46693" lon="2.42644">
        <ele>838</ele>
        <time>2018-04-22T11:44:12Z</time>
      </trkpt>
      <trkpt lat="43.46696" lon="2.42634">
        <ele>838</ele>
        <time>2018-04-22T11:44:15Z</time>
      </trkpt>
      <trkpt lat="43.467" lon="2.42605">
        <ele>838</ele>
        <time>2018-04-22T11:44:21Z</time>
      </trkpt>
      <trkpt lat="43.467" lon="2.42582">
        <ele>838</ele>
        <time>2018-04-22T11:44:25Z</time>
      </trkpt>
      <trkpt lat="43.467" lon="2.42558">
        <ele>837</ele>
        <time>2018-04-22T11:44:29Z</time>
      </trkpt>
      <trkpt lat="43.46701" lon="2.42551">
        <ele>837</ele>
        <time>2018-04-22T11:44:30Z</time>
      </trkpt>
      <trkpt lat="43.46703" lon="2.42509">
        <ele>836</ele>
        <time>2018-04-22T11:44:36Z</time>
      </trkpt>
      <trkpt lat="43.46703" lon="2.42502">
        <ele>836</ele>
        <time>2018-04-22T11:44:37Z</time>
      </trkpt>
      <trkpt lat="43.46711" lon="2.42452">
        <ele>834</ele>
        <time>2018-04-22T11:44:43Z</time>
      </trkpt>
      <trkpt lat="43.46716" lon="2.42424">
        <ele>832</ele>
        <time>2018-04-22T11:44:46Z</time>
      </trkpt>
      <trkpt lat="43.46717" lon="2.42415">
        <ele>830</ele>
        <time>2018-04-22T11:44:47Z</time>
      </trkpt>
      <trkpt lat="43.46718" lon="2.42405">
        <ele>829</ele>
        <time>2018-04-22T11:44:48Z</time>
      </trkpt>
      <trkpt lat="43.46719" lon="2.42397">
        <ele>829</ele>
        <time>2018-04-22T11:44:49Z</time>
      </trkpt>
      <trkpt lat="43.46719" lon="2.42389">
        <ele>830</ele>
        <time>2018-04-22T11:44:50Z</time>
      </trkpt>
      <trkpt lat="43.4672" lon="2.4237">
        <ele>829</ele>
        <time>2018-04-22T11:44:52Z</time>
      </trkpt>
      <trkpt lat="43.4672" lon="2.42361">
        <ele>828</ele>
        <time>2018-04-22T11:44:53Z</time>
      </trkpt>
      <trkpt lat="43.46723" lon="2.42335">
        <ele>827</ele>
        <time>2018-04-22T11:44:56Z</time>
      </trkpt>
      <trkpt lat="43.46723" lon="2.42326">
        <ele>825</ele>
        <time>2018-04-22T11:44:57Z</time>
      </trkpt>
      <trkpt lat="43.46722" lon="2.42317">
        <ele>825</ele>
        <time>2018-04-22T11:44:58Z</time>
      </trkpt>
      <trkpt lat="43.46721" lon="2.42307">
        <ele>824</ele>
        <time>2018-04-22T11:44:59Z</time>
      </trkpt>
      <trkpt lat="43.46718" lon="2.42298">
        <ele>824</ele>
        <time>2018-04-22T11:45:00Z</time>
      </trkpt>
      <trkpt lat="43.46716" lon="2.42288">
        <ele>824</ele>
        <time>2018-04-22T11:45:01Z</time>
      </trkpt>
      <trkpt lat="43.46712" lon="2.42257">
        <ele>823</ele>
        <time>2018-04-22T11:45:05Z</time>
      </trkpt>
      <trkpt lat="43.46712" lon="2.42245">
        <ele>822</ele>
        <time>2018-04-22T11:45:09Z</time>
      </trkpt>
      <trkpt lat="43.46713" lon="2.42244">
        <ele>822</ele>
        <time>2018-04-22T11:45:10Z</time>
      </trkpt>
      <trkpt lat="43.46717" lon="2.42242">
        <ele>822</ele>
        <time>2018-04-22T11:45:13Z</time>
      </trkpt>
      <trkpt lat="43.46723" lon="2.42238">
        <ele>821</ele>
        <time>2018-04-22T11:45:15Z</time>
      </trkpt>
      <trkpt lat="43.46726" lon="2.42235">
        <ele>820</ele>
        <time>2018-04-22T11:45:16Z</time>
      </trkpt>
      <trkpt lat="43.46731" lon="2.42224">
        <ele>819</ele>
        <time>2018-04-22T11:45:18Z</time>
      </trkpt>
      <trkpt lat="43.46734" lon="2.42222">
        <ele>818</ele>
        <time>2018-04-22T11:45:19Z</time>
      </trkpt>
      <trkpt lat="43.46742" lon="2.42222">
        <ele>817</ele>
        <time>2018-04-22T11:45:21Z</time>
      </trkpt>
      <trkpt lat="43.46748" lon="2.42223">
        <ele>816</ele>
        <time>2018-04-22T11:45:22Z</time>
      </trkpt>
      <trkpt lat="43.46752" lon="2.42222">
        <ele>814</ele>
        <time>2018-04-22T11:45:23Z</time>
      </trkpt>
      <trkpt lat="43.46757" lon="2.42219">
        <ele>813</ele>
        <time>2018-04-22T11:45:24Z</time>
      </trkpt>
      <trkpt lat="43.46762" lon="2.42217">
        <ele>812</ele>
        <time>2018-04-22T11:45:25Z</time>
      </trkpt>
      <trkpt lat="43.46765" lon="2.42216">
        <ele>811</ele>
        <time>2018-04-22T11:45:26Z</time>
      </trkpt>
      <trkpt lat="43.4677" lon="2.42215">
        <ele>809</ele>
        <time>2018-04-22T11:45:28Z</time>
      </trkpt>
      <trkpt lat="43.46779" lon="2.42212">
        <ele>807</ele>
        <time>2018-04-22T11:45:30Z</time>
      </trkpt>
      <trkpt lat="43.46785" lon="2.4221">
        <ele>806</ele>
        <time>2018-04-22T11:45:31Z</time>
      </trkpt>
      <trkpt lat="43.46791" lon="2.42207">
        <ele>806</ele>
        <time>2018-04-22T11:45:32Z</time>
      </trkpt>
      <trkpt lat="43.468" lon="2.42203">
        <ele>805</ele>
        <time>2018-04-22T11:45:34Z</time>
      </trkpt>
      <trkpt lat="43.46802" lon="2.42201">
        <ele>805</ele>
        <time>2018-04-22T11:45:35Z</time>
      </trkpt>
      <trkpt lat="43.46805" lon="2.42201">
        <ele>804</ele>
        <time>2018-04-22T11:45:36Z</time>
      </trkpt>
      <trkpt lat="43.46809" lon="2.42201">
        <ele>804</ele>
        <time>2018-04-22T11:45:37Z</time>
      </trkpt>
      <trkpt lat="43.46814" lon="2.42201">
        <ele>803</ele>
        <time>2018-04-22T11:45:38Z</time>
      </trkpt>
      <trkpt lat="43.4682" lon="2.42199">
        <ele>802</ele>
        <time>2018-04-22T11:45:39Z</time>
      </trkpt>
      <trkpt lat="43.46825" lon="2.42198">
        <ele>800</ele>
        <time>2018-04-22T11:45:40Z</time>
      </trkpt>
      <trkpt lat="43.4683" lon="2.42196">
        <ele>799</ele>
        <time>2018-04-22T11:45:41Z</time>
      </trkpt>
      <trkpt lat="43.46836" lon="2.42195">
        <ele>799</ele>
        <time>2018-04-22T11:45:42Z</time>
      </trkpt>
      <trkpt lat="43.46846" lon="2.42186">
        <ele>797</ele>
        <time>2018-04-22T11:45:44Z</time>
      </trkpt>
      <trkpt lat="43.46851" lon="2.42179">
        <ele>795</ele>
        <time>2018-04-22T11:45:45Z</time>
      </trkpt>
      <trkpt lat="43.46856" lon="2.42171">
        <ele>794</ele>
        <time>2018-04-22T11:45:46Z</time>
      </trkpt>
      <trkpt lat="43.4686" lon="2.42166">
        <ele>793</ele>
        <time>2018-04-22T11:45:47Z</time>
      </trkpt>
      <trkpt lat="43.46862" lon="2.4216">
        <ele>792</ele>
        <time>2018-04-22T11:45:48Z</time>
      </trkpt>
      <trkpt lat="43.46865" lon="2.42153">
        <ele>791</ele>
        <time>2018-04-22T11:45:49Z</time>
      </trkpt>
      <trkpt lat="43.46872" lon="2.42141">
        <ele>790</ele>
        <time>2018-04-22T11:45:51Z</time>
      </trkpt>
      <trkpt lat="43.46879" lon="2.42131">
        <ele>789</ele>
        <time>2018-04-22T11:45:53Z</time>
      </trkpt>
      <trkpt lat="43.46881" lon="2.42132">
        <ele>787</ele>
        <time>2018-04-22T11:45:54Z</time>
      </trkpt>
      <trkpt lat="43.46885" lon="2.42134">
        <ele>785</ele>
        <time>2018-04-22T11:45:55Z</time>
      </trkpt>
      <trkpt lat="43.46889" lon="2.42138">
        <ele>783</ele>
        <time>2018-04-22T11:45:56Z</time>
      </trkpt>
      <trkpt lat="43.46893" lon="2.42143">
        <ele>781</ele>
        <time>2018-04-22T11:45:57Z</time>
      </trkpt>
      <trkpt lat="43.46905" lon="2.42153">
        <ele>780</ele>
        <time>2018-04-22T11:46:00Z</time>
      </trkpt>
      <trkpt lat="43.46914" lon="2.4216">
        <ele>778</ele>
        <time>2018-04-22T11:46:02Z</time>
      </trkpt>
      <trkpt lat="43.46919" lon="2.42167">
        <ele>776</ele>
        <time>2018-04-22T11:46:03Z</time>
      </trkpt>
      <trkpt lat="43.46923" lon="2.42172">
        <ele>775</ele>
        <time>2018-04-22T11:46:04Z</time>
      </trkpt>
      <trkpt lat="43.46927" lon="2.42178">
        <ele>775</ele>
        <time>2018-04-22T11:46:05Z</time>
      </trkpt>
      <trkpt lat="43.4693" lon="2.42184">
        <ele>773</ele>
        <time>2018-04-22T11:46:06Z</time>
      </trkpt>
      <trkpt lat="43.46931" lon="2.42191">
        <ele>772</ele>
        <time>2018-04-22T11:46:07Z</time>
      </trkpt>
      <trkpt lat="43.46933" lon="2.42196">
        <ele>771</ele>
        <time>2018-04-22T11:46:08Z</time>
      </trkpt>
      <trkpt lat="43.46936" lon="2.42206">
        <ele>770</ele>
        <time>2018-04-22T11:46:10Z</time>
      </trkpt>
      <trkpt lat="43.46938" lon="2.42207">
        <ele>770</ele>
        <time>2018-04-22T11:46:11Z</time>
      </trkpt>
      <trkpt lat="43.4694" lon="2.42205">
        <ele>769</ele>
        <time>2018-04-22T11:46:12Z</time>
      </trkpt>
      <trkpt lat="43.46945" lon="2.42198">
        <ele>768</ele>
        <time>2018-04-22T11:46:14Z</time>
      </trkpt>
      <trkpt lat="43.46947" lon="2.42193">
        <ele>768</ele>
        <time>2018-04-22T11:46:15Z</time>
      </trkpt>
      <trkpt lat="43.46949" lon="2.42188">
        <ele>767</ele>
        <time>2018-04-22T11:46:16Z</time>
      </trkpt>
      <trkpt lat="43.46955" lon="2.42175">
        <ele>765</ele>
        <time>2018-04-22T11:46:18Z</time>
      </trkpt>
      <trkpt lat="43.46958" lon="2.42168">
        <ele>764</ele>
        <time>2018-04-22T11:46:19Z</time>
      </trkpt>
      <trkpt lat="43.46962" lon="2.42163">
        <ele>763</ele>
        <time>2018-04-22T11:46:20Z</time>
      </trkpt>
      <trkpt lat="43.46965" lon="2.42156">
        <ele>761</ele>
        <time>2018-04-22T11:46:21Z</time>
      </trkpt>
      <trkpt lat="43.46968" lon="2.42149">
        <ele>761</ele>
        <time>2018-04-22T11:46:22Z</time>
      </trkpt>
      <trkpt lat="43.46969" lon="2.42143">
        <ele>761</ele>
        <time>2018-04-22T11:46:23Z</time>
      </trkpt>
      <trkpt lat="43.4697" lon="2.42132">
        <ele>759</ele>
        <time>2018-04-22T11:46:25Z</time>
      </trkpt>
      <trkpt lat="43.46972" lon="2.42129">
        <ele>759</ele>
        <time>2018-04-22T11:46:26Z</time>
      </trkpt>
      <trkpt lat="43.46976" lon="2.42128">
        <ele>759</ele>
        <time>2018-04-22T11:46:27Z</time>
      </trkpt>
      <trkpt lat="43.46978" lon="2.42128">
        <ele>759</ele>
        <time>2018-04-22T11:46:30Z</time>
      </trkpt>
      <trkpt lat="43.46978" lon="2.42123">
        <ele>759</ele>
        <time>2018-04-22T11:46:34Z</time>
      </trkpt>
      <trkpt lat="43.46978" lon="2.42123">
        <ele>759</ele>
        <time>2018-04-22T11:46:39Z</time>
      </trkpt>
      <trkpt lat="43.46978" lon="2.42123">
        <ele>759</ele>
        <time>2018-04-22T11:46:46Z</time>
      </trkpt>
      <trkpt lat="43.46978" lon="2.42123">
        <ele>759</ele>
        <time>2018-04-22T11:46:49Z</time>
      </trkpt>
      <trkpt lat="43.46978" lon="2.42123">
        <ele>759</ele>
        <time>2018-04-22T11:46:54Z</time>
      </trkpt>
      <trkpt lat="43.46976" lon="2.42121">
        <ele>759</ele>
        <time>2018-04-22T11:47:02Z</time>
      </trkpt>
      <trkpt lat="43.46976" lon="2.42109">
        <ele>759</ele>
        <time>2018-04-22T11:47:08Z</time>
      </trkpt>
      <trkpt lat="43.46978" lon="2.42093">
        <ele>759</ele>
        <time>2018-04-22T11:47:13Z</time>
      </trkpt>
      <trkpt lat="43.46979" lon="2.42077">
        <ele>760</ele>
        <time>2018-04-22T11:47:17Z</time>
      </trkpt>
      <trkpt lat="43.46978" lon="2.42062">
        <ele>761</ele>
        <time>2018-04-22T11:47:20Z</time>
      </trkpt>
      <trkpt lat="43.46978" lon="2.42048">
        <ele>762</ele>
        <time>2018-04-22T11:47:23Z</time>
      </trkpt>
      <trkpt lat="43.46977" lon="2.42044">
        <ele>762</ele>
        <time>2018-04-22T11:47:24Z</time>
      </trkpt>
      <trkpt lat="43.46978" lon="2.42035">
        <ele>763</ele>
        <time>2018-04-22T11:47:26Z</time>
      </trkpt>
      <trkpt lat="43.4698" lon="2.42026">
        <ele>763</ele>
        <time>2018-04-22T11:47:28Z</time>
      </trkpt>
      <trkpt lat="43.46982" lon="2.42021">
        <ele>763</ele>
        <time>2018-04-22T11:47:29Z</time>
      </trkpt>
      <trkpt lat="43.46985" lon="2.42004">
        <ele>764</ele>
        <time>2018-04-22T11:47:33Z</time>
      </trkpt>
      <trkpt lat="43.46986" lon="2.42">
        <ele>764</ele>
        <time>2018-04-22T11:47:34Z</time>
      </trkpt>
      <trkpt lat="43.46989" lon="2.41974">
        <ele>765</ele>
        <time>2018-04-22T11:47:39Z</time>
      </trkpt>
      <trkpt lat="43.4699" lon="2.41956">
        <ele>767</ele>
        <time>2018-04-22T11:47:42Z</time>
      </trkpt>
      <trkpt lat="43.46992" lon="2.41934">
        <ele>766</ele>
        <time>2018-04-22T11:47:46Z</time>
      </trkpt>
      <trkpt lat="43.47001" lon="2.41898">
        <ele>766</ele>
        <time>2018-04-22T11:47:53Z</time>
      </trkpt>
      <trkpt lat="43.47013" lon="2.41877">
        <ele>767</ele>
        <time>2018-04-22T11:47:59Z</time>
      </trkpt>
      <trkpt lat="43.47015" lon="2.41873">
        <ele>768</ele>
        <time>2018-04-22T11:48:00Z</time>
      </trkpt>
      <trkpt lat="43.4702" lon="2.41867">
        <ele>769</ele>
        <time>2018-04-22T11:48:02Z</time>
      </trkpt>
      <trkpt lat="43.47027" lon="2.41857">
        <ele>770</ele>
        <time>2018-04-22T11:48:05Z</time>
      </trkpt>
      <trkpt lat="43.4703" lon="2.41853">
        <ele>771</ele>
        <time>2018-04-22T11:48:06Z</time>
      </trkpt>
      <trkpt lat="43.47032" lon="2.4185">
        <ele>771</ele>
        <time>2018-04-22T11:48:07Z</time>
      </trkpt>
      <trkpt lat="43.47041" lon="2.41835">
        <ele>772</ele>
        <time>2018-04-22T11:48:11Z</time>
      </trkpt>
      <trkpt lat="43.47043" lon="2.41831">
        <ele>772</ele>
        <time>2018-04-22T11:48:12Z</time>
      </trkpt>
      <trkpt lat="43.47052" lon="2.41803">
        <ele>773</ele>
        <time>2018-04-22T11:48:18Z</time>
      </trkpt>
      <trkpt lat="43.47064" lon="2.4177">
        <ele>773</ele>
        <time>2018-04-22T11:48:24Z</time>
      </trkpt>
      <trkpt lat="43.47069" lon="2.41742">
        <ele>773</ele>
        <time>2018-04-22T11:48:29Z</time>
      </trkpt>
      <trkpt lat="43.47074" lon="2.41711">
        <ele>772</ele>
        <time>2018-04-22T11:48:34Z</time>
      </trkpt>
      <trkpt lat="43.47078" lon="2.41699">
        <ele>772</ele>
        <time>2018-04-22T11:48:36Z</time>
      </trkpt>
      <trkpt lat="43.47089" lon="2.41678">
        <ele>773</ele>
        <time>2018-04-22T11:48:40Z</time>
      </trkpt>
      <trkpt lat="43.47095" lon="2.4167">
        <ele>773</ele>
        <time>2018-04-22T11:48:42Z</time>
      </trkpt>
      <trkpt lat="43.47111" lon="2.41639">
        <ele>773</ele>
        <time>2018-04-22T11:48:48Z</time>
      </trkpt>
      <trkpt lat="43.47119" lon="2.41621">
        <ele>773</ele>
        <time>2018-04-22T11:48:51Z</time>
      </trkpt>
      <trkpt lat="43.47121" lon="2.41607">
        <ele>773</ele>
        <time>2018-04-22T11:48:53Z</time>
      </trkpt>
      <trkpt lat="43.47118" lon="2.41578">
        <ele>773</ele>
        <time>2018-04-22T11:48:57Z</time>
      </trkpt>
      <trkpt lat="43.47106" lon="2.41555">
        <ele>773</ele>
        <time>2018-04-22T11:49:01Z</time>
      </trkpt>
      <trkpt lat="43.47099" lon="2.41547">
        <ele>773</ele>
        <time>2018-04-22T11:49:03Z</time>
      </trkpt>
      <trkpt lat="43.47084" lon="2.4153">
        <ele>773</ele>
        <time>2018-04-22T11:49:07Z</time>
      </trkpt>
      <trkpt lat="43.47074" lon="2.41518">
        <ele>773</ele>
        <time>2018-04-22T11:49:12Z</time>
      </trkpt>
      <trkpt lat="43.47074" lon="2.41516">
        <ele>773</ele>
        <time>2018-04-22T11:49:13Z</time>
      </trkpt>
      <trkpt lat="43.47074" lon="2.41513">
        <ele>773</ele>
        <time>2018-04-22T11:49:16Z</time>
      </trkpt>
      <trkpt lat="43.47074" lon="2.41513">
        <ele>773</ele>
        <time>2018-04-22T11:49:23Z</time>
      </trkpt>
      <trkpt lat="43.47073" lon="2.41506">
        <ele>773</ele>
        <time>2018-04-22T11:49:30Z</time>
      </trkpt>
      <trkpt lat="43.47073" lon="2.41505">
        <ele>772</ele>
        <time>2018-04-22T11:49:31Z</time>
      </trkpt>
      <trkpt lat="43.47073" lon="2.41501">
        <ele>771</ele>
        <time>2018-04-22T11:49:34Z</time>
      </trkpt>
      <trkpt lat="43.47073" lon="2.41501">
        <ele>770</ele>
        <time>2018-04-22T11:49:35Z</time>
      </trkpt>
      <trkpt lat="43.47072" lon="2.41501">
        <ele>769</ele>
        <time>2018-04-22T11:49:40Z</time>
      </trkpt>
      <trkpt lat="43.47073" lon="2.41501">
        <ele>769</ele>
        <time>2018-04-22T11:49:48Z</time>
      </trkpt>
      <trkpt lat="43.47072" lon="2.41501">
        <ele>769</ele>
        <time>2018-04-22T11:49:55Z</time>
      </trkpt>
      <trkpt lat="43.47072" lon="2.41501">
        <ele>768</ele>
        <time>2018-04-22T11:49:58Z</time>
      </trkpt>
      <trkpt lat="43.47072" lon="2.41501">
        <ele>769</ele>
        <time>2018-04-22T11:50:02Z</time>
      </trkpt>
      <trkpt lat="43.47072" lon="2.41501">
        <ele>769</ele>
        <time>2018-04-22T11:50:04Z</time>
      </trkpt>
      <trkpt lat="43.47072" lon="2.41501">
        <ele>770</ele>
        <time>2018-04-22T11:50:08Z</time>
      </trkpt>
      <trkpt lat="43.47072" lon="2.41501">
        <ele>770</ele>
        <time>2018-04-22T11:50:09Z</time>
      </trkpt>
      <trkpt lat="43.47072" lon="2.415">
        <ele>770</ele>
        <time>2018-04-22T11:50:12Z</time>
      </trkpt>
      <trkpt lat="43.47073" lon="2.41501">
        <ele>770</ele>
        <time>2018-04-22T11:50:15Z</time>
      </trkpt>
      <trkpt lat="43.47073" lon="2.41501">
        <ele>770</ele>
        <time>2018-04-22T11:50:21Z</time>
      </trkpt>
      <trkpt lat="43.47073" lon="2.41501">
        <ele>770</ele>
        <time>2018-04-22T11:50:31Z</time>
      </trkpt>
      <trkpt lat="43.47073" lon="2.41501">
        <ele>770</ele>
        <time>2018-04-22T11:50:38Z</time>
      </trkpt>
      <trkpt lat="43.47073" lon="2.41501">
        <ele>770</ele>
        <time>2018-04-22T11:50:47Z</time>
      </trkpt>
      <trkpt lat="43.47072" lon="2.41499">
        <ele>770</ele>
        <time>2018-04-22T11:50:58Z</time>
      </trkpt>
      <trkpt lat="43.47072" lon="2.41498">
        <ele>769</ele>
        <time>2018-04-22T11:51:08Z</time>
      </trkpt>
      <trkpt lat="43.47071" lon="2.41495">
        <ele>769</ele>
        <time>2018-04-22T11:51:16Z</time>
      </trkpt>
      <trkpt lat="43.47071" lon="2.41494">
        <ele>769</ele>
        <time>2018-04-22T11:51:17Z</time>
      </trkpt>
      <trkpt lat="43.47072" lon="2.41488">
        <ele>768</ele>
        <time>2018-04-22T11:51:22Z</time>
      </trkpt>
      <trkpt lat="43.47073" lon="2.41487">
        <ele>768</ele>
        <time>2018-04-22T11:51:26Z</time>
      </trkpt>
      <trkpt lat="43.47074" lon="2.41486">
        <ele>768</ele>
        <time>2018-04-22T11:51:27Z</time>
      </trkpt>
      <trkpt lat="43.47076" lon="2.41485">
        <ele>767</ele>
        <time>2018-04-22T11:51:28Z</time>
      </trkpt>
      <trkpt lat="43.47079" lon="2.41485">
        <ele>767</ele>
        <time>2018-04-22T11:51:29Z</time>
      </trkpt>
      <trkpt lat="43.47083" lon="2.41484">
        <ele>766</ele>
        <time>2018-04-22T11:51:31Z</time>
      </trkpt>
      <trkpt lat="43.4709" lon="2.41486">
        <ele>766</ele>
        <time>2018-04-22T11:51:35Z</time>
      </trkpt>
      <trkpt lat="43.47094" lon="2.41487">
        <ele>765</ele>
        <time>2018-04-22T11:51:37Z</time>
      </trkpt>
      <trkpt lat="43.471" lon="2.41485">
        <ele>764</ele>
        <time>2018-04-22T11:51:39Z</time>
      </trkpt>
      <trkpt lat="43.47104" lon="2.41483">
        <ele>763</ele>
        <time>2018-04-22T11:51:40Z</time>
      </trkpt>
      <trkpt lat="43.47106" lon="2.41481">
        <ele>762</ele>
        <time>2018-04-22T11:51:41Z</time>
      </trkpt>
      <trkpt lat="43.4711" lon="2.41478">
        <ele>761</ele>
        <time>2018-04-22T11:51:44Z</time>
      </trkpt>
      <trkpt lat="43.47112" lon="2.41478">
        <ele>761</ele>
        <time>2018-04-22T11:51:46Z</time>
      </trkpt>
      <trkpt lat="43.47114" lon="2.41476">
        <ele>761</ele>
        <time>2018-04-22T11:51:49Z</time>
      </trkpt>
      <trkpt lat="43.47118" lon="2.41474">
        <ele>760</ele>
        <time>2018-04-22T11:51:54Z</time>
      </trkpt>
      <trkpt lat="43.47119" lon="2.41472">
        <ele>759</ele>
        <time>2018-04-22T11:51:55Z</time>
      </trkpt>
      <trkpt lat="43.4712" lon="2.41472">
        <ele>758</ele>
        <time>2018-04-22T11:51:56Z</time>
      </trkpt>
      <trkpt lat="43.47122" lon="2.41469">
        <ele>758</ele>
        <time>2018-04-22T11:52:00Z</time>
      </trkpt>
      <trkpt lat="43.47122" lon="2.41465">
        <ele>758</ele>
        <time>2018-04-22T11:52:01Z</time>
      </trkpt>
      <trkpt lat="43.47122" lon="2.41462">
        <ele>757</ele>
        <time>2018-04-22T11:52:02Z</time>
      </trkpt>
      <trkpt lat="43.47123" lon="2.41457">
        <ele>756</ele>
        <time>2018-04-22T11:52:04Z</time>
      </trkpt>
      <trkpt lat="43.47124" lon="2.41455">
        <ele>755</ele>
        <time>2018-04-22T11:52:05Z</time>
      </trkpt>
      <trkpt lat="43.47125" lon="2.41454">
        <ele>754</ele>
        <time>2018-04-22T11:52:10Z</time>
      </trkpt>
      <trkpt lat="43.47125" lon="2.41453">
        <ele>754</ele>
        <time>2018-04-22T11:52:13Z</time>
      </trkpt>
      <trkpt lat="43.47125" lon="2.41453">
        <ele>754</ele>
        <time>2018-04-22T11:52:20Z</time>
      </trkpt>
      <trkpt lat="43.47125" lon="2.41453">
        <ele>754</ele>
        <time>2018-04-22T11:52:24Z</time>
      </trkpt>
      <trkpt lat="43.47127" lon="2.41446">
        <ele>753</ele>
        <time>2018-04-22T11:52:29Z</time>
      </trkpt>
      <trkpt lat="43.47128" lon="2.4144">
        <ele>752</ele>
        <time>2018-04-22T11:52:31Z</time>
      </trkpt>
      <trkpt lat="43.47129" lon="2.41432">
        <ele>750</ele>
        <time>2018-04-22T11:52:33Z</time>
      </trkpt>
      <trkpt lat="43.47131" lon="2.41423">
        <ele>749</ele>
        <time>2018-04-22T11:52:36Z</time>
      </trkpt>
      <trkpt lat="43.47136" lon="2.41422">
        <ele>748</ele>
        <time>2018-04-22T11:52:39Z</time>
      </trkpt>
      <trkpt lat="43.47138" lon="2.4142">
        <ele>747</ele>
        <time>2018-04-22T11:52:41Z</time>
      </trkpt>
      <trkpt lat="43.4714" lon="2.41419">
        <ele>747</ele>
        <time>2018-04-22T11:52:43Z</time>
      </trkpt>
      <trkpt lat="43.47144" lon="2.41416">
        <ele>746</ele>
        <time>2018-04-22T11:52:48Z</time>
      </trkpt>
      <trkpt lat="43.47146" lon="2.41416">
        <ele>746</ele>
        <time>2018-04-22T11:52:51Z</time>
      </trkpt>
      <trkpt lat="43.47153" lon="2.4141">
        <ele>745</ele>
        <time>2018-04-22T11:52:55Z</time>
      </trkpt>
      <trkpt lat="43.47156" lon="2.41405">
        <ele>744</ele>
        <time>2018-04-22T11:52:57Z</time>
      </trkpt>
      <trkpt lat="43.47154" lon="2.41398">
        <ele>743</ele>
        <time>2018-04-22T11:52:59Z</time>
      </trkpt>
      <trkpt lat="43.4715" lon="2.41388">
        <ele>742</ele>
        <time>2018-04-22T11:53:02Z</time>
      </trkpt>
      <trkpt lat="43.4715" lon="2.41383">
        <ele>741</ele>
        <time>2018-04-22T11:53:04Z</time>
      </trkpt>
      <trkpt lat="43.4715" lon="2.41381">
        <ele>740</ele>
        <time>2018-04-22T11:53:05Z</time>
      </trkpt>
      <trkpt lat="43.47149" lon="2.41377">
        <ele>740</ele>
        <time>2018-04-22T11:53:09Z</time>
      </trkpt>
      <trkpt lat="43.47148" lon="2.41376">
        <ele>740</ele>
        <time>2018-04-22T11:53:14Z</time>
      </trkpt>
      <trkpt lat="43.47148" lon="2.41372">
        <ele>740</ele>
        <time>2018-04-22T11:53:24Z</time>
      </trkpt>
      <trkpt lat="43.47147" lon="2.4137">
        <ele>739</ele>
        <time>2018-04-22T11:53:25Z</time>
      </trkpt>
      <trkpt lat="43.47148" lon="2.41368">
        <ele>738</ele>
        <time>2018-04-22T11:53:26Z</time>
      </trkpt>
      <trkpt lat="43.47148" lon="2.41364">
        <ele>738</ele>
        <time>2018-04-22T11:53:27Z</time>
      </trkpt>
      <trkpt lat="43.47149" lon="2.41361">
        <ele>737</ele>
        <time>2018-04-22T11:53:28Z</time>
      </trkpt>
      <trkpt lat="43.47149" lon="2.41357">
        <ele>737</ele>
        <time>2018-04-22T11:53:29Z</time>
      </trkpt>
      <trkpt lat="43.4715" lon="2.41349">
        <ele>735</ele>
        <time>2018-04-22T11:53:31Z</time>
      </trkpt>
      <trkpt lat="43.4715" lon="2.41346">
        <ele>735</ele>
        <time>2018-04-22T11:53:32Z</time>
      </trkpt>
      <trkpt lat="43.47151" lon="2.41344">
        <ele>734</ele>
        <time>2018-04-22T11:53:33Z</time>
      </trkpt>
      <trkpt lat="43.47151" lon="2.41342">
        <ele>733</ele>
        <time>2018-04-22T11:53:36Z</time>
      </trkpt>
      <trkpt lat="43.47151" lon="2.4134">
        <ele>733</ele>
        <time>2018-04-22T11:53:47Z</time>
      </trkpt>
      <trkpt lat="43.47151" lon="2.41338">
        <ele>734</ele>
        <time>2018-04-22T11:53:49Z</time>
      </trkpt>
      <trkpt lat="43.47151" lon="2.41335">
        <ele>734</ele>
        <time>2018-04-22T11:53:52Z</time>
      </trkpt>
      <trkpt lat="43.47151" lon="2.41331">
        <ele>734</ele>
        <time>2018-04-22T11:53:57Z</time>
      </trkpt>
      <trkpt lat="43.47151" lon="2.4133">
        <ele>733</ele>
        <time>2018-04-22T11:54:04Z</time>
      </trkpt>
      <trkpt lat="43.47151" lon="2.4133">
        <ele>733</ele>
        <time>2018-04-22T11:54:07Z</time>
      </trkpt>
      <trkpt lat="43.47152" lon="2.41329">
        <ele>733</ele>
        <time>2018-04-22T11:54:12Z</time>
      </trkpt>
      <trkpt lat="43.47153" lon="2.41329">
        <ele>733</ele>
        <time>2018-04-22T11:54:13Z</time>
      </trkpt>
      <trkpt lat="43.47153" lon="2.41329">
        <ele>733</ele>
        <time>2018-04-22T11:54:15Z</time>
      </trkpt>
      <trkpt lat="43.47153" lon="2.4133">
        <ele>733</ele>
        <time>2018-04-22T11:54:29Z</time>
      </trkpt>
      <trkpt lat="43.47156" lon="2.41328">
        <ele>732</ele>
        <time>2018-04-22T11:54:33Z</time>
      </trkpt>
      <trkpt lat="43.47159" lon="2.41326">
        <ele>731</ele>
        <time>2018-04-22T11:54:36Z</time>
      </trkpt>
      <trkpt lat="43.47159" lon="2.41326">
        <ele>731</ele>
        <time>2018-04-22T11:54:38Z</time>
      </trkpt>
      <trkpt lat="43.4716" lon="2.41324">
        <ele>731</ele>
        <time>2018-04-22T11:54:40Z</time>
      </trkpt>
      <trkpt lat="43.47161" lon="2.4132">
        <ele>730</ele>
        <time>2018-04-22T11:54:43Z</time>
      </trkpt>
      <trkpt lat="43.47163" lon="2.41318">
        <ele>730</ele>
        <time>2018-04-22T11:54:44Z</time>
      </trkpt>
      <trkpt lat="43.47166" lon="2.41314">
        <ele>729</ele>
        <time>2018-04-22T11:54:46Z</time>
      </trkpt>
      <trkpt lat="43.47168" lon="2.41313">
        <ele>729</ele>
        <time>2018-04-22T11:54:47Z</time>
      </trkpt>
      <trkpt lat="43.4717" lon="2.41307">
        <ele>728</ele>
        <time>2018-04-22T11:54:50Z</time>
      </trkpt>
      <trkpt lat="43.47172" lon="2.41306">
        <ele>727</ele>
        <time>2018-04-22T11:54:51Z</time>
      </trkpt>
      <trkpt lat="43.47174" lon="2.413">
        <ele>727</ele>
        <time>2018-04-22T11:54:57Z</time>
      </trkpt>
      <trkpt lat="43.47175" lon="2.41298">
        <ele>726</ele>
        <time>2018-04-22T11:54:58Z</time>
      </trkpt>
      <trkpt lat="43.47177" lon="2.41295">
        <ele>726</ele>
        <time>2018-04-22T11:55:00Z</time>
      </trkpt>
      <trkpt lat="43.47178" lon="2.41292">
        <ele>725</ele>
        <time>2018-04-22T11:55:02Z</time>
      </trkpt>
      <trkpt lat="43.47179" lon="2.41291">
        <ele>724</ele>
        <time>2018-04-22T11:55:03Z</time>
      </trkpt>
      <trkpt lat="43.47181" lon="2.41291">
        <ele>724</ele>
        <time>2018-04-22T11:55:07Z</time>
      </trkpt>
      <trkpt lat="43.47181" lon="2.41291">
        <ele>725</ele>
        <time>2018-04-22T11:55:20Z</time>
      </trkpt>
      <trkpt lat="43.47181" lon="2.41288">
        <ele>724</ele>
        <time>2018-04-22T11:55:32Z</time>
      </trkpt>
      <trkpt lat="43.4718" lon="2.41286">
        <ele>724</ele>
        <time>2018-04-22T11:55:33Z</time>
      </trkpt>
      <trkpt lat="43.4718" lon="2.41281">
        <ele>723</ele>
        <time>2018-04-22T11:55:35Z</time>
      </trkpt>
      <trkpt lat="43.47179" lon="2.41279">
        <ele>723</ele>
        <time>2018-04-22T11:55:36Z</time>
      </trkpt>
      <trkpt lat="43.47178" lon="2.41277">
        <ele>722</ele>
        <time>2018-04-22T11:55:37Z</time>
      </trkpt>
      <trkpt lat="43.47178" lon="2.41274">
        <ele>721</ele>
        <time>2018-04-22T11:55:38Z</time>
      </trkpt>
      <trkpt lat="43.47178" lon="2.4127">
        <ele>721</ele>
        <time>2018-04-22T11:55:39Z</time>
      </trkpt>
      <trkpt lat="43.47177" lon="2.41268">
        <ele>720</ele>
        <time>2018-04-22T11:55:40Z</time>
      </trkpt>
      <trkpt lat="43.47177" lon="2.41265">
        <ele>719</ele>
        <time>2018-04-22T11:55:41Z</time>
      </trkpt>
      <trkpt lat="43.47176" lon="2.41258">
        <ele>718</ele>
        <time>2018-04-22T11:55:43Z</time>
      </trkpt>
      <trkpt lat="43.47176" lon="2.41252">
        <ele>717</ele>
        <time>2018-04-22T11:55:45Z</time>
      </trkpt>
      <trkpt lat="43.47176" lon="2.41244">
        <ele>716</ele>
        <time>2018-04-22T11:55:47Z</time>
      </trkpt>
      <trkpt lat="43.47176" lon="2.41235">
        <ele>713</ele>
        <time>2018-04-22T11:55:49Z</time>
      </trkpt>
      <trkpt lat="43.47176" lon="2.41228">
        <ele>712</ele>
        <time>2018-04-22T11:55:51Z</time>
      </trkpt>
      <trkpt lat="43.47176" lon="2.41224">
        <ele>712</ele>
        <time>2018-04-22T11:55:52Z</time>
      </trkpt>
      <trkpt lat="43.47176" lon="2.41219">
        <ele>711</ele>
        <time>2018-04-22T11:55:54Z</time>
      </trkpt>
      <trkpt lat="43.47177" lon="2.41217">
        <ele>711</ele>
        <time>2018-04-22T11:55:56Z</time>
      </trkpt>
      <trkpt lat="43.47177" lon="2.41216">
        <ele>711</ele>
        <time>2018-04-22T11:55:57Z</time>
      </trkpt>
      <trkpt lat="43.47181" lon="2.41211">
        <ele>710</ele>
        <time>2018-04-22T11:56:00Z</time>
      </trkpt>
      <trkpt lat="43.47183" lon="2.41206">
        <ele>710</ele>
        <time>2018-04-22T11:56:02Z</time>
      </trkpt>
      <trkpt lat="43.47184" lon="2.41193">
        <ele>708</ele>
        <time>2018-04-22T11:56:06Z</time>
      </trkpt>
      <trkpt lat="43.47184" lon="2.41189">
        <ele>707</ele>
        <time>2018-04-22T11:56:07Z</time>
      </trkpt>
      <trkpt lat="43.47184" lon="2.4118">
        <ele>705</ele>
        <time>2018-04-22T11:56:09Z</time>
      </trkpt>
      <trkpt lat="43.47186" lon="2.41174">
        <ele>704</ele>
        <time>2018-04-22T11:56:11Z</time>
      </trkpt>
      <trkpt lat="43.47188" lon="2.41171">
        <ele>704</ele>
        <time>2018-04-22T11:56:12Z</time>
      </trkpt>
      <trkpt lat="43.47192" lon="2.41165">
        <ele>703</ele>
        <time>2018-04-22T11:56:15Z</time>
      </trkpt>
      <trkpt lat="43.47193" lon="2.41156">
        <ele>701</ele>
        <time>2018-04-22T11:56:17Z</time>
      </trkpt>
      <trkpt lat="43.47191" lon="2.4115">
        <ele>700</ele>
        <time>2018-04-22T11:56:19Z</time>
      </trkpt>
      <trkpt lat="43.47192" lon="2.41147">
        <ele>699</ele>
        <time>2018-04-22T11:56:20Z</time>
      </trkpt>
      <trkpt lat="43.47194" lon="2.41146">
        <ele>697</ele>
        <time>2018-04-22T11:56:21Z</time>
      </trkpt>
      <trkpt lat="43.47195" lon="2.41144">
        <ele>696</ele>
        <time>2018-04-22T11:56:22Z</time>
      </trkpt>
      <trkpt lat="43.472" lon="2.41138">
        <ele>696</ele>
        <time>2018-04-22T11:56:26Z</time>
      </trkpt>
      <trkpt lat="43.472" lon="2.41135">
        <ele>695</ele>
        <time>2018-04-22T11:56:27Z</time>
      </trkpt>
      <trkpt lat="43.472" lon="2.41132">
        <ele>694</ele>
        <time>2018-04-22T11:56:28Z</time>
      </trkpt>
      <trkpt lat="43.472" lon="2.41123">
        <ele>693</ele>
        <time>2018-04-22T11:56:30Z</time>
      </trkpt>
      <trkpt lat="43.47201" lon="2.41121">
        <ele>693</ele>
        <time>2018-04-22T11:56:31Z</time>
      </trkpt>
      <trkpt lat="43.47201" lon="2.41118">
        <ele>692</ele>
        <time>2018-04-22T11:56:32Z</time>
      </trkpt>
      <trkpt lat="43.47202" lon="2.41112">
        <ele>690</ele>
        <time>2018-04-22T11:56:34Z</time>
      </trkpt>
      <trkpt lat="43.47204" lon="2.41109">
        <ele>689</ele>
        <time>2018-04-22T11:56:35Z</time>
      </trkpt>
      <trkpt lat="43.47205" lon="2.41103">
        <ele>687</ele>
        <time>2018-04-22T11:56:37Z</time>
      </trkpt>
      <trkpt lat="43.47204" lon="2.41096">
        <ele>686</ele>
        <time>2018-04-22T11:56:39Z</time>
      </trkpt>
      <trkpt lat="43.47205" lon="2.41085">
        <ele>685</ele>
        <time>2018-04-22T11:56:41Z</time>
      </trkpt>
      <trkpt lat="43.47209" lon="2.4107">
        <ele>684</ele>
        <time>2018-04-22T11:56:44Z</time>
      </trkpt>
      <trkpt lat="43.47209" lon="2.41065">
        <ele>683</ele>
        <time>2018-04-22T11:56:45Z</time>
      </trkpt>
      <trkpt lat="43.47208" lon="2.41058">
        <ele>682</ele>
        <time>2018-04-22T11:56:47Z</time>
      </trkpt>
      <trkpt lat="43.47209" lon="2.41054">
        <ele>681</ele>
        <time>2018-04-22T11:56:49Z</time>
      </trkpt>
      <trkpt lat="43.47209" lon="2.41048">
        <ele>680</ele>
        <time>2018-04-22T11:56:51Z</time>
      </trkpt>
      <trkpt lat="43.47209" lon="2.41043">
        <ele>678</ele>
        <time>2018-04-22T11:56:53Z</time>
      </trkpt>
      <trkpt lat="43.47208" lon="2.41037">
        <ele>678</ele>
        <time>2018-04-22T11:56:55Z</time>
      </trkpt>
      <trkpt lat="43.47206" lon="2.41034">
        <ele>677</ele>
        <time>2018-04-22T11:57:03Z</time>
      </trkpt>
      <trkpt lat="43.47206" lon="2.41032">
        <ele>677</ele>
        <time>2018-04-22T11:57:04Z</time>
      </trkpt>
      <trkpt lat="43.47206" lon="2.41028">
        <ele>676</ele>
        <time>2018-04-22T11:57:07Z</time>
      </trkpt>
      <trkpt lat="43.47207" lon="2.41022">
        <ele>676</ele>
        <time>2018-04-22T11:57:11Z</time>
      </trkpt>
      <trkpt lat="43.47207" lon="2.41018">
        <ele>675</ele>
        <time>2018-04-22T11:57:13Z</time>
      </trkpt>
      <trkpt lat="43.47207" lon="2.41016">
        <ele>674</ele>
        <time>2018-04-22T11:57:15Z</time>
      </trkpt>
      <trkpt lat="43.47206" lon="2.41016">
        <ele>674</ele>
        <time>2018-04-22T11:57:16Z</time>
      </trkpt>
      <trkpt lat="43.47203" lon="2.41013">
        <ele>673</ele>
        <time>2018-04-22T11:57:18Z</time>
      </trkpt>
      <trkpt lat="43.47196" lon="2.41007">
        <ele>671</ele>
        <time>2018-04-22T11:57:20Z</time>
      </trkpt>
      <trkpt lat="43.47192" lon="2.40994">
        <ele>671</ele>
        <time>2018-04-22T11:57:23Z</time>
      </trkpt>
      <trkpt lat="43.47192" lon="2.40993">
        <ele>671</ele>
        <time>2018-04-22T11:57:24Z</time>
      </trkpt>
      <trkpt lat="43.47192" lon="2.40988">
        <ele>670</ele>
        <time>2018-04-22T11:57:26Z</time>
      </trkpt>
      <trkpt lat="43.47193" lon="2.40986">
        <ele>670</ele>
        <time>2018-04-22T11:57:28Z</time>
      </trkpt>
      <trkpt lat="43.47193" lon="2.40986">
        <ele>670</ele>
        <time>2018-04-22T11:57:37Z</time>
      </trkpt>
      <trkpt lat="43.47193" lon="2.40986">
        <ele>670</ele>
        <time>2018-04-22T11:57:41Z</time>
      </trkpt>
      <trkpt lat="43.47193" lon="2.40981">
        <ele>670</ele>
        <time>2018-04-22T11:57:48Z</time>
      </trkpt>
      <trkpt lat="43.47193" lon="2.40978">
        <ele>670</ele>
        <time>2018-04-22T11:57:49Z</time>
      </trkpt>
      <trkpt lat="43.47194" lon="2.40975">
        <ele>669</ele>
        <time>2018-04-22T11:57:50Z</time>
      </trkpt>
      <trkpt lat="43.47197" lon="2.40969">
        <ele>669</ele>
        <time>2018-04-22T11:57:52Z</time>
      </trkpt>
      <trkpt lat="43.47198" lon="2.40966">
        <ele>669</ele>
        <time>2018-04-22T11:57:53Z</time>
      </trkpt>
      <trkpt lat="43.47201" lon="2.40958">
        <ele>669</ele>
        <time>2018-04-22T11:57:55Z</time>
      </trkpt>
      <trkpt lat="43.47206" lon="2.4095">
        <ele>669</ele>
        <time>2018-04-22T11:57:57Z</time>
      </trkpt>
      <trkpt lat="43.47208" lon="2.40945">
        <ele>668</ele>
        <time>2018-04-22T11:57:58Z</time>
      </trkpt>
      <trkpt lat="43.47218" lon="2.40926">
        <ele>667</ele>
        <time>2018-04-22T11:58:02Z</time>
      </trkpt>
      <trkpt lat="43.47227" lon="2.4091">
        <ele>667</ele>
        <time>2018-04-22T11:58:05Z</time>
      </trkpt>
      <trkpt lat="43.47239" lon="2.40892">
        <ele>667</ele>
        <time>2018-04-22T11:58:10Z</time>
      </trkpt>
      <trkpt lat="43.47248" lon="2.40879">
        <ele>666</ele>
        <time>2018-04-22T11:58:14Z</time>
      </trkpt>
      <trkpt lat="43.4725" lon="2.40878">
        <ele>666</ele>
        <time>2018-04-22T11:58:15Z</time>
      </trkpt>
      <trkpt lat="43.47265" lon="2.40867">
        <ele>666</ele>
        <time>2018-04-22T11:58:21Z</time>
      </trkpt>
      <trkpt lat="43.47279" lon="2.40862">
        <ele>665</ele>
        <time>2018-04-22T11:58:25Z</time>
      </trkpt>
      <trkpt lat="43.47283" lon="2.40861">
        <ele>665</ele>
        <time>2018-04-22T11:58:26Z</time>
      </trkpt>
      <trkpt lat="43.47287" lon="2.40861">
        <ele>665</ele>
        <time>2018-04-22T11:58:27Z</time>
      </trkpt>
      <trkpt lat="43.47299" lon="2.40853">
        <ele>665</ele>
        <time>2018-04-22T11:58:31Z</time>
      </trkpt>
      <trkpt lat="43.47304" lon="2.40853">
        <ele>665</ele>
        <time>2018-04-22T11:58:32Z</time>
      </trkpt>
      <trkpt lat="43.47308" lon="2.40851">
        <ele>664</ele>
        <time>2018-04-22T11:58:33Z</time>
      </trkpt>
      <trkpt lat="43.47318" lon="2.40849">
        <ele>664</ele>
        <time>2018-04-22T11:58:35Z</time>
      </trkpt>
      <trkpt lat="43.47335" lon="2.40847">
        <ele>663</ele>
        <time>2018-04-22T11:58:38Z</time>
      </trkpt>
      <trkpt lat="43.47347" lon="2.40845">
        <ele>662</ele>
        <time>2018-04-22T11:58:40Z</time>
      </trkpt>
      <trkpt lat="43.47354" lon="2.40844">
        <ele>660</ele>
        <time>2018-04-22T11:58:41Z</time>
      </trkpt>
      <trkpt lat="43.47385" lon="2.40838">
        <ele>660</ele>
        <time>2018-04-22T11:58:46Z</time>
      </trkpt>
      <trkpt lat="43.4739" lon="2.40836">
        <ele>660</ele>
        <time>2018-04-22T11:58:47Z</time>
      </trkpt>
      <trkpt lat="43.47408" lon="2.4083">
        <ele>660</ele>
        <time>2018-04-22T11:58:50Z</time>
      </trkpt>
      <trkpt lat="43.4742" lon="2.40823">
        <ele>659</ele>
        <time>2018-04-22T11:58:52Z</time>
      </trkpt>
      <trkpt lat="43.47437" lon="2.40814">
        <ele>658</ele>
        <time>2018-04-22T11:58:55Z</time>
      </trkpt>
      <trkpt lat="43.47444" lon="2.40811">
        <ele>657</ele>
        <time>2018-04-22T11:58:56Z</time>
      </trkpt>
      <trkpt lat="43.47451" lon="2.40809">
        <ele>656</ele>
        <time>2018-04-22T11:58:57Z</time>
      </trkpt>
      <trkpt lat="43.47468" lon="2.40805">
        <ele>656</ele>
        <time>2018-04-22T11:58:59Z</time>
      </trkpt>
      <trkpt lat="43.47476" lon="2.40803">
        <ele>654</ele>
        <time>2018-04-22T11:59:00Z</time>
      </trkpt>
      <trkpt lat="43.47484" lon="2.408">
        <ele>652</ele>
        <time>2018-04-22T11:59:01Z</time>
      </trkpt>
      <trkpt lat="43.475" lon="2.4079">
        <ele>651</ele>
        <time>2018-04-22T11:59:03Z</time>
      </trkpt>
      <trkpt lat="43.47506" lon="2.40785">
        <ele>650</ele>
        <time>2018-04-22T11:59:04Z</time>
      </trkpt>
      <trkpt lat="43.47513" lon="2.40778">
        <ele>649</ele>
        <time>2018-04-22T11:59:05Z</time>
      </trkpt>
      <trkpt lat="43.4753" lon="2.40764">
        <ele>648</ele>
        <time>2018-04-22T11:59:07Z</time>
      </trkpt>
      <trkpt lat="43.47536" lon="2.40757">
        <ele>647</ele>
        <time>2018-04-22T11:59:08Z</time>
      </trkpt>
      <trkpt lat="43.47543" lon="2.40747">
        <ele>645</ele>
        <time>2018-04-22T11:59:09Z</time>
      </trkpt>
      <trkpt lat="43.47548" lon="2.40738">
        <ele>644</ele>
        <time>2018-04-22T11:59:10Z</time>
      </trkpt>
      <trkpt lat="43.47554" lon="2.40728">
        <ele>643</ele>
        <time>2018-04-22T11:59:11Z</time>
      </trkpt>
      <trkpt lat="43.47565" lon="2.4071">
        <ele>642</ele>
        <time>2018-04-22T11:59:13Z</time>
      </trkpt>
      <trkpt lat="43.47571" lon="2.407">
        <ele>641</ele>
        <time>2018-04-22T11:59:14Z</time>
      </trkpt>
      <trkpt lat="43.47577" lon="2.40689">
        <ele>638</ele>
        <time>2018-04-22T11:59:15Z</time>
      </trkpt>
      <trkpt lat="43.47584" lon="2.40682">
        <ele>636</ele>
        <time>2018-04-22T11:59:16Z</time>
      </trkpt>
      <trkpt lat="43.47598" lon="2.40665">
        <ele>635</ele>
        <time>2018-04-22T11:59:18Z</time>
      </trkpt>
      <trkpt lat="43.47606" lon="2.40658">
        <ele>634</ele>
        <time>2018-04-22T11:59:19Z</time>
      </trkpt>
      <trkpt lat="43.47614" lon="2.4065">
        <ele>634</ele>
        <time>2018-04-22T11:59:20Z</time>
      </trkpt>
      <trkpt lat="43.47627" lon="2.40634">
        <ele>633</ele>
        <time>2018-04-22T11:59:22Z</time>
      </trkpt>
      <trkpt lat="43.47633" lon="2.40626">
        <ele>630</ele>
        <time>2018-04-22T11:59:23Z</time>
      </trkpt>
      <trkpt lat="43.47639" lon="2.40619">
        <ele>628</ele>
        <time>2018-04-22T11:59:24Z</time>
      </trkpt>
      <trkpt lat="43.47653" lon="2.40608">
        <ele>627</ele>
        <time>2018-04-22T11:59:26Z</time>
      </trkpt>
      <trkpt lat="43.4766" lon="2.40602">
        <ele>626</ele>
        <time>2018-04-22T11:59:27Z</time>
      </trkpt>
      <trkpt lat="43.47673" lon="2.40595">
        <ele>625</ele>
        <time>2018-04-22T11:59:29Z</time>
      </trkpt>
      <trkpt lat="43.47686" lon="2.4059">
        <ele>625</ele>
        <time>2018-04-22T11:59:31Z</time>
      </trkpt>
      <trkpt lat="43.47692" lon="2.40588">
        <ele>623</ele>
        <time>2018-04-22T11:59:32Z</time>
      </trkpt>
      <trkpt lat="43.47699" lon="2.40586">
        <ele>622</ele>
        <time>2018-04-22T11:59:33Z</time>
      </trkpt>
      <trkpt lat="43.47705" lon="2.40585">
        <ele>621</ele>
        <time>2018-04-22T11:59:34Z</time>
      </trkpt>
      <trkpt lat="43.47711" lon="2.40584">
        <ele>620</ele>
        <time>2018-04-22T11:59:35Z</time>
      </trkpt>
      <trkpt lat="43.47717" lon="2.40586">
        <ele>619</ele>
        <time>2018-04-22T11:59:36Z</time>
      </trkpt>
      <trkpt lat="43.47722" lon="2.40587">
        <ele>619</ele>
        <time>2018-04-22T11:59:37Z</time>
      </trkpt>
      <trkpt lat="43.47732" lon="2.4059">
        <ele>616</ele>
        <time>2018-04-22T11:59:39Z</time>
      </trkpt>
      <trkpt lat="43.47735" lon="2.40594">
        <ele>615</ele>
        <time>2018-04-22T11:59:40Z</time>
      </trkpt>
      <trkpt lat="43.47742" lon="2.40614">
        <ele>613</ele>
        <time>2018-04-22T11:59:44Z</time>
      </trkpt>
      <trkpt lat="43.47743" lon="2.40621">
        <ele>612</ele>
        <time>2018-04-22T11:59:45Z</time>
      </trkpt>
      <trkpt lat="43.47742" lon="2.40622">
        <ele>612</ele>
        <time>2018-04-22T11:59:46Z</time>
      </trkpt>
      <trkpt lat="43.47748" lon="2.40629">
        <ele>610</ele>
        <time>2018-04-22T11:59:48Z</time>
      </trkpt>
      <trkpt lat="43.47753" lon="2.40626">
        <ele>609</ele>
        <time>2018-04-22T11:59:49Z</time>
      </trkpt>
      <trkpt lat="43.47757" lon="2.40621">
        <ele>609</ele>
        <time>2018-04-22T11:59:50Z</time>
      </trkpt>
      <trkpt lat="43.47759" lon="2.40615">
        <ele>608</ele>
        <time>2018-04-22T11:59:51Z</time>
      </trkpt>
      <trkpt lat="43.47759" lon="2.40607">
        <ele>607</ele>
        <time>2018-04-22T11:59:52Z</time>
      </trkpt>
      <trkpt lat="43.47758" lon="2.406">
        <ele>606</ele>
        <time>2018-04-22T11:59:53Z</time>
      </trkpt>
      <trkpt lat="43.47759" lon="2.40591">
        <ele>605</ele>
        <time>2018-04-22T11:59:54Z</time>
      </trkpt>
      <trkpt lat="43.4776" lon="2.40581">
        <ele>604</ele>
        <time>2018-04-22T11:59:55Z</time>
      </trkpt>
      <trkpt lat="43.47763" lon="2.40573">
        <ele>602</ele>
        <time>2018-04-22T11:59:56Z</time>
      </trkpt>
      <trkpt lat="43.47764" lon="2.40556">
        <ele>601</ele>
        <time>2018-04-22T11:59:58Z</time>
      </trkpt>
      <trkpt lat="43.47762" lon="2.40548">
        <ele>600</ele>
        <time>2018-04-22T11:59:59Z</time>
      </trkpt>
      <trkpt lat="43.47759" lon="2.4054">
        <ele>599</ele>
        <time>2018-04-22T12:00:00Z</time>
      </trkpt>
      <trkpt lat="43.47751" lon="2.40524">
        <ele>598</ele>
        <time>2018-04-22T12:00:02Z</time>
      </trkpt>
      <trkpt lat="43.47739" lon="2.40513">
        <ele>597</ele>
        <time>2018-04-22T12:00:04Z</time>
      </trkpt>
      <trkpt lat="43.47732" lon="2.4051">
        <ele>596</ele>
        <time>2018-04-22T12:00:05Z</time>
      </trkpt>
      <trkpt lat="43.47724" lon="2.40509">
        <ele>596</ele>
        <time>2018-04-22T12:00:06Z</time>
      </trkpt>
      <trkpt lat="43.47716" lon="2.40508">
        <ele>595</ele>
        <time>2018-04-22T12:00:07Z</time>
      </trkpt>
      <trkpt lat="43.47708" lon="2.40506">
        <ele>594</ele>
        <time>2018-04-22T12:00:08Z</time>
      </trkpt>
      <trkpt lat="43.47699" lon="2.40502">
        <ele>593</ele>
        <time>2018-04-22T12:00:09Z</time>
      </trkpt>
      <trkpt lat="43.47683" lon="2.40495">
        <ele>592</ele>
        <time>2018-04-22T12:00:11Z</time>
      </trkpt>
      <trkpt lat="43.47675" lon="2.40489">
        <ele>591</ele>
        <time>2018-04-22T12:00:12Z</time>
      </trkpt>
      <trkpt lat="43.47657" lon="2.40463">
        <ele>590</ele>
        <time>2018-04-22T12:00:15Z</time>
      </trkpt>
      <trkpt lat="43.47652" lon="2.40452">
        <ele>590</ele>
        <time>2018-04-22T12:00:16Z</time>
      </trkpt>
      <trkpt lat="43.47648" lon="2.40442">
        <ele>589</ele>
        <time>2018-04-22T12:00:17Z</time>
      </trkpt>
      <trkpt lat="43.47643" lon="2.40432">
        <ele>587</ele>
        <time>2018-04-22T12:00:18Z</time>
      </trkpt>
      <trkpt lat="43.47636" lon="2.40415">
        <ele>585</ele>
        <time>2018-04-22T12:00:20Z</time>
      </trkpt>
      <trkpt lat="43.47634" lon="2.40404">
        <ele>585</ele>
        <time>2018-04-22T12:00:21Z</time>
      </trkpt>
      <trkpt lat="43.47632" lon="2.40394">
        <ele>585</ele>
        <time>2018-04-22T12:00:22Z</time>
      </trkpt>
      <trkpt lat="43.4763" lon="2.40378">
        <ele>583</ele>
        <time>2018-04-22T12:00:24Z</time>
      </trkpt>
      <trkpt lat="43.47629" lon="2.4037">
        <ele>581</ele>
        <time>2018-04-22T12:00:25Z</time>
      </trkpt>
      <trkpt lat="43.47626" lon="2.40363">
        <ele>580</ele>
        <time>2018-04-22T12:00:26Z</time>
      </trkpt>
      <trkpt lat="43.47615" lon="2.40348">
        <ele>581</ele>
        <time>2018-04-22T12:00:29Z</time>
      </trkpt>
      <trkpt lat="43.47614" lon="2.40343">
        <ele>580</ele>
        <time>2018-04-22T12:00:30Z</time>
      </trkpt>
      <trkpt lat="43.47614" lon="2.40336">
        <ele>579</ele>
        <time>2018-04-22T12:00:31Z</time>
      </trkpt>
      <trkpt lat="43.47615" lon="2.40331">
        <ele>578</ele>
        <time>2018-04-22T12:00:32Z</time>
      </trkpt>
      <trkpt lat="43.47617" lon="2.40324">
        <ele>578</ele>
        <time>2018-04-22T12:00:35Z</time>
      </trkpt>
      <trkpt lat="43.47615" lon="2.4031">
        <ele>578</ele>
        <time>2018-04-22T12:00:43Z</time>
      </trkpt>
      <trkpt lat="43.47615" lon="2.4031">
        <ele>578</ele>
        <time>2018-04-22T12:00:45Z</time>
      </trkpt>
      <trkpt lat="43.47615" lon="2.4031">
        <ele>577</ele>
        <time>2018-04-22T12:00:49Z</time>
      </trkpt>
      <trkpt lat="43.47615" lon="2.4031">
        <ele>578</ele>
        <time>2018-04-22T12:01:11Z</time>
      </trkpt>
      <trkpt lat="43.47615" lon="2.4031">
        <ele>577</ele>
        <time>2018-04-22T12:01:18Z</time>
      </trkpt>
      <trkpt lat="43.47615" lon="2.40309">
        <ele>578</ele>
        <time>2018-04-22T12:01:26Z</time>
      </trkpt>
      <trkpt lat="43.47615" lon="2.40309">
        <ele>578</ele>
        <time>2018-04-22T12:01:29Z</time>
      </trkpt>
      <trkpt lat="43.47615" lon="2.40309">
        <ele>578</ele>
        <time>2018-04-22T12:01:33Z</time>
      </trkpt>
      <trkpt lat="43.47615" lon="2.40309">
        <ele>578</ele>
        <time>2018-04-22T12:01:36Z</time>
      </trkpt>
      <trkpt lat="43.47616" lon="2.40303">
        <ele>577</ele>
        <time>2018-04-22T12:01:39Z</time>
      </trkpt>
      <trkpt lat="43.4762" lon="2.40285">
        <ele>576</ele>
        <time>2018-04-22T12:01:43Z</time>
      </trkpt>
      <trkpt lat="43.47626" lon="2.40268">
        <ele>575</ele>
        <time>2018-04-22T12:01:46Z</time>
      </trkpt>
      <trkpt lat="43.47629" lon="2.40263">
        <ele>575</ele>
        <time>2018-04-22T12:01:47Z</time>
      </trkpt>
      <trkpt lat="43.47631" lon="2.40256">
        <ele>574</ele>
        <time>2018-04-22T12:01:48Z</time>
      </trkpt>
      <trkpt lat="43.47633" lon="2.4025">
        <ele>574</ele>
        <time>2018-04-22T12:01:49Z</time>
      </trkpt>
      <trkpt lat="43.47638" lon="2.40238">
        <ele>572</ele>
        <time>2018-04-22T12:01:51Z</time>
      </trkpt>
      <trkpt lat="43.4764" lon="2.40232">
        <ele>572</ele>
        <time>2018-04-22T12:01:52Z</time>
      </trkpt>
      <trkpt lat="43.47641" lon="2.40224">
        <ele>571</ele>
        <time>2018-04-22T12:01:53Z</time>
      </trkpt>
      <trkpt lat="43.4764" lon="2.40217">
        <ele>571</ele>
        <time>2018-04-22T12:01:54Z</time>
      </trkpt>
      <trkpt lat="43.47636" lon="2.40202">
        <ele>570</ele>
        <time>2018-04-22T12:01:56Z</time>
      </trkpt>
      <trkpt lat="43.47631" lon="2.40196">
        <ele>570</ele>
        <time>2018-04-22T12:01:57Z</time>
      </trkpt>
      <trkpt lat="43.4762" lon="2.40184">
        <ele>569</ele>
        <time>2018-04-22T12:01:59Z</time>
      </trkpt>
      <trkpt lat="43.47611" lon="2.40174">
        <ele>567</ele>
        <time>2018-04-22T12:02:01Z</time>
      </trkpt>
      <trkpt lat="43.47601" lon="2.40163">
        <ele>565</ele>
        <time>2018-04-22T12:02:03Z</time>
      </trkpt>
      <trkpt lat="43.47593" lon="2.40152">
        <ele>565</ele>
        <time>2018-04-22T12:02:05Z</time>
      </trkpt>
      <trkpt lat="43.47588" lon="2.40149">
        <ele>564</ele>
        <time>2018-04-22T12:02:06Z</time>
      </trkpt>
      <trkpt lat="43.47573" lon="2.40147">
        <ele>564</ele>
        <time>2018-04-22T12:02:09Z</time>
      </trkpt>
      <trkpt lat="43.47565" lon="2.40142">
        <ele>563</ele>
        <time>2018-04-22T12:02:11Z</time>
      </trkpt>
      <trkpt lat="43.47561" lon="2.40138">
        <ele>563</ele>
        <time>2018-04-22T12:02:12Z</time>
      </trkpt>
      <trkpt lat="43.47557" lon="2.40133">
        <ele>562</ele>
        <time>2018-04-22T12:02:13Z</time>
      </trkpt>
      <trkpt lat="43.47553" lon="2.40122">
        <ele>560</ele>
        <time>2018-04-22T12:02:15Z</time>
      </trkpt>
      <trkpt lat="43.47555" lon="2.4011">
        <ele>559</ele>
        <time>2018-04-22T12:02:17Z</time>
      </trkpt>
      <trkpt lat="43.47556" lon="2.40104">
        <ele>559</ele>
        <time>2018-04-22T12:02:18Z</time>
      </trkpt>
      <trkpt lat="43.47557" lon="2.40097">
        <ele>558</ele>
        <time>2018-04-22T12:02:19Z</time>
      </trkpt>
      <trkpt lat="43.47559" lon="2.40092">
        <ele>559</ele>
        <time>2018-04-22T12:02:20Z</time>
      </trkpt>
      <trkpt lat="43.4756" lon="2.40085">
        <ele>559</ele>
        <time>2018-04-22T12:02:22Z</time>
      </trkpt>
      <trkpt lat="43.47561" lon="2.40081">
        <ele>558</ele>
        <time>2018-04-22T12:02:23Z</time>
      </trkpt>
      <trkpt lat="43.47565" lon="2.40066">
        <ele>557</ele>
        <time>2018-04-22T12:02:26Z</time>
      </trkpt>
      <trkpt lat="43.47569" lon="2.40046">
        <ele>557</ele>
        <time>2018-04-22T12:02:29Z</time>
      </trkpt>
      <trkpt lat="43.4757" lon="2.40031">
        <ele>556</ele>
        <time>2018-04-22T12:02:31Z</time>
      </trkpt>
      <trkpt lat="43.47572" lon="2.40024">
        <ele>556</ele>
        <time>2018-04-22T12:02:32Z</time>
      </trkpt>
      <trkpt lat="43.47578" lon="2.40001">
        <ele>554</ele>
        <time>2018-04-22T12:02:35Z</time>
      </trkpt>
      <trkpt lat="43.47584" lon="2.39978">
        <ele>554</ele>
        <time>2018-04-22T12:02:38Z</time>
      </trkpt>
      <trkpt lat="43.47581" lon="2.39944">
        <ele>554</ele>
        <time>2018-04-22T12:02:42Z</time>
      </trkpt>
      <trkpt lat="43.47579" lon="2.39935">
        <ele>553</ele>
        <time>2018-04-22T12:02:43Z</time>
      </trkpt>
      <trkpt lat="43.47577" lon="2.39926">
        <ele>553</ele>
        <time>2018-04-22T12:02:44Z</time>
      </trkpt>
      <trkpt lat="43.4757" lon="2.39899">
        <ele>552</ele>
        <time>2018-04-22T12:02:47Z</time>
      </trkpt>
      <trkpt lat="43.47562" lon="2.39876">
        <ele>552</ele>
        <time>2018-04-22T12:02:50Z</time>
      </trkpt>
      <trkpt lat="43.47557" lon="2.3986">
        <ele>551</ele>
        <time>2018-04-22T12:02:52Z</time>
      </trkpt>
      <trkpt lat="43.47557" lon="2.39852">
        <ele>550</ele>
        <time>2018-04-22T12:02:53Z</time>
      </trkpt>
      <trkpt lat="43.47554" lon="2.39846">
        <ele>549</ele>
        <time>2018-04-22T12:02:54Z</time>
      </trkpt>
      <trkpt lat="43.47543" lon="2.39816">
        <ele>548</ele>
        <time>2018-04-22T12:02:58Z</time>
      </trkpt>
      <trkpt lat="43.47542" lon="2.39807">
        <ele>548</ele>
        <time>2018-04-22T12:02:59Z</time>
      </trkpt>
      <trkpt lat="43.4754" lon="2.39798">
        <ele>547</ele>
        <time>2018-04-22T12:03:00Z</time>
      </trkpt>
      <trkpt lat="43.47535" lon="2.39785">
        <ele>548</ele>
        <time>2018-04-22T12:03:02Z</time>
      </trkpt>
      <trkpt lat="43.47533" lon="2.39784">
        <ele>547</ele>
        <time>2018-04-22T12:03:04Z</time>
      </trkpt>
      <trkpt lat="43.47531" lon="2.39795">
        <ele>546</ele>
        <time>2018-04-22T12:03:06Z</time>
      </trkpt>
      <trkpt lat="43.47531" lon="2.39799">
        <ele>545</ele>
        <time>2018-04-22T12:03:07Z</time>
      </trkpt>
      <trkpt lat="43.47529" lon="2.39807">
        <ele>544</ele>
        <time>2018-04-22T12:03:08Z</time>
      </trkpt>
      <trkpt lat="43.47528" lon="2.39813">
        <ele>544</ele>
        <time>2018-04-22T12:03:09Z</time>
      </trkpt>
      <trkpt lat="43.47527" lon="2.39819">
        <ele>542</ele>
        <time>2018-04-22T12:03:10Z</time>
      </trkpt>
      <trkpt lat="43.47525" lon="2.39827">
        <ele>541</ele>
        <time>2018-04-22T12:03:11Z</time>
      </trkpt>
      <trkpt lat="43.47516" lon="2.39843">
        <ele>541</ele>
        <time>2018-04-22T12:03:14Z</time>
      </trkpt>
      <trkpt lat="43.4751" lon="2.39845">
        <ele>541</ele>
        <time>2018-04-22T12:03:16Z</time>
      </trkpt>
      <trkpt lat="43.47507" lon="2.39842">
        <ele>541</ele>
        <time>2018-04-22T12:03:17Z</time>
      </trkpt>
      <trkpt lat="43.47508" lon="2.39832">
        <ele>541</ele>
        <time>2018-04-22T12:03:19Z</time>
      </trkpt>
      <trkpt lat="43.47509" lon="2.39826">
        <ele>538</ele>
        <time>2018-04-22T12:03:20Z</time>
      </trkpt>
      <trkpt lat="43.4751" lon="2.39819">
        <ele>536</ele>
        <time>2018-04-22T12:03:21Z</time>
      </trkpt>
      <trkpt lat="43.47509" lon="2.39813">
        <ele>535</ele>
        <time>2018-04-22T12:03:22Z</time>
      </trkpt>
      <trkpt lat="43.47508" lon="2.39778">
        <ele>535</ele>
        <time>2018-04-22T12:03:26Z</time>
      </trkpt>
      <trkpt lat="43.47509" lon="2.39769">
        <ele>534</ele>
        <time>2018-04-22T12:03:27Z</time>
      </trkpt>
      <trkpt lat="43.47509" lon="2.39759">
        <ele>532</ele>
        <time>2018-04-22T12:03:28Z</time>
      </trkpt>
      <trkpt lat="43.4751" lon="2.39749">
        <ele>530</ele>
        <time>2018-04-22T12:03:29Z</time>
      </trkpt>
      <trkpt lat="43.47512" lon="2.3974">
        <ele>531</ele>
        <time>2018-04-22T12:03:30Z</time>
      </trkpt>
      <trkpt lat="43.47521" lon="2.39714">
        <ele>529</ele>
        <time>2018-04-22T12:03:33Z</time>
      </trkpt>
      <trkpt lat="43.47525" lon="2.39705">
        <ele>528</ele>
        <time>2018-04-22T12:03:34Z</time>
      </trkpt>
      <trkpt lat="43.47533" lon="2.39685">
        <ele>526</ele>
        <time>2018-04-22T12:03:36Z</time>
      </trkpt>
      <trkpt lat="43.47536" lon="2.39677">
        <ele>525</ele>
        <time>2018-04-22T12:03:37Z</time>
      </trkpt>
      <trkpt lat="43.47539" lon="2.39667">
        <ele>524</ele>
        <time>2018-04-22T12:03:38Z</time>
      </trkpt>
      <trkpt lat="43.47553" lon="2.39631">
        <ele>522</ele>
        <time>2018-04-22T12:03:42Z</time>
      </trkpt>
      <trkpt lat="43.47557" lon="2.39622">
        <ele>521</ele>
        <time>2018-04-22T12:03:43Z</time>
      </trkpt>
      <trkpt lat="43.47562" lon="2.39615">
        <ele>520</ele>
        <time>2018-04-22T12:03:44Z</time>
      </trkpt>
      <trkpt lat="43.47567" lon="2.39607">
        <ele>518</ele>
        <time>2018-04-22T12:03:45Z</time>
      </trkpt>
      <trkpt lat="43.47573" lon="2.39602">
        <ele>518</ele>
        <time>2018-04-22T12:03:46Z</time>
      </trkpt>
      <trkpt lat="43.4758" lon="2.39595">
        <ele>517</ele>
        <time>2018-04-22T12:03:47Z</time>
      </trkpt>
      <trkpt lat="43.47591" lon="2.39579">
        <ele>516</ele>
        <time>2018-04-22T12:03:49Z</time>
      </trkpt>
      <trkpt lat="43.47596" lon="2.3957">
        <ele>513</ele>
        <time>2018-04-22T12:03:50Z</time>
      </trkpt>
      <trkpt lat="43.47599" lon="2.39561">
        <ele>511</ele>
        <time>2018-04-22T12:03:51Z</time>
      </trkpt>
      <trkpt lat="43.47605" lon="2.39542">
        <ele>512</ele>
        <time>2018-04-22T12:03:53Z</time>
      </trkpt>
      <trkpt lat="43.47608" lon="2.39523">
        <ele>511</ele>
        <time>2018-04-22T12:03:55Z</time>
      </trkpt>
      <trkpt lat="43.4761" lon="2.39512">
        <ele>510</ele>
        <time>2018-04-22T12:03:56Z</time>
      </trkpt>
      <trkpt lat="43.47612" lon="2.39501">
        <ele>509</ele>
        <time>2018-04-22T12:03:57Z</time>
      </trkpt>
      <trkpt lat="43.47614" lon="2.39491">
        <ele>509</ele>
        <time>2018-04-22T12:03:58Z</time>
      </trkpt>
      <trkpt lat="43.47617" lon="2.39481">
        <ele>507</ele>
        <time>2018-04-22T12:03:59Z</time>
      </trkpt>
      <trkpt lat="43.47619" lon="2.39468">
        <ele>506</ele>
        <time>2018-04-22T12:04:00Z</time>
      </trkpt>
      <trkpt lat="43.47623" lon="2.3946">
        <ele>506</ele>
        <time>2018-04-22T12:04:01Z</time>
      </trkpt>
      <trkpt lat="43.47627" lon="2.39452">
        <ele>506</ele>
        <time>2018-04-22T12:04:02Z</time>
      </trkpt>
      <trkpt lat="43.47634" lon="2.39428">
        <ele>504</ele>
        <time>2018-04-22T12:04:05Z</time>
      </trkpt>
      <trkpt lat="43.47637" lon="2.39406">
        <ele>503</ele>
        <time>2018-04-22T12:04:07Z</time>
      </trkpt>
      <trkpt lat="43.47639" lon="2.39397">
        <ele>503</ele>
        <time>2018-04-22T12:04:08Z</time>
      </trkpt>
      <trkpt lat="43.47641" lon="2.39388">
        <ele>503</ele>
        <time>2018-04-22T12:04:10Z</time>
      </trkpt>
      <trkpt lat="43.47638" lon="2.39386">
        <ele>503</ele>
        <time>2018-04-22T12:04:13Z</time>
      </trkpt>
      <trkpt lat="43.47634" lon="2.39392">
        <ele>502</ele>
        <time>2018-04-22T12:04:15Z</time>
      </trkpt>
      <trkpt lat="43.47633" lon="2.394">
        <ele>500</ele>
        <time>2018-04-22T12:04:17Z</time>
      </trkpt>
      <trkpt lat="43.47626" lon="2.39418">
        <ele>499</ele>
        <time>2018-04-22T12:04:21Z</time>
      </trkpt>
      <trkpt lat="43.47624" lon="2.39424">
        <ele>498</ele>
        <time>2018-04-22T12:04:22Z</time>
      </trkpt>
      <trkpt lat="43.47618" lon="2.39437">
        <ele>499</ele>
        <time>2018-04-22T12:04:24Z</time>
      </trkpt>
      <trkpt lat="43.47605" lon="2.39455">
        <ele>497</ele>
        <time>2018-04-22T12:04:27Z</time>
      </trkpt>
      <trkpt lat="43.47602" lon="2.3946">
        <ele>496</ele>
        <time>2018-04-22T12:04:28Z</time>
      </trkpt>
      <trkpt lat="43.47599" lon="2.39465">
        <ele>496</ele>
        <time>2018-04-22T12:04:29Z</time>
      </trkpt>
      <trkpt lat="43.47595" lon="2.39472">
        <ele>495</ele>
        <time>2018-04-22T12:04:31Z</time>
      </trkpt>
      <trkpt lat="43.47592" lon="2.3948">
        <ele>495</ele>
        <time>2018-04-22T12:04:33Z</time>
      </trkpt>
      <trkpt lat="43.4759" lon="2.39478">
        <ele>495</ele>
        <time>2018-04-22T12:04:34Z</time>
      </trkpt>
      <trkpt lat="43.4759" lon="2.39474">
        <ele>494</ele>
        <time>2018-04-22T12:04:35Z</time>
      </trkpt>
      <trkpt lat="43.47592" lon="2.39471">
        <ele>494</ele>
        <time>2018-04-22T12:04:36Z</time>
      </trkpt>
      <trkpt lat="43.47597" lon="2.39457">
        <ele>494</ele>
        <time>2018-04-22T12:04:39Z</time>
      </trkpt>
      <trkpt lat="43.47599" lon="2.39452">
        <ele>494</ele>
        <time>2018-04-22T12:04:40Z</time>
      </trkpt>
      <trkpt lat="43.47602" lon="2.39445">
        <ele>492</ele>
        <time>2018-04-22T12:04:41Z</time>
      </trkpt>
      <trkpt lat="43.47606" lon="2.39433">
        <ele>491</ele>
        <time>2018-04-22T12:04:43Z</time>
      </trkpt>
      <trkpt lat="43.47608" lon="2.39426">
        <ele>490</ele>
        <time>2018-04-22T12:04:44Z</time>
      </trkpt>
      <trkpt lat="43.4761" lon="2.39417">
        <ele>489</ele>
        <time>2018-04-22T12:04:45Z</time>
      </trkpt>
      <trkpt lat="43.47611" lon="2.3941">
        <ele>487</ele>
        <time>2018-04-22T12:04:46Z</time>
      </trkpt>
      <trkpt lat="43.47612" lon="2.39402">
        <ele>486</ele>
        <time>2018-04-22T12:04:47Z</time>
      </trkpt>
      <trkpt lat="43.47614" lon="2.39393">
        <ele>485</ele>
        <time>2018-04-22T12:04:48Z</time>
      </trkpt>
      <trkpt lat="43.47616" lon="2.39384">
        <ele>484</ele>
        <time>2018-04-22T12:04:49Z</time>
      </trkpt>
      <trkpt lat="43.47618" lon="2.39376">
        <ele>483</ele>
        <time>2018-04-22T12:04:50Z</time>
      </trkpt>
      <trkpt lat="43.47617" lon="2.39358">
        <ele>483</ele>
        <time>2018-04-22T12:04:52Z</time>
      </trkpt>
      <trkpt lat="43.47618" lon="2.3934">
        <ele>482</ele>
        <time>2018-04-22T12:04:54Z</time>
      </trkpt>
      <trkpt lat="43.47617" lon="2.39333">
        <ele>480</ele>
        <time>2018-04-22T12:04:55Z</time>
      </trkpt>
      <trkpt lat="43.4761" lon="2.39319">
        <ele>480</ele>
        <time>2018-04-22T12:04:57Z</time>
      </trkpt>
      <trkpt lat="43.47605" lon="2.39306">
        <ele>479</ele>
        <time>2018-04-22T12:04:59Z</time>
      </trkpt>
      <trkpt lat="43.47603" lon="2.393">
        <ele>479</ele>
        <time>2018-04-22T12:05:00Z</time>
      </trkpt>
      <trkpt lat="43.47596" lon="2.39277">
        <ele>478</ele>
        <time>2018-04-22T12:05:03Z</time>
      </trkpt>
      <trkpt lat="43.47593" lon="2.39269">
        <ele>477</ele>
        <time>2018-04-22T12:05:04Z</time>
      </trkpt>
      <trkpt lat="43.4759" lon="2.39261">
        <ele>476</ele>
        <time>2018-04-22T12:05:05Z</time>
      </trkpt>
      <trkpt lat="43.47579" lon="2.39235">
        <ele>474</ele>
        <time>2018-04-22T12:05:08Z</time>
      </trkpt>
      <trkpt lat="43.47577" lon="2.39225">
        <ele>474</ele>
        <time>2018-04-22T12:05:09Z</time>
      </trkpt>
      <trkpt lat="43.47574" lon="2.39218">
        <ele>475</ele>
        <time>2018-04-22T12:05:10Z</time>
      </trkpt>
      <trkpt lat="43.4757" lon="2.39211">
        <ele>474</ele>
        <time>2018-04-22T12:05:11Z</time>
      </trkpt>
      <trkpt lat="43.47566" lon="2.39204">
        <ele>472</ele>
        <time>2018-04-22T12:05:12Z</time>
      </trkpt>
      <trkpt lat="43.47562" lon="2.39197">
        <ele>471</ele>
        <time>2018-04-22T12:05:13Z</time>
      </trkpt>
      <trkpt lat="43.47558" lon="2.3919">
        <ele>471</ele>
        <time>2018-04-22T12:05:14Z</time>
      </trkpt>
      <trkpt lat="43.47555" lon="2.39183">
        <ele>471</ele>
        <time>2018-04-22T12:05:15Z</time>
      </trkpt>
      <trkpt lat="43.47551" lon="2.39174">
        <ele>471</ele>
        <time>2018-04-22T12:05:17Z</time>
      </trkpt>
      <trkpt lat="43.47549" lon="2.39173">
        <ele>471</ele>
        <time>2018-04-22T12:05:18Z</time>
      </trkpt>
      <trkpt lat="43.47547" lon="2.39175">
        <ele>471</ele>
        <time>2018-04-22T12:05:19Z</time>
      </trkpt>
      <trkpt lat="43.4755" lon="2.3919">
        <ele>470</ele>
        <time>2018-04-22T12:05:22Z</time>
      </trkpt>
      <trkpt lat="43.47553" lon="2.39197">
        <ele>470</ele>
        <time>2018-04-22T12:05:23Z</time>
      </trkpt>
      <trkpt lat="43.47555" lon="2.39206">
        <ele>469</ele>
        <time>2018-04-22T12:05:24Z</time>
      </trkpt>
      <trkpt lat="43.47558" lon="2.39215">
        <ele>467</ele>
        <time>2018-04-22T12:05:25Z</time>
      </trkpt>
      <trkpt lat="43.47561" lon="2.39224">
        <ele>466</ele>
        <time>2018-04-22T12:05:26Z</time>
      </trkpt>
      <trkpt lat="43.47563" lon="2.39236">
        <ele>464</ele>
        <time>2018-04-22T12:05:27Z</time>
      </trkpt>
      <trkpt lat="43.47565" lon="2.39246">
        <ele>463</ele>
        <time>2018-04-22T12:05:28Z</time>
      </trkpt>
      <trkpt lat="43.47568" lon="2.39256">
        <ele>462</ele>
        <time>2018-04-22T12:05:29Z</time>
      </trkpt>
      <trkpt lat="43.47573" lon="2.39276">
        <ele>462</ele>
        <time>2018-04-22T12:05:31Z</time>
      </trkpt>
      <trkpt lat="43.47575" lon="2.39295">
        <ele>462</ele>
        <time>2018-04-22T12:05:33Z</time>
      </trkpt>
      <trkpt lat="43.47576" lon="2.393">
        <ele>461</ele>
        <time>2018-04-22T12:05:34Z</time>
      </trkpt>
      <trkpt lat="43.47575" lon="2.39307">
        <ele>461</ele>
        <time>2018-04-22T12:05:36Z</time>
      </trkpt>
      <trkpt lat="43.47572" lon="2.39306">
        <ele>460</ele>
        <time>2018-04-22T12:05:37Z</time>
      </trkpt>
      <trkpt lat="43.47572" lon="2.39303">
        <ele>459</ele>
        <time>2018-04-22T12:05:38Z</time>
      </trkpt>
      <trkpt lat="43.47572" lon="2.39298">
        <ele>459</ele>
        <time>2018-04-22T12:05:39Z</time>
      </trkpt>
      <trkpt lat="43.47568" lon="2.39286">
        <ele>457</ele>
        <time>2018-04-22T12:05:41Z</time>
      </trkpt>
      <trkpt lat="43.47566" lon="2.39279">
        <ele>457</ele>
        <time>2018-04-22T12:05:42Z</time>
      </trkpt>
      <trkpt lat="43.47563" lon="2.39271">
        <ele>457</ele>
        <time>2018-04-22T12:05:43Z</time>
      </trkpt>
      <trkpt lat="43.4756" lon="2.39263">
        <ele>456</ele>
        <time>2018-04-22T12:05:44Z</time>
      </trkpt>
      <trkpt lat="43.47556" lon="2.39256">
        <ele>455</ele>
        <time>2018-04-22T12:05:45Z</time>
      </trkpt>
      <trkpt lat="43.47553" lon="2.39249">
        <ele>454</ele>
        <time>2018-04-22T12:05:46Z</time>
      </trkpt>
      <trkpt lat="43.47548" lon="2.39236">
        <ele>454</ele>
        <time>2018-04-22T12:05:48Z</time>
      </trkpt>
      <trkpt lat="43.47547" lon="2.39232">
        <ele>454</ele>
        <time>2018-04-22T12:05:49Z</time>
      </trkpt>
      <trkpt lat="43.47542" lon="2.39233">
        <ele>454</ele>
        <time>2018-04-22T12:05:52Z</time>
      </trkpt>
      <trkpt lat="43.47546" lon="2.39245">
        <ele>453</ele>
        <time>2018-04-22T12:05:55Z</time>
      </trkpt>
      <trkpt lat="43.47547" lon="2.3925">
        <ele>450</ele>
        <time>2018-04-22T12:05:56Z</time>
      </trkpt>
      <trkpt lat="43.47549" lon="2.39257">
        <ele>450</ele>
        <time>2018-04-22T12:05:57Z</time>
      </trkpt>
      <trkpt lat="43.4755" lon="2.39264">
        <ele>449</ele>
        <time>2018-04-22T12:05:58Z</time>
      </trkpt>
      <trkpt lat="43.47552" lon="2.39272">
        <ele>448</ele>
        <time>2018-04-22T12:05:59Z</time>
      </trkpt>
      <trkpt lat="43.47557" lon="2.39297">
        <ele>447</ele>
        <time>2018-04-22T12:06:03Z</time>
      </trkpt>
      <trkpt lat="43.47556" lon="2.393">
        <ele>447</ele>
        <time>2018-04-22T12:06:04Z</time>
      </trkpt>
      <trkpt lat="43.47552" lon="2.39299">
        <ele>446</ele>
        <time>2018-04-22T12:06:06Z</time>
      </trkpt>
      <trkpt lat="43.47552" lon="2.39295">
        <ele>446</ele>
        <time>2018-04-22T12:06:07Z</time>
      </trkpt>
      <trkpt lat="43.47552" lon="2.39291">
        <ele>445</ele>
        <time>2018-04-22T12:06:08Z</time>
      </trkpt>
      <trkpt lat="43.4755" lon="2.39285">
        <ele>444</ele>
        <time>2018-04-22T12:06:09Z</time>
      </trkpt>
      <trkpt lat="43.47546" lon="2.39272">
        <ele>443</ele>
        <time>2018-04-22T12:06:11Z</time>
      </trkpt>
      <trkpt lat="43.47541" lon="2.39258">
        <ele>443</ele>
        <time>2018-04-22T12:06:13Z</time>
      </trkpt>
      <trkpt lat="43.47535" lon="2.39243">
        <ele>442</ele>
        <time>2018-04-22T12:06:15Z</time>
      </trkpt>
      <trkpt lat="43.4753" lon="2.39229">
        <ele>440</ele>
        <time>2018-04-22T12:06:17Z</time>
      </trkpt>
      <trkpt lat="43.47526" lon="2.39223">
        <ele>439</ele>
        <time>2018-04-22T12:06:18Z</time>
      </trkpt>
      <trkpt lat="43.47515" lon="2.39209">
        <ele>440</ele>
        <time>2018-04-22T12:06:22Z</time>
      </trkpt>
      <trkpt lat="43.47516" lon="2.39216">
        <ele>440</ele>
        <time>2018-04-22T12:06:25Z</time>
      </trkpt>
      <trkpt lat="43.47518" lon="2.3922">
        <ele>440</ele>
        <time>2018-04-22T12:06:26Z</time>
      </trkpt>
      <trkpt lat="43.47522" lon="2.39229">
        <ele>439</ele>
        <time>2018-04-22T12:06:28Z</time>
      </trkpt>
      <trkpt lat="43.47524" lon="2.39234">
        <ele>437</ele>
        <time>2018-04-22T12:06:29Z</time>
      </trkpt>
      <trkpt lat="43.47527" lon="2.39246">
        <ele>436</ele>
        <time>2018-04-22T12:06:31Z</time>
      </trkpt>
      <trkpt lat="43.47529" lon="2.39254">
        <ele>436</ele>
        <time>2018-04-22T12:06:32Z</time>
      </trkpt>
      <trkpt lat="43.47531" lon="2.39262">
        <ele>436</ele>
        <time>2018-04-22T12:06:33Z</time>
      </trkpt>
      <trkpt lat="43.47533" lon="2.39271">
        <ele>434</ele>
        <time>2018-04-22T12:06:34Z</time>
      </trkpt>
      <trkpt lat="43.47534" lon="2.3928">
        <ele>433</ele>
        <time>2018-04-22T12:06:35Z</time>
      </trkpt>
      <trkpt lat="43.47537" lon="2.39294">
        <ele>433</ele>
        <time>2018-04-22T12:06:37Z</time>
      </trkpt>
      <trkpt lat="43.47534" lon="2.393">
        <ele>433</ele>
        <time>2018-04-22T12:06:40Z</time>
      </trkpt>
      <trkpt lat="43.47532" lon="2.39295">
        <ele>432</ele>
        <time>2018-04-22T12:06:42Z</time>
      </trkpt>
      <trkpt lat="43.47531" lon="2.39291">
        <ele>432</ele>
        <time>2018-04-22T12:06:43Z</time>
      </trkpt>
      <trkpt lat="43.47527" lon="2.39283">
        <ele>431</ele>
        <time>2018-04-22T12:06:46Z</time>
      </trkpt>
      <trkpt lat="43.47525" lon="2.39279">
        <ele>430</ele>
        <time>2018-04-22T12:06:47Z</time>
      </trkpt>
      <trkpt lat="43.47524" lon="2.39274">
        <ele>430</ele>
        <time>2018-04-22T12:06:48Z</time>
      </trkpt>
      <trkpt lat="43.47515" lon="2.39254">
        <ele>427</ele>
        <time>2018-04-22T12:06:51Z</time>
      </trkpt>
      <trkpt lat="43.47502" lon="2.39228">
        <ele>426</ele>
        <time>2018-04-22T12:06:55Z</time>
      </trkpt>
      <trkpt lat="43.47494" lon="2.39215">
        <ele>424</ele>
        <time>2018-04-22T12:06:57Z</time>
      </trkpt>
      <trkpt lat="43.4748" lon="2.39198">
        <ele>422</ele>
        <time>2018-04-22T12:07:00Z</time>
      </trkpt>
      <trkpt lat="43.47476" lon="2.39192">
        <ele>421</ele>
        <time>2018-04-22T12:07:01Z</time>
      </trkpt>
      <trkpt lat="43.47472" lon="2.39187">
        <ele>422</ele>
        <time>2018-04-22T12:07:02Z</time>
      </trkpt>
      <trkpt lat="43.47468" lon="2.39182">
        <ele>421</ele>
        <time>2018-04-22T12:07:03Z</time>
      </trkpt>
      <trkpt lat="43.47459" lon="2.39171">
        <ele>420</ele>
        <time>2018-04-22T12:07:05Z</time>
      </trkpt>
      <trkpt lat="43.47456" lon="2.39166">
        <ele>419</ele>
        <time>2018-04-22T12:07:06Z</time>
      </trkpt>
      <trkpt lat="43.47454" lon="2.39162">
        <ele>418</ele>
        <time>2018-04-22T12:07:07Z</time>
      </trkpt>
      <trkpt lat="43.47452" lon="2.39156">
        <ele>418</ele>
        <time>2018-04-22T12:07:08Z</time>
      </trkpt>
      <trkpt lat="43.47451" lon="2.3915">
        <ele>419</ele>
        <time>2018-04-22T12:07:09Z</time>
      </trkpt>
      <trkpt lat="43.47445" lon="2.3914">
        <ele>418</ele>
        <time>2018-04-22T12:07:12Z</time>
      </trkpt>
      <trkpt lat="43.47441" lon="2.39146">
        <ele>418</ele>
        <time>2018-04-22T12:07:14Z</time>
      </trkpt>
      <trkpt lat="43.47441" lon="2.3915">
        <ele>417</ele>
        <time>2018-04-22T12:07:15Z</time>
      </trkpt>
      <trkpt lat="43.47442" lon="2.39155">
        <ele>416</ele>
        <time>2018-04-22T12:07:16Z</time>
      </trkpt>
      <trkpt lat="43.47445" lon="2.39163">
        <ele>417</ele>
        <time>2018-04-22T12:07:18Z</time>
      </trkpt>
      <trkpt lat="43.4745" lon="2.39173">
        <ele>417</ele>
        <time>2018-04-22T12:07:20Z</time>
      </trkpt>
      <trkpt lat="43.47453" lon="2.39178">
        <ele>416</ele>
        <time>2018-04-22T12:07:21Z</time>
      </trkpt>
      <trkpt lat="43.47456" lon="2.39181">
        <ele>415</ele>
        <time>2018-04-22T12:07:22Z</time>
      </trkpt>
      <trkpt lat="43.47459" lon="2.39187">
        <ele>415</ele>
        <time>2018-04-22T12:07:23Z</time>
      </trkpt>
      <trkpt lat="43.47466" lon="2.39198">
        <ele>416</ele>
        <time>2018-04-22T12:07:25Z</time>
      </trkpt>
      <trkpt lat="43.47478" lon="2.39221">
        <ele>415</ele>
        <time>2018-04-22T12:07:29Z</time>
      </trkpt>
      <trkpt lat="43.47482" lon="2.39228">
        <ele>414</ele>
        <time>2018-04-22T12:07:30Z</time>
      </trkpt>
      <trkpt lat="43.47484" lon="2.39234">
        <ele>413</ele>
        <time>2018-04-22T12:07:31Z</time>
      </trkpt>
      <trkpt lat="43.47487" lon="2.39241">
        <ele>413</ele>
        <time>2018-04-22T12:07:32Z</time>
      </trkpt>
      <trkpt lat="43.47492" lon="2.39255">
        <ele>412</ele>
        <time>2018-04-22T12:07:34Z</time>
      </trkpt>
      <trkpt lat="43.47496" lon="2.39272">
        <ele>412</ele>
        <time>2018-04-22T12:07:36Z</time>
      </trkpt>
      <trkpt lat="43.47498" lon="2.39286">
        <ele>411</ele>
        <time>2018-04-22T12:07:38Z</time>
      </trkpt>
      <trkpt lat="43.47498" lon="2.39294">
        <ele>411</ele>
        <time>2018-04-22T12:07:40Z</time>
      </trkpt>
      <trkpt lat="43.47496" lon="2.39297">
        <ele>411</ele>
        <time>2018-04-22T12:07:41Z</time>
      </trkpt>
      <trkpt lat="43.47494" lon="2.39293">
        <ele>409</ele>
        <time>2018-04-22T12:07:42Z</time>
      </trkpt>
      <trkpt lat="43.47494" lon="2.39289">
        <ele>409</ele>
        <time>2018-04-22T12:07:43Z</time>
      </trkpt>
      <trkpt lat="43.47494" lon="2.39284">
        <ele>409</ele>
        <time>2018-04-22T12:07:44Z</time>
      </trkpt>
      <trkpt lat="43.47489" lon="2.39271">
        <ele>408</ele>
        <time>2018-04-22T12:07:46Z</time>
      </trkpt>
      <trkpt lat="43.47486" lon="2.39263">
        <ele>408</ele>
        <time>2018-04-22T12:07:47Z</time>
      </trkpt>
      <trkpt lat="43.47478" lon="2.39247">
        <ele>406</ele>
        <time>2018-04-22T12:07:49Z</time>
      </trkpt>
      <trkpt lat="43.47474" lon="2.39241">
        <ele>405</ele>
        <time>2018-04-22T12:07:50Z</time>
      </trkpt>
      <trkpt lat="43.47466" lon="2.39227">
        <ele>403</ele>
        <time>2018-04-22T12:07:52Z</time>
      </trkpt>
      <trkpt lat="43.47451" lon="2.39206">
        <ele>404</ele>
        <time>2018-04-22T12:07:55Z</time>
      </trkpt>
      <trkpt lat="43.47441" lon="2.39194">
        <ele>402</ele>
        <time>2018-04-22T12:07:57Z</time>
      </trkpt>
      <trkpt lat="43.47436" lon="2.39189">
        <ele>402</ele>
        <time>2018-04-22T12:07:58Z</time>
      </trkpt>
      <trkpt lat="43.47431" lon="2.39185">
        <ele>401</ele>
        <time>2018-04-22T12:07:59Z</time>
      </trkpt>
      <trkpt lat="43.47427" lon="2.39182">
        <ele>400</ele>
        <time>2018-04-22T12:08:00Z</time>
      </trkpt>
      <trkpt lat="43.47418" lon="2.39172">
        <ele>399</ele>
        <time>2018-04-22T12:08:03Z</time>
      </trkpt>
      <trkpt lat="43.47415" lon="2.39174">
        <ele>399</ele>
        <time>2018-04-22T12:08:04Z</time>
      </trkpt>
      <trkpt lat="43.47416" lon="2.39183">
        <ele>398</ele>
        <time>2018-04-22T12:08:06Z</time>
      </trkpt>
      <trkpt lat="43.47422" lon="2.3919">
        <ele>398</ele>
        <time>2018-04-22T12:08:08Z</time>
      </trkpt>
      <trkpt lat="43.47425" lon="2.39195">
        <ele>397</ele>
        <time>2018-04-22T12:08:09Z</time>
      </trkpt>
      <trkpt lat="43.47428" lon="2.39199">
        <ele>396</ele>
        <time>2018-04-22T12:08:10Z</time>
      </trkpt>
      <trkpt lat="43.47439" lon="2.39215">
        <ele>396</ele>
        <time>2018-04-22T12:08:13Z</time>
      </trkpt>
      <trkpt lat="43.47442" lon="2.39222">
        <ele>394</ele>
        <time>2018-04-22T12:08:14Z</time>
      </trkpt>
      <trkpt lat="43.47445" lon="2.3923">
        <ele>393</ele>
        <time>2018-04-22T12:08:15Z</time>
      </trkpt>
      <trkpt lat="43.47451" lon="2.39246">
        <ele>392</ele>
        <time>2018-04-22T12:08:17Z</time>
      </trkpt>
      <trkpt lat="43.47454" lon="2.39254">
        <ele>392</ele>
        <time>2018-04-22T12:08:18Z</time>
      </trkpt>
      <trkpt lat="43.47458" lon="2.39269">
        <ele>390</ele>
        <time>2018-04-22T12:08:20Z</time>
      </trkpt>
      <trkpt lat="43.47461" lon="2.39284">
        <ele>389</ele>
        <time>2018-04-22T12:08:22Z</time>
      </trkpt>
      <trkpt lat="43.47463" lon="2.39299">
        <ele>388</ele>
        <time>2018-04-22T12:08:24Z</time>
      </trkpt>
      <trkpt lat="43.47463" lon="2.39309">
        <ele>388</ele>
        <time>2018-04-22T12:08:26Z</time>
      </trkpt>
      <trkpt lat="43.47462" lon="2.39333">
        <ele>387</ele>
        <time>2018-04-22T12:08:30Z</time>
      </trkpt>
      <trkpt lat="43.47461" lon="2.39342">
        <ele>387</ele>
        <time>2018-04-22T12:08:33Z</time>
      </trkpt>
      <trkpt lat="43.47461" lon="2.39345">
        <ele>386</ele>
        <time>2018-04-22T12:08:40Z</time>
      </trkpt>
      <trkpt lat="43.47461" lon="2.39347">
        <ele>386</ele>
        <time>2018-04-22T12:08:52Z</time>
      </trkpt>
      <trkpt lat="43.47461" lon="2.39346">
        <ele>386</ele>
        <time>2018-04-22T12:09:06Z</time>
      </trkpt>
      <trkpt lat="43.47461" lon="2.39346">
        <ele>387</ele>
        <time>2018-04-22T12:09:25Z</time>
      </trkpt>
      <trkpt lat="43.47461" lon="2.39346">
        <ele>386</ele>
        <time>2018-04-22T12:09:27Z</time>
      </trkpt>
      <trkpt lat="43.47461" lon="2.39346">
        <ele>386</ele>
        <time>2018-04-22T12:09:31Z</time>
      </trkpt>
      <trkpt lat="43.47461" lon="2.39346">
        <ele>387</ele>
        <time>2018-04-22T12:09:38Z</time>
      </trkpt>
      <trkpt lat="43.47461" lon="2.39346">
        <ele>386</ele>
        <time>2018-04-22T12:09:40Z</time>
      </trkpt>
      <trkpt lat="43.47461" lon="2.39346">
        <ele>386</ele>
        <time>2018-04-22T12:09:51Z</time>
      </trkpt>
      <trkpt lat="43.47461" lon="2.39346">
        <ele>387</ele>
        <time>2018-04-22T12:10:08Z</time>
      </trkpt>
      <trkpt lat="43.47461" lon="2.39346">
        <ele>386</ele>
        <time>2018-04-22T12:10:36Z</time>
      </trkpt>
      <trkpt lat="43.47461" lon="2.39346">
        <ele>386</ele>
        <time>2018-04-22T12:10:59Z</time>
      </trkpt>
      <trkpt lat="43.47461" lon="2.39346">
        <ele>386</ele>
        <time>2018-04-22T12:11:04Z</time>
      </trkpt>
      <trkpt lat="43.47461" lon="2.39346">
        <ele>386</ele>
        <time>2018-04-22T12:11:13Z</time>
      </trkpt>
      <trkpt lat="43.47461" lon="2.39346">
        <ele>386</ele>
        <time>2018-04-22T12:11:16Z</time>
      </trkpt>
      <trkpt lat="43.47461" lon="2.39346">
        <ele>386</ele>
        <time>2018-04-22T12:11:28Z</time>
      </trkpt>
      <trkpt lat="43.47461" lon="2.39346">
        <ele>386</ele>
        <time>2018-04-22T12:11:31Z</time>
      </trkpt>
      <trkpt lat="43.47461" lon="2.39346">
        <ele>386</ele>
        <time>2018-04-22T12:11:44Z</time>
      </trkpt>
      <trkpt lat="43.47461" lon="2.39346">
        <ele>386</ele>
        <time>2018-04-22T12:11:46Z</time>
      </trkpt>
      <trkpt lat="43.47461" lon="2.39346">
        <ele>386</ele>
        <time>2018-04-22T12:11:49Z</time>
      </trkpt>
      <trkpt lat="43.47461" lon="2.39346">
        <ele>386</ele>
        <time>2018-04-22T12:12:24Z</time>
      </trkpt>
      <trkpt lat="43.47461" lon="2.39346">
        <ele>386</ele>
        <time>2018-04-22T12:12:35Z</time>
      </trkpt>
      <trkpt lat="43.47461" lon="2.39346">
        <ele>386</ele>
        <time>2018-04-22T12:12:45Z</time>
      </trkpt>
      <trkpt lat="43.47461" lon="2.39346">
        <ele>386</ele>
        <time>2018-04-22T12:13:03Z</time>
      </trkpt>
      <trkpt lat="43.47461" lon="2.39346">
        <ele>386</ele>
        <time>2018-04-22T12:13:11Z</time>
      </trkpt>
      <trkpt lat="43.47461" lon="2.39346">
        <ele>386</ele>
        <time>2018-04-22T12:13:27Z</time>
      </trkpt>
      <trkpt lat="43.47461" lon="2.39345">
        <ele>386</ele>
        <time>2018-04-22T12:14:06Z</time>
      </trkpt>
      <trkpt lat="43.47461" lon="2.39345">
        <ele>385</ele>
        <time>2018-04-22T12:14:11Z</time>
      </trkpt>
      <trkpt lat="43.47461" lon="2.39344">
        <ele>386</ele>
        <time>2018-04-22T12:14:36Z</time>
      </trkpt>
      <trkpt lat="43.47461" lon="2.39344">
        <ele>386</ele>
        <time>2018-04-22T12:14:56Z</time>
      </trkpt>
      <trkpt lat="43.47461" lon="2.39344">
        <ele>386</ele>
        <time>2018-04-22T12:15:08Z</time>
      </trkpt>
      <trkpt lat="43.47461" lon="2.39344">
        <ele>386</ele>
        <time>2018-04-22T12:15:14Z</time>
      </trkpt>
      <trkpt lat="43.47461" lon="2.39349">
        <ele>386</ele>
        <time>2018-04-22T12:15:23Z</time>
      </trkpt>
      <trkpt lat="43.47458" lon="2.39353">
        <ele>386</ele>
        <time>2018-04-22T12:15:26Z</time>
      </trkpt>
      <trkpt lat="43.47454" lon="2.39355">
        <ele>386</ele>
        <time>2018-04-22T12:15:28Z</time>
      </trkpt>
      <trkpt lat="43.47441" lon="2.39368">
        <ele>386</ele>
        <time>2018-04-22T12:15:33Z</time>
      </trkpt>
      <trkpt lat="43.47435" lon="2.39375">
        <ele>386</ele>
        <time>2018-04-22T12:15:35Z</time>
      </trkpt>
      <trkpt lat="43.47421" lon="2.39388">
        <ele>386</ele>
        <time>2018-04-22T12:15:39Z</time>
      </trkpt>
      <trkpt lat="43.47418" lon="2.39392">
        <ele>386</ele>
        <time>2018-04-22T12:15:40Z</time>
      </trkpt>
      <trkpt lat="43.47404" lon="2.39408">
        <ele>386</ele>
        <time>2018-04-22T12:15:44Z</time>
      </trkpt>
      <trkpt lat="43.47397" lon="2.39416">
        <ele>386</ele>
        <time>2018-04-22T12:15:46Z</time>
      </trkpt>
      <trkpt lat="43.47387" lon="2.39429">
        <ele>386</ele>
        <time>2018-04-22T12:15:49Z</time>
      </trkpt>
      <trkpt lat="43.47382" lon="2.39439">
        <ele>387</ele>
        <time>2018-04-22T12:15:51Z</time>
      </trkpt>
      <trkpt lat="43.47377" lon="2.3945">
        <ele>387</ele>
        <time>2018-04-22T12:15:53Z</time>
      </trkpt>
      <trkpt lat="43.47372" lon="2.39462">
        <ele>387</ele>
        <time>2018-04-22T12:15:55Z</time>
      </trkpt>
      <trkpt lat="43.47366" lon="2.3948">
        <ele>387</ele>
        <time>2018-04-22T12:15:58Z</time>
      </trkpt>
      <trkpt lat="43.47358" lon="2.39503">
        <ele>387</ele>
        <time>2018-04-22T12:16:02Z</time>
      </trkpt>
      <trkpt lat="43.4735" lon="2.39525">
        <ele>388</ele>
        <time>2018-04-22T12:16:06Z</time>
      </trkpt>
      <trkpt lat="43.47341" lon="2.39552">
        <ele>388</ele>
        <time>2018-04-22T12:16:11Z</time>
      </trkpt>
      <trkpt lat="43.47331" lon="2.39577">
        <ele>388</ele>
        <time>2018-04-22T12:16:16Z</time>
      </trkpt>
      <trkpt lat="43.47325" lon="2.39586">
        <ele>388</ele>
        <time>2018-04-22T12:16:18Z</time>
      </trkpt>
      <trkpt lat="43.47318" lon="2.39592">
        <ele>388</ele>
        <time>2018-04-22T12:16:20Z</time>
      </trkpt>
      <trkpt lat="43.47304" lon="2.3959">
        <ele>389</ele>
        <time>2018-04-22T12:16:23Z</time>
      </trkpt>
      <trkpt lat="43.47296" lon="2.39586">
        <ele>389</ele>
        <time>2018-04-22T12:16:25Z</time>
      </trkpt>
      <trkpt lat="43.47292" lon="2.39584">
        <ele>389</ele>
        <time>2018-04-22T12:16:26Z</time>
      </trkpt>
      <trkpt lat="43.47287" lon="2.39581">
        <ele>389</ele>
        <time>2018-04-22T12:16:27Z</time>
      </trkpt>
      <trkpt lat="43.47283" lon="2.39578">
        <ele>389</ele>
        <time>2018-04-22T12:16:28Z</time>
      </trkpt>
      <trkpt lat="43.47265" lon="2.39563">
        <ele>390</ele>
        <time>2018-04-22T12:16:33Z</time>
      </trkpt>
      <trkpt lat="43.47263" lon="2.39559">
        <ele>390</ele>
        <time>2018-04-22T12:16:34Z</time>
      </trkpt>
      <trkpt lat="43.4726" lon="2.39554">
        <ele>391</ele>
        <time>2018-04-22T12:16:35Z</time>
      </trkpt>
      <trkpt lat="43.47256" lon="2.39537">
        <ele>391</ele>
        <time>2018-04-22T12:16:38Z</time>
      </trkpt>
      <trkpt lat="43.47247" lon="2.39501">
        <ele>391</ele>
        <time>2018-04-22T12:16:44Z</time>
      </trkpt>
      <trkpt lat="43.47244" lon="2.39492">
        <ele>392</ele>
        <time>2018-04-22T12:16:46Z</time>
      </trkpt>
      <trkpt lat="43.47235" lon="2.39481">
        <ele>393</ele>
        <time>2018-04-22T12:16:49Z</time>
      </trkpt>
      <trkpt lat="43.47232" lon="2.39479">
        <ele>393</ele>
        <time>2018-04-22T12:16:50Z</time>
      </trkpt>
      <trkpt lat="43.47214" lon="2.39472">
        <ele>394</ele>
        <time>2018-04-22T12:16:55Z</time>
      </trkpt>
      <trkpt lat="43.47193" lon="2.39459">
        <ele>395</ele>
        <time>2018-04-22T12:17:01Z</time>
      </trkpt>
      <trkpt lat="43.47187" lon="2.39454">
        <ele>395</ele>
        <time>2018-04-22T12:17:03Z</time>
      </trkpt>
      <trkpt lat="43.47172" lon="2.3944">
        <ele>396</ele>
        <time>2018-04-22T12:17:08Z</time>
      </trkpt>
      <trkpt lat="43.47169" lon="2.39437">
        <ele>396</ele>
        <time>2018-04-22T12:17:09Z</time>
      </trkpt>
      <trkpt lat="43.47157" lon="2.39428">
        <ele>397</ele>
        <time>2018-04-22T12:17:13Z</time>
      </trkpt>
      <trkpt lat="43.47154" lon="2.39427">
        <ele>397</ele>
        <time>2018-04-22T12:17:14Z</time>
      </trkpt>
      <trkpt lat="43.47139" lon="2.39416">
        <ele>398</ele>
        <time>2018-04-22T12:17:19Z</time>
      </trkpt>
      <trkpt lat="43.4713" lon="2.39409">
        <ele>399</ele>
        <time>2018-04-22T12:17:22Z</time>
      </trkpt>
      <trkpt lat="43.47127" lon="2.39407">
        <ele>399</ele>
        <time>2018-04-22T12:17:23Z</time>
      </trkpt>
      <trkpt lat="43.47116" lon="2.39398">
        <ele>400</ele>
        <time>2018-04-22T12:17:27Z</time>
      </trkpt>
      <trkpt lat="43.47113" lon="2.39395">
        <ele>400</ele>
        <time>2018-04-22T12:17:28Z</time>
      </trkpt>
      <trkpt lat="43.47103" lon="2.39374">
        <ele>401</ele>
        <time>2018-04-22T12:17:33Z</time>
      </trkpt>
      <trkpt lat="43.47101" lon="2.3937">
        <ele>402</ele>
        <time>2018-04-22T12:17:34Z</time>
      </trkpt>
      <trkpt lat="43.47091" lon="2.39348">
        <ele>402</ele>
        <time>2018-04-22T12:17:40Z</time>
      </trkpt>
      <trkpt lat="43.47088" lon="2.39345">
        <ele>403</ele>
        <time>2018-04-22T12:17:41Z</time>
      </trkpt>
      <trkpt lat="43.47079" lon="2.39328">
        <ele>404</ele>
        <time>2018-04-22T12:17:46Z</time>
      </trkpt>
      <trkpt lat="43.47074" lon="2.39321">
        <ele>404</ele>
        <time>2018-04-22T12:17:48Z</time>
      </trkpt>
      <trkpt lat="43.47071" lon="2.39314">
        <ele>405</ele>
        <time>2018-04-22T12:17:50Z</time>
      </trkpt>
      <trkpt lat="43.47066" lon="2.393">
        <ele>406</ele>
        <time>2018-04-22T12:17:53Z</time>
      </trkpt>
      <trkpt lat="43.47065" lon="2.39295">
        <ele>406</ele>
        <time>2018-04-22T12:17:54Z</time>
      </trkpt>
      <trkpt lat="43.4706" lon="2.39281">
        <ele>406</ele>
        <time>2018-04-22T12:17:57Z</time>
      </trkpt>
      <trkpt lat="43.47056" lon="2.39269">
        <ele>406</ele>
        <time>2018-04-22T12:18:00Z</time>
      </trkpt>
      <trkpt lat="43.47054" lon="2.39264">
        <ele>407</ele>
        <time>2018-04-22T12:18:01Z</time>
      </trkpt>
      <trkpt lat="43.4705" lon="2.39256">
        <ele>407</ele>
        <time>2018-04-22T12:18:03Z</time>
      </trkpt>
      <trkpt lat="43.47042" lon="2.39244">
        <ele>407</ele>
        <time>2018-04-22T12:18:06Z</time>
      </trkpt>
      <trkpt lat="43.47025" lon="2.39231">
        <ele>408</ele>
        <time>2018-04-22T12:18:11Z</time>
      </trkpt>
      <trkpt lat="43.47022" lon="2.39228">
        <ele>408</ele>
        <time>2018-04-22T12:18:12Z</time>
      </trkpt>
      <trkpt lat="43.47001" lon="2.39215">
        <ele>409</ele>
        <time>2018-04-22T12:18:18Z</time>
      </trkpt>
      <trkpt lat="43.46984" lon="2.39204">
        <ele>409</ele>
        <time>2018-04-22T12:18:23Z</time>
      </trkpt>
      <trkpt lat="43.4697" lon="2.39194">
        <ele>410</ele>
        <time>2018-04-22T12:18:27Z</time>
      </trkpt>
      <trkpt lat="43.46959" lon="2.39186">
        <ele>411</ele>
        <time>2018-04-22T12:18:30Z</time>
      </trkpt>
      <trkpt lat="43.46941" lon="2.39174">
        <ele>411</ele>
        <time>2018-04-22T12:18:35Z</time>
      </trkpt>
      <trkpt lat="43.46925" lon="2.39155">
        <ele>412</ele>
        <time>2018-04-22T12:18:40Z</time>
      </trkpt>
      <trkpt lat="43.4691" lon="2.39146">
        <ele>412</ele>
        <time>2018-04-22T12:18:44Z</time>
      </trkpt>
      <trkpt lat="43.46904" lon="2.39143">
        <ele>412</ele>
        <time>2018-04-22T12:18:46Z</time>
      </trkpt>
      <trkpt lat="43.46887" lon="2.39148">
        <ele>413</ele>
        <time>2018-04-22T12:18:51Z</time>
      </trkpt>
      <trkpt lat="43.46884" lon="2.3915">
        <ele>413</ele>
        <time>2018-04-22T12:18:52Z</time>
      </trkpt>
      <trkpt lat="43.46873" lon="2.3916">
        <ele>414</ele>
        <time>2018-04-22T12:18:57Z</time>
      </trkpt>
      <trkpt lat="43.46866" lon="2.39166">
        <ele>414</ele>
        <time>2018-04-22T12:19:02Z</time>
      </trkpt>
      <trkpt lat="43.46865" lon="2.39166">
        <ele>414</ele>
        <time>2018-04-22T12:19:03Z</time>
      </trkpt>
      <trkpt lat="43.46865" lon="2.39166">
        <ele>414</ele>
        <time>2018-04-22T12:19:04Z</time>
      </trkpt>
      <trkpt lat="43.46864" lon="2.39168">
        <ele>414</ele>
        <time>2018-04-22T12:19:10Z</time>
      </trkpt>
      <trkpt lat="43.46864" lon="2.39168">
        <ele>414</ele>
        <time>2018-04-22T12:19:22Z</time>
      </trkpt>
      <trkpt lat="43.46864" lon="2.39168">
        <ele>414</ele>
        <time>2018-04-22T12:19:23Z</time>
      </trkpt>
      <trkpt lat="43.46864" lon="2.39168">
        <ele>414</ele>
        <time>2018-04-22T12:19:24Z</time>
      </trkpt>
      <trkpt lat="43.46864" lon="2.39168">
        <ele>414</ele>
        <time>2018-04-22T12:19:26Z</time>
      </trkpt>
      <trkpt lat="43.46865" lon="2.39169">
        <ele>413</ele>
        <time>2018-04-22T12:19:35Z</time>
      </trkpt>
      <trkpt lat="43.46865" lon="2.39169">
        <ele>414</ele>
        <time>2018-04-22T12:19:38Z</time>
      </trkpt>
      <trkpt lat="43.46865" lon="2.39171">
        <ele>414</ele>
        <time>2018-04-22T12:19:53Z</time>
      </trkpt>
      <trkpt lat="43.46865" lon="2.39171">
        <ele>413</ele>
        <time>2018-04-22T12:19:56Z</time>
      </trkpt>
      <trkpt lat="43.46865" lon="2.39172">
        <ele>413</ele>
        <time>2018-04-22T12:20:05Z</time>
      </trkpt>
      <trkpt lat="43.46865" lon="2.39172">
        <ele>414</ele>
        <time>2018-04-22T12:20:07Z</time>
      </trkpt>
    </trkseg>
  </trk>
</gpx>